# Wetter Temperatur Luftdruck Luftfeuchtigkeit Sichtweite Windgeschwindigkeit Windrichtung Zeit
1 Clear 12 1010 50 10000 5.1 260 21:57 28.01.2020
2 Clear 12 1010 50 10000 5.1 260 21:38 28.01.2020
3 Clear 12 1010 58 10000 5.1 270 21:19 28.01.2020
4 Clear 12 1010 54 10000 7.2 260 20:45 28.01.2020
5 Clouds 12 1010 54 10000 7.2 250 20:26 28.01.2020
6 Clouds 12 1009 58 10000 6.2 250 19:55 28.01.2020
7 Clouds 13 1009 58 10000 6.2 250 19:37 28.01.2020
8 Clouds 12 1009 58 10000 8.2 230 19:19 28.01.2020
9 Clouds 13 1009 58 10000 9.3 250 18:42 28.01.2020
10 Clouds 13 1009 54 10000 9.8 240 18:23 28.01.2020
11 Clouds 13 1008 54 10000 10.3 240 17:59 28.01.2020
12 Clouds 12 1008 54 10000 10.3 240 17:40 28.01.2020
13 Clouds 13 1008 54 10000 10.8 240 17:21 28.01.2020
14 Clouds 13 1009 54 10000 9.8 240 16:59 28.01.2020
15 Clouds 13 1009 54 10000 9.8 240 16:40 28.01.2020
16 Clouds 14 1009 51 10000 11.3 250 16:22 28.01.2020
17 Clouds 13 1008 41 10000 10.8 260 15:48 28.01.2020
18 Clouds 14 1008 44 10000 8.7 240 15:20 28.01.2020
19 Clouds 15 1009 48 10000 9.3 240 14:59 28.01.2020
20 Clouds 15 1009 48 10000 9.3 240 14:41 28.01.2020
21 Clouds 15 1009 45 10000 8.7 260 14:19 28.01.2020
22 Clouds 16 1009 39 10000 9.3 260 13:42 28.01.2020
23 Clouds 15 1010 48 10000 11.3 250 13:24 28.01.2020
24 Clouds 15 1010 51 10000 10.3 260 12:45 28.01.2020
25 Clouds 15 1010 51 10000 10.8 250 12:25 28.01.2020
26 Clouds 15 1011 55 10000 11.3 250 11:59 28.01.2020
27 Clouds 15 1011 55 10000 11.3 250 11:41 28.01.2020
28 Clouds 12 1012 58 10000 11.3 250 11:21 28.01.2020
29 Clouds 11 1012 71 10000 10.3 230 10:44 28.01.2020
30 Clouds 13 1012 71 10000 5.1 260 10:26 28.01.2020
31 Clouds 13 1012 71 10000 4.1 310 09:59 28.01.2020
32 Clouds 12 1012 71 10000 4.1 310 09:41 28.01.2020
33 Clouds 10 1012 87 10000 4.6 330 09:20 28.01.2020
34 Clouds 10 1012 87 10000 4.6 330 09:20 28.01.2020
35 Clouds 8 1012 87 10000 3.6 320 08:44 28.01.2020
36 Clouds 8 1011 87 10000 3.1 310 08:25 28.01.2020
37 Clouds 7 1011 81 10000 4.1 320 07:53 28.01.2020
38 Clouds 7 1011 81 10000 4.1 320 07:31 28.01.2020
39 Clouds 6 1011 81 10000 4.1 310 06:47 28.01.2020
40 Clouds 6 1011 81 10000 3.6 300 06:24 28.01.2020
41 Clouds 6 1012 87 10000 3.6 310 05:40 28.01.2020
42 Clouds 6 1012 87 10000 3.6 270 05:21 28.01.2020
43 Clouds 6 1013 81 10000 4.1 320 03:49 28.01.2020
44 Clouds 6 1014 87 10000 3.1 290 02:46 28.01.2020
45 Clouds 9 1014 81 10000 2.6 320 02:25 28.01.2020
46 Clouds 9 1014 87 10000 3.6 340 01:55 28.01.2020
47 Clouds 9 1015 87 10000 3.6 330 01:22 28.01.2020
48 Rain 7 1016 87 7000 2.1 250 00:45 28.01.2020
49 Rain 8 1016 81 10000 3.6 320 00:22 28.01.2020
50 Rain 9 1016 76 10000 3.1 320 23:44 27.01.2020
51 Clouds 10 1016 76 10000 3.6 320 23:20 27.01.2020
52 Clouds 10 1016 76 10000 2.6 290 22:45 27.01.2020
53 Clouds 10 1017 76 10000 3.1 270 22:20 27.01.2020
54 Clouds 10 1017 76 10000 3.1 270 22:20 27.01.2020
55 Clouds 10 1017 76 10000 3.1 270 22:20 27.01.2020
56 Clouds 8 1017 76 10000 2.1 280 21:58 27.01.2020
57 Clouds 8 1017 76 10000 2.1 280 21:39 27.01.2020
58 Clouds 8 1017 76 10000 3.6 270 21:19 27.01.2020
59 Clouds 8 1017 76 10000 3.6 270 21:19 27.01.2020
60 Clouds 8 1017 76 10000 4.6 250 20:57 27.01.2020
61 Clouds 9 1017 66 10000 4.6 250 20:38 27.01.2020
62 Clouds 10 1017 66 10000 4.6 250 20:20 27.01.2020
63 Clouds 10 1017 66 10000 5.1 250 19:57 27.01.2020
64 Clouds 11 1017 66 10000 5.1 250 19:38 27.01.2020
65 Clouds 11 1017 66 10000 5.7 260 19:20 27.01.2020
66 Clouds 12 1017 71 10000 7.7 230 18:40 27.01.2020
67 Clouds 10 1017 67 10000 8.7 220 18:21 27.01.2020
68 Clouds 10 1017 62 10000 7.7 230 17:58 27.01.2020
69 Clouds 12 1017 62 10000 7.7 230 17:38 27.01.2020
70 Clouds 12 1017 62 10000 3.1 250 17:19 27.01.2020
71 Clouds 12 1017 58 10000 4.1 240 16:56 27.01.2020
72 Clouds 12 1017 58 10000 4.1 240 16:37 27.01.2020
73 Clouds 12 1017 58 10000 5.7 230 16:19 27.01.2020
74 Clouds 13 1017 67 10000 3.6 210 15:41 27.01.2020
75 Clouds 13 1018 67 10000 3.1 200 15:20 27.01.2020
76 Clouds 13 1018 66 10000 4.6 200 14:59 27.01.2020
77 Clouds 13 1018 66 10000 4.6 200 14:40 27.01.2020
78 Clouds 12 1018 71 10000 3.1 200 14:21 27.01.2020
79 Clouds 12 1018 76 10000 3.6 200 13:54 27.01.2020
80 Clouds 12 1018 76 10000 3.6 200 13:36 27.01.2020
81 Clouds 12 1019 66 10000 2.6 210 13:18 27.01.2020
82 Clouds 12 1019 66 10000 1 0 12:41 27.01.2020
83 Clouds 12 1020 54 10000 3.1 320 12:22 27.01.2020
84 Clouds 12 1020 54 10000 4.1 320 11:43 27.01.2020
85 Clouds 9 1020 57 10000 4.6 320 11:23 27.01.2020
86 Clouds 8 1019 61 10000 5.1 320 10:57 27.01.2020
87 Clouds 8 1019 61 10000 5.1 320 10:57 27.01.2020
88 Clouds 8 1019 61 10000 5.1 320 10:57 27.01.2020
89 Clouds 8 1019 61 10000 5.1 320 10:39 27.01.2020
90 Clouds 9 1019 66 10000 6.2 330 10:20 27.01.2020
91 Clouds 8 1019 65 10000 5.1 330 09:40 27.01.2020
92 Clouds 7 1020 70 10000 4.6 330 09:19 27.01.2020
93 Clouds 6 1019 70 10000 5.7 330 08:58 27.01.2020
94 Clouds 5 1019 70 10000 5.7 330 08:40 27.01.2020
95 Clouds 4 1019 70 10000 5.1 330 08:19 27.01.2020
96 Clouds 5 1019 70 10000 5.7 330 07:50 27.01.2020
97 Clouds 4 1019 70 10000 5.1 330 07:32 27.01.2020
98 Clear 4 1018 75 10000 5.1 320 06:39 27.01.2020
99 Clear 5 1019 75 10000 4.6 320 05:53 27.01.2020
100 Clear 5 1018 70 10000 4.6 320 05:18 27.01.2020
101 Clear 7 1018 75 10000 4.1 310 03:36 27.01.2020
102 Clouds 8 1019 76 10000 4.1 340 01:57 27.01.2020
103 Clouds 6 1019 87 10000 3.6 340 01:28 27.01.2020
104 Clouds 7 1019 87 10000 3.6 340 01:28 27.01.2020
105 Clouds 5 1019 87 10000 4.6 320 00:42 27.01.2020
106 Clouds 5 1019 87 10000 2.6 300 00:22 27.01.2020
107 Clouds 5 1019 87 10000 2.6 300 00:22 27.01.2020
108 Clouds 5 1019 87 10000 2.6 270 23:58 26.01.2020
109 Clouds 6 1019 87 10000 3.1 310 23:39 26.01.2020
110 Clouds 7 1019 87 10000 3.1 310 23:18 26.01.2020
111 Clouds 8 1019 87 10000 3.6 320 22:39 26.01.2020
112 Clouds 8 1020 87 10000 2.6 320 22:20 26.01.2020
113 Clouds 8 1020 87 10000 3.1 320 21:59 26.01.2020
114 Clouds 8 1020 87 10000 3.1 320 21:40 26.01.2020
115 -273 0 0 0 0 0 21:22 26.01.2020
116 Clouds 9 1019 81 10000 1.5 310 20:58 26.01.2020
117 Clouds 9 1019 81 10000 1.5 310 20:40 26.01.2020
118 Clouds 9 1019 81 10000 1.5 300 20:20 26.01.2020
119 Clouds 9 1019 76 10000 1.5 330 19:59 26.01.2020
120 Clouds 10 1019 76 10000 1.5 330 19:39 26.01.2020
121 Clouds 11 1019 76 10000 1 0 19:21 26.01.2020
122 Clouds 10 1019 76 10000 2.1 240 18:59 26.01.2020
123 Clouds 10 1019 76 10000 2.1 240 18:39 26.01.2020
124 Clouds 11 1019 71 10000 3.1 220 18:21 26.01.2020
125 Clouds 11 1019 71 10000 3.1 220 18:21 26.01.2020
126 Clouds 11 1019 76 10000 5.7 220 17:57 26.01.2020
127 Clouds 11 1019 76 10000 5.7 220 17:38 26.01.2020
128 Clouds 12 1019 76 10000 4.6 220 17:18 26.01.2020
129 Clouds 12 1019 76 10000 4.6 220 17:18 26.01.2020
130 Clouds 12 1019 76 10000 5.1 210 16:57 26.01.2020
131 Clouds 12 1019 76 10000 5.1 210 16:39 26.01.2020
132 Clouds 12 1019 67 10000 5.1 200 16:20 26.01.2020
133 Clouds 12 1019 67 10000 5.1 200 16:20 26.01.2020
134 Clouds 13 1019 71 10000 5.7 200 15:45 26.01.2020
135 Clouds 13 1020 71 10000 5.1 190 15:22 26.01.2020
136 Clouds 13 1020 71 10000 5.1 190 14:58 26.01.2020
137 Clouds 12 1020 71 10000 5.1 190 14:39 26.01.2020
138 Clouds 12 1020 71 10000 3.6 190 14:19 26.01.2020
139 Clouds 12 1020 71 10000 3.6 190 13:42 26.01.2020
140 Clouds 13 1020 71 10000 2.1 180 13:20 26.01.2020
141 Clouds 13 1021 67 10000 2.1 160 12:57 26.01.2020
142 Clouds 13 1021 62 10000 1 0 12:38 26.01.2020
143 Clouds 13 1021 62 10000 1 0 12:20 26.01.2020
144 Clouds 13 1021 67 10000 1 0 11:57 26.01.2020
145 Clouds 12 1021 66 10000 1.5 0 11:37 26.01.2020
146 Clouds 11 1021 66 10000 2.6 330 11:18 26.01.2020
147 Clouds 11 1021 66 10000 2.6 330 10:57 26.01.2020
148 Clouds 11 1021 66 10000 2.6 330 10:38 26.01.2020
149 Clouds 10 1021 71 10000 3.6 320 10:19 26.01.2020
150 Clouds 9 1021 76 10000 3.1 330 09:56 26.01.2020
151 Clouds 9 1021 76 10000 3.1 330 09:38 26.01.2020
152 Clouds 9 1021 81 10000 3.6 320 09:19 26.01.2020
153 Clouds 8 1021 93 10000 2.1 10 08:42 26.01.2020
154 Clouds 7 1020 81 10000 3.1 330 08:22 26.01.2020
155 Clouds 7 1020 76 10000 2.6 330 07:54 26.01.2020
156 Clouds 7 1020 76 10000 2.6 330 07:36 26.01.2020
157 Clouds 7 1020 81 10000 2.6 340 07:18 26.01.2020
158 Clouds 7 1020 81 10000 3.6 340 06:26 26.01.2020
159 Clouds 7 1020 81 10000 4.1 330 05:29 26.01.2020
160 Clouds 7 1020 81 10000 4.1 330 04:43 26.01.2020
161 Clouds 8 1021 87 10000 3.1 320 02:38 26.01.2020
162 Clouds 7 1021 93 10000 4.1 320 01:46 26.01.2020
163 Clouds 8 1021 87 10000 3.6 320 01:23 26.01.2020
164 Clouds 7 1022 87 10000 4.1 320 00:44 26.01.2020
165 Clouds 7 1022 87 10000 2.1 320 00:26 26.01.2020
166 Clouds 7 1022 81 10000 2.6 320 23:40 25.01.2020
167 Clouds 8 1022 81 10000 2.6 320 23:21 25.01.2020
168 Clouds 9 1022 76 10000 2.1 320 22:56 25.01.2020
169 Clouds 9 1022 76 10000 2.1 320 22:56 25.01.2020
170 Clouds 9 1022 76 10000 2.1 320 22:37 25.01.2020
171 Clouds 8 1022 76 10000 1.5 320 22:18 25.01.2020
172 Clouds 9 1022 76 10000 1.5 320 21:55 25.01.2020
173 Clouds 8 1022 76 10000 1 0 21:37 25.01.2020
174 Clouds 12 1023 68 0 1.25 183 21:19 25.01.2020
175 Clouds 8 1022 76 10000 1.5 340 20:43 25.01.2020
176 Clouds 8 1022 76 10000 2.1 300 20:24 25.01.2020
177 Clouds 12 1022 70 0 3.03 162 19:54 25.01.2020
178 Clouds 9 1022 71 10000 2.6 240 19:36 25.01.2020
179 Clouds 9 1021 72 0 3.03 162 19:18 25.01.2020
180 Clouds 10 1021 71 10000 3.6 230 18:41 25.01.2020
181 Clouds 11 1021 71 10000 3.6 230 18:21 25.01.2020
182 Clouds 11 1021 81 10000 2.1 190 17:57 25.01.2020
183 Clouds 10 1021 81 10000 2.1 190 17:37 25.01.2020
184 Clouds 10 1021 81 10000 2.1 190 17:37 25.01.2020
185 Clouds 10 1021 71 10000 5.7 210 17:18 25.01.2020
186 Clouds 10 1022 71 10000 5.7 210 16:42 25.01.2020
187 Clouds 10 1022 71 10000 5.7 210 16:42 25.01.2020
188 Clouds 12 1022 67 10000 5.7 210 16:23 25.01.2020
189 Clouds 12 1022 67 10000 5.7 210 15:57 25.01.2020
190 Clouds 11 1022 71 10000 6.2 210 15:39 25.01.2020
191 Clouds 12 1022 71 10000 6.2 210 15:20 25.01.2020
192 Clouds 12 1022 67 10000 6.2 220 14:42 25.01.2020
193 Clouds 12 1022 71 10000 6.7 220 14:19 25.01.2020
194 Clouds 12 1023 71 10000 6.2 220 13:45 25.01.2020
195 Clouds 12 1023 71 10000 6.2 220 13:27 25.01.2020
196 Clouds 13 1023 67 10000 5.7 210 12:58 25.01.2020
197 Clouds 13 1023 67 10000 5.7 210 12:38 25.01.2020
198 Clouds 13 1023 67 10000 5.7 210 12:19 25.01.2020
199 Clouds 13 1023 71 10000 5.7 220 11:40 25.01.2020
200 Clouds 11 1023 76 10000 4.6 250 11:20 25.01.2020
201 Clouds 10 1023 76 10000 3.6 320 10:56 25.01.2020
202 Clouds 10 1023 76 10000 3.6 320 10:38 25.01.2020
203 Clouds 8 1023 71 10000 5.7 320 10:18 25.01.2020
204 Clouds 10 1023 71 10000 4.1 330 09:40 25.01.2020
205 Clouds 10 1022 76 10000 4.1 330 09:19 25.01.2020
206 Clouds 9 1022 76 10000 4.6 330 08:43 25.01.2020
207 Clouds 9 1021 76 10000 4.6 320 07:58 25.01.2020
208 Clouds 9 1021 76 10000 4.6 320 07:36 25.01.2020
209 Clouds 8 1021 81 10000 5.1 320 06:41 25.01.2020
210 Clouds 9 1021 81 10000 3.6 330 06:22 25.01.2020
211 Clouds 9 1021 81 10000 4.1 330 05:43 25.01.2020
212 Clouds 9 1021 81 10000 4.6 320 04:24 25.01.2020
213 Clouds 9 1021 81 10000 4.1 330 03:50 25.01.2020
214 Clouds 9 1021 87 10000 3.6 330 02:40 25.01.2020
215 Clouds 9 1022 87 10000 4.1 330 01:58 25.01.2020
216 Clouds 9 1022 87 10000 4.1 330 01:34 25.01.2020
217 Clouds 9 1022 87 10000 3.6 330 00:41 25.01.2020
218 Rain 9 1022 87 10000 3.6 330 00:23 25.01.2020
219 Rain 9 1022 87 10000 3.1 340 23:42 24.01.2020
220 Rain 10 1022 87 9000 3.1 320 23:24 24.01.2020
221 Rain 10 1022 81 9000 3.6 30 22:56 24.01.2020
222 Rain 10 1022 81 9000 3.6 30 22:37 24.01.2020
223 Rain 9 1022 87 9000 1.5 20 22:19 24.01.2020
224 Rain 10 1022 87 9000 2.1 330 21:41 24.01.2020
225 Rain 10 1022 81 10000 1.5 0 21:20 24.01.2020
226 Rain 11 1021 81 10000 3.1 330 20:55 24.01.2020
227 Rain 10 1021 81 10000 3.1 330 20:37 24.01.2020
228 Rain 11 1022 81 10000 3.6 350 20:18 24.01.2020
229 Clouds 11 1021 71 10000 3.1 340 19:55 24.01.2020
230 Clouds 11 1021 71 10000 3.1 340 19:37 24.01.2020
231 Clouds 11 1021 62 10000 3.6 60 19:19 24.01.2020
232 Clouds 11 1021 62 10000 3.6 60 19:19 24.01.2020
233 Clouds 9 1021 71 10000 7.2 90 18:42 24.01.2020
234 Clouds 9 1021 71 10000 7.7 90 18:22 24.01.2020
235 Clouds 9 1021 71 10000 7.7 90 18:22 24.01.2020
236 Clouds 8 1021 76 10000 8.7 90 17:45 24.01.2020
237 Clouds 11 1021 76 10000 8.2 80 17:23 24.01.2020
238 Clouds 11 1021 76 10000 8.7 80 16:58 24.01.2020
239 Clouds 11 1021 76 10000 8.7 80 16:39 24.01.2020
240 Clouds 11 1021 76 10000 7.7 80 16:19 24.01.2020
241 Clouds 11 1022 82 10000 9.8 70 15:42 24.01.2020
242 Clouds 11 1022 82 10000 9.8 80 15:22 24.01.2020
243 Rain 11 1023 82 10000 9.3 80 14:56 24.01.2020
244 Rain 12 1023 82 10000 9.3 80 14:37 24.01.2020
245 Rain 12 1023 82 10000 9.8 90 14:19 24.01.2020
246 Clouds 13 1023 71 10000 9.8 90 13:42 24.01.2020
247 Clouds 13 1023 71 10000 8.7 90 13:22 24.01.2020
248 Clouds 13 1024 67 10000 6.7 70 12:44 24.01.2020
249 Clouds 13 1024 67 10000 6.7 70 12:44 24.01.2020
250 Clouds 13 1024 58 10000 7.2 80 12:21 24.01.2020
251 Clouds 13 1024 58 10000 6.2 80 11:45 24.01.2020
252 Clouds 12 1024 62 10000 4.1 330 11:20 24.01.2020
253 Clouds 12 1024 62 10000 4.1 330 11:19 24.01.2020
254 Clouds 12 1024 62 10000 4.6 320 10:59 24.01.2020
255 Clouds 11 1024 62 10000 4.6 320 10:41 24.01.2020
256 Clouds 11 1024 62 10000 4.6 320 10:41 24.01.2020
257 Clouds 11 1024 62 10000 5.1 330 10:19 24.01.2020
258 Clouds 11 1024 66 10000 4.6 330 09:42 24.01.2020
259 Clouds 11 1024 66 10000 4.6 330 09:42 24.01.2020
260 Clouds 10 1024 66 10000 5.1 330 09:24 24.01.2020
261 Clouds 10 1024 66 10000 5.1 330 08:59 24.01.2020
262 Clouds 9 1024 66 10000 5.1 330 08:38 24.01.2020
263 Clouds 7 1024 66 10000 4.6 330 08:18 24.01.2020
264 Clouds 7 1024 66 10000 4.1 330 07:43 24.01.2020
265 Clouds 7 1024 66 10000 4.1 320 07:22 24.01.2020
266 Clouds 7 1024 66 10000 5.1 330 06:43 24.01.2020
267 Clouds 7 1024 66 10000 4.1 330 06:23 24.01.2020
268 Clouds 7 1024 71 10000 5.7 330 05:22 24.01.2020
269 Clouds 8 1025 71 10000 5.7 330 03:34 24.01.2020
270 Clouds 9 1025 71 10000 4.6 330 02:40 24.01.2020
271 Clouds 8 1026 71 10000 4.6 320 02:20 24.01.2020
272 Clouds 9 1026 71 10000 3.6 330 01:38 24.01.2020
273 Clouds 8 1026 71 10000 4.1 320 00:42 24.01.2020
274 Clouds 8 1026 71 10000 4.1 340 00:19 24.01.2020
275 Clouds 8 1027 71 10000 4.1 320 23:42 23.01.2020
276 Clouds 8 1027 71 10000 4.1 320 23:22 23.01.2020
277 Clear 7 1026 71 10000 4.1 330 22:58 23.01.2020
278 Clear 8 1026 71 10000 4.1 330 22:37 23.01.2020
279 Clear 7 1027 71 10000 3.6 330 22:18 23.01.2020
280 Clear 8 1027 71 10000 4.1 310 21:55 23.01.2020
281 Clear 8 1027 71 10000 4.1 310 21:37 23.01.2020
282 Clear 8 1027 71 10000 4.6 320 21:19 23.01.2020
283 Clear 8 1027 66 10000 3.6 330 20:55 23.01.2020
284 Clear 10 1027 66 10000 3.6 330 20:37 23.01.2020
285 Clouds 10 1027 62 10000 2.1 0 20:18 23.01.2020
286 Clouds 11 1026 71 10000 5.1 80 19:42 23.01.2020
287 Clouds 11 1026 71 10000 7.2 90 19:23 23.01.2020
288 Clouds 11 1026 71 10000 5.7 80 18:58 23.01.2020
289 Clouds 11 1026 71 10000 5.7 80 18:39 23.01.2020
290 Clouds 11 1026 76 10000 6.2 70 18:20 23.01.2020
291 Clouds 10 1026 71 10000 7.2 80 17:56 23.01.2020
292 Clouds 10 1026 71 10000 7.2 80 17:37 23.01.2020
293 Clouds 12 1026 71 10000 7.2 90 17:18 23.01.2020
294 Clouds 13 1026 71 10000 8.7 90 16:39 23.01.2020
295 Clouds 13 1026 67 10000 9.8 90 16:20 23.01.2020
296 Clouds 13 1026 67 10000 10.8 90 15:58 23.01.2020
297 Clouds 13 1026 67 10000 10.8 90 15:40 23.01.2020
298 Clouds 14 1026 67 10000 10.8 90 15:19 23.01.2020
299 Clouds 14 1026 67 10000 11.3 100 14:59 23.01.2020
300 Clouds 13 1026 67 10000 11.3 100 14:41 23.01.2020
301 Clouds 14 1026 72 10000 9.8 90 14:23 23.01.2020
302 Clouds 14 1026 72 10000 11.3 80 13:59 23.01.2020
303 Clouds 14 1026 72 10000 11.3 80 13:37 23.01.2020
304 Clouds 13 1027 72 10000 11.3 80 13:19 23.01.2020
305 Clouds 13 1027 72 10000 12.3 80 12:44 23.01.2020
306 Clouds 13 1028 72 10000 11.3 90 12:24 23.01.2020
307 Clouds 13 1028 72 10000 12.3 90 11:56 23.01.2020
308 Clouds 13 1028 72 10000 12.3 90 11:37 23.01.2020
309 Clouds 13 1028 72 10000 12.3 90 11:37 23.01.2020
310 Clouds 12 1027 72 10000 12.3 90 11:18 23.01.2020
311 Clouds 12 1027 67 10000 11.3 80 10:44 23.01.2020
312 Clouds 12 1027 71 10000 8.2 70 10:22 23.01.2020
313 Clouds 10 1027 57 10000 5.1 320 09:43 23.01.2020
314 Clouds 9 1027 61 10000 5.1 330 09:25 23.01.2020
315 Clouds 9 1027 61 10000 5.7 330 08:59 23.01.2020
316 Clouds 8 1027 61 10000 5.7 330 08:40 23.01.2020
317 Clouds 7 1027 61 10000 6.2 320 08:22 23.01.2020
318 Clouds 7 1027 61 10000 5.7 320 07:45 23.01.2020
319 Clouds 7 1027 61 10000 5.7 320 07:26 23.01.2020
320 Clouds 6 1027 61 10000 5.7 320 06:52 23.01.2020
321 Clouds 6 1027 61 10000 5.7 320 06:22 23.01.2020
322 Clouds 6 1027 61 10000 5.7 330 05:57 23.01.2020
323 Clouds 8 1027 61 10000 6.2 320 04:24 23.01.2020
324 Clouds 8 1026 57 10000 5.7 330 02:34 23.01.2020
325 Clouds 9 1027 61 10000 5.1 320 01:41 23.01.2020
326 Clouds 8 1027 61 10000 4.6 320 00:28 23.01.2020
327 Clouds 8 1027 57 10000 5.1 320 23:48 22.01.2020
328 Clouds 9 1027 57 10000 3.6 330 23:30 22.01.2020
329 Clouds 8 1027 57 10000 4.1 330 22:59 22.01.2020
330 Clouds 8 1027 57 10000 4.1 330 22:41 22.01.2020
331 Clouds 8 1027 57 10000 4.1 330 22:41 22.01.2020
332 Clouds 8 1027 57 10000 3.6 330 22:22 22.01.2020
333 Clouds 9 1027 57 10000 3.6 330 21:40 22.01.2020
334 Clouds 9 1027 61 10000 3.1 330 21:22 22.01.2020
335 Clouds 9 1028 61 10000 3.6 330 20:58 22.01.2020
336 Clouds 9 1028 61 10000 3.6 330 20:39 22.01.2020
337 Clouds 9 1028 61 10000 4.1 330 20:21 22.01.2020
338 Clouds 9 1028 61 10000 3.6 330 19:57 22.01.2020
339 Clouds 10 1028 61 10000 3.6 330 19:39 22.01.2020
340 Clouds 10 1028 54 10000 3.6 40 19:19 22.01.2020
341 Clouds 11 1028 67 10000 8.2 70 18:57 22.01.2020
342 Clouds 11 1028 67 10000 8.2 70 18:38 22.01.2020
343 Clouds 11 1028 67 10000 8.2 70 18:38 22.01.2020
344 Clouds 11 1028 67 10000 8.7 70 18:19 22.01.2020
345 Clouds 11 1028 71 10000 10.3 70 17:55 22.01.2020
346 Clouds 10 1028 71 10000 11.3 80 17:36 22.01.2020
347 Clouds 12 1028 71 10000 11.3 80 17:18 22.01.2020
348 Clouds 14 1028 71 10000 10.8 80 16:43 22.01.2020
349 Clouds 14 1028 71 10000 10.8 80 16:23 22.01.2020
350 Clouds 14 1029 62 10000 9.3 80 15:58 22.01.2020
351 Clouds 14 1029 62 10000 9.3 80 15:40 22.01.2020
352 Clouds 15 1029 58 10000 10.8 80 15:22 22.01.2020
353 Clouds 13 1029 54 10000 10.3 80 14:56 22.01.2020
354 Clouds 13 1029 54 10000 10.3 80 14:36 22.01.2020
355 Clouds 14 1030 58 10000 9.8 70 14:18 22.01.2020
356 Clouds 14 1030 58 10000 10.3 70 13:54 22.01.2020
357 Clouds 14 1030 58 10000 10.3 70 13:36 22.01.2020
358 Clouds 14 1031 54 10000 11.3 80 13:18 22.01.2020
359 Clouds 14 1031 54 10000 10.3 80 12:54 22.01.2020
360 Clouds 14 1031 54 10000 10.3 80 12:36 22.01.2020
361 Clouds 14 1031 54 10000 11.3 80 12:18 22.01.2020
362 Clouds 14 1032 47 10000 9.8 70 11:54 22.01.2020
363 Clouds 14 1032 47 10000 9.8 70 11:36 22.01.2020
364 Clouds 13 1032 51 10000 6.7 60 11:18 22.01.2020
365 Clouds 11 1032 46 10000 4.6 330 10:42 22.01.2020
366 Clouds 10 1032 49 10000 4.1 330 10:19 22.01.2020
367 Clouds 10 1032 49 10000 3.6 350 09:43 22.01.2020
368 Clouds 9 1032 49 10000 5.1 320 09:24 22.01.2020
369 Clouds 9 1032 52 10000 4.6 330 08:57 22.01.2020
370 Clouds 9 1032 52 10000 4.6 330 08:57 22.01.2020
371 Clouds 9 1032 52 10000 4.6 330 08:39 22.01.2020
372 Clouds 9 1031 52 10000 4.1 330 08:21 22.01.2020
373 Clouds 9 1031 52 10000 5.1 330 07:48 22.01.2020
374 Clouds 8 1032 52 10000 5.1 330 07:30 22.01.2020
375 Clouds 8 1032 52 10000 4.6 330 06:50 22.01.2020
376 Clouds 9 1032 55 10000 4.6 330 06:26 22.01.2020
377 Clouds 8 1032 55 10000 4.6 330 05:33 22.01.2020
378 Clouds 7 1033 53 10000 5.1 320 04:18 22.01.2020
379 Clouds 8 1033 61 10000 5.7 330 03:22 22.01.2020
380 Clouds 7 1034 61 10000 5.7 330 01:44 22.01.2020
381 Clouds 7 1034 65 10000 4.6 320 00:44 22.01.2020
382 Clouds 8 1034 61 10000 4.1 320 00:26 22.01.2020
383 Clouds 8 1035 66 10000 3.6 310 23:39 21.01.2020
384 Clouds 8 1034 66 10000 3.6 320 23:21 21.01.2020
385 Clouds 9 1034 66 10000 4.1 330 22:59 21.01.2020
386 Clouds 9 1034 66 10000 4.1 330 22:39 21.01.2020
387 Clouds 9 1034 66 10000 4.1 320 22:20 21.01.2020
388 Clouds 10 1034 61 10000 3.6 330 21:56 21.01.2020
389 Clouds 10 1034 57 10000 4.6 50 21:37 21.01.2020
390 Clouds 10 1034 57 10000 4.6 50 21:19 21.01.2020
391 Clouds 10 1034 57 10000 4.6 50 21:19 21.01.2020
392 Clouds 11 1034 50 10000 7.2 70 20:55 21.01.2020
393 Clouds 11 1034 50 10000 7.2 70 20:37 21.01.2020
394 Clouds 12 1034 50 10000 10.3 90 20:18 21.01.2020
395 Clouds 12 1033 50 10000 8.7 80 19:55 21.01.2020
396 Clouds 12 1033 50 10000 8.7 80 19:37 21.01.2020
397 Clouds 12 1033 47 10000 11.3 80 19:18 21.01.2020
398 Clouds 12 1033 50 10000 11.8 90 18:54 21.01.2020
399 Clouds 10 1033 54 10000 12.3 90 18:36 21.01.2020
400 Clouds 10 1033 54 10000 12.3 90 18:18 21.01.2020
401 Clouds 10 1033 50 10000 11.8 90 17:42 21.01.2020
402 Clouds 12 1033 54 10000 11.3 90 17:19 21.01.2020
403 Clouds 12 1033 54 10000 11.3 90 16:57 21.01.2020
404 Clouds 12 1033 54 10000 11.3 90 16:36 21.01.2020
405 Clouds 13 1033 54 10000 11.3 90 16:18 21.01.2020
406 Clouds 13 1034 54 10000 11.3 90 15:40 21.01.2020
407 Clouds 13 1034 54 10000 10.8 90 15:20 21.01.2020
408 Clouds 14 1034 50 10000 10.8 90 14:58 21.01.2020
409 Clouds 13 1034 50 10000 10.8 90 14:37 21.01.2020
410 Clouds 13 1034 50 10000 9.8 90 14:19 21.01.2020
411 Clouds 13 1035 54 10000 8.7 70 13:39 21.01.2020
412 Clouds 13 1035 50 10000 8.7 70 13:19 21.01.2020
413 Clouds 12 1036 41 10000 4.6 80 12:43 21.01.2020
414 Clouds 12 1036 50 10000 11.3 80 12:25 21.01.2020
415 Clouds 12 1036 54 10000 11.3 90 11:57 21.01.2020
416 Clouds 13 1036 54 10000 11.3 90 11:38 21.01.2020
417 Clouds 9 1036 50 10000 11.3 90 11:20 21.01.2020
418 Clouds 12 1036 47 10000 7.2 70 10:44 21.01.2020
419 Clouds 11 1036 50 10000 8.7 70 10:23 21.01.2020
420 Clouds 10 1036 47 10000 9.8 80 09:59 21.01.2020
421 Clouds 10 1036 47 10000 9.8 80 09:41 21.01.2020
422 Clouds 9 1036 43 10000 6.2 50 09:22 21.01.2020
423 Clouds 9 1036 43 10000 6.2 50 09:22 21.01.2020
424 Clouds 9 1036 47 10000 7.2 70 08:48 21.01.2020
425 Clouds 10 1036 49 10000 5.7 60 08:29 21.01.2020
426 Clouds 10 1036 50 10000 5.1 50 07:57 21.01.2020
427 Clouds 10 1036 50 10000 5.1 50 07:38 21.01.2020
428 Clouds 9 1036 47 10000 2.1 20 07:20 21.01.2020
429 Clouds 9 1035 49 10000 2.1 330 06:45 21.01.2020
430 Clouds 9 1035 45 10000 1.5 340 06:25 21.01.2020
431 Clouds 10 1035 46 10000 3.1 30 05:41 21.01.2020
432 Clouds 10 1035 50 10000 9.8 90 04:39 21.01.2020
433 Clouds 10 1036 40 10000 3.1 50 02:55 21.01.2020
434 Clouds 11 1036 34 10000 5.1 60 01:51 21.01.2020
435 Clouds 9 1037 40 10000 3.6 50 00:57 21.01.2020
436 Clouds 11 1037 37 10000 5.1 50 00:35 21.01.2020
437 Clouds 9 1037 40 10000 5.7 70 23:57 20.01.2020
438 Clouds 10 1037 40 10000 5.7 70 23:37 20.01.2020
439 Clouds 9 1036 37 10000 6.7 70 23:19 20.01.2020
440 Clouds 9 1036 37 10000 6.7 70 23:18 20.01.2020
441 Clouds 9 1036 37 10000 7.2 70 22:56 20.01.2020
442 Clouds 9 1036 37 10000 7.2 70 22:37 20.01.2020
443 Clouds 9 1036 40 10000 8.2 70 22:19 20.01.2020
444 Clouds 10 1036 37 10000 8.2 70 21:57 20.01.2020
445 Clouds 10 1036 37 10000 8.2 70 21:37 20.01.2020
446 Clouds 10 1036 37 10000 8.2 70 21:37 20.01.2020
447 Clouds 10 1036 48 10000 8.2 70 21:18 20.01.2020
448 Clouds 11 1036 40 10000 9.3 70 20:55 20.01.2020
449 Clouds 11 1036 40 10000 9.3 70 20:36 20.01.2020
450 Clouds 10 1035 40 10000 10.3 80 20:18 20.01.2020
451 Clouds 10 1035 40 10000 10.3 80 20:18 20.01.2020
452 Clouds 10 1035 46 10000 10.3 70 19:56 20.01.2020
453 Clouds 10 1035 46 10000 10.3 70 19:37 20.01.2020
454 Clouds 10 1035 48 10000 11.3 80 19:18 20.01.2020
455 Clouds 10 1034 46 10000 10.3 80 18:43 20.01.2020
456 Clouds 10 1034 48 10000 10.3 80 18:22 20.01.2020
457 Clouds 11 1034 48 10000 9.3 80 17:40 20.01.2020
458 Clouds 10 1033 46 10000 11.3 80 17:19 20.01.2020
459 Clouds 11 1033 47 10000 9.8 90 16:58 20.01.2020
460 Clouds 11 1033 47 10000 9.8 90 16:37 20.01.2020
461 Clouds 12 1033 37 10000 9.8 90 16:18 20.01.2020
462 Clouds 12 1033 37 10000 9.8 90 16:18 20.01.2020
463 Clouds 12 1033 37 10000 9.8 90 16:18 20.01.2020
464 Clouds 12 1033 35 10000 9.8 90 15:54 20.01.2020
465 Clouds 12 1033 35 10000 9.8 90 15:36 20.01.2020
466 Clouds 12 1033 35 10000 9.8 90 15:18 20.01.2020
467 Clouds 10 1033 47 10000 9.3 90 14:41 20.01.2020
468 Clouds 10 1033 47 10000 9.3 90 14:41 20.01.2020
469 Clouds 11 1033 35 10000 9.3 80 14:22 20.01.2020
470 Clouds 10 1033 37 10000 9.8 90 13:58 20.01.2020
471 Clouds 11 1033 37 10000 10.3 80 13:40 20.01.2020
472 Clouds 11 1033 37 10000 10.3 80 13:21 20.01.2020
473 Clouds 12 1033 37 10000 11.3 80 12:46 20.01.2020
474 Clouds 12 1033 48 10000 10.8 80 12:27 20.01.2020
475 Clouds 12 1033 37 10000 9.3 80 11:57 20.01.2020
476 Clouds 12 1033 37 10000 9.3 80 11:38 20.01.2020
477 Clouds 10 1033 35 10000 10.3 70 11:20 20.01.2020
478 Clouds 9 1033 32 10000 11.3 70 10:48 20.01.2020
479 Clouds 9 1033 37 10000 10.8 70 10:22 20.01.2020
480 Clouds 9 1033 37 10000 10.8 70 10:22 20.01.2020
481 Clouds 9 1032 34 10000 10.8 70 09:57 20.01.2020
482 Clouds 10 1032 34 10000 10.8 70 09:38 20.01.2020
483 Clouds 9 1032 37 10000 10.8 80 09:19 20.01.2020
484 Clouds 8 1032 37 10000 11.3 80 08:43 20.01.2020
485 Clouds 8 1032 37 10000 10.3 70 08:25 20.01.2020
486 Clouds 8 1031 37 10000 10.3 70 07:45 20.01.2020
487 Clouds 8 1031 37 10000 10.3 70 07:24 20.01.2020
488 Clouds 8 1031 37 10000 9.8 70 06:48 20.01.2020
489 Clouds 8 1030 40 10000 9.8 70 06:27 20.01.2020
490 Clouds 8 1030 54 10000 10.3 70 05:42 20.01.2020
491 Clouds 8 1030 57 10000 6.2 50 05:22 20.01.2020
492 Clouds 8 1030 37 10000 6.2 50 04:42 20.01.2020
493 Clouds 7 1029 36 10000 5.1 20 02:57 20.01.2020
494 Clouds 7 1029 36 10000 5.1 20 02:57 20.01.2020
495 Clouds 7 1029 29 10000 5.7 20 01:54 20.01.2020
496 Clouds 7 1029 29 10000 5.7 20 01:35 20.01.2020
497 Clouds 7 1029 29 10000 4.6 10 00:44 20.01.2020
498 Clouds 6 1029 39 10000 4.1 10 00:23 20.01.2020
499 Clouds 6 1029 39 10000 2.1 50 23:39 19.01.2020
500 Clouds 6 1028 39 10000 2.6 360 23:20 19.01.2020
501 Clouds 6 1028 39 10000 2.6 360 23:20 19.01.2020
502 Clouds 6 1028 25 10000 4.6 360 22:57 19.01.2020
503 Clouds 6 1028 25 10000 4.6 360 22:39 19.01.2020
504 Clouds 6 1028 27 10000 4.1 10 22:20 19.01.2020
505 Clouds 6 1028 36 10000 3.6 10 21:57 19.01.2020
506 Clouds 6 1028 36 10000 3.6 10 21:38 19.01.2020
507 Clouds 7 1027 36 10000 4.1 10 21:20 19.01.2020
508 Clouds 7 1027 34 10000 4.6 20 20:57 19.01.2020
509 Clouds 7 1027 34 10000 4.6 20 20:39 19.01.2020
510 Clouds 8 1027 29 10000 5.7 20 20:21 19.01.2020
511 Clouds 8 1027 29 10000 5.7 10 19:57 19.01.2020
512 Clouds 8 1026 37 10000 5.1 20 19:39 19.01.2020
513 Clouds 8 1027 29 10000 5.7 10 19:39 19.01.2020
514 Clouds 8 1026 37 10000 5.1 20 19:20 19.01.2020
515 Clouds 8 1026 29 10000 4.6 20 18:59 19.01.2020
516 Clouds 8 1026 29 10000 4.6 20 18:41 19.01.2020
517 Clouds 8 1025 36 10000 3.6 20 18:21 19.01.2020
518 Clouds 10 1025 43 10000 3.1 10 17:58 19.01.2020
519 Clouds 10 1025 43 10000 3.1 10 17:40 19.01.2020
520 Clouds 10 1025 43 10000 3.1 10 17:40 19.01.2020
521 Clouds 10 1024 32 10000 2.6 10 17:21 19.01.2020
522 Clouds 10 1024 32 10000 3.6 20 16:59 19.01.2020
523 Clouds 11 1024 32 10000 3.6 20 16:40 19.01.2020
524 Clouds 11 1024 26 10000 4.6 20 16:21 19.01.2020
525 Clouds 12 1024 30 10000 3.1 360 15:59 19.01.2020
526 Clouds 13 1024 30 10000 3.1 360 15:39 19.01.2020
527 Clouds 12 1023 35 10000 1.5 340 15:20 19.01.2020
528 Clouds 12 1023 51 10000 1.5 350 14:59 19.01.2020
529 Clouds 12 1023 51 10000 1.5 350 14:39 19.01.2020
530 Clouds 11 1023 37 10000 1 0 14:19 19.01.2020
531 Clouds 11 1024 37 10000 1.5 0 13:58 19.01.2020
532 Clouds 12 1024 37 10000 1.5 0 13:38 19.01.2020
533 Clouds 13 1024 62 10000 1.5 0 13:20 19.01.2020
534 Clouds 12 1024 40 10000 1.5 300 12:56 19.01.2020
535 Clouds 12 1024 40 10000 1.5 300 12:37 19.01.2020
536 Clouds 12 1024 40 10000 1.5 300 12:37 19.01.2020
537 Clouds 12 1024 40 10000 3.1 330 12:19 19.01.2020
538 Clouds 11 1024 46 10000 3.6 330 11:56 19.01.2020
539 Clouds 11 1024 46 10000 3.6 330 11:37 19.01.2020
540 Clouds 8 1024 49 10000 4.1 330 11:18 19.01.2020
541 Clouds 8 1024 52 10000 5.7 330 10:39 19.01.2020
542 Clouds 7 1023 56 10000 3.6 330 10:19 19.01.2020
543 Clouds 6 1023 56 10000 4.1 340 09:56 19.01.2020
544 Clouds 7 1023 56 10000 4.1 340 09:38 19.01.2020
545 Clouds 6 1023 60 10000 4.6 340 09:19 19.01.2020
546 Clouds 6 1023 60 10000 4.6 340 08:54 19.01.2020
547 Clouds 4 1023 60 10000 4.6 340 08:31 19.01.2020
548 Clouds 4 1022 86 10000 2.1 10 07:49 19.01.2020
549 Clouds 4 1022 60 10000 3.6 350 07:28 19.01.2020
550 Clouds 5 1022 60 10000 5.7 330 06:55 19.01.2020
551 Clouds 5 1022 65 10000 5.1 330 06:21 19.01.2020
552 Clouds 5 1022 68 10000 4.6 340 03:55 19.01.2020
553 Clouds 5 1022 68 10000 4.6 330 02:33 19.01.2020
554 Clear 6 1023 65 10000 4.6 340 01:42 19.01.2020
555 Clear 6 1022 65 10000 3.6 330 01:20 19.01.2020
556 Clear 6 1023 65 10000 3.6 330 00:44 19.01.2020
557 Clear 6 1023 65 10000 4.1 340 00:21 19.01.2020
558 Clear 6 1023 70 10000 3.6 340 23:54 18.01.2020
559 Clear 6 1022 70 10000 3.6 330 23:36 18.01.2020
560 Clear 6 1022 70 10000 3.6 330 23:18 18.01.2020
561 Clear 6 1022 70 10000 4.1 340 22:41 18.01.2020
562 Clear 5 1022 75 10000 5.7 330 22:23 18.01.2020
563 Clear 6 1022 70 10000 3.6 330 21:58 18.01.2020
564 Clear 6 1022 70 10000 3.6 330 21:39 18.01.2020
565 Clear 6 1022 75 10000 4.6 330 21:20 18.01.2020
566 Clear 6 1022 93 10000 1.5 350 20:57 18.01.2020
567 Clear 6 1022 93 10000 1.5 350 20:39 18.01.2020
568 Clouds 6 1022 75 10000 3.6 320 20:19 18.01.2020
569 Clouds 7 1022 70 10000 3.6 330 19:43 18.01.2020
570 Clouds 7 1022 70 10000 3.1 330 19:24 18.01.2020
571 Clouds 9 1022 66 10000 4.1 320 18:54 18.01.2020
572 Clouds 9 1022 66 10000 4.1 320 18:36 18.01.2020
573 Clouds 10 1022 57 10000 2.6 320 18:18 18.01.2020
574 Clouds 7 1021 66 10000 2.6 210 17:41 18.01.2020
575 Clouds 11 1021 66 10000 2.6 210 17:21 18.01.2020
576 Clouds 12 1021 62 10000 2.6 250 16:57 18.01.2020
577 Clouds 12 1021 62 10000 2.6 250 16:38 18.01.2020
578 Clouds 12 1021 44 10000 2.1 320 16:20 18.01.2020
579 Clouds 12 1021 47 10000 2.1 310 15:56 18.01.2020
580 Clouds 13 1021 47 10000 2.1 310 15:38 18.01.2020
581 Clouds 12 1021 54 10000 3.1 330 15:20 18.01.2020
582 Clouds 13 1021 50 10000 3.1 350 14:41 18.01.2020
583 Clouds 12 1021 54 10000 3.6 320 14:20 18.01.2020
584 Clouds 12 1021 54 10000 3.1 330 13:58 18.01.2020
585 Clouds 12 1021 54 10000 3.1 330 13:39 18.01.2020
586 Clouds 12 1022 50 10000 3.1 320 13:20 18.01.2020
587 Clouds 12 1022 54 10000 3.1 320 12:54 18.01.2020
588 Clouds 12 1022 54 10000 3.1 320 12:36 18.01.2020
589 Clouds 12 1023 62 10000 3.6 330 12:18 18.01.2020
590 Clouds 11 1023 66 10000 3.6 330 11:43 18.01.2020
591 Clouds 10 1023 71 10000 5.1 330 11:21 18.01.2020
592 Clouds 9 1023 76 10000 4.6 340 10:43 18.01.2020
593 Clouds 9 1023 76 10000 5.1 340 10:22 18.01.2020
594 Clouds 8 1022 81 10000 4.6 340 09:57 18.01.2020
595 Clouds 7 1022 81 10000 4.6 340 09:39 18.01.2020
596 Clouds 7 1022 81 10000 5.7 330 09:19 18.01.2020
597 Clouds 6 1022 81 10000 4.1 340 08:42 18.01.2020
598 Clouds 6 1022 81 10000 4.6 330 08:20 18.01.2020
599 Clouds 5 1022 87 10000 4.6 330 07:59 18.01.2020
600 Clouds 5 1022 87 10000 4.6 330 07:40 18.01.2020
601 Clouds 5 1022 87 10000 5.1 330 07:18 18.01.2020
602 Clouds 5 1021 87 10000 2.1 10 06:44 18.01.2020
603 Clouds 4 1021 93 10000 5.1 320 05:52 18.01.2020
604 Clouds 7 1020 87 10000 4.1 310 04:25 18.01.2020
605 Clouds 8 1019 87 10000 5.1 90 02:49 18.01.2020
606 Clouds 9 1019 87 10000 2.6 0 01:40 18.01.2020
607 Clouds 9 1018 76 10000 3.6 320 00:39 18.01.2020
608 Clouds 8 1018 87 10000 5.1 320 00:20 18.01.2020
609 Clouds 9 1018 81 10000 4.6 320 23:59 17.01.2020
610 Clouds 9 1018 81 10000 4.6 320 23:40 17.01.2020
611 Clouds 9 1018 81 10000 6.7 330 23:18 17.01.2020
612 Clouds 9 1018 87 10000 6.2 330 22:42 17.01.2020
613 Clouds 9 1018 81 10000 2.1 280 22:20 17.01.2020
614 Clouds 8 1018 87 10000 4.1 330 21:57 17.01.2020
615 Clouds 8 1018 87 10000 4.1 330 21:38 17.01.2020
616 Clouds 8 1018 87 10000 4.1 330 21:38 17.01.2020
617 Rain 7 1019 93 10000 3.1 330 21:20 17.01.2020
618 Rain 8 1019 93 10000 4.6 330 20:55 17.01.2020
619 Rain 8 1020 93 4000 9.8 320 20:36 17.01.2020
620 Rain 9 1020 93 4000 9.8 320 20:18 17.01.2020
621 Rain 9 1020 93 10000 5.1 340 19:54 17.01.2020
622 Rain 9 1020 93 10000 5.1 340 19:36 17.01.2020
623 Rain 9 1021 93 10000 4.6 330 19:18 17.01.2020
624 Rain 9 1021 93 5000 4.6 330 18:44 17.01.2020
625 Rain 9 1021 87 4000 4.1 340 18:26 17.01.2020
626 Rain 9 1022 87 8000 4.1 350 17:56 17.01.2020
627 Rain 9 1022 87 8000 4.1 350 17:56 17.01.2020
628 Rain 9 1022 87 8000 4.1 350 17:38 17.01.2020
629 Rain 9 1022 87 8000 2.6 340 17:19 17.01.2020
630 Rain 9 1022 81 2200 4.1 320 16:42 17.01.2020
631 Rain 10 1022 81 7000 3.6 340 16:20 17.01.2020
632 Rain 10 1023 76 6000 4.1 320 15:48 17.01.2020
633 Rain 10 1023 71 10000 3.6 330 15:28 17.01.2020
634 Rain 10 1024 71 10000 4.1 330 14:56 17.01.2020
635 Rain 10 1024 71 10000 4.1 330 14:38 17.01.2020
636 Rain 10 1024 71 10000 3.6 330 14:20 17.01.2020
637 Rain 10 1025 66 10000 4.1 330 13:41 17.01.2020
638 Clouds 10 1025 66 10000 4.6 330 13:22 17.01.2020
639 Clouds 10 1025 66 10000 4.6 330 13:22 17.01.2020
640 Rain 10 1025 66 10000 4.1 320 12:46 17.01.2020
641 Clouds 10 1026 57 10000 4.1 320 12:23 17.01.2020
642 Clouds 10 1026 57 10000 4.1 320 12:23 17.01.2020
643 Clouds 10 1026 53 10000 4.1 330 11:41 17.01.2020
644 Clouds 10 1026 57 10000 4.1 320 11:20 17.01.2020
645 Clouds 10 1026 57 10000 4.1 320 11:20 17.01.2020
646 Clouds 10 1026 57 10000 4.1 320 10:56 17.01.2020
647 Clouds 9 1026 57 10000 4.6 330 10:37 17.01.2020
648 Clouds 9 1026 57 10000 4.6 330 10:19 17.01.2020
649 Clouds 8 1027 61 10000 5.1 320 09:43 17.01.2020
650 Clouds 8 1027 61 10000 5.1 330 09:21 17.01.2020
651 Clouds 7 1027 61 10000 5.1 320 08:58 17.01.2020
652 Clouds 7 1027 61 10000 5.1 320 08:40 17.01.2020
653 Clouds 5 1027 65 10000 5.1 320 08:21 17.01.2020
654 Clouds 5 1027 65 10000 5.7 320 07:46 17.01.2020
655 Clouds 5 1027 61 10000 5.1 330 07:28 17.01.2020
656 Clouds 5 1027 61 10000 5.1 320 06:55 17.01.2020
657 Clouds 6 1027 61 10000 5.1 320 06:35 17.01.2020
658 Clouds 6 1028 66 10000 2.6 340 04:32 17.01.2020
659 Clouds 7 1028 70 10000 3.1 330 03:19 17.01.2020
660 Clouds 6 1028 75 10000 4.6 340 02:39 17.01.2020
661 Clouds 6 1029 75 10000 4.6 340 01:44 17.01.2020
662 Clouds 6 1029 75 10000 4.6 340 01:25 17.01.2020
663 Clouds 6 1029 75 10000 3.6 340 00:40 17.01.2020
664 Clouds 6 1029 75 10000 3.6 340 00:19 17.01.2020
665 Clouds 6 1029 76 10000 4.1 340 23:41 16.01.2020
666 Clouds 7 1029 76 10000 4.1 340 23:22 16.01.2020
667 Clouds 7 1030 81 10000 3.1 340 22:42 16.01.2020
668 Clouds 7 1030 81 10000 3.1 330 22:22 16.01.2020
669 Clouds 7 1030 81 10000 3.1 330 22:22 16.01.2020
670 Clouds 7 1030 76 10000 3.6 320 21:57 16.01.2020
671 Clouds 7 1030 76 10000 3.6 320 21:38 16.01.2020
672 Clouds 7 1030 76 10000 3.6 330 21:19 16.01.2020
673 Clouds 8 1030 76 10000 2.6 330 20:58 16.01.2020
674 Clouds 9 1030 76 10000 2.6 330 20:39 16.01.2020
675 Clouds 9 1030 71 10000 2.6 330 20:20 16.01.2020
676 Clouds 9 1030 76 10000 1.5 350 19:56 16.01.2020
677 Clouds 9 1030 76 10000 1.5 350 19:38 16.01.2020
678 Clouds 9 1030 76 10000 1.5 350 19:38 16.01.2020
679 Clouds 10 1030 71 10000 2.1 10 19:20 16.01.2020
680 Clouds 8 1030 66 10000 3.1 90 18:55 16.01.2020
681 Clouds 8 1030 66 10000 3.1 90 18:37 16.01.2020
682 Clouds 9 1029 66 10000 3.6 100 18:18 16.01.2020
683 Clouds 9 1029 66 10000 3.6 90 17:55 16.01.2020
684 Clouds 9 1029 66 10000 3.6 90 17:37 16.01.2020
685 Clouds 11 1029 66 10000 3.6 100 17:18 16.01.2020
686 Clouds 11 1029 62 10000 3.6 100 16:40 16.01.2020
687 Clouds 12 1029 62 10000 3.6 110 16:21 16.01.2020
688 Clouds 12 1029 62 10000 3.1 100 15:56 16.01.2020
689 Clouds 12 1029 62 10000 3.1 100 15:38 16.01.2020
690 Clouds 12 1029 67 10000 3.1 100 15:19 16.01.2020
691 Clouds 12 1029 67 10000 3.1 90 14:42 16.01.2020
692 Clouds 12 1029 67 10000 3.1 100 14:23 16.01.2020
693 Clouds 12 1030 71 10000 3.1 100 13:47 16.01.2020
694 Clouds 13 1030 71 10000 2.6 90 13:29 16.01.2020
695 Clouds 13 1030 66 10000 1.5 90 12:59 16.01.2020
696 Clouds 13 1030 66 10000 1.5 90 12:40 16.01.2020
697 Clouds 13 1030 54 10000 1.5 0 12:20 16.01.2020
698 Clouds 12 1031 50 10000 3.6 330 11:42 16.01.2020
699 Clouds 12 1031 50 10000 3.6 330 11:42 16.01.2020
700 Clouds 8 1031 57 10000 4.6 330 11:24 16.01.2020
701 Clouds 8 1031 61 10000 4.1 330 10:57 16.01.2020
702 Clouds 8 1031 61 10000 4.1 330 10:37 16.01.2020
703 Clouds 7 1030 61 10000 5.1 330 10:19 16.01.2020
704 Clouds 7 1030 65 10000 5.1 330 09:44 16.01.2020
705 Clouds 6 1030 70 10000 5.1 330 09:24 16.01.2020
706 Clouds 5 1030 70 10000 4.6 330 08:59 16.01.2020
707 Clouds 5 1030 70 10000 4.6 330 08:41 16.01.2020
708 Clouds 5 1029 70 10000 4.1 330 08:20 16.01.2020
709 Clouds 5 1029 70 10000 4.6 330 07:43 16.01.2020
710 Clouds 5 1029 70 10000 5.1 330 07:24 16.01.2020
711 Clouds 5 1029 70 10000 4.6 330 06:55 16.01.2020
712 Clouds 5 1029 70 10000 4.6 330 06:35 16.01.2020
713 Clouds 6 1028 66 10000 4.1 340 05:56 16.01.2020
714 Clouds 6 1028 70 10000 5.7 330 05:25 16.01.2020
715 Clouds 6 1028 70 10000 4.1 330 04:23 16.01.2020
716 Clouds 6 1028 70 10000 4.1 330 03:27 16.01.2020
717 Clouds 6 1028 70 10000 4.6 330 02:24 16.01.2020
718 Clouds 6 1029 70 10000 5.7 330 00:44 16.01.2020
719 Clouds 6 1029 70 10000 4.6 330 00:24 16.01.2020
720 Clouds 6 1029 70 10000 4.1 330 23:46 15.01.2020
721 Clouds 6 1029 70 10000 4.1 330 23:46 15.01.2020
722 Clouds 7 1029 70 10000 4.1 330 23:22 15.01.2020
723 Clouds 8 1029 75 10000 5.1 320 22:57 15.01.2020
724 Clouds 6 1029 75 10000 5.1 320 22:39 15.01.2020
725 Clouds 7 1029 81 10000 5.1 330 22:19 15.01.2020
726 Clouds 6 1029 81 10000 5.1 330 21:57 15.01.2020
727 Clouds 8 1029 76 10000 4.1 330 21:37 15.01.2020
728 Clouds 8 1029 76 10000 4.1 330 21:19 15.01.2020
729 Clouds 7 1029 76 10000 4.1 330 20:56 15.01.2020
730 Clouds 7 1029 76 10000 4.1 330 20:38 15.01.2020
731 Clouds 7 1029 81 10000 4.1 320 20:20 15.01.2020
732 Clouds 7 1029 81 10000 4.1 320 19:55 15.01.2020
733 Rain 8 1028 76 10000 3.6 320 19:37 15.01.2020
734 Rain 8 1028 76 10000 3.6 320 19:18 15.01.2020
735 Clouds 7 1028 76 10000 2.6 330 18:56 15.01.2020
736 Clouds 8 1028 76 10000 2.6 330 18:38 15.01.2020
737 Clouds 8 1028 71 10000 1.5 310 18:19 15.01.2020
738 Clouds 8 1028 71 10000 1.5 310 18:19 15.01.2020
739 Clouds 9 1028 71 10000 1.5 310 17:56 15.01.2020
740 Clouds 8 1028 71 10000 1.5 310 17:37 15.01.2020
741 Clouds 10 1028 66 10000 2.1 300 17:18 15.01.2020
742 Clouds 11 1028 58 10000 1.5 310 16:40 15.01.2020
743 Clouds 12 1027 62 10000 2.1 320 16:22 15.01.2020
744 Clouds 12 1027 62 10000 1.5 320 15:57 15.01.2020
745 Clouds 12 1027 62 10000 1.5 320 15:39 15.01.2020
746 Clouds 12 1027 66 10000 1.5 330 15:19 15.01.2020
747 Clouds 11 1027 71 10000 2.6 340 14:43 15.01.2020
748 Clouds 11 1027 71 10000 3.6 340 14:20 15.01.2020
749 Clouds 11 1028 81 10000 3.1 330 13:46 15.01.2020
750 Clouds 11 1028 81 10000 3.1 330 13:46 15.01.2020
751 Clouds 10 1028 87 10000 2.1 300 13:27 15.01.2020
752 Rain 10 1029 76 10000 1.5 250 12:59 15.01.2020
753 Rain 10 1029 76 10000 1.5 250 12:40 15.01.2020
754 Clouds 10 1029 71 10000 1 0 12:20 15.01.2020
755 Clouds 10 1029 71 10000 1 0 12:20 15.01.2020
756 Clouds 10 1029 57 10000 3.1 320 11:58 15.01.2020
757 Clouds 10 1029 57 10000 3.1 320 11:38 15.01.2020
758 Clouds 10 1028 53 10000 3.1 320 11:19 15.01.2020
759 Clouds 10 1028 53 10000 4.1 320 10:46 15.01.2020
760 Clouds 9 1028 53 10000 4.6 320 10:28 15.01.2020
761 Clouds 8 1028 57 10000 4.6 330 09:55 15.01.2020
762 Clouds 7 1028 57 10000 4.6 330 09:37 15.01.2020
763 Clouds 7 1027 53 10000 4.6 330 09:19 15.01.2020
764 Clouds 6 1027 53 10000 4.1 320 08:44 15.01.2020
765 Clouds 5 1027 53 10000 4.1 330 08:24 15.01.2020
766 Clouds 4 1027 53 10000 3.6 340 07:54 15.01.2020
767 Clouds 5 1027 53 10000 5.1 340 07:33 15.01.2020
768 Clouds 4 1027 53 10000 4.6 330 06:49 15.01.2020
769 Clouds 4 1026 53 10000 4.1 340 06:26 15.01.2020
770 Clouds 5 1026 57 10000 4.6 330 04:46 15.01.2020
771 Clouds 6 1027 61 10000 5.1 330 02:48 15.01.2020
772 Clouds 6 1027 61 10000 5.7 330 01:48 15.01.2020
773 Clouds 7 1027 61 10000 5.1 330 01:20 15.01.2020
774 Clouds 7 1027 61 10000 4.6 330 00:37 15.01.2020
775 Clouds 7 1027 61 10000 4.6 330 00:19 15.01.2020
776 Clouds 6 1027 66 10000 4.6 340 23:46 14.01.2020
777 Clouds 6 1027 66 10000 3.6 340 23:24 14.01.2020
778 Clouds 6 1027 70 10000 4.1 340 22:56 14.01.2020
779 Clouds 6 1027 70 10000 4.1 340 22:38 14.01.2020
780 Clouds 6 1026 70 10000 4.6 330 22:18 14.01.2020
781 Clouds 5 1026 70 10000 4.6 330 21:56 14.01.2020
782 Clouds 5 1026 70 10000 4.6 330 21:37 14.01.2020
783 Clouds 5 1026 70 10000 4.6 320 21:19 14.01.2020
784 Clouds 7 1026 70 10000 4.6 320 20:42 14.01.2020
785 Clouds 7 1026 70 10000 4.6 320 20:22 14.01.2020
786 Clouds 7 1026 76 10000 3.6 320 19:57 14.01.2020
787 Clouds 7 1026 76 10000 3.6 320 19:39 14.01.2020
788 Clouds 7 1026 81 10000 3.1 320 19:20 14.01.2020
789 Clouds 8 1025 76 10000 2.1 300 18:59 14.01.2020
790 Clouds 7 1025 76 10000 2.1 300 18:40 14.01.2020
791 Clouds 8 1025 71 10000 5.1 210 18:20 14.01.2020
792 Clouds 9 1024 71 10000 5.7 210 17:55 14.01.2020
793 Clouds 9 1024 71 10000 5.7 210 17:36 14.01.2020
794 Clouds 10 1024 71 10000 5.7 210 17:18 14.01.2020
795 Clouds 10 1024 67 10000 5.1 210 16:42 14.01.2020
796 Clouds 12 1024 67 10000 5.1 210 16:22 14.01.2020
797 Clouds 11 1024 71 10000 5.7 210 15:56 14.01.2020
798 Clouds 12 1024 71 10000 5.7 210 15:38 14.01.2020
799 Clouds 11 1024 62 10000 4.6 210 15:18 14.01.2020
800 Clouds 10 1024 58 10000 2.6 190 14:43 14.01.2020
801 Clouds 10 1024 54 10000 2.1 250 14:20 14.01.2020
802 Clouds 11 1024 51 10000 1 0 13:54 14.01.2020
803 Clouds 12 1024 51 10000 1 0 13:36 14.01.2020
804 Clouds 11 1024 51 10000 1.5 0 13:18 14.01.2020
805 Clouds 11 1025 44 10000 1.5 330 12:41 14.01.2020
806 Clouds 11 1025 43 10000 3.1 320 12:20 14.01.2020
807 Clouds 11 1025 43 10000 3.1 320 12:20 14.01.2020
808 Clouds 11 1025 46 10000 3.6 320 11:43 14.01.2020
809 Clouds 8 1025 50 10000 5.1 330 11:23 14.01.2020
810 Clouds 8 1025 50 10000 4.6 320 10:59 14.01.2020
811 Clouds 8 1025 50 10000 4.6 320 10:40 14.01.2020
812 Clouds 7 1025 53 10000 5.1 330 10:20 14.01.2020
813 Clouds 6 1025 57 10000 3.6 330 09:58 14.01.2020
814 Clouds 9 1025 57 10000 3.6 330 09:40 14.01.2020
815 Clouds 8 1024 61 10000 4.6 330 09:20 14.01.2020
816 Clouds 7 1024 61 10000 5.7 330 08:48 14.01.2020
817 Clouds 4 1024 61 10000 6.2 330 08:25 14.01.2020
818 Clouds 4 1024 57 10000 5.1 320 07:53 14.01.2020
819 Clouds 4 1024 57 10000 5.1 320 07:33 14.01.2020
820 Clouds 4 1024 65 10000 4.6 340 06:56 14.01.2020
821 Clouds 4 1024 65 10000 4.6 340 06:33 14.01.2020
822 Clouds 4 1023 65 10000 4.1 350 05:28 14.01.2020
823 Clouds 4 1024 75 10000 4.6 340 03:52 14.01.2020
824 Clouds 5 1024 75 10000 4.1 340 02:50 14.01.2020
825 Clouds 4 1024 75 10000 4.1 330 01:56 14.01.2020
826 Clouds 4 1024 81 10000 4.1 340 00:53 14.01.2020
827 Clouds 4 1024 81 10000 4.1 340 00:35 14.01.2020
828 Clouds 5 1024 81 10000 3.6 340 23:56 13.01.2020
829 Clouds 4 1024 81 10000 3.6 340 23:37 13.01.2020
830 Clouds 5 1024 75 10000 5.1 320 23:18 13.01.2020
831 Clouds 5 1024 75 10000 5.1 320 23:18 13.01.2020
832 Clouds 4 1024 81 10000 5.1 320 22:43 13.01.2020
833 Clouds 5 1024 87 10000 5.1 320 22:22 13.01.2020
834 Clouds 5 1024 87 10000 5.1 320 22:22 13.01.2020
835 Clouds 5 1024 81 10000 4.6 320 21:58 13.01.2020
836 Clouds 5 1024 81 10000 4.6 320 21:58 13.01.2020
837 Clouds 5 1024 81 10000 4.6 320 21:39 13.01.2020
838 Clouds 5 1024 81 10000 4.1 320 21:19 13.01.2020
839 Clouds 5 1024 81 10000 4.1 320 20:59 13.01.2020
840 Clouds 6 1024 81 10000 4.1 320 20:41 13.01.2020
841 Clouds 7 1024 81 10000 2.1 320 20:22 13.01.2020
842 Clouds 7 1024 81 10000 2.1 320 20:22 13.01.2020
843 Clouds 7 1024 76 10000 3.1 320 19:59 13.01.2020
844 Clouds 9 1024 76 10000 3.1 320 19:40 13.01.2020
845 Clouds 9 1024 76 10000 2.6 320 19:20 13.01.2020
846 Clouds 9 1024 76 10000 2.6 320 19:20 13.01.2020
847 Clouds 9 1024 76 10000 2.1 270 18:58 13.01.2020
848 Clouds 7 1024 76 10000 2.1 270 18:37 13.01.2020
849 Clouds 7 1024 76 10000 2.1 270 18:37 13.01.2020
850 Clouds 7 1024 76 10000 2.6 270 18:19 13.01.2020
851 Clouds 8 1024 71 10000 3.1 220 17:55 13.01.2020
852 Clouds 9 1024 71 10000 3.1 220 17:36 13.01.2020
853 Clouds 10 1024 66 10000 2.1 220 17:18 13.01.2020
854 Clouds 10 1024 62 10000 1.5 290 16:40 13.01.2020
855 Clouds 10 1024 62 10000 1.5 290 16:40 13.01.2020
856 Clouds 10 1024 62 10000 1.5 0 16:21 13.01.2020
857 Rain 8 1023 71 0 0.89 279 15:54 13.01.2020
858 Rain 8 1023 71 0 1.34 324 15:36 13.01.2020
859 Rain 8 1023 71 0 0.89 238 15:18 13.01.2020
860 Rain 8 1023 70 0 2.68 304 14:42 13.01.2020
861 Clouds 10 1025 62 10000 2.1 150 14:23 13.01.2020
862 Clouds 11 1025 62 10000 2.1 150 13:57 13.01.2020
863 Clouds 9 1025 62 10000 2.1 150 13:39 13.01.2020
864 Clouds 9 1024 58 0 1.34 271 13:21 13.01.2020
865 Clouds 10 1026 66 10000 5.1 330 12:43 13.01.2020
866 Clouds 10 1026 66 10000 5.1 330 12:23 13.01.2020
867 Clouds 10 1026 66 10000 5.1 330 11:59 13.01.2020
868 Clouds 9 1026 66 10000 5.1 330 11:39 13.01.2020
869 Clouds 8 1026 49 10000 5.7 330 11:19 13.01.2020
870 Clouds 10 1026 49 10000 6.2 330 10:57 13.01.2020
871 Clouds 9 1026 49 10000 6.2 330 10:38 13.01.2020
872 Clouds 9 1026 52 10000 6.7 330 10:20 13.01.2020
873 Clouds 9 1026 52 10000 6.7 330 10:20 13.01.2020
874 Clouds 8 1026 56 10000 6.7 330 09:56 13.01.2020
875 Clouds 8 1026 56 10000 6.7 330 09:38 13.01.2020
876 Clouds 7 1026 60 10000 5.1 330 09:19 13.01.2020
877 Clouds 5 1025 60 10000 6.2 330 08:39 13.01.2020
878 Clouds 4 1025 60 10000 6.7 330 08:20 13.01.2020
879 Clouds 4 1025 60 10000 6.2 330 07:47 13.01.2020
880 Clouds 4 1025 86 10000 3.6 10 07:27 13.01.2020
881 Clouds 4 1025 60 10000 6.2 330 06:43 13.01.2020
882 Clouds 4 1025 60 10000 6.7 330 06:20 13.01.2020
883 Clouds 4 1025 66 10000 6.7 330 05:23 13.01.2020
884 Clouds 5 1025 61 10000 6.2 330 03:55 13.01.2020
885 Clouds 5 1025 61 10000 5.7 330 03:24 13.01.2020
886 Clouds 5 1025 61 10000 4.6 330 02:45 13.01.2020
887 Clouds 5 1025 65 10000 5.1 330 02:26 13.01.2020
888 Clouds 5 1025 65 10000 4.6 330 01:21 13.01.2020
889 Clouds 5 1025 65 10000 4.1 330 00:41 13.01.2020
890 Clouds 5 1025 61 10000 4.6 340 00:23 13.01.2020
891 Clouds 5 1025 65 10000 5.1 340 23:54 12.01.2020
892 Clouds 5 1025 65 10000 5.1 340 23:36 12.01.2020
893 Clouds 5 1026 61 10000 4.1 340 23:18 12.01.2020
894 Clouds 6 1025 65 10000 4.6 330 22:42 12.01.2020
895 Clouds 6 1026 65 10000 5.1 330 22:23 12.01.2020
896 Clouds 6 1026 65 10000 5.1 340 21:57 12.01.2020
897 Clouds 5 1026 65 10000 5.1 340 21:38 12.01.2020
898 Clouds 5 1026 65 10000 5.1 330 21:19 12.01.2020
899 Clouds 6 1026 70 10000 4.1 330 20:56 12.01.2020
900 Clouds 6 1026 70 10000 4.1 330 20:38 12.01.2020
901 Clouds 6 1026 66 10000 4.1 330 20:20 12.01.2020
902 Clear 7 1026 70 10000 3.6 330 19:56 12.01.2020
903 Clear 7 1026 70 10000 3.6 330 19:37 12.01.2020
904 Clear 7 1026 76 10000 3.1 320 19:18 12.01.2020
905 Clear 9 1026 76 10000 2.1 330 18:57 12.01.2020
906 Clear 7 1026 76 10000 2.1 330 18:57 12.01.2020
907 Clear 7 1026 76 10000 2.1 330 18:39 12.01.2020
908 Clear 8 1026 66 10000 3.1 230 18:21 12.01.2020
909 Clear 8 1026 66 10000 2.6 230 17:55 12.01.2020
910 Clear 8 1026 66 10000 2.6 230 17:37 12.01.2020
911 Clear 9 1026 62 10000 3.1 210 17:18 12.01.2020
912 Clear 10 1026 62 10000 3.1 200 16:54 12.01.2020
913 Clear 11 1026 62 10000 3.1 200 16:36 12.01.2020
914 Clear 11 1026 54 10000 3.6 200 16:18 12.01.2020
915 Clear 11 1026 54 10000 3.1 210 15:42 12.01.2020
916 Clear 12 1026 51 10000 3.1 190 15:23 12.01.2020
917 Clear 11 1026 47 10000 2.6 180 14:55 12.01.2020
918 Clear 11 1026 47 10000 2.6 180 14:36 12.01.2020
919 Clear 12 1027 44 10000 2.1 180 14:18 12.01.2020
920 Clear 12 1027 38 10000 1 0 13:42 12.01.2020
921 Clear 12 1027 41 10000 2.1 320 13:23 12.01.2020
922 Clear 14 1028 59 10000 4.1 320 12:58 12.01.2020
923 Clear 14 1028 59 10000 4.1 320 12:38 12.01.2020
924 Clear 14 1028 59 10000 4.6 320 12:19 12.01.2020
925 Clear 13 1029 59 10000 5.7 320 11:55 12.01.2020
926 Clear 10 1029 59 10000 5.7 320 11:36 12.01.2020
927 Clear 7 1029 56 10000 5.7 330 11:18 12.01.2020
928 Clear 7 1029 56 10000 5.7 330 10:41 12.01.2020
929 Clear 7 1029 56 10000 7.2 330 10:21 12.01.2020
930 Clear 7 1029 52 10000 7.2 330 09:56 12.01.2020
931 Clear 7 1029 52 10000 7.2 330 09:38 12.01.2020
932 Clear 6 1029 56 10000 7.7 330 09:18 12.01.2020
933 Clear 4 1029 56 10000 7.7 330 08:42 12.01.2020
934 Clear 4 1029 64 10000 7.7 330 08:19 12.01.2020
935 Clear 3 1028 64 10000 8.2 330 07:40 12.01.2020
936 Clear 3 1028 64 10000 7.7 330 07:21 12.01.2020
937 Clear 3 1028 64 10000 7.7 330 06:43 12.01.2020
938 Clear 4 1028 64 10000 5.1 330 06:24 12.01.2020
939 Clear 4 1028 64 10000 4.6 340 05:23 12.01.2020
940 Clear 6 1028 61 10000 4.6 340 03:55 12.01.2020
941 Clear 7 1027 57 10000 3.6 350 03:22 12.01.2020
942 Clear 6 1027 61 10000 3.6 350 02:33 12.01.2020
943 Clear 7 1027 61 10000 4.6 340 01:42 12.01.2020
944 Clear 7 1027 61 10000 4.6 330 01:22 12.01.2020
945 Clear 5 1027 61 10000 5.1 340 00:40 12.01.2020
946 Clear 5 1027 61 10000 5.1 330 00:20 12.01.2020
947 Clear 5 1028 66 10000 5.1 330 23:42 11.01.2020
948 Clear 8 1027 66 10000 4.1 350 23:19 11.01.2020
949 Clear 8 1027 66 10000 4.1 340 22:58 11.01.2020
950 Clear 8 1027 66 10000 4.1 340 22:39 11.01.2020
951 Clear 8 1027 70 10000 4.6 330 22:20 11.01.2020
952 Clear 9 1027 66 10000 4.1 330 21:58 11.01.2020
953 Clear 5 1027 66 10000 4.1 330 21:39 11.01.2020
954 Clear 7 1027 71 10000 5.1 330 21:18 11.01.2020
955 Clear 9 1027 76 10000 4.6 330 20:40 11.01.2020
956 Clear 10 1027 71 10000 3.6 330 20:22 11.01.2020
957 Clear 10 1027 76 10000 4.6 320 19:58 11.01.2020
958 Clear 10 1027 76 10000 3.6 330 19:39 11.01.2020
959 Clear 10 1027 76 10000 3.6 330 19:21 11.01.2020
960 Clear 10 1026 76 10000 3.1 330 18:59 11.01.2020
961 Clear 7 1026 76 10000 3.1 330 18:39 11.01.2020
962 Clear 8 1026 76 10000 2.1 330 18:20 11.01.2020
963 Clear 7 1026 76 10000 2.6 40 17:58 11.01.2020
964 Clear 7 1026 76 10000 2.6 40 17:39 11.01.2020
965 Clear 12 1026 71 10000 1.7 207 17:19 11.01.2020
966 Clear 14 1026 72 10000 2.1 230 16:46 11.01.2020
967 Clear 14 1026 72 10000 2.1 230 16:46 11.01.2020
968 Clear 14 1026 72 10000 2.6 200 16:27 11.01.2020
969 Clear 15 1026 72 10000 2.6 200 15:59 11.01.2020
970 Clear 15 1026 72 10000 2.6 200 15:41 11.01.2020
971 Clear 15 1026 72 10000 4.6 200 15:22 11.01.2020
972 Clear 15 1026 72 10000 4.6 200 15:22 11.01.2020
973 Clouds 15 1026 72 10000 4.6 210 14:58 11.01.2020
974 Clouds 15 1026 72 10000 4.6 210 14:58 11.01.2020
975 Clouds 14 1026 72 10000 4.6 210 14:39 11.01.2020
976 Clouds 15 1026 72 10000 4.1 210 14:21 11.01.2020
977 Clouds 14 1027 67 10000 2.6 230 13:55 11.01.2020
978 Clouds 14 1027 67 10000 2.6 230 13:36 11.01.2020
979 Clouds 14 1027 58 10000 1.5 290 13:18 11.01.2020
980 Clouds 14 1027 50 10000 2.6 330 12:41 11.01.2020
981 Clouds 14 1028 54 10000 3.6 320 12:23 11.01.2020
982 Clouds 13 1028 62 10000 4.1 320 11:48 11.01.2020
983 Clouds 12 1028 62 10000 4.1 320 11:27 11.01.2020
984 Clouds 11 1028 62 10000 4.6 320 10:58 11.01.2020
985 Clouds 9 1028 62 10000 4.6 320 10:40 11.01.2020
986 Clouds 10 1028 66 10000 5.7 330 10:22 11.01.2020
987 Clouds 10 1028 70 10000 5.1 330 09:39 11.01.2020
988 Clouds 9 1028 75 10000 5.1 330 09:21 11.01.2020
989 Clouds 7 1027 70 10000 5.1 330 08:43 11.01.2020
990 Clouds 7 1027 75 10000 5.7 330 08:22 11.01.2020
991 Clouds 7 1027 81 10000 4.6 330 07:44 11.01.2020
992 Clouds 7 1027 75 10000 4.1 330 07:26 11.01.2020
993 Clouds 7 1027 75 10000 4.1 340 06:55 11.01.2020
994 Clouds 7 1027 75 10000 4.6 330 06:22 11.01.2020
995 Clouds 6 1026 75 10000 4.1 330 04:48 11.01.2020
996 Clouds 7 1026 75 10000 5.1 330 04:30 11.01.2020
997 Clouds 7 1026 75 10000 5.1 330 03:49 11.01.2020
998 Clouds 7 1026 75 10000 3.6 330 02:41 11.01.2020
999 Clouds 6 1026 75 10000 5.1 330 01:44 11.01.2020
1000 Clouds 6 1026 75 10000 5.1 330 01:20 11.01.2020
1001 Clouds 7 1026 70 10000 5.1 330 00:46 11.01.2020
1002 Clouds 7 1026 70 10000 5.1 330 00:20 11.01.2020
1003 Clouds 7 1026 70 10000 4.6 330 23:41 10.01.2020
1004 Clouds 7 1026 70 10000 4.1 320 23:22 10.01.2020
1005 Clouds 7 1025 70 10000 3.1 330 22:59 10.01.2020
1006 Clouds 7 1025 70 10000 3.1 330 22:41 10.01.2020
1007 Clouds 8 1025 71 10000 3.6 340 22:21 10.01.2020
1008 Clouds 7 1025 71 10000 4.1 330 21:58 10.01.2020
1009 Clouds 8 1025 71 10000 4.1 330 21:39 10.01.2020
1010 Clouds 8 1025 71 10000 4.6 330 21:20 10.01.2020
1011 Clouds 8 1025 71 10000 4.1 330 20:55 10.01.2020
1012 Clouds 10 1025 71 10000 4.1 330 20:37 10.01.2020
1013 Clouds 8 1025 76 10000 4.1 330 20:19 10.01.2020
1014 Clouds 8 1025 76 10000 3.6 340 19:40 10.01.2020
1015 Clouds 8 1024 76 10000 4.6 330 19:20 10.01.2020
1016 Clouds 9 1024 76 10000 4.6 340 18:55 10.01.2020
1017 Clouds 9 1024 76 10000 4.6 340 18:36 10.01.2020
1018 Clouds 9 1024 76 10000 3.6 330 18:18 10.01.2020
1019 Clouds 9 1024 76 10000 3.6 330 18:18 10.01.2020
1020 Rain 9 1024 76 10000 4.6 340 17:56 10.01.2020
1021 Rain 8 1024 76 10000 4.6 340 17:37 10.01.2020
1022 Rain 8 1024 76 10000 4.6 330 17:19 10.01.2020
1023 Rain 9 1024 76 10000 3.6 340 16:41 10.01.2020
1024 Rain 9 1024 70 8000 4.1 340 16:21 10.01.2020
1025 Clouds 10 1023 57 10000 3.1 340 15:56 10.01.2020
1026 Clouds 9 1023 57 10000 3.1 340 15:56 10.01.2020
1027 Clouds 10 1023 57 10000 3.1 340 15:37 10.01.2020
1028 Clouds 10 1023 57 10000 5.1 350 15:19 10.01.2020
1029 Rain 10 1023 57 10000 4.6 340 14:57 10.01.2020
1030 Rain 10 1023 57 10000 4.6 340 14:39 10.01.2020
1031 Rain 9 1024 61 10000 3.6 340 14:19 10.01.2020
1032 Rain 9 1024 57 10000 3.1 340 13:56 10.01.2020
1033 Rain 9 1024 57 10000 3.1 340 13:37 10.01.2020
1034 Rain 9 1024 61 10000 4.1 330 13:18 10.01.2020
1035 Rain 9 1024 57 10000 4.6 330 12:56 10.01.2020
1036 Rain 9 1024 57 10000 4.6 330 12:38 10.01.2020
1037 Clouds 8 1024 68 10000 5.1 330 12:18 10.01.2020
1038 Rain 8 1024 61 10000 5.1 330 11:42 10.01.2020
1039 -273 0 0 0 0 0 11:22 10.01.2020
1040 Rain 7 1024 61 10000 6.2 330 10:59 10.01.2020
1041 Rain 8 1024 61 10000 6.2 330 10:38 10.01.2020
1042 Rain 8 1024 73 10000 6.7 330 10:20 10.01.2020
1043 Clouds 7 1024 73 10000 6.2 330 09:55 10.01.2020
1044 Clouds 6 1024 73 10000 6.2 330 09:36 10.01.2020
1045 Rain 6 1024 73 10000 5.7 330 09:18 10.01.2020
1046 Rain 5 1024 73 10000 5.7 320 08:40 10.01.2020
1047 Clouds 4 1024 52 10000 6.7 330 08:21 10.01.2020
1048 Clouds 4 1024 56 10000 5.7 330 07:44 10.01.2020
1049 Clouds 4 1023 56 10000 6.7 330 07:23 10.01.2020
1050 Clouds 3 1024 56 10000 6.2 330 06:45 10.01.2020
1051 Clouds 3 1024 60 10000 5.1 330 06:25 10.01.2020
1052 Clouds 4 1024 60 10000 4.1 320 05:44 10.01.2020
1053 Clear 4 1025 73 10000 5.7 320 03:35 10.01.2020
1054 Clear 4 1025 73 10000 7.2 320 02:58 10.01.2020
1055 Clear 5 1025 73 10000 7.2 320 02:37 10.01.2020
1056 Clear 5 1025 65 10000 6.2 330 01:38 10.01.2020
1057 Clear 5 1025 65 10000 5.1 320 01:19 10.01.2020
1058 Clear 4 1025 65 10000 5.7 320 00:39 10.01.2020
1059 Clear 4 1025 70 10000 5.1 320 23:58 09.01.2020
1060 Clear 4 1025 70 10000 5.1 320 23:38 09.01.2020
1061 Clear 5 1025 65 10000 4.6 330 23:20 09.01.2020
1062 Clear 5 1026 65 10000 5.1 330 22:57 09.01.2020
1063 Clear 5 1026 65 10000 5.1 330 22:38 09.01.2020
1064 Clear 5 1026 70 10000 4.6 330 22:19 09.01.2020
1065 Clear 5 1026 70 10000 6.2 320 21:57 09.01.2020
1066 Clear 4 1026 70 10000 6.2 320 21:37 09.01.2020
1067 Clear 4 1026 70 10000 6.2 320 21:37 09.01.2020
1068 Clear 4 1026 70 10000 6.2 320 21:37 09.01.2020
1069 Clear 4 1026 70 10000 5.1 330 21:19 09.01.2020
1070 Clear 6 1026 70 10000 5.1 330 20:57 09.01.2020
1071 Clear 6 1026 70 10000 5.1 330 20:39 09.01.2020
1072 Clear 6 1026 75 10000 4.1 330 20:19 09.01.2020
1073 Clear 7 1026 70 10000 4.6 320 19:57 09.01.2020
1074 Clear 8 1026 70 10000 4.6 320 19:37 09.01.2020
1075 Clouds 9 1026 76 10000 4.6 320 19:19 09.01.2020
1076 Clouds 8 1025 76 10000 3.6 320 18:55 09.01.2020
1077 Clouds 8 1025 76 10000 3.6 320 18:36 09.01.2020
1078 Clouds 8 1025 71 10000 2.6 320 18:18 09.01.2020
1079 Clouds 8 1025 76 10000 3.1 270 17:41 09.01.2020
1080 Clouds 9 1025 76 10000 4.6 240 17:18 09.01.2020
1081 Clouds 10 1025 76 10000 4.1 240 16:49 09.01.2020
1082 Clouds 12 1026 71 10000 3.1 220 16:24 09.01.2020
1083 Clear 12 1026 58 10000 2.1 210 15:59 09.01.2020
1084 Clear 11 1026 58 10000 3.1 190 15:40 09.01.2020
1085 Clear 11 1026 58 10000 3.1 190 15:19 09.01.2020
1086 Clear 11 1026 58 10000 2.1 190 14:43 09.01.2020
1087 Clear 11 1026 50 10000 1.5 0 14:22 09.01.2020
1088 Clear 13 1027 47 10000 1 0 13:57 09.01.2020
1089 Clear 13 1027 47 10000 1 0 13:39 09.01.2020
1090 Clear 12 1027 47 10000 1 0 13:21 09.01.2020
1091 Clear 12 1027 51 10000 1.5 0 12:59 09.01.2020
1092 Clear 12 1027 51 10000 1.5 0 12:40 09.01.2020
1093 Clear 12 1028 40 10000 4.1 320 12:22 09.01.2020
1094 Clear 12 1028 43 10000 4.6 320 11:57 09.01.2020
1095 Clear 11 1028 43 10000 4.6 320 11:38 09.01.2020
1096 Clear 9 1028 43 10000 5.1 320 11:20 09.01.2020
1097 Clear 10 1028 49 10000 5.7 330 10:44 09.01.2020
1098 Clear 8 1028 49 10000 6.2 330 10:22 09.01.2020
1099 Clear 8 1028 52 10000 6.7 320 09:59 09.01.2020
1100 Clear 8 1028 52 10000 6.7 320 09:39 09.01.2020
1101 Clouds 6 1028 56 10000 5.1 330 09:21 09.01.2020
1102 Clouds 6 1028 56 10000 5.1 330 08:55 09.01.2020
1103 Clouds 5 1028 56 10000 5.1 330 08:37 09.01.2020
1104 Clouds 4 1028 56 10000 5.1 330 08:19 09.01.2020
1105 Clear 4 1028 56 10000 5.1 330 07:42 09.01.2020
1106 Clear 4 1028 56 10000 5.1 330 07:42 09.01.2020
1107 Clear 4 1028 56 10000 5.7 330 07:23 09.01.2020
1108 Clear 5 1028 52 10000 5.1 330 06:39 09.01.2020
1109 Clear 5 1028 52 10000 6.2 330 06:20 09.01.2020
1110 Clear 5 1028 52 10000 6.7 330 05:49 09.01.2020
1111 Clear 5 1028 52 10000 6.2 330 04:44 09.01.2020
1112 Clear 5 1028 52 10000 5.7 330 03:54 09.01.2020
1113 Clear 6 1029 52 10000 6.2 330 02:55 09.01.2020
1114 Clear 5 1029 52 10000 7.2 320 02:30 09.01.2020
1115 Clear 5 1029 52 10000 6.2 320 01:40 09.01.2020
1116 Clear 6 1029 49 10000 7.2 320 00:44 09.01.2020
1117 Clear 6 1029 49 10000 6.2 320 00:21 09.01.2020
1118 Clear 6 1030 53 10000 4.6 330 23:56 08.01.2020
1119 Clear 6 1030 53 10000 4.6 330 23:37 08.01.2020
1120 Clear 6 1030 52 10000 6.2 330 23:19 08.01.2020
1121 Clear 6 1030 52 10000 6.7 320 22:39 08.01.2020
1122 Clear 6 1030 52 10000 5.7 330 22:21 08.01.2020
1123 Clear 6 1030 52 10000 5.7 330 22:21 08.01.2020
1124 Clear 6 1030 57 10000 5.7 330 21:58 08.01.2020
1125 Clear 6 1030 57 10000 5.7 330 21:39 08.01.2020
1126 Clear 6 1030 61 10000 5.1 330 21:20 08.01.2020
1127 Clear 7 1030 61 10000 5.7 320 20:58 08.01.2020
1128 Clear 7 1030 61 10000 5.7 320 20:40 08.01.2020
1129 Clear 7 1030 66 10000 4.6 330 20:20 08.01.2020
1130 Clear 7 1030 66 10000 4.6 330 20:20 08.01.2020
1131 Clear 7 1030 66 10000 4.1 330 19:57 08.01.2020
1132 Clear 7 1030 66 10000 4.1 330 19:37 08.01.2020
1133 Clear 7 1030 70 10000 4.6 320 19:19 08.01.2020
1134 Clear 5 1030 76 10000 3.1 320 18:57 08.01.2020
1135 Clear 6 1030 76 10000 3.1 320 18:38 08.01.2020
1136 Clear 7 1030 71 10000 1 120 18:18 08.01.2020
1137 Clear 8 1030 67 10000 2.1 150 17:56 08.01.2020
1138 Clear 7 1030 67 10000 2.1 150 17:37 08.01.2020
1139 Clear 10 1029 67 10000 3.1 130 17:18 08.01.2020
1140 Clear 12 1029 62 10000 3.6 140 16:55 08.01.2020
1141 Clear 12 1029 62 10000 3.6 140 16:37 08.01.2020
1142 Clear 13 1029 55 10000 3.6 150 16:18 08.01.2020
1143 Clear 13 1029 51 10000 2.6 170 15:42 08.01.2020
1144 Clear 16 1029 59 10000 2.6 160 15:21 08.01.2020
1145 Clear 16 1029 33 10000 1.5 0 14:57 08.01.2020
1146 Clear 14 1029 33 10000 1.5 0 14:39 08.01.2020
1147 Clear 15 1029 27 10000 2.1 320 14:20 08.01.2020
1148 Clear 15 1029 31 10000 3.1 320 13:40 08.01.2020
1149 Clear 14 1029 33 10000 4.1 320 13:20 08.01.2020
1150 Clear 16 1029 35 10000 5.1 320 12:43 08.01.2020
1151 Clear 15 1030 37 10000 6.2 320 12:20 08.01.2020
1152 Clear 14 1030 40 10000 6.7 320 11:59 08.01.2020
1153 Clear 14 1030 40 10000 6.7 320 11:41 08.01.2020
1154 Clear 8 1030 43 10000 7.2 330 11:19 08.01.2020
1155 Clear 7 1030 46 10000 6.7 330 10:57 08.01.2020
1156 Clear 8 1030 46 10000 6.7 330 10:39 08.01.2020
1157 Clear 7 1030 49 10000 7.7 330 10:19 08.01.2020
1158 Clear 7 1030 52 10000 8.2 330 09:42 08.01.2020
1159 Clear 6 1029 52 10000 7.2 330 09:20 08.01.2020
1160 Clear 5 1029 56 10000 7.7 330 08:57 08.01.2020
1161 Clear 5 1029 56 10000 7.7 330 08:38 08.01.2020
1162 Clear 3 1029 56 10000 6.2 330 08:20 08.01.2020
1163 Clear 5 1029 56 10000 6.2 330 07:51 08.01.2020
1164 Clear 5 1028 56 10000 6.7 330 07:33 08.01.2020
1165 Clear 6 1028 50 10000 5.7 330 06:50 08.01.2020
1166 Clear 6 1028 50 10000 5.7 330 06:32 08.01.2020
1167 Clear 6 1028 50 10000 6.2 330 05:54 08.01.2020
1168 Clear 5 1028 65 10000 6.7 330 05:18 08.01.2020
1169 Clear 6 1028 65 10000 5.7 330 04:35 08.01.2020
1170 Clear 6 1027 70 10000 6.2 330 02:46 08.01.2020
1171 Clear 6 1027 70 10000 5.1 330 02:28 08.01.2020
1172 Clear 6 1027 70 10000 5.7 330 01:52 08.01.2020
1173 Clear 6 1027 70 10000 6.2 330 01:26 08.01.2020
1174 Clear 6 1027 70 10000 5.1 330 00:42 08.01.2020
1175 Clear 6 1027 70 10000 6.2 330 00:21 08.01.2020
1176 Clear 7 1027 70 10000 5.1 330 23:45 07.01.2020
1177 Clear 6 1027 70 10000 3.6 340 23:20 07.01.2020
1178 Clouds 6 1026 70 10000 5.1 330 22:41 07.01.2020
1179 Clouds 7 1026 70 10000 5.1 330 22:21 07.01.2020
1180 Clear 6 1026 70 10000 5.1 330 21:58 07.01.2020
1181 Clear 7 1026 70 10000 5.1 330 21:58 07.01.2020
1182 Clear 7 1026 70 10000 5.1 330 21:40 07.01.2020
1183 Clouds 7 1026 70 10000 3.6 330 21:21 07.01.2020
1184 Clouds 7 1026 66 10000 3.6 340 20:57 07.01.2020
1185 Clouds 7 1026 66 10000 3.6 340 20:39 07.01.2020
1186 Clouds 8 1025 70 10000 4.1 330 20:21 07.01.2020
1187 Clouds 8 1025 70 10000 3.6 340 19:56 07.01.2020
1188 Clouds 8 1025 70 10000 3.6 340 19:37 07.01.2020
1189 Clouds 9 1025 70 10000 4.6 320 19:18 07.01.2020
1190 Clouds 9 1025 70 10000 4.6 320 19:18 07.01.2020
1191 Clouds 8 1025 66 10000 4.1 320 18:55 07.01.2020
1192 Clouds 8 1025 66 10000 4.1 320 18:37 07.01.2020
1193 Clouds 7 1025 66 10000 4.6 70 18:18 07.01.2020
1194 Clouds 7 1024 66 10000 4.6 80 17:41 07.01.2020
1195 Clouds 10 1024 71 10000 4.6 80 17:23 07.01.2020
1196 Clouds 11 1024 66 10000 6.2 80 16:58 07.01.2020
1197 Clouds 10 1024 66 10000 6.2 80 16:38 07.01.2020
1198 Clouds 11 1024 67 10000 6.2 80 16:20 07.01.2020
1199 Clouds 12 1024 67 10000 6.2 70 15:59 07.01.2020
1200 Clouds 12 1024 67 10000 6.2 70 15:41 07.01.2020
1201 Clouds 11 1024 67 10000 3.6 60 15:23 07.01.2020
1202 Clouds 11 1024 54 10000 3.1 330 14:57 07.01.2020
1203 Clouds 12 1024 54 10000 3.1 330 14:37 07.01.2020
1204 Clouds 12 1024 54 10000 3.6 330 14:19 07.01.2020
1205 Clouds 12 1024 54 10000 3.6 330 14:19 07.01.2020
1206 Clouds 12 1024 54 10000 3.6 330 13:40 07.01.2020
1207 Clouds 11 1024 57 10000 3.6 330 13:20 07.01.2020
1208 Clouds 11 1024 57 10000 3.6 340 12:55 07.01.2020
1209 Clouds 11 1024 57 10000 3.6 340 12:36 07.01.2020
1210 Clouds 10 1024 57 10000 4.1 340 12:18 07.01.2020
1211 Clouds 10 1025 57 10000 4.1 340 11:41 07.01.2020
1212 Clouds 8 1025 76 10000 2.1 360 11:22 07.01.2020
1213 Clouds 8 1025 61 10000 3.6 340 10:55 07.01.2020
1214 Clouds 7 1025 61 10000 3.6 340 10:37 07.01.2020
1215 Clouds 7 1025 66 10000 4.6 330 10:19 07.01.2020
1216 Clouds 7 1025 66 10000 5.1 330 09:39 07.01.2020
1217 Clouds 6 1025 66 10000 5.1 330 09:20 07.01.2020
1218 Clouds 6 1025 66 10000 4.6 330 08:57 07.01.2020
1219 Clouds 5 1025 66 10000 4.6 330 08:37 07.01.2020
1220 Clouds 5 1025 66 10000 3.6 330 08:18 07.01.2020
1221 Clouds 5 1025 66 10000 2.6 350 07:42 07.01.2020
1222 Clouds 5 1025 66 10000 2.6 350 07:42 07.01.2020
1223 Clouds 5 1025 66 10000 2.6 330 06:57 07.01.2020
1224 Clouds 4 1025 70 10000 4.1 330 06:35 07.01.2020
1225 Clouds 4 1025 70 10000 2.1 360 05:59 07.01.2020
1226 Clouds 4 1025 70 10000 2.1 360 05:40 07.01.2020
1227 Clouds 6 1026 70 10000 4.1 330 03:45 07.01.2020
1228 Clouds 6 1026 93 10000 2.1 360 03:24 07.01.2020
1229 Clouds 7 1026 76 10000 4.6 330 02:18 07.01.2020
1230 Clouds 8 1027 76 10000 4.1 330 01:40 07.01.2020
1231 Clouds 8 1027 76 10000 3.6 330 00:57 07.01.2020
1232 Clouds 8 1027 76 10000 3.6 320 00:21 07.01.2020
1233 Clouds 8 1027 76 10000 3.1 330 23:57 06.01.2020
1234 Clouds 8 1027 76 10000 3.1 330 23:37 06.01.2020
1235 Clouds 7 1028 76 10000 4.1 320 23:19 06.01.2020
1236 Clouds 8 1028 76 10000 4.1 320 22:44 06.01.2020
1237 Clouds 8 1028 76 10000 3.1 320 22:25 06.01.2020
1238 Clouds 7 1028 76 10000 3.1 320 21:59 06.01.2020
1239 Clouds 7 1028 76 10000 3.1 320 21:40 06.01.2020
1240 Clouds 7 1028 71 10000 1.5 320 21:20 06.01.2020
1241 Clouds 6 1028 71 10000 1 0 20:58 06.01.2020
1242 Clouds 6 1028 71 10000 1 0 20:40 06.01.2020
1243 Clouds 7 1028 66 10000 1 0 20:20 06.01.2020
1244 Clouds 6 1028 71 10000 1.5 0 19:57 06.01.2020
1245 Clouds 7 1028 71 10000 1.5 0 19:39 06.01.2020
1246 Clouds 7 1028 71 10000 2.1 150 19:20 06.01.2020
1247 Clouds 9 1028 71 10000 1.5 130 18:48 06.01.2020
1248 Clouds 9 1028 71 10000 2.1 130 18:25 06.01.2020
1249 Clouds 11 1028 71 10000 3.1 120 18:00 06.01.2020
1250 Clouds 9 1028 71 10000 3.1 120 17:39 06.01.2020
1251 Clouds 10 1028 66 10000 2.6 120 17:19 06.01.2020
1252 Clouds 10 1028 62 10000 2.6 130 16:55 06.01.2020
1253 Clouds 11 1028 62 10000 2.6 120 16:36 06.01.2020
1254 Clouds 11 1028 62 10000 2.6 120 16:18 06.01.2020
1255 Clouds 12 1028 67 10000 2.1 120 15:42 06.01.2020
1256 Clouds 11 1028 62 10000 2.1 120 15:20 06.01.2020
1257 Clouds 11 1028 62 10000 2.6 120 14:59 06.01.2020
1258 Clouds 11 1028 62 10000 2.6 120 14:41 06.01.2020
1259 Clouds 11 1028 62 10000 2.6 120 14:41 06.01.2020
1260 Clouds 12 1029 58 10000 3.1 100 14:21 06.01.2020
1261 Clouds 12 1029 62 10000 3.6 100 13:58 06.01.2020
1262 Clouds 11 1029 62 10000 3.6 100 13:38 06.01.2020
1263 Clouds 13 1030 62 10000 3.6 90 13:20 06.01.2020
1264 Clouds 13 1030 62 10000 4.6 90 12:44 06.01.2020
1265 Clouds 13 1030 46 10000 3.6 320 12:21 06.01.2020
1266 Clouds 12 1031 50 10000 4.6 320 11:59 06.01.2020
1267 Clouds 13 1031 50 10000 4.6 320 11:41 06.01.2020
1268 Clouds 10 1031 53 10000 5.1 320 11:23 06.01.2020
1269 Clouds 9 1031 64 10000 5.7 330 10:57 06.01.2020
1270 Clouds 8 1031 64 10000 5.7 330 10:39 06.01.2020
1271 Clouds 8 1031 64 10000 6.2 330 10:20 06.01.2020
1272 Clouds 8 1031 64 10000 6.2 330 10:20 06.01.2020
1273 Clouds 9 1031 64 10000 6.2 330 09:39 06.01.2020
1274 Clouds 8 1031 64 10000 6.2 330 09:20 06.01.2020
1275 Clouds 6 1030 64 10000 6.7 320 08:48 06.01.2020
1276 Clouds 6 1030 64 10000 6.7 320 08:48 06.01.2020
1277 Clouds 5 1030 66 10000 5.7 330 08:30 06.01.2020
1278 Clear 5 1030 56 10000 5.7 330 07:56 06.01.2020
1279 Clear 4 1030 68 10000 5.7 330 07:33 06.01.2020
1280 Clear 4 1030 68 10000 6.7 330 06:46 06.01.2020
1281 Clear 5 1030 68 10000 5.1 330 06:23 06.01.2020
1282 Clear 5 1030 68 10000 6.2 330 05:45 06.01.2020
1283 Clear 5 1029 62 10000 5.7 330 04:53 06.01.2020
1284 Clear 7 1030 62 10000 5.1 330 04:20 06.01.2020
1285 Clear 6 1030 61 10000 4.1 330 02:58 06.01.2020
1286 Clear 6 1030 61 10000 3.6 330 02:24 06.01.2020
1287 Clear 6 1030 65 10000 4.6 330 01:45 06.01.2020
1288 Clear 6 1030 65 10000 4.6 330 01:27 06.01.2020
1289 Clear 7 1030 61 10000 5.1 320 00:44 06.01.2020
1290 Clear 7 1030 66 10000 5.1 330 00:24 06.01.2020
1291 Clear 7 1030 70 10000 4.6 330 23:43 05.01.2020
1292 Clear 7 1030 70 10000 4.6 330 23:43 05.01.2020
1293 Clear 7 1030 70 10000 3.6 330 23:23 05.01.2020
1294 Clear 7 1030 93 10000 2.1 360 22:58 05.01.2020
1295 Clear 7 1030 93 10000 2.1 360 22:39 05.01.2020
1296 Clear 7 1030 70 10000 5.1 330 22:20 05.01.2020
1297 Clear 7 1029 76 10000 5.1 330 21:56 05.01.2020
1298 Clear 7 1029 76 10000 5.1 330 21:38 05.01.2020
1299 Clouds 8 1029 76 10000 4.6 320 21:20 05.01.2020
1300 Clouds 8 1029 81 10000 3.6 330 20:56 05.01.2020
1301 Clouds 8 1029 81 10000 3.6 330 20:38 05.01.2020
1302 Clouds 8 1029 87 10000 4.1 320 20:19 05.01.2020
1303 Clouds 8 1029 81 10000 3.6 320 19:57 05.01.2020
1304 Clouds 9 1029 81 10000 3.6 320 19:38 05.01.2020
1305 Clouds 9 1029 81 10000 3.6 70 19:19 05.01.2020
1306 Clouds 9 1028 82 10000 3.6 80 18:55 05.01.2020
1307 Clouds 9 1028 87 10000 3.6 80 18:37 05.01.2020
1308 Clouds 9 1028 87 10000 3.6 80 18:37 05.01.2020
1309 Clouds 9 1028 87 10000 3.6 80 18:18 05.01.2020
1310 Clouds 10 1028 82 10000 4.1 90 17:57 05.01.2020
1311 Clouds 10 1028 82 10000 4.1 90 17:38 05.01.2020
1312 Clouds 11 1027 82 10000 4.1 90 17:19 05.01.2020
1313 Clouds 12 1027 76 10000 5.1 70 16:55 05.01.2020
1314 Clouds 12 1027 76 10000 5.1 70 16:37 05.01.2020
1315 Clouds 13 1027 72 10000 6.7 80 16:19 05.01.2020
1316 Clouds 14 1027 77 10000 5.1 80 15:37 05.01.2020
1317 Clouds 12 1026 72 10000 3.6 70 15:19 05.01.2020
1318 Clear 15 1026 72 10000 3.1 70 14:55 05.01.2020
1319 Clear 15 1026 72 10000 3.1 70 14:37 05.01.2020
1320 Clear 14 1027 72 10000 3.6 90 14:18 05.01.2020
1321 Clear 14 1026 72 10000 3.6 90 13:55 05.01.2020
1322 Clear 14 1026 72 10000 3.6 90 13:37 05.01.2020
1323 Clear 14 1027 67 10000 1 0 13:18 05.01.2020
1324 Clear 14 1027 67 10000 1 0 13:18 05.01.2020
1325 Clear 14 1027 67 10000 1 0 13:18 05.01.2020
1326 Clear 14 1027 67 10000 1 0 13:18 05.01.2020
1327 Clear 14 1027 67 10000 1.5 0 12:55 05.01.2020
1328 Clear 14 1027 67 10000 1.5 0 12:36 05.01.2020
1329 Clear 14 1027 44 10000 2.6 320 12:18 05.01.2020
1330 Clear 13 1027 43 10000 3.6 330 11:43 05.01.2020
1331 Clear 13 1027 43 10000 3.6 330 11:43 05.01.2020
1332 Clear 13 1027 43 10000 3.6 330 11:43 05.01.2020
1333 Clear 13 1027 43 10000 3.6 330 11:43 05.01.2020
1334 Clear 13 1027 43 10000 3.6 330 11:43 05.01.2020
1335 Clear 10 1027 46 10000 3.6 330 11:19 05.01.2020
1336 Clear 9 1027 68 10000 4.6 330 10:58 05.01.2020
1337 Clear 9 1027 68 10000 4.6 330 10:39 05.01.2020
1338 Clear 9 1027 68 10000 4.6 330 10:39 05.01.2020
1339 Clear 9 1027 68 10000 4.6 330 10:39 05.01.2020
1340 Clear 9 1027 68 10000 4.6 330 10:39 05.01.2020
1341 Clear 9 1027 68 10000 4.6 330 10:39 05.01.2020
1342 Clear 8 1026 68 10000 5.1 330 10:19 05.01.2020
1343 Clear 9 1026 68 10000 5.1 320 09:42 05.01.2020
1344 Clear 7 1025 52 10000 5.1 330 09:22 05.01.2020
1345 Clear 7 1025 52 10000 4.6 320 08:50 05.01.2020
1346 Clear 6 1024 52 10000 4.6 330 08:30 05.01.2020
1347 Clear 6 1024 52 10000 5.7 330 07:56 05.01.2020
1348 Clear 6 1024 52 10000 5.7 330 07:38 05.01.2020
1349 Clear 6 1024 52 10000 4.6 330 07:20 05.01.2020
1350 Clear 6 1023 52 10000 5.1 330 06:20 05.01.2020
1351 Clear 6 1023 52 10000 5.1 330 05:33 05.01.2020
1352 Clear 6 1023 52 10000 5.1 330 05:33 05.01.2020
1353 Clear 6 1023 52 10000 5.1 330 05:33 05.01.2020
1354 Clear 6 1023 62 10000 5.1 330 04:44 05.01.2020
1355 Clear 6 1023 62 10000 4.6 330 04:18 05.01.2020
1356 Clear 7 1022 62 10000 5.1 330 02:46 05.01.2020
1357 Clear 6 1022 65 10000 5.1 330 02:24 05.01.2020
1358 Clear 7 1022 65 10000 3.6 330 01:48 05.01.2020
1359 Clear 6 1022 63 10000 4.6 330 01:19 05.01.2020
1360 Clear 6 1022 63 10000 5.1 330 00:54 05.01.2020
1361 Clear 7 1022 63 10000 4.1 340 00:36 05.01.2020
1362 Clear 6 1022 63 10000 5.1 330 00:36 05.01.2020
1363 Clear 6 1022 63 10000 4.1 340 00:18 05.01.2020
1364 Clear 6 1023 53 10000 6.7 320 23:40 04.01.2020
1365 Clear 7 1023 53 10000 5.7 320 23:20 04.01.2020
1366 Clear 6 1023 57 10000 5.7 320 22:40 04.01.2020
1367 Clear 6 1023 61 10000 6.7 320 22:22 04.01.2020
1368 Clear 6 1023 61 10000 6.7 320 22:22 04.01.2020
1369 Clear 7 1023 61 10000 3.6 340 21:58 04.01.2020
1370 Clear 7 1023 61 10000 3.6 340 21:40 04.01.2020
1371 Clear 7 1023 61 10000 3.6 340 21:40 04.01.2020
1372 Clear 7 1023 61 10000 5.7 320 21:21 04.01.2020
1373 Clear 7 1024 61 10000 5.7 330 20:59 04.01.2020
1374 Clear 8 1024 61 10000 5.7 330 20:40 04.01.2020
1375 Clear 8 1023 66 10000 6.2 320 20:22 04.01.2020
1376 Clear 8 1023 66 10000 6.2 320 19:57 04.01.2020
1377 Clear 8 1023 66 10000 6.2 320 19:38 04.01.2020
1378 Clear 8 1023 61 10000 5.7 320 19:20 04.01.2020
1379 Clear 8 1023 61 10000 6.2 320 18:56 04.01.2020
1380 Clear 8 1023 61 10000 6.2 320 18:37 04.01.2020
1381 Clear 8 1024 66 10000 5.1 320 18:19 04.01.2020
1382 Clear 9 1024 57 10000 4.6 320 17:41 04.01.2020
1383 Clear 11 1024 54 10000 3.1 320 17:23 04.01.2020
1384 Clear 12 1024 50 10000 1.5 320 16:59 04.01.2020
1385 Clear 12 1024 50 10000 1.5 320 16:40 04.01.2020
1386 Clear 13 1024 58 10000 0.5 0 16:21 04.01.2020
1387 Clear 14 1024 50 10000 2.1 300 15:56 04.01.2020
1388 Clear 14 1024 50 10000 2.1 300 15:38 04.01.2020
1389 Clear 14 1024 50 10000 2.6 320 15:18 04.01.2020
1390 Clear 12 1023 47 10000 3.1 320 14:42 04.01.2020
1391 Clear 12 1023 47 10000 3.1 320 14:42 04.01.2020
1392 Clouds 13 1024 50 10000 3.6 320 14:20 04.01.2020
1393 Clouds 14 1024 47 10000 3.6 320 13:59 04.01.2020
1394 Clouds 13 1024 47 10000 3.6 320 13:38 04.01.2020
1395 Clouds 13 1024 47 10000 4.6 320 13:20 04.01.2020
1396 Clouds 14 1025 47 10000 5.1 330 12:57 04.01.2020
1397 Clouds 13 1025 47 10000 5.1 330 12:39 04.01.2020
1398 Clouds 13 1025 50 10000 5.7 330 12:19 04.01.2020
1399 Clouds 12 1026 50 10000 6.7 330 11:57 04.01.2020
1400 Clouds 12 1026 50 10000 6.7 330 11:38 04.01.2020
1401 Clouds 8 1026 53 10000 6.7 330 11:18 04.01.2020
1402 Clouds 8 1026 57 10000 7.2 330 10:41 04.01.2020
1403 Clouds 7 1025 65 10000 5.1 330 10:22 04.01.2020
1404 Clouds 8 1025 65 10000 5.7 340 09:50 04.01.2020
1405 Clouds 8 1025 70 10000 7.7 330 09:26 04.01.2020
1406 Clouds 5 1025 70 10000 7.7 330 08:57 04.01.2020
1407 Clouds 5 1025 70 10000 7.7 330 08:37 04.01.2020
1408 Clouds 4 1024 70 10000 7.2 330 08:19 04.01.2020
1409 Clouds 4 1024 70 10000 7.7 330 07:42 04.01.2020
1410 Clouds 4 1024 75 10000 6.7 330 06:49 04.01.2020
1411 Clouds 5 1023 75 10000 5.7 330 05:59 04.01.2020
1412 Clouds 5 1023 70 10000 5.1 330 05:18 04.01.2020
1413 Clouds 6 1023 75 10000 7.2 330 04:33 04.01.2020
1414 Clouds 5 1023 75 10000 7.7 330 03:43 04.01.2020
1415 Clouds 5 1023 75 10000 7.2 330 03:18 04.01.2020
1416 Clouds 6 1023 75 10000 6.2 320 02:21 04.01.2020
1417 Clouds 6 1023 75 10000 6.2 320 02:21 04.01.2020
1418 Clouds 6 1023 75 10000 5.1 330 01:53 04.01.2020
1419 Clouds 5 1023 75 10000 5.7 330 01:30 04.01.2020
1420 Clouds 6 1024 75 10000 6.2 320 00:43 04.01.2020
1421 Clouds 6 1024 75 10000 5.7 330 00:23 04.01.2020
1422 Clouds 6 1024 75 10000 5.1 330 23:44 03.01.2020
1423 Clouds 6 1024 75 10000 4.6 330 23:25 03.01.2020
1424 Clouds 6 1024 75 10000 4.6 330 22:41 03.01.2020
1425 Clouds 6 1024 75 10000 4.6 330 22:20 03.01.2020
1426 Clouds 6 1024 76 10000 4.1 330 21:59 03.01.2020
1427 Clouds 6 1025 76 10000 5.1 330 21:38 03.01.2020
1428 Clouds 7 1025 76 10000 5.1 330 21:19 03.01.2020
1429 Clouds 7 1025 76 10000 5.1 330 21:19 03.01.2020
1430 Clouds 7 1025 76 10000 4.6 330 20:58 03.01.2020
1431 Clouds 7 1025 76 10000 4.6 330 20:40 03.01.2020
1432 Clouds 7 1025 76 10000 4.1 330 20:18 03.01.2020
1433 Clouds 7 1025 76 10000 3.6 330 19:57 03.01.2020
1434 Clouds 7 1025 76 10000 3.6 330 19:38 03.01.2020
1435 Clouds 7 1025 76 10000 4.1 330 19:19 03.01.2020
1436 Clouds 8 1025 71 10000 3.1 330 18:44 03.01.2020
1437 Clouds 8 1025 71 10000 3.1 330 18:25 03.01.2020
1438 Clouds 8 1025 66 10000 3.1 330 17:56 03.01.2020
1439 Clouds 8 1025 66 10000 3.1 330 17:38 03.01.2020
1440 Clouds 8 1025 66 10000 3.1 330 17:38 03.01.2020
1441 Clouds 9 1026 66 10000 2.1 320 17:19 03.01.2020
1442 Clouds 9 1026 71 10000 2.1 30 16:42 03.01.2020
1443 Clouds 10 1026 66 10000 2.1 30 16:24 03.01.2020
1444 Clouds 10 1026 66 10000 1 0 15:57 03.01.2020
1445 Clouds 10 1026 66 10000 1 0 15:39 03.01.2020
1446 Clouds 10 1026 66 10000 0.5 0 15:18 03.01.2020
1447 Clouds 10 1026 66 10000 0.5 0 14:39 03.01.2020
1448 Clouds 11 1026 66 10000 1 0 14:19 03.01.2020
1449 Clouds 11 1027 66 10000 1.5 0 13:56 03.01.2020
1450 Clouds 11 1027 66 10000 1.5 0 13:37 03.01.2020
1451 Clouds 10 1027 66 10000 1.5 300 13:19 03.01.2020
1452 Clouds 12 1028 58 10000 2.6 300 12:39 03.01.2020
1453 Clouds 11 1028 57 10000 3.1 310 12:21 03.01.2020
1454 Clouds 10 1028 57 10000 4.1 310 11:48 03.01.2020
1455 Clouds 9 1029 61 10000 4.1 320 11:29 03.01.2020
1456 Clouds 9 1029 66 10000 4.6 320 10:47 03.01.2020
1457 Clouds 7 1029 66 10000 4.1 320 10:28 03.01.2020
1458 Clouds 8 1029 81 10000 1.5 0 09:59 03.01.2020
1459 Clouds 7 1029 81 10000 1.5 0 09:41 03.01.2020
1460 Clouds 7 1029 70 10000 4.1 330 09:22 03.01.2020
1461 Clouds 6 1029 70 10000 4.6 330 08:57 03.01.2020
1462 Clouds 5 1029 70 10000 4.6 330 08:39 03.01.2020
1463 Clouds 5 1029 75 10000 4.1 320 08:20 03.01.2020
1464 Clouds 5 1029 70 10000 3.6 330 07:42 03.01.2020
1465 Clouds 5 1029 75 10000 3.6 330 07:19 03.01.2020
1466 Clouds 5 1029 75 10000 3.6 320 06:56 03.01.2020
1467 Clouds 5 1029 75 10000 3.6 320 06:37 03.01.2020
1468 Clouds 5 1028 70 10000 4.6 330 06:18 03.01.2020
1469 Clouds 5 1028 70 10000 5.1 320 04:42 03.01.2020
1470 Clouds 5 1029 75 10000 5.1 330 03:34 03.01.2020
1471 Clouds 6 1029 75 10000 3.6 330 02:47 03.01.2020
1472 Clouds 6 1030 75 10000 4.1 320 01:47 03.01.2020
1473 Clouds 6 1030 75 10000 4.1 320 00:57 03.01.2020
1474 Clouds 6 1031 81 10000 4.1 320 00:33 03.01.2020
1475 Clouds 6 1031 81 10000 3.6 320 23:58 02.01.2020
1476 Clouds 6 1031 81 10000 3.6 320 23:39 02.01.2020
1477 Clouds 6 1031 81 10000 3.1 330 23:20 02.01.2020
1478 Clouds 6 1031 76 10000 4.1 330 22:58 02.01.2020
1479 Clouds 6 1031 76 10000 4.1 330 22:39 02.01.2020
1480 Clouds 6 1031 76 10000 3.6 320 22:19 02.01.2020
1481 Clouds 6 1031 76 10000 3.1 320 21:55 02.01.2020
1482 Clouds 6 1031 76 10000 3.1 320 21:36 02.01.2020
1483 Clouds 6 1031 81 10000 2.6 330 21:18 02.01.2020
1484 Clouds 6 1031 81 10000 2.6 320 20:54 02.01.2020
1485 Clouds 7 1031 81 10000 2.6 320 20:36 02.01.2020
1486 Clouds 7 1031 81 10000 3.1 320 20:18 02.01.2020
1487 Clouds 7 1031 76 10000 2.6 310 19:54 02.01.2020
1488 Clouds 7 1031 76 10000 2.6 310 19:36 02.01.2020
1489 Clouds 7 1031 76 10000 2.1 290 19:36 02.01.2020
1490 Clouds 7 1031 76 10000 2.1 290 19:18 02.01.2020
1491 Clouds 8 1030 71 10000 2.1 250 18:42 02.01.2020
1492 Clouds 8 1030 71 10000 2.6 250 18:23 02.01.2020
1493 Clouds 9 1030 66 10000 3.1 240 17:58 02.01.2020
1494 Clouds 8 1030 66 10000 3.1 240 17:38 02.01.2020
1495 Clouds 10 1030 62 10000 4.1 230 17:19 02.01.2020
1496 Clouds 10 1030 62 10000 4.1 230 16:58 02.01.2020
1497 Clouds 10 1030 62 10000 4.1 230 16:40 02.01.2020
1498 Clouds 11 1030 62 10000 3.6 220 16:20 02.01.2020
1499 Clouds 11 1030 62 10000 2.6 210 15:57 02.01.2020
1500 Clouds 11 1030 62 10000 2.6 210 15:39 02.01.2020
1501 Clouds 12 1030 67 10000 3.6 190 15:19 02.01.2020
1502 Clouds 12 1031 67 10000 3.6 200 14:56 02.01.2020
1503 Clouds 12 1031 67 10000 3.6 200 14:36 02.01.2020
1504 Clouds 12 1031 67 10000 2.6 200 14:18 02.01.2020
1505 Clouds 12 1031 62 10000 2.1 210 13:48 02.01.2020
1506 Clouds 12 1032 58 10000 1.5 0 13:30 02.01.2020
1507 Clouds 12 1032 50 10000 2.6 320 12:46 02.01.2020
1508 Clouds 11 1033 50 10000 3.6 320 12:25 02.01.2020
1509 Clouds 11 1033 57 10000 5.1 320 11:58 02.01.2020
1510 Clouds 11 1033 57 10000 5.1 320 11:40 02.01.2020
1511 Clouds 10 1033 57 10000 5.1 320 11:19 02.01.2020
1512 Clouds 7 1033 61 10000 5.7 330 10:44 02.01.2020
1513 Clouds 6 1033 71 10000 5.7 330 10:25 02.01.2020
1514 Clouds 6 1033 71 10000 6.7 330 09:48 02.01.2020
1515 Clouds 6 1033 71 10000 6.7 330 09:29 02.01.2020
1516 Clouds 5 1032 71 10000 5.7 330 08:47 02.01.2020
1517 Clouds 6 1032 70 10000 5.7 330 08:27 02.01.2020
1518 Clouds 5 1032 71 10000 6.2 330 07:53 02.01.2020
1519 Clouds 5 1032 71 10000 6.2 330 07:30 02.01.2020
1520 Clouds 4 1032 71 10000 6.2 330 06:46 02.01.2020
1521 Clouds 5 1032 65 10000 5.7 320 06:27 02.01.2020
1522 Clouds 4 1031 71 10000 5.7 330 05:35 02.01.2020
1523 Clouds 6 1032 65 10000 5.7 330 04:33 02.01.2020
1524 Clouds 5 1032 65 10000 6.2 320 02:54 02.01.2020
1525 Clouds 5 1031 70 10000 5.1 330 01:59 02.01.2020
1526 Clouds 5 1031 70 10000 5.1 330 01:39 02.01.2020
1527 Clouds 5 1032 70 10000 5.7 320 00:59 02.01.2020
1528 Clouds 5 1032 75 10000 5.1 330 00:33 02.01.2020
1529 Clouds 5 1032 75 10000 4.6 330 23:56 01.01.2020
1530 Clouds 6 1031 75 10000 4.6 330 23:37 01.01.2020
1531 Clouds 6 1031 75 10000 4.6 330 23:18 01.01.2020
1532 Clouds 6 1031 70 10000 4.1 330 22:38 01.01.2020
1533 Clouds 6 1031 75 10000 4.1 330 22:19 01.01.2020
1534 Clouds 5 1031 75 10000 4.1 330 21:56 01.01.2020
1535 Clouds 5 1031 75 10000 4.1 330 21:38 01.01.2020
1536 Clouds 6 1031 75 10000 4.6 340 21:19 01.01.2020
1537 Clouds 6 1031 75 10000 4.6 340 21:19 01.01.2020
1538 Clouds 7 1031 81 10000 3.6 330 20:55 01.01.2020
1539 Clouds 7 1031 81 10000 3.6 330 20:37 01.01.2020
1540 Clouds 7 1031 76 10000 3.6 330 20:19 01.01.2020
1541 Clouds 7 1031 76 10000 3.6 330 20:19 01.01.2020
1542 Clouds 8 1031 81 10000 5.1 320 19:55 01.01.2020
1543 Clouds 8 1031 81 10000 5.1 320 19:37 01.01.2020
1544 Clouds 8 1031 81 10000 4.1 320 19:19 01.01.2020
1545 Clouds 8 1030 76 10000 3.6 320 18:55 01.01.2020
1546 Clouds 9 1030 76 10000 2.6 330 18:36 01.01.2020
1547 Clouds 9 1030 76 10000 2.6 330 18:18 01.01.2020
1548 Clouds 8 1030 76 10000 2.45 230 17:56 01.01.2020
1549 Clouds 8 1030 76 10000 2.45 230 17:38 01.01.2020
1550 Clouds 9 1030 76 10000 1.5 240 17:18 01.01.2020
1551 Clear 11 1030 67 10000 1 240 16:42 01.01.2020
1552 Clear 12 1030 62 10000 1.5 200 16:23 01.01.2020
1553 Clear 13 1030 62 10000 1.5 200 15:58 01.01.2020
1554 Clear 11 1030 62 10000 1.5 200 15:40 01.01.2020
1555 Clear 14 1030 67 10000 2.1 190 15:21 01.01.2020
1556 Clear 12 1029 67 10000 2.1 190 14:59 01.01.2020
1557 Clear 12 1029 67 10000 2.1 190 14:40 01.01.2020
1558 Clouds 13 1030 67 10000 2.1 200 14:22 01.01.2020
1559 Clouds 13 1030 62 10000 1.5 190 13:56 01.01.2020
1560 Clouds 13 1030 62 10000 1.5 190 13:37 01.01.2020
1561 Clouds 13 1030 54 10000 1.5 230 13:19 01.01.2020
1562 Clouds 13 1031 50 10000 2.1 310 12:57 01.01.2020
1563 Clouds 12 1031 50 10000 2.1 310 12:39 01.01.2020
1564 Clouds 12 1031 46 10000 3.1 320 12:19 01.01.2020
1565 Clouds 11 1031 72 10000 4.1 320 11:55 01.01.2020
1566 Clouds 11 1031 72 10000 4.1 320 11:36 01.01.2020
1567 Clouds 11 1031 74 10000 5.1 320 11:18 01.01.2020
1568 Clouds 9 1031 52 10000 4.6 330 10:41 01.01.2020
1569 Clouds 9 1031 52 10000 4.6 330 10:21 01.01.2020
1570 Clouds 8 1031 56 10000 4.6 330 09:59 01.01.2020
1571 Clouds 7 1031 56 10000 4.6 330 09:38 01.01.2020
1572 Clouds 7 1031 56 10000 4.6 330 09:38 01.01.2020
1573 Clouds 6 1031 60 10000 5.7 330 09:18 01.01.2020
1574 Clouds 4 1031 60 10000 4.6 340 08:55 01.01.2020
1575 Clouds 5 1031 60 10000 4.6 340 08:36 01.01.2020
1576 Clouds 4 1030 60 10000 5.1 330 08:18 01.01.2020
1577 Clouds 4 1030 60 10000 4.1 350 07:54 01.01.2020
1578 Clouds 4 1030 60 10000 4.1 350 07:36 01.01.2020
1579 Clouds 4 1030 60 10000 6.7 320 06:45 01.01.2020
1580 Clouds 4 1030 60 10000 6.2 330 06:21 01.01.2020
1581 Clear 4 1030 60 10000 5.7 330 05:22 01.01.2020
1582 Clear 5 1030 75 10000 6.2 330 03:46 01.01.2020
1583 Clear 5 1030 75 10000 6.2 330 03:23 01.01.2020
1584 Clear 5 1030 75 10000 5.1 330 02:57 01.01.2020
1585 Clear 5 1030 75 10000 5.1 330 02:36 01.01.2020
1586 Clouds 5 1030 65 10000 5.1 330 01:57 01.01.2020
1587 Clouds 5 1030 65 10000 5.1 330 01:38 01.01.2020
1588 Clouds 5 1030 65 10000 6.2 320 01:20 01.01.2020
1589 Clouds 5 1030 65 10000 5.7 330 00:44 01.01.2020
1590 Clouds 5 1030 65 10000 4.6 330 00:25 01.01.2020
1591 Clouds 5 1030 65 10000 4.6 330 23:41 31.12.2019
1592 Clouds 5 1030 65 10000 5.1 330 23:21 31.12.2019
1593 Clouds 5 1030 70 10000 4.6 330 22:57 31.12.2019
1594 Clouds 5 1030 70 10000 4.6 330 22:39 31.12.2019
1595 Clouds 6 1030 70 10000 4.6 330 22:20 31.12.2019
1596 Clouds 5 1030 70 10000 4.6 330 21:57 31.12.2019
1597 Clouds 5 1030 70 10000 4.6 330 21:39 31.12.2019
1598 Clouds 6 1030 70 10000 4.1 330 21:20 31.12.2019
1599 Clouds 6 1030 75 10000 4.1 330 20:55 31.12.2019
1600 Clouds 6 1030 75 10000 4.1 330 20:37 31.12.2019
1601 Clear 6 1030 70 10000 4.6 330 20:18 31.12.2019
1602 Clouds 7 1030 76 10000 3.6 330 19:54 31.12.2019
1603 Clouds 7 1030 76 10000 3.1 320 19:36 31.12.2019
1604 Clouds 7 1030 76 10000 3.1 320 19:18 31.12.2019
1605 Clouds 7 1030 76 10000 3.1 330 18:54 31.12.2019
1606 Clouds 7 1030 76 10000 3.1 330 18:36 31.12.2019
1607 Clouds 7 1030 76 10000 1.5 340 18:18 31.12.2019
1608 Clouds 7 1030 66 10000 2.1 20 17:54 31.12.2019
1609 Clouds 7 1029 62 10000 1.5 20 17:36 31.12.2019
1610 Clouds 9 1029 62 10000 1.5 20 17:18 31.12.2019
1611 Clouds 10 1029 62 10000 0.5 0 16:54 31.12.2019
1612 Clouds 10 1029 62 10000 0.5 0 16:36 31.12.2019
1613 Clouds 11 1030 71 10000 1.5 0 16:18 31.12.2019
1614 Clouds 11 1030 71 10000 1.5 0 16:18 31.12.2019
1615 Clouds 11 1030 71 10000 3.1 220 15:54 31.12.2019
1616 Clouds 12 1029 66 10000 3.1 210 15:36 31.12.2019
1617 Clouds 12 1029 66 10000 3.1 210 15:18 31.12.2019
1618 Clouds 12 1030 62 10000 2.1 220 14:54 31.12.2019
1619 Clouds 12 1030 62 10000 2.1 220 14:36 31.12.2019
1620 Clear 12 1030 66 10000 2.1 210 14:18 31.12.2019
1621 Clear 12 1030 62 10000 2.6 200 13:54 31.12.2019
1622 Clear 12 1030 62 10000 2.6 200 13:36 31.12.2019
1623 Clear 12 1031 62 10000 2.6 230 13:18 31.12.2019
1624 Clear 11 1031 50 10000 1.5 310 12:40 31.12.2019
1625 Clear 11 1031 50 10000 1.5 310 12:40 31.12.2019
1626 Clear 11 1032 64 10000 3.1 320 12:20 31.12.2019
1627 Clear 11 1032 64 10000 3.1 320 12:20 31.12.2019
1628 Clear 11 1032 64 10000 4.1 320 11:57 31.12.2019
1629 Clear 11 1032 64 10000 4.1 320 11:39 31.12.2019
1630 Clear 9 1032 60 10000 4.6 320 11:20 31.12.2019
1631 Clear 9 1032 52 10000 5.1 330 10:58 31.12.2019
1632 Clear 9 1032 52 10000 5.1 330 10:39 31.12.2019
1633 Clear 8 1032 56 10000 5.7 330 10:20 31.12.2019
1634 Clear 6 1032 56 10000 6.2 330 09:59 31.12.2019
1635 Clear 6 1032 56 10000 6.2 330 09:40 31.12.2019
1636 Clouds 6 1032 60 10000 6.2 330 09:22 31.12.2019
1637 Clouds 5 1032 60 10000 6.7 330 08:59 31.12.2019
1638 Clouds 5 1032 60 10000 6.7 330 08:41 31.12.2019
1639 Clouds 4 1032 60 10000 6.2 320 08:20 31.12.2019
1640 Clouds 3 1031 60 10000 6.2 330 07:44 31.12.2019
1641 Clear 3 1031 60 10000 5.7 330 07:22 31.12.2019
1642 Clear 3 1031 60 10000 5.1 330 06:51 31.12.2019
1643 Clear 3 1031 60 10000 3.1 350 06:23 31.12.2019
1644 Clear 3 1031 60 10000 3.1 350 06:23 31.12.2019
1645 Clear 3 1032 60 10000 5.7 320 04:54 31.12.2019
1646 Clear 4 1032 58 10000 5.1 320 04:24 31.12.2019
1647 Clear 4 1032 58 10000 5.1 330 02:57 31.12.2019
1648 Clear 5 1032 65 10000 6.2 320 02:20 31.12.2019
1649 Clear 4 1032 65 10000 6.7 320 01:49 31.12.2019
1650 Clear 4 1032 65 10000 6.2 330 01:31 31.12.2019
1651 Clear 5 1033 70 10000 5.7 330 00:48 31.12.2019
1652 Clear 5 1033 70 10000 5.1 330 00:25 31.12.2019
1653 Clear 5 1033 70 10000 4.6 330 23:58 30.12.2019
1654 Clear 5 1033 70 10000 4.6 330 23:40 30.12.2019
1655 Clear 5 1033 75 10000 4.1 330 23:22 30.12.2019
1656 Clear 5 1033 75 10000 3.6 330 22:59 30.12.2019
1657 Clear 5 1033 75 10000 3.6 330 22:41 30.12.2019
1658 Clear 5 1033 70 10000 4.1 330 22:21 30.12.2019
1659 Clear 6 1033 75 10000 4.6 330 21:57 30.12.2019
1660 Clear 6 1033 75 10000 4.6 330 21:57 30.12.2019
1661 Clear 6 1033 75 10000 4.6 330 21:39 30.12.2019
1662 Clouds 6 1033 75 10000 3.6 330 21:20 30.12.2019
1663 Clouds 6 1033 75 10000 3.1 340 20:59 30.12.2019
1664 Clouds 7 1033 75 10000 3.1 340 20:41 30.12.2019
1665 Clouds 7 1033 76 10000 4.6 330 20:20 30.12.2019
1666 Clouds 8 1033 76 10000 2.6 350 19:59 30.12.2019
1667 Clouds 8 1033 76 10000 2.6 350 19:40 30.12.2019
1668 Clouds 8 1033 76 10000 3.6 320 19:20 30.12.2019
1669 Clouds 6 1033 81 10000 2.1 330 18:59 30.12.2019
1670 Clouds 6 1033 81 10000 2.1 330 18:41 30.12.2019
1671 Clouds 7 1033 76 10000 5.09 79 18:21 30.12.2019
1672 Clouds 7 1033 71 10000 5.09 79 17:58 30.12.2019
1673 Clouds 6 1033 71 10000 5.09 79 17:40 30.12.2019
1674 Clouds 9 1032 71 10000 0.5 0 17:19 30.12.2019
1675 Clouds 11 1032 66 10000 1.5 180 16:59 30.12.2019
1676 Clouds 11 1032 66 10000 1.5 180 16:38 30.12.2019
1677 Clouds 11 1032 66 10000 2.1 170 16:20 30.12.2019
1678 Clouds 12 1032 66 10000 2.1 170 15:56 30.12.2019
1679 Clouds 10 1032 66 10000 2.1 170 15:38 30.12.2019
1680 Clouds 11 1032 62 10000 2.1 180 15:19 30.12.2019
1681 Clear 11 1032 62 10000 2.6 190 14:43 30.12.2019
1682 Clear 13 1032 66 10000 2.6 190 14:21 30.12.2019
1683 Clear 11 1032 62 10000 1.5 180 13:59 30.12.2019
1684 Clear 13 1032 62 10000 1.5 180 13:41 30.12.2019
1685 Clear 13 1032 54 10000 1.5 0 13:22 30.12.2019
1686 Clear 13 1033 54 10000 2.1 320 12:57 30.12.2019
1687 Clear 12 1033 54 10000 2.1 320 12:38 30.12.2019
1688 Clouds 12 1033 50 10000 3.6 330 12:18 30.12.2019
1689 Clouds 12 1033 50 10000 3.6 330 12:18 30.12.2019
1690 Clouds 12 1033 53 10000 4.1 320 11:46 30.12.2019
1691 Clouds 10 1034 53 10000 5.1 330 11:22 30.12.2019
1692 Clouds 9 1034 57 10000 6.2 320 10:59 30.12.2019
1693 Clouds 9 1034 57 10000 6.2 320 10:40 30.12.2019
1694 Clouds 8 1033 61 10000 6.7 320 10:20 30.12.2019
1695 Clouds 7 1033 65 10000 6.7 330 09:44 30.12.2019
1696 Clouds 7 1033 65 10000 5.7 330 09:21 30.12.2019
1697 Clouds 6 1033 70 10000 6.2 330 08:57 30.12.2019
1698 Clouds 7 1033 70 10000 6.2 330 08:39 30.12.2019
1699 Clouds 7 1033 65 10000 4.1 340 08:20 30.12.2019
1700 Clouds 5 1033 65 10000 5.7 330 07:48 30.12.2019
1701 Clouds 5 1033 65 10000 4.6 330 07:25 30.12.2019
1702 Clouds 5 1033 65 10000 5.1 330 06:39 30.12.2019
1703 Clouds 7 1033 70 10000 4.1 330 04:32 30.12.2019
1704 Clouds 7 1033 70 10000 5.1 330 03:51 30.12.2019
1705 Clouds 6 1033 70 10000 5.7 330 02:47 30.12.2019
1706 Clouds 5 1032 70 10000 4.6 330 02:29 30.12.2019
1707 Clouds 5 1032 70 10000 4.1 330 01:43 30.12.2019
1708 Clouds 5 1032 70 10000 4.6 330 01:19 30.12.2019
1709 Clouds 4 1032 70 10000 4.6 330 00:42 30.12.2019
1710 Clouds 5 1032 75 10000 4.1 330 23:58 29.12.2019
1711 Clouds 5 1032 75 10000 4.1 330 23:38 29.12.2019
1712 Clouds 5 1032 75 10000 4.1 330 23:38 29.12.2019
1713 Clouds 6 1032 75 10000 4.1 330 23:19 29.12.2019
1714 Clouds 5 1031 70 10000 3.6 340 22:41 29.12.2019
1715 Clouds 5 1031 70 10000 3.6 340 22:41 29.12.2019
1716 Clouds 6 1031 70 10000 4.6 330 22:22 29.12.2019
1717 Clouds 6 1031 75 10000 3.1 350 21:57 29.12.2019
1718 Clouds 6 1031 75 10000 3.1 350 21:39 29.12.2019
1719 Clouds 7 1031 75 10000 3.6 330 21:20 29.12.2019
1720 Clouds 7 1031 75 10000 4.6 320 20:57 29.12.2019
1721 Clouds 7 1031 75 10000 4.6 320 20:38 29.12.2019
1722 Clear 8 1031 76 10000 4.6 330 20:20 29.12.2019
1723 Clear 8 1031 76 10000 5.1 320 19:58 29.12.2019
1724 Clear 8 1031 76 10000 5.1 320 19:39 29.12.2019
1725 Clear 8 1031 76 10000 4.1 320 19:20 29.12.2019
1726 Clear 7 1031 81 10000 3.1 320 18:57 29.12.2019
1727 Clear 7 1031 81 10000 3.1 320 18:38 29.12.2019
1728 Clear 7 1031 76 10000 1.5 300 18:19 29.12.2019
1729 Clouds 7 1031 71 10000 1.5 250 17:57 29.12.2019
1730 Clouds 7 1031 71 10000 1.5 250 17:39 29.12.2019
1731 Clouds 10 1031 71 10000 2.6 240 17:20 29.12.2019
1732 Clouds 11 1031 66 10000 2.6 230 16:56 29.12.2019
1733 Clouds 11 1031 66 10000 2.6 230 16:37 29.12.2019
1734 Clouds 12 1031 62 10000 3.1 220 16:19 29.12.2019
1735 Clouds 12 1031 62 10000 2.6 220 15:57 29.12.2019
1736 Clouds 12 1031 62 10000 2.6 220 15:39 29.12.2019
1737 Clouds 12 1031 58 10000 1.5 210 15:20 29.12.2019
1738 Clouds 10 1031 58 10000 2.1 200 14:57 29.12.2019
1739 Clouds 10 1031 58 10000 2.1 200 14:38 29.12.2019
1740 Clouds 12 1031 58 10000 2.1 200 14:18 29.12.2019
1741 Clouds 10 1031 54 10000 1.5 0 13:57 29.12.2019
1742 Clouds 10 1031 54 10000 1.5 0 13:57 29.12.2019
1743 Clouds 10 1032 54 10000 1 0 13:38 29.12.2019
1744 Clouds 12 1032 54 10000 1 0 13:19 29.12.2019
1745 Clouds 12 1032 54 10000 2.6 310 12:45 29.12.2019
1746 Clouds 11 1033 54 10000 3.6 330 12:27 29.12.2019
1747 Clouds 11 1033 58 10000 4.1 330 11:58 29.12.2019
1748 Clouds 10 1033 58 10000 4.1 330 11:39 29.12.2019
1749 Clouds 9 1033 62 10000 4.6 330 11:20 29.12.2019
1750 Clouds 9 1033 61 10000 4.6 330 10:55 29.12.2019
1751 Clouds 9 1033 61 10000 4.6 330 10:37 29.12.2019
1752 Clouds 9 1033 66 10000 4.6 330 10:18 29.12.2019
1753 Clouds 8 1033 66 10000 4.6 330 09:41 29.12.2019
1754 Clouds 8 1033 66 10000 5.1 330 09:22 29.12.2019
1755 Clouds 7 1033 70 10000 5.7 330 08:48 29.12.2019
1756 Clouds 6 1033 70 10000 5.1 330 08:28 29.12.2019
1757 Clouds 6 1033 87 10000 2.1 360 07:58 29.12.2019
1758 Clouds 6 1032 70 10000 5.1 330 07:31 29.12.2019
1759 Clouds 6 1032 70 10000 5.1 330 06:57 29.12.2019
1760 Clouds 6 1032 70 10000 5.1 330 06:26 29.12.2019
1761 Clouds 6 1032 75 10000 4.1 330 05:54 29.12.2019
1762 Clouds 6 1032 75 10000 5.1 330 04:37 29.12.2019
1763 Clouds 7 1032 75 10000 4.1 330 03:59 29.12.2019
1764 Clouds 7 1033 75 10000 4.6 330 03:21 29.12.2019
1765 Clouds 8 1032 75 10000 4.6 330 02:22 29.12.2019
1766 Clouds 8 1032 75 10000 4.6 320 01:42 29.12.2019
1767 Clouds 8 1032 76 10000 5.1 330 01:22 29.12.2019
1768 Clouds 6 1032 81 10000 2.6 330 00:42 29.12.2019
1769 Clouds 6 1032 81 10000 4.1 330 00:24 29.12.2019
1770 Clouds 6 1032 76 10000 3.6 330 23:45 28.12.2019
1771 Clouds 7 1032 81 10000 3.6 320 23:18 28.12.2019
1772 Clouds 7 1032 81 10000 3.6 330 22:54 28.12.2019
1773 Clouds 7 1032 81 10000 2.6 330 22:36 28.12.2019
1774 Clouds 7 1032 81 10000 2.6 330 22:18 28.12.2019
1775 Clouds 7 1031 81 10000 3.6 330 21:55 28.12.2019
1776 Clouds 7 1031 81 10000 2.6 330 21:36 28.12.2019
1777 Clouds 7 1031 81 10000 2.6 330 21:18 28.12.2019
1778 Clouds 10 1031 71 10000 3.1 20 20:40 28.12.2019
1779 Clouds 10 1031 71 10000 2.6 80 20:22 28.12.2019
1780 Clouds 11 1031 71 10000 3.1 100 19:59 28.12.2019
1781 Clouds 11 1030 71 10000 3.1 100 19:40 28.12.2019
1782 Clouds 11 1030 71 10000 3.1 100 19:22 28.12.2019
1783 Clouds 10 1030 71 10000 3.1 90 18:59 28.12.2019
1784 Clouds 9 1030 71 10000 2.6 90 18:40 28.12.2019
1785 Clouds 9 1030 71 10000 2.6 90 18:20 28.12.2019
1786 Clouds 9 1029 71 10000 3.6 110 17:57 28.12.2019
1787 Clouds 8 1029 71 10000 3.6 110 17:38 28.12.2019
1788 Clouds 11 1029 71 10000 3.1 130 17:19 28.12.2019
1789 Clouds 11 1029 71 10000 2.6 120 16:47 28.12.2019
1790 Clouds 12 1029 62 10000 3.1 120 16:26 28.12.2019
1791 Clouds 10 1029 67 10000 3.6 120 15:57 28.12.2019
1792 Clouds 10 1029 67 10000 3.6 120 15:39 28.12.2019
1793 Clouds 10 1028 67 10000 3.6 120 15:20 28.12.2019
1794 Clouds 10 1029 67 10000 3.6 110 14:45 28.12.2019
1795 Clouds 13 1029 67 10000 4.1 110 14:24 28.12.2019
1796 Clouds 13 1029 67 10000 4.6 100 13:58 28.12.2019
1797 Clouds 13 1029 67 10000 4.6 100 13:38 28.12.2019
1798 Clouds 11 1029 62 10000 4.6 90 13:19 28.12.2019
1799 Clouds 13 1029 67 10000 4.6 80 12:44 28.12.2019
1800 Clouds 13 1029 67 10000 4.6 80 12:44 28.12.2019
1801 Clouds 13 1030 47 10000 4.1 330 12:25 28.12.2019
1802 Clouds 12 1030 46 10000 5.1 320 11:59 28.12.2019
1803 Clouds 12 1030 46 10000 5.1 320 11:39 28.12.2019
1804 Clouds 9 1030 50 10000 5.7 320 11:20 28.12.2019
1805 Clouds 10 1029 53 10000 5.7 330 10:46 28.12.2019
1806 Clouds 8 1029 57 10000 6.2 330 10:23 28.12.2019
1807 Clouds 7 1029 61 10000 6.2 330 09:58 28.12.2019
1808 Clouds 8 1029 61 10000 6.2 330 09:40 28.12.2019
1809 Clouds 7 1028 67 10000 6.7 330 09:21 28.12.2019
1810 Clouds 6 1028 67 10000 6.2 320 08:45 28.12.2019
1811 Clouds 4 1027 64 10000 5.1 330 08:27 28.12.2019
1812 Clear 4 1027 64 10000 5.7 330 07:59 28.12.2019
1813 Clear 5 1027 64 10000 5.7 330 07:39 28.12.2019
1814 Clear 5 1027 61 10000 5.7 330 06:50 28.12.2019
1815 Clear 4 1026 61 10000 5.7 330 05:40 28.12.2019
1816 Clear 7 1026 65 10000 5.7 330 03:48 28.12.2019
1817 Clear 7 1026 65 10000 5.1 330 02:50 28.12.2019
1818 Clear 8 1025 66 10000 4.1 340 02:19 28.12.2019
1819 Clear 7 1025 66 10000 3.6 350 01:50 28.12.2019
1820 Clear 6 1024 66 10000 4.6 350 01:21 28.12.2019
1821 Clear 8 1024 70 10000 5.7 330 00:42 28.12.2019
1822 Clear 7 1024 70 10000 5.7 320 00:23 28.12.2019
1823 Clear 6 1024 70 10000 5.7 330 23:56 27.12.2019
1824 Clear 6 1024 70 10000 5.7 330 23:36 27.12.2019
1825 Clear 6 1024 76 10000 4.1 330 23:18 27.12.2019
1826 Clear 8 1024 76 10000 5.7 320 22:55 27.12.2019
1827 Clear 8 1024 76 10000 6.2 330 22:37 27.12.2019
1828 Clear 8 1024 76 10000 6.2 330 22:19 27.12.2019
1829 Clear 8 1024 76 10000 5.7 330 21:41 27.12.2019
1830 Clear 8 1024 81 10000 5.1 320 21:23 27.12.2019
1831 Clear 8 1023 81 10000 5.1 320 20:44 27.12.2019
1832 Clear 9 1023 76 10000 5.1 330 20:26 27.12.2019
1833 Clear 9 1023 81 10000 4.1 320 19:57 27.12.2019
1834 Clear 9 1023 81 10000 4.1 320 19:38 27.12.2019
1835 Clouds 9 1023 81 10000 4.1 320 19:19 27.12.2019
1836 Clouds 7 1023 76 10000 2.1 320 18:55 27.12.2019
1837 Clouds 7 1023 76 10000 2.1 320 18:36 27.12.2019
1838 Clouds 8 1022 71 10000 3.6 80 18:18 27.12.2019
1839 Clouds 8 1022 71 10000 5.1 90 17:55 27.12.2019
1840 Clouds 8 1021 71 10000 4.6 80 17:36 27.12.2019
1841 Clouds 11 1021 71 10000 4.6 80 17:18 27.12.2019
1842 Clouds 12 1021 71 10000 4.6 90 16:41 27.12.2019
1843 Clouds 12 1021 71 10000 5.1 80 16:22 27.12.2019
1844 Clouds 12 1020 67 10000 5.1 90 15:57 27.12.2019
1845 Clouds 13 1020 67 10000 5.1 90 15:37 27.12.2019
1846 Clouds 13 1020 71 10000 4.6 80 15:19 27.12.2019
1847 Clouds 13 1020 71 10000 3.6 90 14:55 27.12.2019
1848 Clouds 13 1020 67 10000 3.1 110 14:37 27.12.2019
1849 Clouds 13 1020 67 10000 3.1 110 14:19 27.12.2019
1850 Clouds 13 1020 67 10000 3.1 110 14:19 27.12.2019
1851 Clouds 13 1020 58 10000 1.5 0 13:46 27.12.2019
1852 Clouds 13 1020 58 10000 0.5 0 13:23 27.12.2019
1853 Clouds 13 1020 47 10000 0.5 0 12:49 27.12.2019
1854 Clouds 13 1021 46 10000 3.6 330 12:29 27.12.2019
1855 Clouds 12 1020 50 10000 3.6 320 11:59 27.12.2019
1856 Clouds 11 1020 50 10000 3.6 320 11:41 27.12.2019
1857 Clouds 10 1021 66 10000 4.1 330 11:20 27.12.2019
1858 Clouds 8 1021 66 10000 5.7 330 10:47 27.12.2019
1859 Clouds 8 1021 66 10000 5.7 320 10:24 27.12.2019
1860 Clouds 8 1021 66 10000 5.7 330 09:59 27.12.2019
1861 Clouds 9 1021 66 10000 5.7 330 09:39 27.12.2019
1862 Clouds 7 1021 66 10000 6.2 330 09:21 27.12.2019
1863 Clouds 7 1021 66 10000 6.2 320 08:49 27.12.2019
1864 Clouds 5 1021 66 10000 5.1 340 08:30 27.12.2019
1865 Clouds 5 1021 66 10000 6.2 330 07:49 27.12.2019
1866 Clouds 4 1021 66 10000 5.1 330 07:28 27.12.2019
1867 Clouds 4 1021 66 10000 6.2 330 06:36 27.12.2019
1868 Clouds 4 1022 68 10000 6.7 320 04:58 27.12.2019
1869 Clouds 5 1022 65 10000 5.7 330 02:53 27.12.2019
1870 Clouds 5 1022 65 10000 5.1 330 01:59 27.12.2019
1871 Clouds 6 1022 61 10000 6.2 330 01:24 27.12.2019
1872 Clouds 5 1022 61 10000 5.7 330 00:58 27.12.2019
1873 Clouds 6 1022 61 10000 5.7 330 00:40 27.12.2019
1874 Clouds 6 1022 61 10000 5.1 330 00:21 27.12.2019
1875 Clouds 6 1022 87 10000 1.5 340 23:41 26.12.2019
1876 Clear 6 1022 65 10000 5.7 330 23:22 26.12.2019
1877 Clear 5 1021 65 10000 4.6 330 22:45 26.12.2019
1878 Clear 6 1021 65 10000 4.6 330 22:23 26.12.2019
1879 Clear 7 1021 61 10000 4.6 340 21:59 26.12.2019
1880 Clear 7 1021 61 10000 4.6 340 21:38 26.12.2019
1881 Clear 7 1022 66 10000 4.6 330 21:20 26.12.2019
1882 Clear 9 1022 66 10000 5.1 330 20:46 26.12.2019
1883 Clear 9 1022 70 10000 3.1 340 20:23 26.12.2019
1884 Clouds 9 1022 70 10000 4.1 330 19:59 26.12.2019
1885 Clouds 9 1022 70 10000 4.1 330 19:40 26.12.2019
1886 Clouds 10 1022 70 10000 4.6 320 19:21 26.12.2019
1887 Clouds 10 1022 71 10000 4.1 320 18:58 26.12.2019
1888 Clouds 8 1022 71 10000 4.1 320 18:39 26.12.2019
1889 Clouds 8 1022 71 10000 4.1 320 18:19 26.12.2019
1890 Clouds 9 1022 58 10000 3.1 320 17:55 26.12.2019
1891 Clouds 9 1022 58 10000 3.1 320 17:37 26.12.2019
1892 Clouds 11 1022 54 10000 2.1 320 17:18 26.12.2019
1893 Clouds 13 1021 47 10000 1.5 320 16:41 26.12.2019
1894 Clouds 13 1021 47 10000 1.5 320 16:22 26.12.2019
1895 Clouds 11 1021 47 10000 1.5 320 15:56 26.12.2019
1896 Clouds 11 1021 47 10000 1.5 320 15:37 26.12.2019
1897 Clouds 12 1021 44 10000 1.66 128 15:18 26.12.2019
1898 Clouds 12 1021 41 10000 1.5 0 14:40 26.12.2019
1899 Clouds 14 1021 41 10000 2.1 320 14:21 26.12.2019
1900 Clouds 15 1022 41 10000 4.1 320 13:43 26.12.2019
1901 Clouds 14 1022 43 10000 3.6 330 13:21 26.12.2019
1902 Clouds 13 1022 50 10000 5.1 320 12:58 26.12.2019
1903 Clouds 13 1022 50 10000 5.1 320 12:58 26.12.2019
1904 Clouds 13 1022 50 10000 5.1 320 12:39 26.12.2019
1905 Clouds 13 1022 50 10000 5.7 320 12:20 26.12.2019
1906 Clouds 13 1022 50 10000 5.7 330 11:57 26.12.2019
1907 Clouds 13 1022 50 10000 5.7 330 11:39 26.12.2019
1908 Clouds 12 1022 43 10000 6.2 330 11:20 26.12.2019
1909 Clouds 11 1022 46 10000 6.2 330 10:49 26.12.2019
1910 Clouds 8 1022 49 10000 6.7 330 10:19 26.12.2019
1911 Clouds 9 1022 49 10000 6.7 330 10:19 26.12.2019
1912 Clouds 9 1022 49 10000 6.7 330 10:19 26.12.2019
1913 Clouds 9 1021 49 10000 6.2 330 09:50 26.12.2019
1914 Clouds 9 1021 49 10000 5.7 330 09:32 26.12.2019
1915 Clouds 7 1020 49 10000 5.1 330 08:55 26.12.2019
1916 Clouds 8 1020 49 10000 5.1 320 08:37 26.12.2019
1917 Clouds 6 1020 49 10000 5.1 320 08:18 26.12.2019
1918 Clouds 6 1020 49 10000 5.1 320 07:31 26.12.2019
1919 Clouds 6 1019 49 10000 5.1 320 06:54 26.12.2019
1920 Clouds 6 1019 49 10000 4.6 330 06:33 26.12.2019
1921 Clouds 6 1018 49 10000 4.1 330 05:46 26.12.2019
1922 Clear 7 1018 54 10000 5.7 330 04:59 26.12.2019
1923 Clear 7 1018 61 10000 5.1 330 04:32 26.12.2019
1924 Clear 7 1018 65 10000 6.2 330 03:19 26.12.2019
1925 Clear 7 1018 65 10000 6.7 330 02:40 26.12.2019
1926 Clear 8 1018 65 10000 5.1 330 02:20 26.12.2019
1927 Clear 8 1018 70 10000 5.1 330 01:42 26.12.2019
1928 Clear 7 1018 70 10000 5.1 330 01:24 26.12.2019
1929 Clear 8 1018 70 10000 4.6 330 00:42 26.12.2019
1930 Clear 8 1018 70 10000 5.1 330 00:22 26.12.2019
1931 Clear 8 1018 70 10000 5.1 330 00:22 26.12.2019
1932 Clouds 8 1017 76 10000 2.6 340 23:56 25.12.2019
1933 Clouds 8 1017 76 10000 2.6 340 23:36 25.12.2019
1934 Clouds 8 1017 70 10000 5.1 320 23:18 25.12.2019
1935 Clear 8 1017 100 7000 0.5 0 22:55 25.12.2019
1936 Clear 8 1017 100 7000 0.5 0 22:55 25.12.2019
1937 Clear 8 1017 100 7000 0.5 0 22:36 25.12.2019
1938 Clouds 8 1017 76 10000 2.6 350 22:18 25.12.2019
1939 Clouds 8 1016 76 10000 4.6 320 21:40 25.12.2019
1940 -273 0 0 0 0 0 21:22 25.12.2019
1941 Clouds 8 1016 76 10000 4.1 320 20:59 25.12.2019
1942 Clouds 8 1016 76 10000 4.1 320 20:40 25.12.2019
1943 Clouds 10 1015 76 10000 3.6 320 20:19 25.12.2019
1944 Clouds 8 1015 81 10000 3.6 320 19:57 25.12.2019
1945 Clouds 8 1015 81 10000 3.6 320 19:39 25.12.2019
1946 Clouds 8 1015 76 10000 3.6 320 19:21 25.12.2019
1947 Clouds 9 1014 81 10000 3.1 70 18:39 25.12.2019
1948 Clouds 9 1014 87 10000 3.1 90 18:20 25.12.2019
1949 Clouds 10 1014 82 10000 1.5 80 17:57 25.12.2019
1950 Clouds 10 1014 82 10000 1.5 80 17:39 25.12.2019
1951 Clouds 11 1014 76 10000 1.5 100 17:18 25.12.2019
1952 Clear 12 1014 72 10000 1.5 110 16:39 25.12.2019
1953 Clear 12 1014 77 10000 2.1 130 16:20 25.12.2019
1954 Clear 13 1014 77 10000 1.5 0 15:59 25.12.2019
1955 Clear 12 1014 77 10000 1.5 0 15:40 25.12.2019
1956 Clear 13 1014 77 10000 2.1 180 15:22 25.12.2019
1957 Clear 13 1014 72 10000 1.5 170 14:59 25.12.2019
1958 Clear 13 1014 72 10000 1.5 170 14:41 25.12.2019
1959 Clear 15 1014 77 10000 1.5 180 14:23 25.12.2019
1960 Clear 15 1015 72 10000 2.1 180 13:57 25.12.2019
1961 Clear 15 1015 72 10000 2.1 180 13:39 25.12.2019
1962 Clear 15 1015 67 10000 1.5 0 13:19 25.12.2019
1963 Clear 16 1016 67 10000 1.5 170 12:43 25.12.2019
1964 Clear 16 1016 58 10000 1 0 12:21 25.12.2019
1965 Clear 16 1016 58 10000 1 0 12:21 25.12.2019
1966 Clear 15 1016 54 10000 3.1 320 11:57 25.12.2019
1967 Clear 15 1016 54 10000 3.1 320 11:39 25.12.2019
1968 Clear 12 1017 72 10000 1.9 359 11:20 25.12.2019
1969 Clear 12 1017 53 10000 4.6 330 10:39 25.12.2019
1970 Clouds 10 1016 57 10000 4.6 320 10:21 25.12.2019
1971 Clouds 9 1016 57 10000 4.6 330 09:51 25.12.2019
1972 Clouds 10 1016 57 10000 4.6 330 09:33 25.12.2019
1973 Clouds 8 1016 70 10000 5.7 320 08:52 25.12.2019
1974 Clouds 7 1016 75 10000 5.1 320 08:32 25.12.2019
1975 Clouds 8 1015 70 10000 5.1 320 07:59 25.12.2019
1976 Clouds 6 1015 70 10000 5.1 320 07:40 25.12.2019
1977 Clear 6 1015 70 10000 5.1 330 07:21 25.12.2019
1978 Clear 4 1015 70 10000 2.6 340 06:24 25.12.2019
1979 Clear 4 1015 70 10000 5.1 320 05:44 25.12.2019
1980 Clear 8 1015 75 10000 4.1 320 04:40 25.12.2019
1981 Clear 8 1015 70 10000 3.6 330 04:20 25.12.2019
1982 Clear 8 1015 70 10000 4.1 320 03:43 25.12.2019
1983 Clear 8 1015 75 10000 4.1 330 02:57 25.12.2019
1984 Clear 8 1015 75 10000 3.6 330 02:29 25.12.2019
1985 Clouds 9 1015 75 10000 4.1 330 01:42 25.12.2019
1986 Clouds 9 1015 75 10000 3.6 330 01:18 25.12.2019
1987 Clouds 8 1015 75 10000 3.1 330 00:41 25.12.2019
1988 Clouds 8 1016 66 10000 3.1 330 00:23 25.12.2019
1989 Clouds 8 1016 66 10000 3.6 330 23:39 24.12.2019
1990 Clouds 8 1016 66 10000 3.1 330 23:20 24.12.2019
1991 Clouds 9 1016 66 10000 3.1 330 22:42 24.12.2019
1992 Clouds 8 1016 66 10000 3.6 340 22:24 24.12.2019
1993 Clouds 9 1016 70 10000 3.1 340 21:59 24.12.2019
1994 Clouds 9 1016 70 10000 3.1 340 21:41 24.12.2019
1995 Clouds 9 1017 70 10000 3.1 340 21:20 24.12.2019
1996 Clouds 10 1016 70 10000 4.1 320 20:42 24.12.2019
1997 Clouds 10 1017 66 10000 3.6 330 20:23 24.12.2019
1998 Clouds 10 1016 66 10000 3.6 320 19:56 24.12.2019
1999 Clouds 10 1016 66 10000 3.6 320 19:37 24.12.2019
2000 Clouds 10 1016 66 10000 3.6 320 19:18 24.12.2019
2001 Clouds 9 1016 66 10000 3.6 320 18:42 24.12.2019
2002 Clouds 9 1016 71 10000 3.1 330 18:19 24.12.2019
2003 Clouds 10 1016 76 10000 4.1 90 17:44 24.12.2019
2004 Clouds 11 1015 76 10000 4.1 90 17:23 24.12.2019
2005 Clouds 14 1015 67 10000 4.6 90 16:58 24.12.2019
2006 Clouds 14 1015 67 10000 4.6 90 16:58 24.12.2019
2007 Clouds 15 1015 67 10000 4.6 90 16:40 24.12.2019
2008 Clouds 15 1015 67 10000 4.6 90 16:40 24.12.2019
2009 Clouds 16 1015 67 10000 5.1 80 16:22 24.12.2019
2010 Clouds 16 1015 62 10000 5.1 80 15:58 24.12.2019
2011 Clouds 12 1015 51 10000 5.1 90 15:38 24.12.2019
2012 Clouds 16 1015 51 10000 5.1 90 15:19 24.12.2019
2013 Clouds 13 1015 47 10000 4.1 80 14:58 24.12.2019
2014 Clouds 12 1015 47 10000 4.1 80 14:40 24.12.2019
2015 Clouds 16 1016 44 10000 2.1 110 14:22 24.12.2019
2016 Clouds 16 1016 41 10000 1 0 13:56 24.12.2019
2017 Clouds 16 1016 41 10000 1 0 13:38 24.12.2019
2018 Clouds 15 1016 44 10000 2.6 310 13:20 24.12.2019
2019 Clouds 15 1016 33 10000 4.1 300 12:57 24.12.2019
2020 Clouds 15 1016 33 10000 4.1 300 12:38 24.12.2019
2021 Clouds 15 1016 33 10000 4.1 300 12:38 24.12.2019
2022 Clouds 15 1017 35 10000 4.1 310 12:19 24.12.2019
2023 Clouds 14 1017 37 10000 5.1 330 11:58 24.12.2019
2024 Clouds 14 1017 37 10000 5.1 330 11:38 24.12.2019
2025 Clouds 10 1018 37 10000 3.6 290 11:20 24.12.2019
2026 Clouds 10 1018 43 10000 5.7 320 10:57 24.12.2019
2027 Clouds 10 1018 43 10000 5.7 320 10:38 24.12.2019
2028 Clouds 8 1017 43 10000 5.1 330 10:20 24.12.2019
2029 Clouds 7 1018 45 10000 4.6 340 09:58 24.12.2019
2030 Clouds 8 1018 45 10000 4.6 340 09:40 24.12.2019
2031 Clouds 7 1017 49 10000 6.7 320 09:22 24.12.2019
2032 Clouds 9 1017 49 10000 6.7 330 08:56 24.12.2019
2033 Clouds 8 1017 49 10000 6.7 330 08:37 24.12.2019
2034 Clear 7 1017 49 10000 7.2 320 08:18 24.12.2019
2035 Clear 6 1017 45 10000 6.7 320 07:43 24.12.2019
2036 Clear 6 1017 45 10000 5.1 330 07:21 24.12.2019
2037 Clear 7 1017 45 10000 7.7 320 06:41 24.12.2019
2038 Clear 7 1017 45 10000 7.7 320 06:22 24.12.2019
2039 Clear 7 1016 37 10000 3.1 300 05:56 24.12.2019
2040 Clear 8 1016 39 10000 4.6 340 05:20 24.12.2019
2041 Clear 8 1017 40 10000 6.2 350 04:22 24.12.2019
2042 Clear 7 1016 43 10000 6.7 350 03:50 24.12.2019
2043 Clear 8 1016 40 10000 5.7 350 02:59 24.12.2019
2044 Clouds 8 1016 40 10000 4.6 330 02:18 24.12.2019
2045 Clouds 9 1016 40 10000 5.7 340 01:42 24.12.2019
2046 Clear 8 1016 40 10000 5.1 340 01:19 24.12.2019
2047 Clear 8 1016 40 10000 6.7 330 00:41 24.12.2019
2048 Clear 9 1016 40 10000 5.7 320 00:22 24.12.2019
2049 Clear 9 1016 37 10000 6.7 350 23:55 23.12.2019
2050 Clear 9 1016 37 10000 6.7 350 23:37 23.12.2019
2051 Clear 9 1016 37 10000 5.1 330 23:19 23.12.2019
2052 Clear 10 1015 37 10000 2.1 300 22:54 23.12.2019
2053 Clear 10 1015 40 10000 3.6 260 22:36 23.12.2019
2054 Clear 11 1015 40 10000 3.6 260 22:18 23.12.2019
2055 Clear 12 1014 35 10000 5.1 340 21:54 23.12.2019
2056 Clear 12 1015 32 10000 5.1 340 21:36 23.12.2019
2057 Clear 12 1015 32 10000 5.1 340 21:18 23.12.2019
2058 Clear 12 1014 37 10000 1 0 20:55 23.12.2019
2059 Clear 12 1014 37 10000 1 0 20:37 23.12.2019
2060 Clear 12 1014 30 10000 3.1 280 20:18 23.12.2019
2061 Clear 12 1014 33 10000 2.6 260 19:54 23.12.2019
2062 Clear 12 1014 33 10000 2.6 260 19:36 23.12.2019
2063 Clear 12 1013 30 10000 2.6 310 19:18 23.12.2019
2064 Clear 13 1013 28 10000 7.7 320 18:54 23.12.2019
2065 Clear 13 1013 28 10000 7.7 320 18:36 23.12.2019
2066 Clear 13 1013 30 10000 7.7 300 18:18 23.12.2019
2067 Clear 13 1012 30 10000 6.2 280 17:55 23.12.2019
2068 Clear 13 1012 30 10000 6.2 280 17:37 23.12.2019
2069 Clear 13 1012 41 10000 7.7 280 17:18 23.12.2019
2070 Clear 13 1011 41 10000 8.2 280 16:42 23.12.2019
2071 Clear 14 1011 53 10000 9.3 280 16:19 23.12.2019
2072 Clear 15 1011 53 10000 9.8 280 15:58 23.12.2019
2073 Clear 16 1011 53 10000 9.8 280 15:37 23.12.2019
2074 Clouds 16 1011 33 10000 10.3 280 15:19 23.12.2019
2075 Clouds 16 1011 53 10000 9.3 280 14:57 23.12.2019
2076 Clouds 16 1011 53 10000 9.3 280 14:39 23.12.2019
2077 Clouds 15 1010 29 10000 10.3 290 14:20 23.12.2019
2078 Clouds 15 1010 53 10000 9.8 290 13:57 23.12.2019
2079 Clouds 15 1010 55 10000 9.8 290 13:39 23.12.2019
2080 Clouds 15 1011 55 10000 9.3 290 13:21 23.12.2019
2081 Clouds 15 1011 36 10000 10.3 300 12:55 23.12.2019
2082 Clouds 15 1011 36 10000 9.8 290 12:37 23.12.2019
2083 Clouds 15 1011 36 10000 9.8 290 12:18 23.12.2019
2084 Clear 15 1011 38 10000 8.7 300 11:44 23.12.2019
2085 Clear 15 1010 31 10000 10.8 290 11:25 23.12.2019
2086 Clear 14 1013 50 10000 6.7 290 10:56 23.12.2019
2087 Clear 13 1013 50 10000 6.7 290 10:38 23.12.2019
2088 Clear 13 1010 33 10000 7.2 320 10:20 23.12.2019
2089 Clear 13 1010 33 10000 5.7 330 09:59 23.12.2019
2090 Clear 13 1010 33 10000 5.7 330 09:39 23.12.2019
2091 Clear 13 1009 33 10000 4.6 350 09:20 23.12.2019
2092 Clear 12 1008 33 10000 11.3 310 08:55 23.12.2019
2093 Clear 11 1008 33 10000 11.3 310 08:37 23.12.2019
2094 Clear 11 1008 33 10000 10.8 300 08:19 23.12.2019
2095 Clear 11 1008 35 10000 10.8 300 07:43 23.12.2019
2096 Clear 11 1007 41 10000 9.8 310 07:20 23.12.2019
2097 Clear 11 1006 35 10000 12.3 300 06:52 23.12.2019
2098 Clear 11 1005 35 10000 12.9 300 06:25 23.12.2019
2099 Clear 11 1004 51 10000 12.3 300 05:50 23.12.2019
2100 Clear 11 1004 35 10000 14.4 300 05:26 23.12.2019
2101 Clear 10 1003 35 10000 9.8 320 04:31 23.12.2019
2102 Clear 10 1002 33 10000 10.3 310 02:58 23.12.2019
2103 Clear 10 1002 33 10000 10.3 310 02:40 23.12.2019
2104 Clouds 11 1001 28 10000 11.3 300 02:18 23.12.2019
2105 Clouds 11 1001 28 10000 11.3 300 02:18 23.12.2019
2106 Clouds 11 1001 30 10000 10.3 310 01:41 23.12.2019
2107 Clouds 11 1000 35 10000 10.8 310 01:19 23.12.2019
2108 Clouds 11 999 47 10000 14.9 290 00:41 23.12.2019
2109 Clouds 11 999 51 10000 11.3 310 00:19 23.12.2019
2110 Clouds 11 999 50 10000 9.8 240 23:39 22.12.2019
2111 Clouds 11 999 50 10000 9.8 240 23:39 22.12.2019
2112 Clouds 10 999 62 10000 8.7 230 23:21 22.12.2019
2113 Clouds 10 1000 62 10000 6.2 280 22:58 22.12.2019
2114 Clouds 10 1000 62 10000 6.2 280 22:39 22.12.2019
2115 Clouds 10 1000 62 10000 8.7 280 22:19 22.12.2019
2116 Clouds 10 1000 62 10000 10.3 270 21:57 22.12.2019
2117 Clouds 10 1000 62 10000 10.3 270 21:39 22.12.2019
2118 Clouds 10 1000 50 10000 7.2 280 21:21 22.12.2019
2119 Clouds 11 1000 54 10000 8.2 270 20:58 22.12.2019
2120 Clouds 11 1000 54 10000 8.2 270 20:38 22.12.2019
2121 Clear 11 1000 50 10000 9.8 270 20:18 22.12.2019
2122 Clear 12 1000 47 10000 8.7 280 19:56 22.12.2019
2123 Clear 12 1000 47 10000 8.7 280 19:37 22.12.2019
2124 Clear 12 999 47 10000 11.3 270 19:19 22.12.2019
2125 Clear 13 998 41 10000 13.9 250 18:41 22.12.2019
2126 Clear 13 996 41 10000 17.5 270 18:23 22.12.2019
2127 Clouds 14 995 41 10000 19 260 17:56 22.12.2019
2128 Clouds 14 994 38 10000 18 290 17:37 22.12.2019
2129 Clouds 14 994 38 10000 18 290 17:18 22.12.2019
2130 Clouds 14 994 38 10000 18 290 17:18 22.12.2019
2131 Clouds 15 994 38 10000 10.3 290 16:57 22.12.2019
2132 Clouds 15 994 38 10000 10.3 290 16:38 22.12.2019
2133 Clouds 15 992 49 10000 4.6 0 16:20 22.12.2019
2134 Clouds 15 993 39 10000 9.8 210 15:56 22.12.2019
2135 Clouds 17 993 39 10000 9.8 210 15:37 22.12.2019
2136 Clouds 17 992 34 10000 9.3 250 15:19 22.12.2019
2137 Clouds 17 992 34 10000 9.3 290 14:55 22.12.2019
2138 Clouds 17 992 34 10000 9.3 290 14:36 22.12.2019
2139 Clouds 17 992 39 10000 11.3 290 14:18 22.12.2019
2140 Clouds 17 991 39 10000 7.7 280 13:55 22.12.2019
2141 Clouds 16 991 39 10000 5.1 280 13:36 22.12.2019
2142 Clouds 16 991 39 10000 5.1 280 13:18 22.12.2019
2143 Clouds 16 991 39 10000 5.1 280 13:18 22.12.2019
2144 Clouds 16 992 51 10000 5.1 190 12:55 22.12.2019
2145 Clouds 16 992 51 10000 5.1 190 12:37 22.12.2019
2146 Clouds 16 991 52 10000 7.2 290 12:18 22.12.2019
2147 Clouds 16 991 52 10000 7.2 290 12:18 22.12.2019
2148 Clouds 16 991 34 10000 12.3 290 11:55 22.12.2019
2149 Clouds 15 991 39 10000 11.3 260 11:36 22.12.2019
2150 Clouds 15 991 39 10000 11.3 260 11:18 22.12.2019
2151 Clouds 15 991 42 10000 8.2 240 10:54 22.12.2019
2152 Clouds 15 991 44 10000 10.3 240 10:36 22.12.2019
2153 Clouds 14 991 44 10000 10.3 240 10:18 22.12.2019
2154 Clouds 13 991 58 10000 6.7 280 09:56 22.12.2019
2155 Clouds 13 991 58 10000 8.2 270 09:37 22.12.2019
2156 Clouds 12 991 58 10000 8.2 270 09:19 22.12.2019
2157 Clouds 12 991 66 10000 9.3 260 08:39 22.12.2019
2158 Clouds 11 991 62 10000 12.3 250 08:21 22.12.2019
2159 Clouds 11 990 66 10000 12.3 250 07:40 22.12.2019
2160 Clouds 12 990 66 10000 13.4 240 07:21 22.12.2019
2161 Clouds 11 989 62 10000 13.4 240 06:41 22.12.2019
2162 Clouds 12 988 62 10000 15.9 240 05:56 22.12.2019
2163 Clouds 12 987 66 10000 12.3 240 05:24 22.12.2019
2164 Rain 12 985 51 10000 12.9 260 04:31 22.12.2019
2165 Clouds 12 985 62 10000 5.7 230 03:58 22.12.2019
2166 Rain 11 983 58 10000 12.9 350 02:43 22.12.2019
2167 Rain 11 983 58 10000 12.9 350 02:43 22.12.2019
2168 Rain 11 983 58 10000 12.9 350 02:43 22.12.2019
2169 Rain 10 986 87 3000 6.2 310 01:57 22.12.2019
2170 Rain 10 985 81 10000 5.1 20 01:31 22.12.2019
2171 Clouds 10 987 81 10000 5.7 30 00:48 22.12.2019
2172 Rain 9 989 81 10000 4.6 20 00:28 22.12.2019
2173 Rain 9 990 93 10000 5.1 20 23:59 21.12.2019
2174 Rain 9 990 93 10000 5.1 20 23:40 21.12.2019
2175 Rain 9 992 93 10000 4.1 360 23:20 21.12.2019
2176 Thunderstorm 9 993 87 10000 4.1 10 22:46 21.12.2019
2177 Rain 9 995 87 10000 1.5 10 22:20 21.12.2019
2178 Rain 9 996 81 10000 2.6 290 21:58 21.12.2019
2179 Rain 9 996 81 10000 2.6 290 21:40 21.12.2019
2180 Rain 10 997 76 10000 5.1 270 21:21 21.12.2019
2181 Clouds 11 996 66 10000 2.6 310 20:59 21.12.2019
2182 Clouds 12 997 67 10000 4.1 240 20:41 21.12.2019
2183 Clouds 12 997 67 10000 4.1 240 20:22 21.12.2019
2184 Clouds 13 997 58 10000 6.2 220 19:59 21.12.2019
2185 Clouds 13 997 58 10000 6.2 220 19:41 21.12.2019
2186 Clouds 13 997 67 10000 4.1 230 19:20 21.12.2019
2187 Clear 9 997 62 10000 5.1 240 18:59 21.12.2019
2188 Clear 10 997 62 10000 5.1 240 18:40 21.12.2019
2189 Clear 14 996 62 10000 6.2 280 18:22 21.12.2019
2190 Clear 13 997 67 10000 8.2 250 17:55 21.12.2019
2191 Clear 13 997 67 10000 8.2 250 17:37 21.12.2019
2192 Clear 13 997 62 10000 9.3 230 17:18 21.12.2019
2193 Clear 13 997 67 10000 8.7 220 16:54 21.12.2019
2194 Clear 14 996 63 10000 8.7 230 16:36 21.12.2019
2195 Clear 14 996 63 10000 8.7 230 16:36 21.12.2019
2196 Clear 14 996 63 10000 8.7 230 16:18 21.12.2019
2197 Clear 14 995 63 10000 11.3 230 15:55 21.12.2019
2198 Clear 15 995 63 10000 9.8 230 15:36 21.12.2019
2199 Clear 15 995 63 10000 9.8 230 15:18 21.12.2019
2200 Clear 15 995 67 10000 11.3 210 14:41 21.12.2019
2201 Clouds 16 994 59 10000 8.7 230 14:22 21.12.2019
2202 Clouds 16 994 55 10000 10.3 240 13:58 21.12.2019
2203 Clouds 16 994 55 10000 10.3 240 13:39 21.12.2019
2204 Clouds 16 994 55 10000 10.3 260 13:19 21.12.2019
2205 Clouds 16 995 63 10000 8.7 260 12:56 21.12.2019
2206 Clouds 16 995 63 10000 8.7 260 12:38 21.12.2019
2207 Clouds 15 995 63 10000 9.3 250 12:20 21.12.2019
2208 Clouds 15 995 72 10000 9.3 240 11:46 21.12.2019
2209 Clouds 14 995 72 10000 8.7 260 11:27 21.12.2019
2210 Clouds 14 995 76 10000 4.1 280 10:59 21.12.2019
2211 Clouds 13 995 76 10000 4.1 280 10:40 21.12.2019
2212 Clouds 13 995 82 10000 2.6 310 10:21 21.12.2019
2213 Clouds 12 995 87 10000 3.6 330 09:57 21.12.2019
2214 Clouds 12 995 87 10000 3.6 330 09:39 21.12.2019
2215 Clouds 11 995 93 10000 1.5 310 09:19 21.12.2019
2216 Clouds 10 995 87 10000 2.6 260 08:47 21.12.2019
2217 Clouds 10 994 93 10000 3.1 260 08:27 21.12.2019
2218 Clouds 10 994 87 10000 2.1 270 07:47 21.12.2019
2219 Clouds 10 994 87 10000 1.5 300 07:23 21.12.2019
2220 Rain 10 994 87 8000 2.1 300 06:58 21.12.2019
2221 Rain 10 994 87 8000 2.1 300 06:40 21.12.2019
2222 Rain 10 994 93 10000 3.1 350 06:21 21.12.2019
2223 Rain 10 994 93 4500 2.1 360 05:25 21.12.2019
2224 Rain 10 996 93 4500 1.5 330 04:34 21.12.2019
2225 Rain 10 996 87 6000 1 110 03:56 21.12.2019
2226 Rain 11 998 87 10000 1.5 30 02:25 21.12.2019
2227 Rain 11 999 93 7000 2.1 330 01:48 21.12.2019
2228 Rain 11 999 93 7000 2.6 290 01:25 21.12.2019
2229 Clouds 11 999 93 10000 3.1 270 00:45 21.12.2019
2230 Clouds 11 999 93 10000 2.1 250 00:26 21.12.2019
2231 Clouds 11 999 93 10000 2.1 330 23:39 20.12.2019
2232 Clouds 11 999 100 10000 3.1 310 23:21 20.12.2019
2233 Clouds 11 999 93 8000 1.5 0 22:59 20.12.2019
2234 Clouds 11 999 93 8000 1.5 0 22:39 20.12.2019
2235 Clouds 11 999 93 8000 1.5 310 22:19 20.12.2019
2236 Clouds 12 999 93 6000 2.6 280 21:54 20.12.2019
2237 Clouds 12 999 93 6000 2.1 250 21:36 20.12.2019
2238 Clouds 12 999 93 6000 2.1 250 21:18 20.12.2019
2239 Clouds 12 999 93 6000 2.1 250 21:18 20.12.2019
2240 Clouds 12 998 93 8000 0.5 0 20:38 20.12.2019
2241 Clouds 13 998 87 8000 2.1 260 20:19 20.12.2019
2242 Clouds 13 998 87 10000 4.6 210 19:57 20.12.2019
2243 Clouds 13 998 87 10000 4.6 210 19:38 20.12.2019
2244 Clouds 13 998 93 10000 2.1 220 19:19 20.12.2019
2245 Clouds 13 998 93 10000 3.1 230 18:42 20.12.2019
2246 Clouds 13 998 87 8000 3.1 240 18:23 20.12.2019
2247 Clouds 13 998 87 8000 7.2 220 17:58 20.12.2019
2248 Clouds 14 998 87 8000 7.2 220 17:40 20.12.2019
2249 Rain 14 998 87 8000 11.3 210 17:20 20.12.2019
2250 Rain 14 997 87 3100 13.9 200 16:59 20.12.2019
2251 Rain 14 997 87 3100 13.9 200 16:38 20.12.2019
2252 Rain 14 998 87 1700 15.9 200 16:20 20.12.2019
2253 Rain 14 998 87 1700 15.9 200 16:20 20.12.2019
2254 Rain 13 998 93 2000 14.9 190 15:56 20.12.2019
2255 Rain 13 998 93 2000 14.9 190 15:38 20.12.2019
2256 Rain 13 999 93 3000 13.9 180 15:19 20.12.2019
2257 Rain 13 999 93 2000 14.9 170 14:43 20.12.2019
2258 Rain 13 1001 93 2000 13.9 180 14:24 20.12.2019
2259 Rain 13 1002 93 2000 12.3 170 13:59 20.12.2019
2260 Rain 13 1002 93 2000 12.3 170 13:59 20.12.2019
2261 Rain 13 1002 93 2000 12.3 170 13:40 20.12.2019
2262 Rain 13 1003 93 2000 11.8 170 13:20 20.12.2019
2263 Rain 13 1004 93 2000 10.3 150 12:57 20.12.2019
2264 Rain 13 1005 93 3000 10.3 160 12:37 20.12.2019
2265 Rain 13 1005 93 3000 10.3 160 12:19 20.12.2019
2266 Rain 13 1006 93 1600 11.8 160 11:58 20.12.2019
2267 Rain 13 1006 93 1600 11.8 160 11:39 20.12.2019
2268 Rain 13 1007 93 3000 10.3 150 11:18 20.12.2019
2269 Rain 13 1007 93 3000 10.3 150 10:57 20.12.2019
2270 Rain 13 1007 93 3000 10.3 150 10:38 20.12.2019
2271 Rain 13 1008 87 4000 9.8 150 10:20 20.12.2019
2272 Rain 13 1008 87 5000 9.3 170 09:44 20.12.2019
2273 Rain 13 1008 87 5000 10.3 170 09:22 20.12.2019
2274 Rain 13 1008 87 5000 10.3 170 09:22 20.12.2019
2275 Rain 13 1008 87 8000 9.3 150 08:59 20.12.2019
2276 Rain 13 1008 87 8000 9.3 150 08:41 20.12.2019
2277 Rain 13 1009 93 10000 7.2 160 08:21 20.12.2019
2278 Rain 13 1009 93 8000 5.7 150 07:58 20.12.2019
2279 Rain 13 1009 93 8000 5.7 150 07:39 20.12.2019
2280 Rain 13 1010 93 10000 4.6 150 07:18 20.12.2019
2281 Rain 12 1010 93 10000 1 0 06:48 20.12.2019
2282 Clouds 12 1011 93 10000 3.1 320 06:30 20.12.2019
2283 Rain 12 1011 93 10000 2.6 330 05:49 20.12.2019
2284 Clouds 12 1012 93 10000 1.5 350 05:21 20.12.2019
2285 Clouds 12 1013 93 10000 3.1 320 03:50 20.12.2019
2286 Rain 12 1013 93 10000 3.1 0 03:28 20.12.2019
2287 Rain 12 1014 87 10000 4.1 140 02:33 20.12.2019
2288 Rain 12 1014 82 10000 5.1 110 01:36 20.12.2019
2289 Clouds 12 1015 82 10000 6.7 110 00:59 20.12.2019
2290 Clouds 12 1015 82 10000 6.7 110 00:40 20.12.2019
2291 Clouds 12 1015 77 10000 6.7 90 23:59 19.12.2019
2292 Clouds 12 1015 77 10000 6.7 90 23:40 19.12.2019
2293 Clouds 12 1015 77 10000 6.7 80 23:22 19.12.2019
2294 Clouds 12 1016 77 10000 6.7 90 22:56 19.12.2019
2295 Clouds 13 1016 77 10000 6.7 90 22:36 19.12.2019
2296 Clouds 13 1016 77 10000 6.7 90 22:18 19.12.2019
2297 Clouds 13 1016 77 10000 6.7 100 21:42 19.12.2019
2298 Clouds 13 1016 77 10000 7.2 80 21:20 19.12.2019
2299 Clouds 13 1016 77 10000 2.6 100 20:58 19.12.2019
2300 Clouds 13 1016 77 10000 2.6 100 20:38 19.12.2019
2301 Clouds 13 1016 82 10000 8.7 90 20:20 19.12.2019
2302 Clouds 13 1016 82 10000 8.7 90 20:20 19.12.2019
2303 Clouds 13 1016 72 10000 8.2 90 19:59 19.12.2019
2304 Clouds 13 1016 72 10000 8.2 90 19:40 19.12.2019
2305 Clouds 14 1017 72 10000 7.7 90 19:20 19.12.2019
2306 Clouds 14 1017 72 10000 9.3 100 19:00 19.12.2019
2307 Clouds 14 1017 72 10000 9.3 100 18:40 19.12.2019
2308 Clouds 14 1016 72 10000 9.8 90 18:20 19.12.2019
2309 Clouds 14 1016 72 10000 10.8 100 17:57 19.12.2019
2310 Clouds 14 1016 72 10000 10.8 100 17:38 19.12.2019
2311 Clouds 14 1016 72 10000 10.8 100 17:38 19.12.2019
2312 Clouds 14 1016 72 10000 10.8 100 17:38 19.12.2019
2313 Clouds 14 1016 72 10000 10.8 90 17:19 19.12.2019
2314 Clouds 14 1016 72 10000 9.8 90 16:57 19.12.2019
2315 Clouds 14 1016 72 10000 9.8 90 16:38 19.12.2019
2316 Clouds 14 1016 72 10000 9.3 100 16:20 19.12.2019
2317 Clouds 14 1016 72 10000 9.3 100 16:20 19.12.2019
2318 Clouds 14 1016 72 10000 9.3 100 16:20 19.12.2019
2319 Clouds 14 1016 72 10000 8.7 100 15:58 19.12.2019
2320 Clouds 15 1016 72 10000 8.7 100 15:39 19.12.2019
2321 Clouds 16 1015 67 10000 9.3 90 15:19 19.12.2019
2322 Clouds 16 1016 67 10000 7.2 90 14:57 19.12.2019
2323 Clouds 16 1016 67 10000 4.1 30 14:39 19.12.2019
2324 Clouds 15 1016 67 10000 4.1 30 14:18 19.12.2019
2325 Clouds 15 1016 82 10000 4.6 360 13:54 19.12.2019
2326 Rain 15 1017 77 10000 4.1 360 13:36 19.12.2019
2327 Rain 15 1017 77 10000 4.1 360 13:18 19.12.2019
2328 Rain 15 1017 76 10000 3.1 30 12:54 19.12.2019
2329 Clouds 14 1017 76 10000 4.1 20 12:36 19.12.2019
2330 Clouds 14 1017 76 10000 4.1 20 12:18 19.12.2019
2331 Clouds 14 1017 76 10000 4.1 20 12:18 19.12.2019
2332 Clouds 14 1017 76 10000 3.6 330 11:42 19.12.2019
2333 Clouds 14 1018 76 10000 2.6 340 11:20 19.12.2019
2334 Clouds 13 1018 82 10000 3.6 330 10:59 19.12.2019
2335 Clouds 13 1018 82 10000 3.1 330 10:38 19.12.2019
2336 Clouds 13 1018 82 10000 3.1 330 10:20 19.12.2019
2337 Rain 13 1018 82 10000 3.6 10 09:57 19.12.2019
2338 Rain 13 1018 87 10000 3.1 350 09:38 19.12.2019
2339 Rain 13 1018 87 10000 3.1 350 09:19 19.12.2019
2340 Rain 13 1018 82 10000 3.1 30 08:55 19.12.2019
2341 Rain 13 1018 82 10000 3.1 30 08:55 19.12.2019
2342 Rain 13 1018 82 10000 1.5 0 08:37 19.12.2019
2343 Rain 13 1018 82 10000 1.5 0 08:18 19.12.2019
2344 Rain 13 1018 76 10000 3.1 330 07:54 19.12.2019
2345 Rain 13 1018 76 10000 3.1 330 07:36 19.12.2019
2346 Clouds 13 1017 82 10000 9.8 60 07:18 19.12.2019
2347 Clouds 14 1018 72 10000 10.3 70 06:42 19.12.2019
2348 Clouds 13 1017 77 10000 10.8 80 06:24 19.12.2019
2349 Clouds 13 1018 71 10000 3.6 340 05:47 19.12.2019
2350 Clouds 13 1018 71 10000 3.1 340 05:27 19.12.2019
2351 Rain 13 1018 71 10000 4.6 330 03:58 19.12.2019
2352 Clouds 11 1019 71 10000 3.6 330 02:30 19.12.2019
2353 Clouds 14 1019 72 10000 5.7 80 01:43 19.12.2019
2354 Clouds 15 1019 72 10000 4.6 80 01:21 19.12.2019
2355 Clouds 15 1019 72 10000 6.2 90 00:39 19.12.2019
2356 Clouds 15 1019 72 10000 6.2 80 00:19 19.12.2019
2357 Clouds 14 1019 67 10000 3.1 90 23:45 18.12.2019
2358 Clouds 14 1020 72 10000 3.1 80 23:19 18.12.2019
2359 Clouds 15 1020 72 10000 5.7 80 22:58 18.12.2019
2360 Clouds 15 1020 72 10000 5.7 80 22:40 18.12.2019
2361 Clouds 15 1020 77 10000 5.1 70 22:22 18.12.2019
2362 Clouds 14 1020 82 10000 1.5 340 21:59 18.12.2019
2363 Clouds 14 1020 82 10000 1.5 340 21:41 18.12.2019
2364 Clouds 14 1020 77 10000 1.5 360 21:21 18.12.2019
2365 Clouds 14 1020 77 10000 1.5 360 21:21 18.12.2019
2366 Clouds 14 1020 82 10000 3.1 320 20:58 18.12.2019
2367 Clouds 14 1020 82 10000 3.1 320 20:39 18.12.2019
2368 Clouds 14 1020 87 10000 1.5 0 20:20 18.12.2019
2369 Clouds 15 1020 82 10000 2.1 0 19:57 18.12.2019
2370 Clouds 14 1020 82 10000 2.1 0 19:39 18.12.2019
2371 Clouds 15 1020 72 10000 5.7 60 19:19 18.12.2019
2372 Clouds 16 1019 72 10000 9.3 70 18:59 18.12.2019
2373 Clouds 15 1019 72 10000 9.3 70 18:41 18.12.2019
2374 Clouds 15 1019 77 10000 10.8 70 18:22 18.12.2019
2375 Rain 15 1019 77 10000 11.8 70 17:56 18.12.2019
2376 Rain 15 1019 77 10000 11.3 70 17:38 18.12.2019
2377 Rain 15 1019 77 10000 11.3 70 17:19 18.12.2019
2378 Rain 15 1019 77 10000 10.3 80 16:43 18.12.2019
2379 Clouds 15 1019 77 10000 10.8 70 16:24 18.12.2019
2380 Clouds 15 1019 77 10000 10.8 80 15:59 18.12.2019
2381 Clouds 15 1019 77 10000 10.8 80 15:40 18.12.2019
2382 Clouds 15 1019 77 10000 10.3 80 15:21 18.12.2019
2383 Clouds 15 1019 77 10000 12.3 80 14:58 18.12.2019
2384 Clouds 16 1019 77 10000 12.3 80 14:40 18.12.2019
2385 Clouds 16 1019 72 10000 10.8 80 14:20 18.12.2019
2386 Clouds 16 1019 77 10000 9.8 80 13:56 18.12.2019
2387 Clouds 16 1019 77 10000 9.8 80 13:56 18.12.2019
2388 Clouds 16 1019 72 10000 9.8 80 13:37 18.12.2019
2389 Clouds 16 1019 72 10000 9.8 80 13:19 18.12.2019
2390 Clouds 16 1019 72 10000 10.8 80 12:57 18.12.2019
2391 Clouds 16 1019 72 10000 10.8 80 12:37 18.12.2019
2392 Clouds 16 1019 77 10000 11.8 70 12:19 18.12.2019
2393 Clouds 16 1019 77 10000 12.3 70 11:54 18.12.2019
2394 Clouds 16 1019 77 10000 12.3 70 11:36 18.12.2019
2395 Clouds 15 1019 77 10000 10.3 70 11:18 18.12.2019
2396 Clouds 14 1019 77 10000 10.3 70 10:55 18.12.2019
2397 Clouds 14 1019 77 10000 10.3 70 10:37 18.12.2019
2398 Clouds 14 1019 87 10000 7.7 70 10:18 18.12.2019
2399 Clouds 12 1019 66 10000 3.1 340 09:42 18.12.2019
2400 Clouds 11 1018 76 10000 3.1 0 09:18 18.12.2019
2401 Clouds 11 1018 71 10000 3.6 350 08:40 18.12.2019
2402 Clouds 8 1018 71 10000 3.6 330 08:21 18.12.2019
2403 Clouds 8 1017 66 10000 4.1 320 07:43 18.12.2019
2404 Clouds 8 1017 71 10000 4.6 330 07:22 18.12.2019
2405 Clouds 8 1016 71 10000 4.6 330 06:55 18.12.2019
2406 Clouds 8 1016 71 10000 4.6 330 06:27 18.12.2019
2407 Clouds 8 1016 71 10000 4.6 340 05:44 18.12.2019
2408 Clouds 8 1017 76 10000 4.1 330 04:46 18.12.2019
2409 Clouds 12 1017 71 10000 5.1 330 02:55 18.12.2019
2410 Clouds 12 1017 71 10000 5.1 330 02:36 18.12.2019
2411 Clouds 12 1016 71 10000 4.6 330 02:18 18.12.2019
2412 Clouds 12 1016 71 10000 3.1 330 01:40 18.12.2019
2413 Clouds 12 1016 71 10000 2.1 10 01:21 18.12.2019
2414 Clouds 12 1017 71 10000 4.1 320 00:40 18.12.2019
2415 Clouds 12 1016 71 10000 3.6 320 00:22 18.12.2019
2416 Clouds 13 1017 71 10000 3.6 330 23:56 17.12.2019
2417 Clouds 13 1017 71 10000 3.6 330 23:37 17.12.2019
2418 Clouds 13 1016 71 10000 4.1 330 23:18 17.12.2019
2419 Clouds 13 1016 76 10000 3.6 320 22:56 17.12.2019
2420 Clouds 13 1017 71 10000 3.1 320 22:37 17.12.2019
2421 Clouds 13 1017 71 10000 3.1 320 22:18 17.12.2019
2422 Clouds 13 1016 71 10000 4.1 330 21:55 17.12.2019
2423 Clouds 13 1016 71 10000 4.1 330 21:37 17.12.2019
2424 Clouds 13 1016 71 10000 4.6 330 21:18 17.12.2019
2425 Clouds 13 1017 71 10000 4.6 330 20:56 17.12.2019
2426 Clouds 14 1017 71 10000 4.6 330 20:37 17.12.2019
2427 Clouds 14 1016 71 10000 4.1 320 20:18 17.12.2019
2428 Clouds 14 1016 71 10000 4.1 320 19:55 17.12.2019
2429 Clouds 14 1016 67 10000 4.6 70 19:37 17.12.2019
2430 Clouds 14 1016 67 10000 4.6 70 19:18 17.12.2019
2431 Clouds 15 1016 77 10000 6.7 70 18:42 17.12.2019
2432 Clouds 15 1016 77 10000 6.7 70 18:42 17.12.2019
2433 Clouds 15 1015 77 10000 6.7 80 18:22 17.12.2019
2434 Clouds 14 1015 67 10000 5.1 80 17:59 17.12.2019
2435 Clouds 14 1015 67 10000 5.1 80 17:41 17.12.2019
2436 Clouds 14 1015 67 10000 5.1 80 17:41 17.12.2019
2437 Clouds 15 1015 67 10000 3.1 20 17:19 17.12.2019
2438 Clouds 15 1015 72 10000 2.6 50 16:56 17.12.2019
2439 Clouds 15 1015 72 10000 2.6 50 16:37 17.12.2019
2440 Clouds 15 1015 77 10000 6.2 80 16:19 17.12.2019
2441 Clouds 15 1015 77 10000 6.2 80 16:19 17.12.2019
2442 Clouds 15 1014 77 10000 7.2 70 15:56 17.12.2019
2443 Clouds 16 1014 77 10000 7.2 70 15:37 17.12.2019
2444 Clouds 16 1014 77 10000 6.2 70 15:19 17.12.2019
2445 Clouds 16 1014 77 10000 8.2 80 14:55 17.12.2019
2446 Clouds 16 1014 77 10000 8.2 80 14:55 17.12.2019
2447 Clouds 16 1014 77 10000 8.2 80 14:37 17.12.2019
2448 Clouds 16 1014 77 10000 9.3 90 14:18 17.12.2019
2449 Clouds 16 1014 77 10000 9.3 90 14:18 17.12.2019
2450 Clouds 16 1014 77 10000 9.8 80 13:56 17.12.2019
2451 Clouds 16 1014 77 10000 9.8 80 13:37 17.12.2019
2452 Clouds 16 1014 77 10000 9.3 80 13:18 17.12.2019
2453 Clouds 16 1014 77 10000 10.3 90 12:55 17.12.2019
2454 Clouds 16 1014 77 10000 10.3 90 12:37 17.12.2019
2455 Clouds 15 1014 77 10000 11.3 90 12:18 17.12.2019
2456 Clouds 16 1014 77 10000 10.8 90 11:54 17.12.2019
2457 Clouds 15 1014 77 10000 10.3 90 11:36 17.12.2019
2458 Clouds 16 1014 77 10000 10.3 90 11:18 17.12.2019
2459 Clouds 16 1014 77 10000 10.3 90 11:18 17.12.2019
2460 Clouds 15 1014 77 10000 10.3 80 10:55 17.12.2019
2461 Clouds 15 1014 77 10000 10.3 80 10:36 17.12.2019
2462 Clouds 15 1014 72 10000 10.3 80 10:18 17.12.2019
2463 Clouds 15 1013 72 10000 10.8 80 09:42 17.12.2019
2464 Clouds 15 1013 72 10000 11.3 80 09:21 17.12.2019
2465 Clouds 15 1013 72 10000 11.3 80 08:58 17.12.2019
2466 Clouds 15 1013 72 10000 11.3 80 08:39 17.12.2019
2467 Clouds 12 1012 72 10000 11.3 80 08:21 17.12.2019
2468 Clouds 11 1013 72 10000 9.8 80 07:57 17.12.2019
2469 Clouds 11 1013 72 10000 9.8 80 07:39 17.12.2019
2470 Clouds 11 1012 72 10000 9.3 70 07:19 17.12.2019
2471 Clouds 11 1012 72 10000 9.8 70 06:41 17.12.2019
2472 Clouds 11 1012 72 10000 10.8 70 06:22 17.12.2019
2473 Clouds 11 1012 72 10000 10.8 70 05:40 17.12.2019
2474 Clouds 15 1012 72 10000 11.3 70 04:48 17.12.2019
2475 Clouds 15 1013 72 10000 12.3 80 03:31 17.12.2019
2476 Clouds 15 1013 72 10000 12.9 80 01:59 17.12.2019
2477 Clouds 15 1013 72 10000 12.9 80 01:21 17.12.2019
2478 Clouds 15 1013 72 10000 12.9 80 00:39 17.12.2019
2479 Clouds 15 1013 67 10000 13.9 70 00:21 17.12.2019
2480 Clouds 14 1014 72 10000 12.3 70 23:43 16.12.2019
2481 Clouds 14 1014 67 10000 12.3 70 23:20 16.12.2019
2482 Clouds 14 1014 67 10000 11.8 70 22:58 16.12.2019
2483 Clouds 14 1014 67 10000 11.8 70 22:38 16.12.2019
2484 Clouds 14 1014 67 10000 11.8 70 22:38 16.12.2019
2485 Clouds 14 1014 67 10000 11.8 70 22:20 16.12.2019
2486 Clouds 14 1014 63 10000 10.8 70 21:57 16.12.2019
2487 Clouds 14 1014 63 10000 10.8 70 21:39 16.12.2019
2488 Clouds 14 1014 63 10000 9.8 60 21:20 16.12.2019
2489 Clouds 14 1015 59 10000 9.8 70 20:58 16.12.2019
2490 Clouds 14 1015 59 10000 9.8 70 20:39 16.12.2019
2491 Clouds 14 1015 62 10000 2.1 10 20:19 16.12.2019
2492 Clouds 14 1015 62 10000 2.1 10 20:19 16.12.2019
2493 Clouds 14 1015 67 10000 4.6 30 19:57 16.12.2019
2494 Clouds 14 1015 67 10000 4.6 30 19:37 16.12.2019
2495 Clouds 14 1016 67 10000 5.7 30 19:19 16.12.2019
2496 Clouds 14 1016 63 10000 8.7 70 18:59 16.12.2019
2497 Clouds 14 1016 63 10000 8.7 70 18:41 16.12.2019
2498 Clouds 14 1015 67 10000 8.7 70 18:20 16.12.2019
2499 Clouds 14 1016 72 10000 7.2 60 17:59 16.12.2019
2500 Clouds 11 1016 72 10000 7.2 60 17:40 16.12.2019
2501 Clouds 11 1016 72 10000 7.2 60 17:40 16.12.2019
2502 Clouds 14 1016 67 10000 9.3 70 17:21 16.12.2019
2503 Clouds 14 1016 77 10000 8.7 70 16:57 16.12.2019
2504 Clouds 14 1016 77 10000 8.7 70 16:39 16.12.2019
2505 Clouds 14 1017 77 10000 7.7 80 16:20 16.12.2019
2506 Clouds 14 1017 77 10000 6.2 80 15:59 16.12.2019
2507 Clouds 14 1017 77 10000 6.2 80 15:39 16.12.2019
2508 Clouds 14 1017 77 10000 4.6 80 15:21 16.12.2019
2509 Clouds 15 1017 77 10000 4.1 90 14:57 16.12.2019
2510 Clouds 15 1017 67 10000 1 0 14:37 16.12.2019
2511 Clouds 15 1017 77 10000 4.1 90 14:37 16.12.2019
2512 Clouds 15 1017 67 10000 1 0 14:19 16.12.2019
2513 Clouds 14 1018 67 10000 2.6 330 13:56 16.12.2019
2514 Clouds 13 1018 67 10000 2.6 330 13:38 16.12.2019
2515 Clouds 13 1018 67 10000 2.6 330 13:19 16.12.2019
2516 Clouds 13 1018 67 10000 2.6 330 13:19 16.12.2019
2517 Clouds 13 1018 71 10000 3.1 330 12:58 16.12.2019
2518 Clouds 14 1018 71 10000 3.1 330 12:39 16.12.2019
2519 Clouds 13 1019 71 10000 3.1 340 12:19 16.12.2019
2520 Clouds 13 1019 76 10000 4.1 360 11:58 16.12.2019
2521 Clouds 12 1019 81 10000 3.1 340 11:40 16.12.2019
2522 Clouds 12 1019 81 10000 3.1 340 11:20 16.12.2019
2523 Clouds 12 1019 81 10000 4.1 340 10:57 16.12.2019
2524 Clouds 12 1019 81 10000 4.1 340 10:39 16.12.2019
2525 Clouds 12 1019 81 10000 4.6 340 10:19 16.12.2019
2526 Rain 12 1019 76 10000 3.1 330 09:45 16.12.2019
2527 Rain 12 1019 76 10000 2.6 330 09:27 16.12.2019
2528 Rain 12 1019 76 10000 2.6 330 09:27 16.12.2019
2529 Clouds 12 1019 71 10000 3.1 330 08:56 16.12.2019
2530 Clouds 12 1019 71 10000 3.1 330 08:37 16.12.2019
2531 Clouds 12 1018 71 10000 3.1 330 08:18 16.12.2019
2532 Clouds 12 1018 71 10000 3.6 330 07:47 16.12.2019
2533 Clouds 12 1018 71 10000 3.6 340 07:28 16.12.2019
2534 Clouds 12 1018 71 10000 3.6 330 06:45 16.12.2019
2535 Clouds 12 1018 76 10000 3.1 330 06:26 16.12.2019
2536 Clouds 11 1018 76 10000 2.6 340 05:52 16.12.2019
2537 Clouds 11 1018 81 10000 3.1 340 05:33 16.12.2019
2538 Clouds 11 1018 81 10000 4.1 340 04:27 16.12.2019
2539 Clouds 11 1018 76 10000 4.1 330 02:36 16.12.2019
2540 Clouds 11 1017 87 10000 3.6 330 01:45 16.12.2019
2541 Clouds 10 1018 87 10000 3.6 330 00:43 16.12.2019
2542 Clouds 10 1018 87 10000 3.1 330 00:25 16.12.2019
2543 Clouds 10 1018 87 10000 3.1 330 23:59 15.12.2019
2544 Clouds 10 1018 87 10000 3.1 330 23:40 15.12.2019
2545 Clouds 10 1017 93 10000 3.6 330 23:21 15.12.2019
2546 Clouds 10 1017 93 10000 2.6 330 22:56 15.12.2019
2547 Clouds 10 1017 93 10000 2.6 330 22:37 15.12.2019
2548 Clouds 10 1017 93 10000 2.1 330 22:18 15.12.2019
2549 Rain 10 1017 93 10000 2.1 340 21:57 15.12.2019
2550 Rain 11 1017 93 10000 2.1 340 21:38 15.12.2019
2551 Clouds 11 1017 87 10000 3.1 320 21:19 15.12.2019
2552 Clouds 11 1017 87 10000 2.1 330 20:57 15.12.2019
2553 Clouds 11 1017 87 10000 2.1 330 20:38 15.12.2019
2554 Clouds 11 1017 87 10000 2.6 320 20:19 15.12.2019
2555 Clouds 11 1016 93 10000 1.5 340 19:57 15.12.2019
2556 Clouds 11 1016 93 10000 1.5 340 19:39 15.12.2019
2557 Clouds 11 1016 93 10000 1 350 19:18 15.12.2019
2558 Clouds 12 1016 87 10000 1 10 18:56 15.12.2019
2559 Clouds 12 1016 87 10000 1 10 18:38 15.12.2019
2560 Clouds 12 1015 87 10000 2.1 240 18:18 15.12.2019
2561 Clouds 13 1015 82 10000 2.1 220 17:56 15.12.2019
2562 Clouds 13 1015 82 10000 3.1 220 17:37 15.12.2019
2563 Clouds 13 1015 82 10000 3.1 220 17:19 15.12.2019
2564 Clouds 13 1015 82 10000 4.1 210 16:56 15.12.2019
2565 Clouds 14 1015 82 10000 4.1 210 16:38 15.12.2019
2566 Clouds 14 1015 77 10000 4.1 210 16:20 15.12.2019
2567 Clouds 14 1015 77 10000 2.1 210 15:55 15.12.2019
2568 Clouds 14 1015 77 10000 2.1 210 15:55 15.12.2019
2569 Clouds 14 1015 77 10000 2.1 210 15:37 15.12.2019
2570 Clouds 14 1015 77 10000 2.1 210 15:18 15.12.2019
2571 Clouds 13 1014 77 10000 2.6 190 14:55 15.12.2019
2572 Clouds 12 1014 72 10000 3.1 190 14:36 15.12.2019
2573 Clouds 15 1014 72 10000 3.1 190 14:18 15.12.2019
2574 Clouds 15 1014 67 10000 2.1 170 13:55 15.12.2019
2575 Clouds 15 1014 67 10000 2.1 170 13:36 15.12.2019
2576 Clouds 15 1014 67 10000 2.1 160 13:18 15.12.2019
2577 Clouds 15 1014 63 10000 1.5 130 12:56 15.12.2019
2578 Clouds 15 1014 63 10000 1.5 130 12:37 15.12.2019
2579 Clouds 15 1014 55 10000 1.5 70 12:19 15.12.2019
2580 Clouds 14 1014 50 10000 2.6 330 11:38 15.12.2019
2581 Clouds 12 1014 54 10000 4.1 320 11:20 15.12.2019
2582 Clouds 13 1014 58 10000 4.6 330 10:58 15.12.2019
2583 Clouds 11 1014 58 10000 4.6 330 10:40 15.12.2019
2584 Clouds 11 1013 57 10000 4.1 320 10:20 15.12.2019
2585 Clouds 10 1013 57 10000 5.1 330 09:59 15.12.2019
2586 Clouds 10 1013 57 10000 5.1 330 09:38 15.12.2019
2587 Clouds 9 1013 61 10000 4.6 330 09:20 15.12.2019
2588 Clouds 10 1012 66 10000 3.6 320 08:55 15.12.2019
2589 Clouds 9 1012 66 10000 3.6 320 08:37 15.12.2019
2590 Clouds 8 1012 66 10000 5.1 340 08:19 15.12.2019
2591 Clouds 7 1011 66 10000 5.1 330 07:53 15.12.2019
2592 Clouds 8 1011 66 10000 4.6 330 07:32 15.12.2019
2593 Clouds 7 1011 66 10000 5.1 320 06:30 15.12.2019
2594 Clouds 7 1011 66 10000 4.6 330 05:50 15.12.2019
2595 Clouds 7 1010 70 10000 4.1 330 05:23 15.12.2019
2596 Clouds 9 1010 70 10000 3.6 330 04:24 15.12.2019
2597 Clouds 9 1011 70 10000 4.1 330 03:22 15.12.2019
2598 Clouds 9 1010 76 10000 5.1 320 02:32 15.12.2019
2599 Clouds 9 1010 76 10000 4.1 320 01:43 15.12.2019
2600 Clouds 9 1011 76 10000 4.1 320 01:20 15.12.2019
2601 Clouds 10 1011 76 10000 4.1 330 00:53 15.12.2019
2602 Clouds 10 1011 76 10000 4.1 330 00:34 15.12.2019
2603 Clouds 10 1010 81 10000 3.6 340 23:58 14.12.2019
2604 Clouds 8 1010 81 10000 3.6 340 23:38 14.12.2019
2605 Clear 11 1009 81 10000 4.1 330 23:18 14.12.2019
2606 Clear 11 1009 81 10000 3.1 320 22:57 14.12.2019
2607 Clear 11 1009 81 10000 3.1 320 22:39 14.12.2019
2608 Clear 10 1009 81 10000 3.6 330 22:20 14.12.2019
2609 Clear 11 1008 76 10000 3.1 350 21:55 14.12.2019
2610 Clear 11 1008 76 10000 3.1 350 21:55 14.12.2019
2611 Clear 11 1008 76 10000 3.1 350 21:37 14.12.2019
2612 Clear 11 1008 81 10000 4.1 330 21:18 14.12.2019
2613 Clear 12 1009 81 10000 2.6 330 20:54 14.12.2019
2614 Clear 12 1009 81 10000 2.6 330 20:36 14.12.2019
2615 Clear 12 1008 87 10000 4.1 320 20:18 14.12.2019
2616 Clear 12 1008 87 10000 3.1 320 19:40 14.12.2019
2617 Clear 13 1008 77 10000 4.1 70 19:21 14.12.2019
2618 Clear 13 1007 77 10000 5.1 80 18:58 14.12.2019
2619 Clear 14 1007 77 10000 5.1 80 18:39 14.12.2019
2620 Clear 14 1007 77 10000 6.7 80 18:21 14.12.2019
2621 Clouds 14 1006 77 10000 7.2 80 17:59 14.12.2019
2622 Clouds 11 1006 77 10000 7.2 80 17:41 14.12.2019
2623 Clouds 15 1006 77 10000 6.7 90 17:22 14.12.2019
2624 Clouds 15 1005 72 10000 5.7 80 16:42 14.12.2019
2625 Clouds 16 1005 67 10000 5.1 70 16:20 14.12.2019
2626 Clouds 16 1005 67 10000 5.1 70 15:58 14.12.2019
2627 Clouds 13 1005 67 10000 5.1 70 15:39 14.12.2019
2628 Clouds 16 1004 67 10000 5.1 90 15:20 14.12.2019
2629 Clouds 17 1004 67 10000 5.1 80 14:57 14.12.2019
2630 Clouds 17 1004 67 10000 5.1 80 14:38 14.12.2019
2631 Clouds 17 1004 67 10000 5.1 80 14:38 14.12.2019
2632 Clouds 17 1004 72 10000 5.7 80 14:19 14.12.2019
2633 Clouds 18 1004 63 10000 6.7 90 13:45 14.12.2019
2634 Clouds 17 1003 67 10000 7.2 90 13:20 14.12.2019
2635 Clouds 18 1003 67 10000 8.2 80 12:58 14.12.2019
2636 Clouds 18 1003 67 10000 8.2 80 12:40 14.12.2019
2637 Clear 18 1003 63 10000 8.2 80 12:21 14.12.2019
2638 Clear 17 1002 67 10000 9.3 80 11:59 14.12.2019
2639 Clear 17 1002 67 10000 9.3 80 11:39 14.12.2019
2640 Clear 16 1002 67 10000 10.3 80 11:20 14.12.2019
2641 Clear 19 1001 40 10000 2.1 0 10:57 14.12.2019
2642 Clear 15 1001 40 10000 2.1 0 10:39 14.12.2019
2643 Clear 15 1000 42 10000 3.1 40 10:21 14.12.2019
2644 Clear 17 999 42 10000 3.1 10 09:57 14.12.2019
2645 Clear 17 999 42 10000 3.1 10 09:39 14.12.2019
2646 Clear 17 999 45 10000 6.7 260 09:19 14.12.2019
2647 Clear 16 999 45 10000 5.1 270 08:43 14.12.2019
2648 Clear 11 998 51 10000 8.2 260 08:20 14.12.2019
2649 Clear 11 998 51 10000 8.2 260 08:20 14.12.2019
2650 Clear 10 998 51 10000 8.7 240 07:44 14.12.2019
2651 Clear 11 998 51 10000 9.3 240 07:24 14.12.2019
2652 Clear 11 998 51 10000 9.3 240 06:57 14.12.2019
2653 Clear 11 998 51 10000 9.3 240 06:38 14.12.2019
2654 Clear 11 997 58 10000 9.8 230 06:18 14.12.2019
2655 Clear 12 997 54 10000 3.1 20 04:48 14.12.2019
2656 Clear 10 998 50 10000 1 0 02:44 14.12.2019
2657 Clear 10 997 50 10000 1 0 02:22 14.12.2019
2658 Clear 9 997 50 10000 6.7 260 01:37 14.12.2019
2659 Clear 10 997 50 10000 8.2 240 00:50 14.12.2019
2660 Clear 10 997 46 10000 4.6 280 00:29 14.12.2019
2661 Clear 10 997 46 10000 4.6 280 00:29 14.12.2019
2662 Clear 10 997 46 10000 3.6 290 23:58 13.12.2019
2663 Clear 10 997 46 10000 3.6 290 23:39 13.12.2019
2664 Clear 10 996 50 10000 4.6 320 23:19 13.12.2019
2665 Clear 9 996 46 10000 4.1 290 22:55 13.12.2019
2666 Clear 9 996 46 10000 4.1 290 22:36 13.12.2019
2667 Clear 9 996 46 10000 4.1 290 22:36 13.12.2019
2668 Clear 9 996 50 10000 4.1 300 22:18 13.12.2019
2669 Clear 9 995 50 10000 6.2 320 21:39 13.12.2019
2670 Clear 10 996 43 10000 7.2 270 21:21 13.12.2019
2671 Clear 10 995 50 10000 5.7 300 20:55 13.12.2019
2672 Clear 10 995 50 10000 5.7 300 20:37 13.12.2019
2673 Clear 10 994 50 10000 7.7 290 20:19 13.12.2019
2674 Clear 10 994 40 10000 8.7 280 19:56 13.12.2019
2675 Clear 10 994 40 10000 8.7 280 19:36 13.12.2019
2676 Clear 10 993 50 10000 6.2 280 19:18 13.12.2019
2677 Clear 11 993 50 10000 7.2 280 18:41 13.12.2019
2678 Clouds 11 993 50 10000 7.2 280 18:19 13.12.2019
2679 Clouds 11 992 37 10000 8.7 290 17:58 13.12.2019
2680 Clouds 11 992 37 10000 8.7 290 17:39 13.12.2019
2681 Clear 11 992 37 10000 6.2 270 17:18 13.12.2019
2682 Clear 11 992 37 10000 6.2 270 17:18 13.12.2019
2683 Clouds 11 990 37 10000 5.7 290 16:55 13.12.2019
2684 Clouds 11 990 37 10000 5.7 290 16:37 13.12.2019
2685 Clouds 12 989 43 10000 12.9 280 16:18 13.12.2019
2686 Clouds 14 988 30 10000 8.2 280 15:41 13.12.2019
2687 Clouds 14 988 33 10000 8.2 280 15:21 13.12.2019
2688 Clouds 15 987 48 10000 11.8 280 14:57 13.12.2019
2689 Clouds 15 987 48 10000 11.8 280 14:37 13.12.2019
2690 Clouds 14 987 26 10000 11.3 280 14:18 13.12.2019
2691 Clouds 14 987 29 10000 8.7 280 13:43 13.12.2019
2692 Clouds 14 987 31 10000 9.8 290 13:24 13.12.2019
2693 Clouds 14 986 38 10000 11.3 290 12:55 13.12.2019
2694 Clouds 14 986 38 10000 11.3 290 12:37 13.12.2019
2695 Clouds 13 986 71 10000 2.6 0 12:18 13.12.2019
2696 Clouds 12 986 76 10000 3.6 310 11:43 13.12.2019
2697 Clouds 11 987 81 10000 5.1 330 11:25 13.12.2019
2698 Clouds 10 987 81 10000 5.7 320 10:56 13.12.2019
2699 Clouds 9 987 81 10000 5.7 320 10:38 13.12.2019
2700 Clouds 6 988 81 10000 4.6 320 10:20 13.12.2019
2701 Rain 7 989 93 10000 6.7 330 09:42 13.12.2019
2702 Rain 6 990 87 4000 4.6 330 09:21 13.12.2019
2703 Rain 3 990 87 5000 5.7 330 08:55 13.12.2019
2704 Rain 3 990 87 5000 5.7 330 08:36 13.12.2019
2705 Rain 3 991 87 7000 4.6 320 08:18 13.12.2019
2706 Rain 3 992 81 10000 5.7 320 07:42 13.12.2019
2707 Rain 3 992 81 10000 5.1 330 07:19 13.12.2019
2708 Rain 3 993 81 10000 4.6 330 06:45 13.12.2019
2709 Clouds 3 993 75 10000 4.1 340 06:25 13.12.2019
2710 Rain 3 993 70 10000 4.1 310 05:38 13.12.2019
2711 Clouds 2 994 75 10000 5.1 320 05:20 13.12.2019
2712 Clouds 3 995 75 10000 4.6 330 04:29 13.12.2019
2713 Drizzle 5 997 81 10000 4.6 330 02:57 13.12.2019
2714 Clouds 5 997 81 10000 4.1 330 02:30 13.12.2019
2715 Clouds 5 998 81 10000 3.1 330 01:39 13.12.2019
2716 Rain 4 1000 81 10000 6.2 350 00:51 13.12.2019
2717 Rain 5 1000 65 10000 4.6 330 00:29 13.12.2019
2718 Rain 5 1001 56 10000 2.6 300 23:46 12.12.2019
2719 Rain 6 1001 49 10000 3.6 310 23:27 12.12.2019
2720 Clouds 3 1001 42 10000 4.6 320 22:59 12.12.2019
2721 Clouds 6 1001 42 10000 4.6 320 22:41 12.12.2019
2722 Clouds 4 1001 42 10000 3.6 300 22:22 12.12.2019
2723 Clouds 6 1002 65 10000 1.5 0 21:56 12.12.2019
2724 Clouds 3 1002 65 10000 1.5 0 21:38 12.12.2019
2725 Clouds 6 1002 48 10000 4.1 330 21:20 12.12.2019
2726 Clouds 3 1002 52 10000 3.6 330 20:59 12.12.2019
2727 Clouds 4 1002 52 10000 3.6 330 20:41 12.12.2019
2728 Rain 3 1002 56 10000 4.1 330 20:23 12.12.2019
2729 Rain 4 1002 70 10000 4.1 330 19:59 12.12.2019
2730 Rain 4 1002 70 10000 4.1 330 19:41 12.12.2019
2731 Rain 4 1003 61 10000 5.1 330 19:21 12.12.2019
2732 Rain 4 1003 61 10000 3.6 300 18:58 12.12.2019
2733 Rain 6 1003 61 10000 3.6 300 18:39 12.12.2019
2734 Rain 6 1003 61 10000 4.1 330 18:20 12.12.2019
2735 Rain 5 1003 61 10000 2.6 30 17:57 12.12.2019
2736 Rain 5 1003 61 10000 2.6 30 17:57 12.12.2019
2737 Rain 5 1003 61 10000 2.6 30 17:57 12.12.2019
2738 Rain 5 1003 61 10000 2.6 30 17:57 12.12.2019
2739 Rain 5 1003 61 10000 2.6 30 17:39 12.12.2019
2740 Rain 9 1003 50 10000 2.1 30 17:20 12.12.2019
2741 Rain 9 1003 50 10000 2.1 30 17:20 12.12.2019
2742 Clouds 10 1003 37 10000 1.5 70 16:57 12.12.2019
2743 Clouds 10 1003 35 10000 1.5 90 16:39 12.12.2019
2744 Clouds 10 1003 35 10000 1.5 90 16:20 12.12.2019
2745 Clouds 11 1003 32 10000 1.5 110 15:56 12.12.2019
2746 Clouds 12 1003 32 10000 1.5 110 15:37 12.12.2019
2747 Clouds 12 1003 33 10000 1.5 150 15:18 12.12.2019
2748 Clouds 12 1004 33 10000 1.5 0 14:38 12.12.2019
2749 Clouds 12 1004 33 10000 1.5 0 14:38 12.12.2019
2750 Clouds 12 1004 37 10000 3.1 200 14:20 12.12.2019
2751 Clouds 12 1004 33 10000 3.1 230 13:58 12.12.2019
2752 Clouds 12 1004 33 10000 3.1 230 13:40 12.12.2019
2753 Clouds 11 1004 35 10000 4.1 230 13:21 12.12.2019
2754 Clouds 11 1004 50 10000 3.6 250 12:58 12.12.2019
2755 Clouds 11 1004 50 10000 3.6 250 12:40 12.12.2019
2756 Clouds 12 1004 50 10000 3.1 250 12:21 12.12.2019
2757 Clouds 11 1005 50 10000 2.6 300 11:57 12.12.2019
2758 Clouds 11 1005 50 10000 2.6 300 11:38 12.12.2019
2759 Clouds 11 1005 71 10000 2.6 330 11:19 12.12.2019
2760 Clouds 10 1005 71 10000 3.1 330 10:56 12.12.2019
2761 Clouds 10 1005 71 10000 3.1 330 10:38 12.12.2019
2762 Clouds 10 1004 57 10000 3.1 320 10:20 12.12.2019
2763 Clouds 9 1004 65 10000 2.1 300 09:55 12.12.2019
2764 Clouds 9 1004 65 10000 2.1 300 09:37 12.12.2019
2765 Clouds 8 1004 70 10000 2.6 280 09:18 12.12.2019
2766 Clouds 7 1004 71 10000 3.6 320 08:43 12.12.2019
2767 Clouds 7 1004 71 10000 3.6 320 08:43 12.12.2019
2768 Clouds 6 1003 67 10000 4.1 330 08:25 12.12.2019
2769 Clouds 6 1003 67 10000 4.1 330 08:25 12.12.2019
2770 Clouds 7 1003 67 10000 4.6 320 07:49 12.12.2019
2771 Clouds 7 1003 67 10000 3.6 320 07:27 12.12.2019
2772 Clouds 7 1003 67 10000 4.6 300 06:56 12.12.2019
2773 Clouds 7 1003 67 10000 4.6 300 06:35 12.12.2019
2774 Clouds 2 1003 70 10000 4.6 330 05:42 12.12.2019
2775 Clouds 8 1003 65 10000 3.1 300 04:55 12.12.2019
2776 Clouds 7 1003 75 10000 3.6 330 04:28 12.12.2019
2777 Clouds 4 1005 70 10000 4.1 340 02:41 12.12.2019
2778 Clouds 7 1005 70 10000 3.6 340 02:22 12.12.2019
2779 Clouds 6 1005 70 10000 4.6 320 01:54 12.12.2019
2780 Clouds 7 1005 70 10000 1.5 310 01:35 12.12.2019
2781 Clouds 7 1005 70 10000 1.5 350 00:48 12.12.2019
2782 Clouds 8 1006 66 10000 5.1 290 00:21 12.12.2019
2783 Clouds 8 1006 70 10000 3.6 280 23:54 11.12.2019
2784 Clouds 8 1005 66 10000 3.1 20 23:36 11.12.2019
2785 Clouds 8 1005 66 10000 3.1 20 23:18 11.12.2019
2786 Clouds 8 1006 61 10000 1.5 0 22:55 11.12.2019
2787 Clouds 8 1006 61 10000 1.5 0 22:36 11.12.2019
2788 Clouds 8 1006 61 10000 1.5 0 22:36 11.12.2019
2789 Clouds 8 1006 66 10000 1.5 350 22:18 11.12.2019
2790 Clouds 9 1006 66 10000 1.5 360 21:39 11.12.2019
2791 Clouds 9 1006 66 10000 1.5 360 21:39 11.12.2019
2792 Clouds 8 1007 66 10000 3.1 320 21:20 11.12.2019
2793 Clouds 9 1007 66 10000 2.1 330 20:58 11.12.2019
2794 Clouds 9 1007 66 10000 2.1 330 20:40 11.12.2019
2795 Clouds 9 1008 76 10000 1.5 310 20:19 11.12.2019
2796 Clouds 9 1008 66 10000 1.5 260 19:59 11.12.2019
2797 Clouds 9 1008 66 10000 1.5 260 19:40 11.12.2019
2798 Clouds 8 1009 61 10000 8.65 236 19:21 11.12.2019
2799 Clouds 8 1009 61 10000 8.65 236 18:58 11.12.2019
2800 Clouds 9 1009 61 10000 8.65 236 18:39 11.12.2019
2801 Rain 7 1010 66 10000 4.1 350 18:18 11.12.2019
2802 Clouds 8 1011 64 10000 4.6 330 17:55 11.12.2019
2803 Clouds 9 1011 64 10000 4.6 330 17:37 11.12.2019
2804 Clouds 10 1011 63 10000 4.6 320 17:18 11.12.2019
2805 Clouds 10 1012 63 10000 2.6 330 16:55 11.12.2019
2806 Clouds 10 1012 63 10000 2.6 330 16:37 11.12.2019
2807 Clouds 10 1012 63 10000 2.6 320 16:18 11.12.2019
2808 Clouds 10 1012 63 10000 3.6 320 15:55 11.12.2019
2809 Clouds 11 1012 63 10000 3.6 320 15:36 11.12.2019
2810 Clouds 11 1013 63 10000 3.1 320 15:18 11.12.2019
2811 Clouds 9 1013 63 10000 3.1 330 14:54 11.12.2019
2812 Clouds 11 1013 46 10000 3.1 320 14:36 11.12.2019
2813 Clouds 11 1013 46 10000 3.1 320 14:18 11.12.2019
2814 Clouds 11 1014 43 10000 4.6 320 13:42 11.12.2019
2815 Clouds 11 1014 43 10000 4.6 320 13:42 11.12.2019
2816 Clouds 11 1014 43 10000 4.6 320 13:22 11.12.2019
2817 Clouds 11 1015 39 10000 4.6 330 12:58 11.12.2019
2818 Clouds 10 1015 39 10000 4.6 330 12:39 11.12.2019
2819 Clouds 10 1016 39 10000 5.1 320 12:21 11.12.2019
2820 Clouds 10 1016 39 10000 5.1 320 12:21 11.12.2019
2821 Clouds 10 1016 42 10000 4.6 330 11:58 11.12.2019
2822 Clouds 10 1016 42 10000 4.6 330 11:39 11.12.2019
2823 Clouds 8 1017 42 10000 5.7 330 11:19 11.12.2019
2824 Clouds 8 1017 42 10000 5.7 320 10:59 11.12.2019
2825 Clouds 8 1017 42 10000 5.7 320 10:39 11.12.2019
2826 Clouds 6 1017 45 10000 5.1 330 10:20 11.12.2019
2827 Clouds 7 1017 42 10000 5.1 330 09:55 11.12.2019
2828 Clouds 7 1017 42 10000 5.1 330 09:37 11.12.2019
2829 Clouds 6 1018 48 10000 5.1 330 09:19 11.12.2019
2830 Clouds 5 1018 48 10000 6.2 330 08:55 11.12.2019
2831 Clouds 6 1018 48 10000 5.7 330 08:36 11.12.2019
2832 Clear 5 1018 48 10000 5.7 330 08:18 11.12.2019
2833 Clear 4 1018 48 10000 6.2 330 07:42 11.12.2019
2834 Clear 4 1018 48 10000 6.2 330 07:42 11.12.2019
2835 Clear 4 1018 52 10000 5.7 330 07:22 11.12.2019
2836 Clear 4 1018 52 10000 5.1 340 06:46 11.12.2019
2837 Clear 4 1018 52 10000 6.2 330 06:24 11.12.2019
2838 Clear 4 1019 52 10000 5.7 330 05:53 11.12.2019
2839 Clear 4 1019 48 10000 4.6 330 05:28 11.12.2019
2840 Clear 5 1019 48 10000 5.1 330 04:49 11.12.2019
2841 Clear 5 1020 48 10000 5.7 340 03:19 11.12.2019
2842 Clear 5 1020 49 10000 5.1 340 02:31 11.12.2019
2843 Clear 5 1021 45 10000 6.2 330 01:21 11.12.2019
2844 Clear 7 1021 49 10000 5.7 330 00:37 11.12.2019
2845 Clear 7 1021 49 10000 4.6 330 00:18 11.12.2019
2846 Clear 7 1021 45 10000 4.6 330 23:43 10.12.2019
2847 Clear 7 1020 49 10000 6.2 330 23:22 10.12.2019
2848 Clear 7 1020 49 10000 5.1 330 22:56 10.12.2019
2849 Clear 7 1020 49 10000 5.1 330 22:38 10.12.2019
2850 Clear 7 1020 45 10000 4.1 340 22:20 10.12.2019
2851 Clear 7 1020 45 10000 4.6 330 21:54 10.12.2019
2852 Clear 7 1020 45 10000 4.6 330 21:36 10.12.2019
2853 Clear 8 1020 53 10000 4.6 330 21:18 10.12.2019
2854 Clear 7 1020 66 10000 5.1 320 20:55 10.12.2019
2855 Clear 7 1020 66 10000 5.1 320 20:55 10.12.2019
2856 Clear 9 1020 57 10000 4.1 320 20:36 10.12.2019
2857 Clear 9 1020 57 10000 4.1 320 20:18 10.12.2019
2858 Clear 9 1020 57 10000 4.1 320 20:18 10.12.2019
2859 Clear 9 1020 57 10000 4.1 320 20:18 10.12.2019
2860 Clear 9 1019 57 10000 3.6 320 19:42 10.12.2019
2861 Clear 9 1019 62 10000 2.6 290 19:24 10.12.2019
2862 Clear 7 1019 62 10000 3.6 290 18:57 10.12.2019
2863 Clear 6 1019 62 10000 3.6 290 18:39 10.12.2019
2864 Clear 6 1018 66 10000 3.1 260 18:19 10.12.2019
2865 Clear 7 1018 58 10000 4.6 220 17:54 10.12.2019
2866 Clear 7 1018 58 10000 4.6 220 17:36 10.12.2019
2867 Clear 12 1018 58 10000 4.6 240 17:18 10.12.2019
2868 Clear 12 1018 58 10000 4.6 240 17:18 10.12.2019
2869 Clear 14 1017 47 10000 1 0 16:42 10.12.2019
2870 Clear 14 1017 45 10000 2.1 180 16:20 10.12.2019
2871 Clear 16 1017 45 10000 4.6 160 15:54 10.12.2019
2872 Clear 16 1017 45 10000 4.6 160 15:36 10.12.2019
2873 Clear 17 1016 39 10000 5.7 180 15:18 10.12.2019
2874 Clear 17 1016 39 10000 5.7 180 15:18 10.12.2019
2875 Clear 17 1016 31 10000 3.1 140 14:55 10.12.2019
2876 Clear 17 1016 31 10000 3.1 140 14:36 10.12.2019
2877 Clear 17 1016 15 10000 2.6 10 14:18 10.12.2019
2878 Clear 17 1017 14 10000 4.1 350 13:56 10.12.2019
2879 Clear 17 1017 14 10000 4.1 350 13:56 10.12.2019
2880 Clear 17 1017 17 10000 5.1 350 13:37 10.12.2019
2881 Clear 17 1017 17 10000 5.1 350 13:18 10.12.2019
2882 Clear 17 1017 16 10000 6.2 360 12:40 10.12.2019
2883 Clear 17 1017 21 10000 2.1 340 12:21 10.12.2019
2884 Clear 16 1017 25 10000 2.1 320 11:42 10.12.2019
2885 Clear 13 1017 28 10000 2.6 320 11:23 10.12.2019
2886 Clear 12 1017 30 10000 5.1 330 10:56 10.12.2019
2887 Clear 12 1017 30 10000 5.1 330 10:37 10.12.2019
2888 Clear 10 1016 32 10000 7.2 320 10:19 10.12.2019
2889 Clear 8 1016 34 10000 5.1 340 09:55 10.12.2019
2890 Clear 8 1016 34 10000 5.1 340 09:37 10.12.2019
2891 Clear 9 1015 37 10000 4.1 340 09:19 10.12.2019
2892 Clear 8 1015 39 10000 5.7 340 08:54 10.12.2019
2893 Clear 8 1015 39 10000 5.7 340 08:36 10.12.2019
2894 Clear 7 1015 34 10000 5.7 330 08:18 10.12.2019
2895 Clear 6 1014 39 10000 4.6 330 07:43 10.12.2019
2896 Clear 6 1014 39 10000 4.6 330 07:43 10.12.2019
2897 Clear 7 1014 39 10000 3.1 300 07:25 10.12.2019
2898 Clear 6 1013 45 10000 4.1 340 06:47 10.12.2019
2899 Clear 6 1013 42 10000 4.1 330 06:21 10.12.2019
2900 Clear 6 1012 45 10000 3.1 340 05:55 10.12.2019
2901 Clear 9 1011 45 10000 4.6 330 04:55 10.12.2019
2902 Clear 9 1011 43 10000 4.6 320 03:39 10.12.2019
2903 Clear 9 1010 46 10000 4.1 320 02:46 10.12.2019
2904 Clouds 10 1010 43 10000 4.6 30 01:45 10.12.2019
2905 Clouds 11 1009 35 10000 5.1 50 01:24 10.12.2019
2906 Clouds 11 1009 35 10000 6.7 60 00:43 10.12.2019
2907 Clouds 12 1008 37 10000 6.2 50 00:24 10.12.2019
2908 Clouds 12 1007 35 10000 4.1 340 23:43 09.12.2019
2909 Clouds 11 1007 37 10000 4.6 330 23:24 09.12.2019
2910 Clouds 11 1007 35 10000 7.2 330 22:58 09.12.2019
2911 Clouds 12 1007 35 10000 7.2 330 22:40 09.12.2019
2912 Clouds 12 1007 33 10000 9.3 340 22:21 09.12.2019
2913 Clouds 12 1007 33 10000 9.3 340 21:57 09.12.2019
2914 Clouds 12 1007 33 10000 9.3 340 21:39 09.12.2019
2915 Clouds 13 1008 33 10000 5.7 330 21:19 09.12.2019
2916 Clouds 12 1008 33 10000 4.6 320 20:57 09.12.2019
2917 Clouds 12 1008 33 10000 4.6 320 20:39 09.12.2019
2918 Clouds 12 1008 33 10000 4.6 320 20:39 09.12.2019
2919 Clouds 12 1008 57 10000 2.1 300 20:20 09.12.2019
2920 Clouds 12 1008 57 10000 2.1 300 20:20 09.12.2019
2921 Clouds 12 1007 35 10000 2.6 280 19:56 09.12.2019
2922 Clouds 12 1007 35 10000 2.6 280 19:38 09.12.2019
2923 Clouds 12 1007 35 10000 2.6 320 19:20 09.12.2019
2924 Clouds 12 1007 35 10000 1.5 0 18:59 09.12.2019
2925 Clouds 13 1007 35 10000 1.5 0 18:40 09.12.2019
2926 Clouds 13 1007 41 10000 4.1 310 18:20 09.12.2019
2927 Clouds 13 1007 57 10000 5.7 310 17:59 09.12.2019
2928 Clouds 13 1007 57 10000 5.7 310 17:40 09.12.2019
2929 Clouds 13 1006 38 10000 7.7 280 17:21 09.12.2019
2930 Clouds 13 1006 38 10000 10.3 280 16:56 09.12.2019
2931 Clouds 14 1006 36 10000 10.3 270 16:38 09.12.2019
2932 Clouds 14 1006 36 10000 10.3 270 16:20 09.12.2019
2933 Clouds 14 1006 36 10000 10.3 270 16:20 09.12.2019
2934 Clouds 15 1006 33 10000 10.3 270 15:56 09.12.2019
2935 Clouds 15 1006 33 10000 10.3 270 15:56 09.12.2019
2936 Clouds 16 1006 33 10000 10.3 270 15:37 09.12.2019
2937 Clouds 16 1006 36 10000 10.8 270 15:19 09.12.2019
2938 Clouds 17 1006 31 10000 8.2 270 14:58 09.12.2019
2939 Clouds 17 1006 31 10000 8.2 270 14:40 09.12.2019
2940 Clouds 16 1006 31 10000 6.7 270 14:18 09.12.2019
2941 Clouds 16 1007 31 10000 6.7 270 13:55 09.12.2019
2942 Clouds 16 1007 31 10000 6.7 270 13:36 09.12.2019
2943 Clouds 16 1007 42 10000 7.7 270 13:18 09.12.2019
2944 Clouds 16 1007 39 10000 7.2 260 12:54 09.12.2019
2945 Clouds 15 1008 33 10000 5.7 280 12:36 09.12.2019
2946 Clouds 15 1008 33 10000 5.7 280 12:18 09.12.2019
2947 Clouds 15 1008 51 10000 9.3 290 11:40 09.12.2019
2948 Clear 15 1009 41 10000 7.7 280 11:22 09.12.2019
2949 Clear 14 1009 41 10000 9.8 270 10:59 09.12.2019
2950 Clear 14 1009 41 10000 9.8 270 10:39 09.12.2019
2951 Clear 14 1009 41 10000 9.8 270 10:39 09.12.2019
2952 Clear 14 1009 44 10000 11.3 250 10:19 09.12.2019
2953 Clear 13 1009 44 10000 12.3 250 09:45 09.12.2019
2954 Clear 13 1009 50 10000 9.8 270 09:25 09.12.2019
2955 Clear 12 1009 47 10000 9.3 280 08:57 09.12.2019
2956 Clear 12 1009 47 10000 9.3 280 08:39 09.12.2019
2957 Clouds 9 1009 44 10000 7.2 310 08:21 09.12.2019
2958 Clouds 12 1009 58 10000 5.1 300 07:52 09.12.2019
2959 Clouds 8 1009 66 10000 2.6 320 07:33 09.12.2019
2960 Clouds 7 1009 70 10000 5.1 310 06:58 09.12.2019
2961 Clouds 6 1009 76 10000 5.7 320 06:32 09.12.2019
2962 Clouds 7 1010 76 10000 3.1 340 05:51 09.12.2019
2963 Clouds 9 1010 76 10000 4.1 330 05:24 09.12.2019
2964 Clouds 9 1011 71 10000 4.1 320 04:28 09.12.2019
2965 Clouds 10 1012 71 10000 3.6 330 02:46 09.12.2019
2966 Clouds 9 1013 76 10000 4.6 320 01:48 09.12.2019
2967 Clouds 9 1013 76 10000 2.6 330 01:23 09.12.2019
2968 Clouds 8 1014 76 10000 4.6 320 00:39 09.12.2019
2969 Clouds 7 1013 76 10000 2.1 360 00:19 09.12.2019
2970 Clouds 7 1014 76 10000 5.1 320 23:39 08.12.2019
2971 Clear 7 1015 76 10000 5.1 320 23:20 08.12.2019
2972 Clear 7 1015 81 10000 3.6 290 22:56 08.12.2019
2973 Clear 7 1015 81 10000 3.6 290 22:38 08.12.2019
2974 Clear 7 1015 76 10000 4.1 320 22:18 08.12.2019
2975 Clear 7 1015 81 10000 3.6 320 21:57 08.12.2019
2976 Clear 7 1015 81 10000 3.6 320 21:38 08.12.2019
2977 Clear 7 1015 81 10000 4.1 320 21:19 08.12.2019
2978 Clouds 7 1016 81 10000 4.1 320 20:57 08.12.2019
2979 Clouds 8 1016 81 10000 4.1 320 20:38 08.12.2019
2980 Clouds 10 1016 76 10000 3.6 320 20:19 08.12.2019
2981 Clouds 10 1016 76 10000 4.1 320 19:57 08.12.2019
2982 Clouds 10 1016 76 10000 4.1 320 19:57 08.12.2019
2983 Clouds 10 1016 76 10000 4.1 320 19:39 08.12.2019
2984 Clouds 9 1016 81 10000 3.6 320 19:21 08.12.2019
2985 Clouds 11 1016 76 10000 2.6 310 18:55 08.12.2019
2986 Clouds 11 1016 76 10000 2.6 310 18:36 08.12.2019
2987 Clouds 12 1017 82 10000 3.1 240 18:18 08.12.2019
2988 Clouds 12 1017 76 10000 3.6 220 17:56 08.12.2019
2989 Clouds 12 1017 76 10000 3.6 220 17:56 08.12.2019
2990 Clouds 12 1017 76 10000 3.6 220 17:38 08.12.2019
2991 Clouds 12 1017 76 10000 3.6 210 17:19 08.12.2019
2992 Clouds 12 1017 76 10000 3.6 220 16:56 08.12.2019
2993 Clouds 13 1017 76 10000 3.6 220 16:38 08.12.2019
2994 Clouds 13 1017 72 10000 3.1 220 16:20 08.12.2019
2995 Clouds 13 1017 63 10000 3.6 220 15:54 08.12.2019
2996 Clouds 13 1017 63 10000 3.6 220 15:36 08.12.2019
2997 Clouds 13 1017 63 10000 4.1 210 15:18 08.12.2019
2998 Clouds 13 1018 63 10000 5.1 210 14:40 08.12.2019
2999 Clouds 13 1018 63 10000 5.1 210 14:40 08.12.2019
3000 Clouds 15 1018 67 10000 6.2 210 14:22 08.12.2019
3001 Clouds 15 1018 67 10000 2.6 210 13:57 08.12.2019
3002 Clouds 14 1018 67 10000 2.6 210 13:38 08.12.2019
3003 Clouds 15 1019 54 10000 2.6 300 13:20 08.12.2019
3004 Clouds 15 1019 54 10000 4.6 320 12:54 08.12.2019
3005 Clouds 14 1019 54 10000 4.6 320 12:36 08.12.2019
3006 Clouds 14 1019 54 10000 5.1 330 12:18 08.12.2019
3007 Clouds 14 1020 58 10000 5.7 330 11:55 08.12.2019
3008 Clouds 14 1020 58 10000 5.7 330 11:37 08.12.2019
3009 Clouds 12 1020 57 10000 5.7 330 11:18 08.12.2019
3010 Clouds 12 1020 57 10000 6.7 320 10:39 08.12.2019
3011 Clouds 10 1020 61 10000 6.7 320 10:21 08.12.2019
3012 Clouds 9 1020 66 10000 6.2 330 09:58 08.12.2019
3013 Clouds 9 1020 66 10000 6.2 330 09:39 08.12.2019
3014 Clouds 8 1020 70 10000 6.2 330 09:20 08.12.2019
3015 Clouds 6 1020 70 10000 4.6 330 08:58 08.12.2019
3016 Clouds 7 1020 70 10000 4.6 330 08:39 08.12.2019
3017 Clouds 6 1020 70 10000 4.6 340 08:21 08.12.2019
3018 Clouds 5 1019 70 10000 6.7 330 07:44 08.12.2019
3019 Clouds 5 1019 75 10000 6.7 330 07:20 08.12.2019
3020 Clouds 5 1019 75 10000 6.2 330 06:51 08.12.2019
3021 Clouds 5 1019 75 10000 6.7 330 06:23 08.12.2019
3022 Clouds 5 1019 75 10000 6.7 330 05:52 08.12.2019
3023 Clouds 5 1019 81 10000 7.2 330 05:18 08.12.2019
3024 Clouds 7 1019 81 10000 5.1 330 03:54 08.12.2019
3025 Clouds 8 1019 81 10000 5.1 330 03:36 08.12.2019
3026 Clouds 8 1019 81 10000 5.7 330 02:40 08.12.2019
3027 Clouds 8 1019 81 10000 3.1 340 01:56 08.12.2019
3028 Clouds 8 1019 81 10000 3.6 340 01:33 08.12.2019
3029 Clouds 9 1020 81 10000 4.1 340 00:43 08.12.2019
3030 Clouds 9 1020 93 10000 2.1 350 00:21 08.12.2019
3031 Clouds 9 1020 81 10000 4.6 330 23:55 07.12.2019
3032 Clouds 9 1020 81 10000 4.6 330 23:36 07.12.2019
3033 Clouds 9 1019 81 10000 4.1 340 23:18 07.12.2019
3034 Clouds 9 1019 87 10000 4.6 340 22:54 07.12.2019
3035 Clouds 9 1019 87 10000 4.6 340 22:36 07.12.2019
3036 Clouds 9 1019 81 10000 4.6 340 22:18 07.12.2019
3037 Clouds 7 1019 81 10000 5.7 330 21:54 07.12.2019
3038 Clouds 7 1019 81 10000 5.7 330 21:36 07.12.2019
3039 Clouds 7 1019 81 10000 3.1 350 21:18 07.12.2019
3040 Clouds 8 1018 87 10000 4.6 320 20:37 07.12.2019
3041 Clouds 10 1018 87 10000 4.6 320 20:19 07.12.2019
3042 Clouds 10 1018 87 10000 4.1 320 19:57 07.12.2019
3043 Clouds 10 1018 87 10000 4.1 320 19:57 07.12.2019
3044 Clouds 10 1018 87 10000 4.1 320 19:39 07.12.2019
3045 Clouds 10 1018 81 10000 3.1 320 19:21 07.12.2019
3046 Clouds 9 1018 81 10000 3.1 320 18:58 07.12.2019
3047 Clouds 9 1018 81 10000 3.1 320 18:39 07.12.2019
3048 Clouds 9 1018 76 10000 1.5 20 18:18 07.12.2019
3049 Clouds 10 1017 71 10000 1.5 70 17:55 07.12.2019
3050 Clouds 10 1017 71 10000 1.5 70 17:37 07.12.2019
3051 Clear 12 1017 71 10000 2.1 90 17:18 07.12.2019
3052 Clouds 13 1017 67 10000 2.1 90 16:55 07.12.2019
3053 Clouds 13 1017 67 10000 2.1 90 16:36 07.12.2019
3054 Clouds 11 1017 67 10000 3.11 92 16:18 07.12.2019
3055 Clouds 11 1017 67 10000 1 260 15:40 07.12.2019
3056 Clouds 12 1017 67 10000 1 0 15:22 07.12.2019
3057 Clouds 12 1017 67 10000 1 0 14:43 07.12.2019
3058 Clouds 14 1017 72 10000 1.5 0 14:20 07.12.2019
3059 Clouds 13 1018 72 10000 1 0 13:59 07.12.2019
3060 Clouds 13 1018 72 10000 1 0 13:39 07.12.2019
3061 Clouds 13 1018 67 10000 1.5 110 13:20 07.12.2019
3062 Clouds 13 1018 67 10000 1.5 110 13:20 07.12.2019
3063 Clouds 13 1018 67 10000 1 0 12:55 07.12.2019
3064 Clouds 13 1018 67 10000 1 0 12:37 07.12.2019
3065 Clouds 14 1018 67 10000 4.43 73 12:18 07.12.2019
3066 Clouds 14 1018 54 10000 2.1 320 11:42 07.12.2019
3067 Clouds 11 1019 58 10000 3.6 320 11:23 07.12.2019
3068 Clouds 10 1019 66 10000 4.6 320 10:59 07.12.2019
3069 Clouds 9 1019 62 10000 4.6 320 10:37 07.12.2019
3070 Clouds 9 1019 62 10000 4.6 320 10:18 07.12.2019
3071 Clouds 9 1018 66 10000 5.1 320 09:40 07.12.2019
3072 Clouds 10 1018 70 10000 5.1 330 09:21 07.12.2019
3073 Clouds 8 1018 75 10000 5.1 320 08:47 07.12.2019
3074 Clouds 7 1018 75 10000 5.1 320 08:25 07.12.2019
3075 Clouds 5 1018 75 10000 4.1 330 07:57 07.12.2019
3076 Clouds 5 1018 75 10000 4.1 330 07:38 07.12.2019
3077 Clouds 5 1018 75 10000 4.6 330 07:19 07.12.2019
3078 Clouds 6 1018 75 10000 4.6 330 06:45 07.12.2019
3079 Clouds 6 1018 70 10000 3.1 340 06:24 07.12.2019
3080 Clouds 6 1018 70 10000 5.7 330 04:49 07.12.2019
3081 Clouds 8 1019 76 10000 5.1 330 03:53 07.12.2019
3082 Clouds 6 1019 76 10000 2.6 340 02:50 07.12.2019
3083 Clouds 6 1019 76 10000 3.6 340 02:19 07.12.2019
3084 Clouds 6 1020 71 10000 4.1 330 01:31 07.12.2019
3085 Clouds 6 1020 76 10000 4.6 330 00:43 07.12.2019
3086 Clouds 6 1020 76 10000 4.6 330 00:19 07.12.2019
3087 Clouds 6 1020 76 10000 4.6 330 23:47 06.12.2019
3088 Clouds 6 1020 76 10000 4.6 330 23:47 06.12.2019
3089 Clouds 7 1020 71 10000 4.6 330 23:24 06.12.2019
3090 Clouds 8 1021 71 10000 4.6 330 22:58 06.12.2019
3091 Clouds 6 1021 71 10000 4.6 330 22:37 06.12.2019
3092 Clouds 8 1021 76 10000 4.1 330 22:19 06.12.2019
3093 Clouds 7 1021 71 10000 4.1 320 21:56 06.12.2019
3094 Clouds 7 1021 71 10000 4.1 320 21:38 06.12.2019
3095 Clouds 7 1021 71 10000 4.1 320 21:19 06.12.2019
3096 Clouds 7 1021 76 10000 3.1 330 20:42 06.12.2019
3097 Clouds 10 1021 81 10000 3.1 320 20:23 06.12.2019
3098 Clouds 10 1021 81 10000 3.1 320 19:58 06.12.2019
3099 Clouds 10 1021 81 10000 3.1 320 19:39 06.12.2019
3100 Clouds 10 1021 81 10000 2.6 320 19:21 06.12.2019
3101 Clouds 7 1021 81 10000 2.1 320 18:55 06.12.2019
3102 Clouds 8 1021 81 10000 2.1 320 18:37 06.12.2019
3103 Clouds 8 1021 76 10000 1.5 210 18:19 06.12.2019
3104 Clouds 9 1020 71 10000 1.5 190 17:55 06.12.2019
3105 Clouds 9 1020 71 10000 1.5 190 17:37 06.12.2019
3106 Clouds 11 1020 71 10000 1.5 200 17:19 06.12.2019
3107 Clouds 12 1020 71 10000 1 0 16:42 06.12.2019
3108 Clouds 13 1020 62 10000 1.5 230 16:24 06.12.2019
3109 Clouds 14 1021 55 10000 1.5 0 15:57 06.12.2019
3110 Clouds 12 1021 55 10000 1.5 0 15:39 06.12.2019
3111 Clouds 11 1021 55 10000 1.5 0 15:18 06.12.2019
3112 Clouds 11 1021 51 10000 1.5 170 14:56 06.12.2019
3113 Clouds 10 1021 51 10000 1.5 170 14:37 06.12.2019
3114 Clouds 12 1021 48 10000 1 0 14:18 06.12.2019
3115 Clouds 12 1022 48 10000 6.98 69 13:42 06.12.2019
3116 Clouds 11 1022 48 10000 1.5 0 13:24 06.12.2019
3117 Clouds 14 1022 44 10000 1.5 320 12:42 06.12.2019
3118 Clouds 13 1023 50 10000 3.1 320 12:22 06.12.2019
3119 Clouds 12 1023 54 10000 3.6 330 11:58 06.12.2019
3120 Clouds 12 1023 54 10000 3.6 330 11:39 06.12.2019
3121 Clouds 8 1023 62 10000 3.6 330 11:20 06.12.2019
3122 Clouds 8 1024 57 10000 3.6 330 10:43 06.12.2019
3123 Clouds 8 1023 57 10000 4.6 340 10:21 06.12.2019
3124 Clouds 10 1023 61 10000 5.1 330 09:58 06.12.2019
3125 Clouds 10 1023 61 10000 5.7 330 09:37 06.12.2019
3126 Clouds 10 1023 61 10000 5.1 330 09:37 06.12.2019
3127 Clouds 10 1023 61 10000 5.7 330 09:19 06.12.2019
3128 Clouds 9 1023 61 10000 5.1 330 08:55 06.12.2019
3129 Clouds 9 1023 61 10000 5.1 330 08:36 06.12.2019
3130 Clouds 6 1023 61 10000 4.6 330 08:18 06.12.2019
3131 Clouds 6 1023 61 10000 5.1 330 07:36 06.12.2019
3132 Clouds 6 1022 57 10000 4.1 330 07:18 06.12.2019
3133 Clouds 5 1022 57 10000 4.6 320 06:30 06.12.2019
3134 Clouds 6 1022 76 10000 2.1 10 05:54 06.12.2019
3135 Clouds 5 1022 62 10000 3.6 320 05:34 06.12.2019
3136 Clouds 7 1023 66 10000 4.1 330 02:19 06.12.2019
3137 Clouds 7 1023 66 10000 4.1 330 02:19 06.12.2019
3138 Clouds 7 1023 66 10000 3.1 330 01:34 06.12.2019
3139 Clouds 10 1023 71 10000 4.1 330 00:46 06.12.2019
3140 Clouds 10 1023 76 10000 4.6 330 00:21 06.12.2019
3141 Clouds 10 1023 76 10000 4.1 330 23:49 05.12.2019
3142 Clouds 8 1023 71 10000 3.6 350 23:19 05.12.2019
3143 Clouds 7 1023 71 10000 4.6 320 22:58 05.12.2019
3144 Clouds 8 1023 71 10000 4.6 320 22:38 05.12.2019
3145 Rain 8 1023 71 10000 3.6 340 22:18 05.12.2019
3146 Rain 8 1023 71 10000 3.6 340 22:18 05.12.2019
3147 Rain 8 1023 71 10000 3.6 340 22:18 05.12.2019
3148 Rain 8 1023 71 10000 3.6 340 22:18 05.12.2019
3149 Clouds 8 1023 71 10000 4.1 320 21:55 05.12.2019
3150 Clouds 7 1023 71 10000 4.1 320 21:37 05.12.2019
3151 Clouds 7 1023 71 10000 5.1 320 21:18 05.12.2019
3152 Clouds 8 1023 66 10000 4.6 320 20:40 05.12.2019
3153 Rain 8 1023 66 10000 3.1 320 20:21 05.12.2019
3154 Clouds 9 1022 62 10000 3.1 330 19:59 05.12.2019
3155 Clouds 9 1022 62 10000 3.1 330 19:40 05.12.2019
3156 Clouds 9 1022 62 10000 3.1 320 19:21 05.12.2019
3157 Clouds 9 1022 62 10000 4.1 320 18:58 05.12.2019
3158 Clouds 9 1022 62 10000 4.1 320 18:38 05.12.2019
3159 Clouds 9 1022 62 10000 4.1 320 18:38 05.12.2019
3160 Clouds 9 1022 62 10000 2.6 340 18:20 05.12.2019
3161 Clouds 10 1022 54 10000 3.6 40 17:40 05.12.2019
3162 Clouds 10 1021 51 10000 3.6 50 17:20 05.12.2019
3163 Clouds 10 1021 48 10000 8.2 80 16:58 05.12.2019
3164 Clouds 10 1021 48 10000 8.2 80 16:40 05.12.2019
3165 Clouds 9 1021 51 10000 3.1 40 16:21 05.12.2019
3166 Clouds 9 1021 51 10000 3.1 40 16:21 05.12.2019
3167 Clouds 9 1021 50 10000 2.1 360 15:58 05.12.2019
3168 Clouds 9 1021 50 10000 2.1 360 15:39 05.12.2019
3169 Clouds 9 1020 44 10000 3.6 30 15:20 05.12.2019
3170 Clouds 9 1021 48 10000 8.7 90 14:56 05.12.2019
3171 Clouds 9 1021 48 10000 8.7 90 14:38 05.12.2019
3172 Clouds 10 1021 47 10000 3.1 330 14:19 05.12.2019
3173 Clouds 12 1021 50 10000 4.1 320 13:57 05.12.2019
3174 Clouds 10 1021 50 10000 4.1 320 13:39 05.12.2019
3175 Clouds 9 1021 47 10000 4.1 320 13:20 05.12.2019
3176 Clouds 9 1021 50 10000 4.6 320 12:58 05.12.2019
3177 Clouds 9 1021 50 10000 4.6 320 12:39 05.12.2019
3178 Clouds 9 1021 50 10000 5.1 320 12:21 05.12.2019
3179 Clouds 8 1021 50 10000 5.7 320 11:41 05.12.2019
3180 Clouds 7 1021 53 10000 5.7 320 11:22 05.12.2019
3181 Clouds 7 1021 53 10000 4.6 330 10:59 05.12.2019
3182 Clouds 8 1021 53 10000 4.6 330 10:41 05.12.2019
3183 Clouds 7 1020 49 10000 4.1 330 10:19 05.12.2019
3184 Clouds 9 1020 49 10000 5.1 330 09:57 05.12.2019
3185 Clouds 8 1019 49 10000 4.6 320 09:39 05.12.2019
3186 Clouds 8 1019 49 10000 4.6 320 09:20 05.12.2019
3187 Clouds 7 1019 49 10000 5.7 330 08:57 05.12.2019
3188 Clouds 8 1019 49 10000 5.7 330 08:37 05.12.2019
3189 Clouds 4 1019 51 10000 4.6 330 08:19 05.12.2019
3190 Clouds 4 1018 51 10000 5.1 330 07:44 05.12.2019
3191 Clouds 5 1018 61 10000 6.2 340 07:24 05.12.2019
3192 Clouds 5 1018 51 10000 5.1 330 06:56 05.12.2019
3193 Clouds 5 1018 51 10000 5.1 330 06:37 05.12.2019
3194 Clouds 5 1018 51 10000 5.1 330 06:18 05.12.2019
3195 Clouds 5 1018 51 10000 5.1 320 05:44 05.12.2019
3196 Clouds 5 1017 49 10000 5.7 320 05:19 05.12.2019
3197 Clouds 7 1016 49 10000 4.6 330 03:52 05.12.2019
3198 Clouds 6 1017 49 10000 5.7 320 02:42 05.12.2019
3199 Clouds 6 1017 50 10000 4.6 320 02:23 05.12.2019
3200 Clouds 6 1017 57 10000 6.2 330 01:51 05.12.2019
3201 Clouds 6 1017 57 10000 5.7 330 01:24 05.12.2019
3202 Clouds 6 1017 57 10000 5.7 330 00:50 05.12.2019
3203 Clouds 6 1017 57 10000 6.2 330 00:29 05.12.2019
3204 Clouds 6 1017 57 10000 6.2 330 23:57 04.12.2019
3205 Clouds 6 1017 57 10000 6.2 330 23:39 04.12.2019
3206 Clouds 6 1017 61 10000 6.2 330 23:20 04.12.2019
3207 Clouds 6 1017 61 10000 5.1 330 22:55 04.12.2019
3208 Clouds 6 1017 61 10000 5.1 330 22:36 04.12.2019
3209 Clouds 6 1017 66 10000 7.2 330 22:18 04.12.2019
3210 Clouds 6 1017 66 10000 6.2 330 21:54 04.12.2019
3211 Clouds 6 1017 66 10000 6.2 330 21:36 04.12.2019
3212 Clouds 6 1017 61 10000 5.1 330 21:18 04.12.2019
3213 Clouds 7 1017 61 10000 4.6 330 20:54 04.12.2019
3214 Clouds 7 1017 61 10000 4.1 330 20:36 04.12.2019
3215 Clouds 7 1017 61 10000 4.1 330 20:18 04.12.2019
3216 Clouds 7 1017 66 10000 5.7 320 19:39 04.12.2019
3217 Clouds 8 1017 66 10000 4.6 320 19:21 04.12.2019
3218 Clouds 9 1017 48 10000 7.2 70 18:57 04.12.2019
3219 Clouds 8 1017 48 10000 7.2 70 18:39 04.12.2019
3220 Clouds 8 1017 48 10000 8.7 80 18:21 04.12.2019
3221 Clouds 9 1016 41 10000 1 0 17:40 04.12.2019
3222 Clouds 11 1016 38 10000 1.5 0 17:22 04.12.2019
3223 Clouds 10 1016 36 10000 11.8 90 16:59 04.12.2019
3224 Clouds 11 1016 36 10000 11.8 90 16:40 04.12.2019
3225 Clouds 11 1016 41 10000 11.8 90 16:20 04.12.2019
3226 Clouds 11 1016 41 10000 11.8 90 16:20 04.12.2019
3227 Clouds 11 1015 55 10000 11.8 90 15:56 04.12.2019
3228 Clouds 11 1015 55 10000 11.8 90 15:38 04.12.2019
3229 Clouds 11 1015 51 10000 11.8 100 15:19 04.12.2019
3230 Clouds 12 1015 51 10000 9.3 80 14:57 04.12.2019
3231 Clouds 12 1015 51 10000 9.3 80 14:39 04.12.2019
3232 Clouds 12 1015 51 10000 8.2 80 14:20 04.12.2019
3233 Clouds 12 1016 55 10000 7.7 70 13:39 04.12.2019
3234 Clouds 11 1016 47 10000 4.1 330 13:20 04.12.2019
3235 -273 0 0 0 0 0 12:58 04.12.2019
3236 Clouds 10 1016 50 10000 4.6 320 12:40 04.12.2019
3237 Clouds 9 1017 50 10000 5.1 320 12:22 04.12.2019
3238 Clouds 13 1017 50 10000 5.1 320 11:41 04.12.2019
3239 Clouds 8 1017 57 10000 4.6 320 11:23 04.12.2019
3240 Clouds 7 1017 57 10000 6.7 330 10:57 04.12.2019
3241 Clouds 10 1017 57 10000 6.7 330 10:39 04.12.2019
3242 Clouds 8 1018 61 10000 7.7 330 10:21 04.12.2019
3243 Clouds 7 1018 61 10000 6.2 330 09:42 04.12.2019
3244 Clouds 7 1017 61 10000 6.7 330 09:23 04.12.2019
3245 Clouds 6 1017 61 10000 6.7 330 08:43 04.12.2019
3246 Clouds 7 1017 70 10000 6.7 330 08:25 04.12.2019
3247 Clear 3 1017 70 10000 5.1 330 07:51 04.12.2019
3248 Clear 4 1018 70 10000 5.7 330 07:31 04.12.2019
3249 Clear 4 1018 70 10000 5.7 320 06:59 04.12.2019
3250 Clear 4 1018 70 10000 4.6 330 06:31 04.12.2019
3251 Clear 4 1018 70 10000 5.7 340 05:46 04.12.2019
3252 Clear 5 1019 70 10000 6.2 330 04:34 04.12.2019
3253 Clear 5 1019 70 10000 4.1 320 03:51 04.12.2019
3254 Clear 5 1020 75 10000 6.2 320 01:49 04.12.2019
3255 Clear 5 1020 70 10000 4.6 330 00:48 04.12.2019
3256 Clear 5 1020 70 10000 5.1 330 00:22 04.12.2019
3257 Clear 5 1020 70 10000 3.6 340 23:55 03.12.2019
3258 Clear 5 1020 70 10000 3.6 340 23:36 03.12.2019
3259 Clear 5 1020 70 10000 4.6 330 23:18 03.12.2019
3260 Clear 5 1020 66 10000 5.1 330 22:39 03.12.2019
3261 Clear 5 1020 66 10000 5.1 330 22:39 03.12.2019
3262 Clear 5 1020 66 10000 5.1 330 22:39 03.12.2019
3263 Clear 5 1020 71 10000 3.6 330 22:18 03.12.2019
3264 Clear 6 1020 71 10000 4.1 330 21:57 03.12.2019
3265 Clear 6 1020 71 10000 4.1 330 21:37 03.12.2019
3266 Clear 6 1019 71 10000 3.6 330 21:18 03.12.2019
3267 Clear 6 1019 76 10000 3.6 330 20:56 03.12.2019
3268 Clear 5 1019 76 10000 3.6 330 20:38 03.12.2019
3269 Clear 6 1019 76 10000 4.6 330 20:18 03.12.2019
3270 Clear 6 1019 76 10000 4.6 330 19:54 03.12.2019
3271 Clear 6 1019 76 10000 4.6 330 19:36 03.12.2019
3272 Clear 7 1019 71 10000 4.1 340 19:18 03.12.2019
3273 Clear 7 1019 76 10000 5.7 320 18:55 03.12.2019
3274 Clear 5 1018 71 10000 4.6 320 18:37 03.12.2019
3275 Clear 5 1018 71 10000 4.6 320 18:18 03.12.2019
3276 Clear 5 1018 71 10000 1 0 17:40 03.12.2019
3277 Clear 12 1018 58 10000 2.1 270 17:19 03.12.2019
3278 Clear 13 1018 58 10000 1.5 250 16:59 03.12.2019
3279 Clear 13 1018 58 10000 1.5 250 16:59 03.12.2019
3280 Clear 14 1018 58 10000 1.5 250 16:40 03.12.2019
3281 Clear 15 1018 63 10000 1.5 250 16:21 03.12.2019
3282 Clear 11 1018 48 10000 1.5 260 15:59 03.12.2019
3283 Clear 10 1018 48 10000 1.5 260 15:39 03.12.2019
3284 Clear 10 1018 48 10000 1.5 260 15:39 03.12.2019
3285 Clear 16 1018 48 10000 0.5 0 15:20 03.12.2019
3286 Clear 16 1018 48 10000 0.5 0 15:20 03.12.2019
3287 Clear 11 1018 45 10000 11.86 72 14:56 03.12.2019
3288 Clear 10 1018 45 10000 11.86 72 14:38 03.12.2019
3289 Clear 16 1018 45 10000 1 0 14:18 03.12.2019
3290 Clear 16 1018 48 10000 1.5 320 13:38 03.12.2019
3291 Clouds 15 1019 44 10000 2.6 320 13:20 03.12.2019
3292 Clouds 15 1019 44 10000 2.6 320 13:20 03.12.2019
3293 Clouds 15 1019 51 10000 4.1 320 12:58 03.12.2019
3294 Clouds 15 1019 50 10000 4.1 320 12:37 03.12.2019
3295 Clouds 15 1019 50 10000 4.1 320 12:37 03.12.2019
3296 Clouds 15 1019 50 10000 4.1 320 12:18 03.12.2019
3297 Clouds 14 1019 54 10000 5.1 320 11:58 03.12.2019
3298 Clouds 10 1019 54 10000 5.1 320 11:38 03.12.2019
3299 Clouds 6 1019 58 10000 5.1 320 11:19 03.12.2019
3300 Clouds 6 1019 58 10000 5.1 320 11:19 03.12.2019
3301 Clouds 6 1019 58 10000 5.1 330 10:56 03.12.2019
3302 Clear 11 1019 76 10000 2.6 360 10:38 03.12.2019
3303 Clear 7 1019 76 10000 2.6 360 10:19 03.12.2019
3304 Clouds 11 1019 66 10000 5.1 330 09:45 03.12.2019
3305 Clouds 10 1019 70 10000 5.1 330 09:25 03.12.2019
3306 Clouds 9 1018 70 10000 5.1 330 08:58 03.12.2019
3307 Clouds 8 1018 70 10000 5.1 330 08:39 03.12.2019
3308 Clouds 7 1018 70 10000 5.7 330 08:21 03.12.2019
3309 Clouds 7 1018 76 10000 4.6 330 07:52 03.12.2019
3310 Clouds 7 1018 76 10000 5.7 330 07:29 03.12.2019
3311 Clouds 7 1018 76 10000 5.7 330 07:29 03.12.2019
3312 Clear 7 1017 76 10000 4.1 340 06:45 03.12.2019
3313 Clear 8 1017 76 10000 5.1 340 06:20 03.12.2019
3314 Clear 8 1017 81 10000 5.7 330 05:54 03.12.2019
3315 Clear 8 1017 76 10000 5.1 330 03:44 03.12.2019
3316 Clear 8 1017 81 10000 5.7 330 03:22 03.12.2019
3317 Clear 9 1017 81 10000 4.1 310 02:54 03.12.2019
3318 Clear 5 1017 81 10000 7.2 340 02:32 03.12.2019
3319 Clouds 9 1017 81 10000 4.6 340 01:59 03.12.2019
3320 Clouds 9 1017 81 10000 4.6 340 01:39 03.12.2019
3321 Clear 10 1016 81 10000 3.1 330 01:20 03.12.2019
3322 Clear 11 1016 81 10000 3.6 340 00:42 03.12.2019
3323 Clouds 10 1016 81 10000 3.6 330 00:23 03.12.2019
3324 Clouds 10 1016 81 10000 3.6 330 00:23 03.12.2019
3325 Clouds 10 1016 81 10000 3.6 330 23:44 02.12.2019
3326 Clouds 10 1016 81 10000 4.1 330 23:22 02.12.2019
3327 Clouds 10 1016 81 10000 3.1 330 22:58 02.12.2019
3328 Clouds 10 1016 81 10000 3.1 330 22:39 02.12.2019
3329 Clouds 10 1016 87 10000 3.6 330 22:20 02.12.2019
3330 Clouds 7 1016 87 10000 2.6 330 21:54 02.12.2019
3331 Clouds 7 1016 87 10000 2.6 330 21:36 02.12.2019
3332 Clouds 8 1015 87 10000 3.1 330 21:18 02.12.2019
3333 Clouds 8 1015 87 10000 2.6 330 20:54 02.12.2019
3334 Clouds 8 1015 87 10000 2.1 330 20:36 02.12.2019
3335 Clouds 11 1015 87 10000 2.1 330 20:18 02.12.2019
3336 Clouds 12 1014 87 10000 2.1 330 19:41 02.12.2019
3337 Clouds 12 1014 87 10000 1 0 19:21 02.12.2019
3338 Clouds 12 1014 87 10000 1 260 18:55 02.12.2019
3339 Clouds 9 1014 82 10000 1 0 18:36 02.12.2019
3340 Clouds 9 1014 82 10000 1 0 18:18 02.12.2019
3341 Clouds 8 1013 82 10000 1.5 180 17:41 02.12.2019
3342 Clouds 13 1013 82 10000 1.5 210 17:21 02.12.2019
3343 Clouds 13 1013 82 10000 1.5 210 17:21 02.12.2019
3344 Clouds 13 1013 82 10000 2.1 210 16:59 02.12.2019
3345 Clouds 13 1013 82 10000 2.1 210 16:39 02.12.2019
3346 Clouds 13 1013 82 10000 2.1 210 16:39 02.12.2019
3347 Clouds 13 1013 82 10000 3.1 190 16:19 02.12.2019
3348 Clouds 10 1013 82 10000 4.1 190 15:57 02.12.2019
3349 Clouds 10 1013 82 10000 4.1 190 15:39 02.12.2019
3350 Clouds 10 1013 82 10000 4.1 190 15:21 02.12.2019
3351 Clouds 10 1013 77 10000 4.1 200 14:56 02.12.2019
3352 Clouds 11 1013 77 10000 4.1 200 14:37 02.12.2019
3353 Clouds 14 1013 77 10000 3.6 200 14:19 02.12.2019
3354 Clouds 15 1013 77 10000 2.6 200 13:55 02.12.2019
3355 Clouds 14 1013 77 10000 2.6 200 13:37 02.12.2019
3356 Clouds 14 1013 72 10000 1.5 200 13:18 02.12.2019
3357 Clouds 14 1014 67 10000 1.5 260 12:42 02.12.2019
3358 Clouds 14 1014 67 10000 2.1 310 12:21 02.12.2019
3359 Clouds 14 1014 71 10000 4.1 320 11:57 02.12.2019
3360 Clouds 10 1014 76 10000 4.1 320 11:38 02.12.2019
3361 Clouds 13 1014 76 10000 4.1 320 11:19 02.12.2019
3362 Clouds 12 1014 81 10000 3.1 330 10:57 02.12.2019
3363 Clouds 12 1014 81 10000 3.1 330 10:39 02.12.2019
3364 Clouds 11 1014 81 10000 3.6 330 10:21 02.12.2019
3365 Clouds 11 1013 76 10000 3.6 350 09:56 02.12.2019
3366 Clouds 11 1013 76 10000 3.6 350 09:38 02.12.2019
3367 Clouds 11 1013 87 10000 2.6 330 09:18 02.12.2019
3368 Clouds 8 1013 87 10000 2.6 330 08:55 02.12.2019
3369 Clouds 8 1013 81 10000 4.1 330 08:36 02.12.2019
3370 Clouds 7 1013 81 10000 4.1 330 08:18 02.12.2019
3371 Clouds 7 1013 87 10000 3.6 330 07:38 02.12.2019
3372 Clouds 7 1012 87 10000 2.6 340 07:20 02.12.2019
3373 Clouds 8 1012 87 10000 2.6 340 06:42 02.12.2019
3374 Rain 7 1012 93 10000 1.5 350 05:45 02.12.2019
3375 Rain 7 1012 93 10000 3.6 330 05:19 02.12.2019
3376 Rain 7 1013 87 10000 4.6 360 03:35 02.12.2019
3377 Rain 8 1013 87 10000 3.1 350 02:50 02.12.2019
3378 Rain 10 1013 81 10000 3.1 330 01:49 02.12.2019
3379 Clouds 10 1013 81 10000 5.7 20 01:21 02.12.2019
3380 Rain 8 1013 81 10000 4.6 30 00:41 02.12.2019
3381 Rain 8 1013 81 10000 5.1 20 00:22 02.12.2019
3382 Rain 8 1013 81 10000 5.7 20 23:43 01.12.2019
3383 Rain 10 1013 87 10000 5.7 20 23:22 01.12.2019
3384 Rain 10 1013 87 9000 6.7 30 22:57 01.12.2019
3385 Rain 10 1013 87 9000 6.7 30 22:57 01.12.2019
3386 Rain 10 1013 87 9000 6.7 30 22:38 01.12.2019
3387 Rain 10 1013 87 9000 6.7 30 22:38 01.12.2019
3388 Rain 10 1013 93 8000 5.1 20 22:20 01.12.2019
3389 Thunderstorm 10 1013 93 6000 3.6 360 21:57 01.12.2019
3390 Thunderstorm 10 1013 93 6000 3.6 360 21:39 01.12.2019
3391 Rain 10 1013 87 6000 8.2 350 21:21 01.12.2019
3392 Thunderstorm 8 1013 87 2000 5.1 0 20:58 01.12.2019
3393 Thunderstorm 8 1013 87 2000 5.1 0 20:40 01.12.2019
3394 Rain 11 1012 81 10000 2.1 0 20:21 01.12.2019
3395 Rain 11 1013 82 10000 5.7 50 19:58 01.12.2019
3396 Rain 11 1013 82 10000 5.7 50 19:39 01.12.2019
3397 Rain 11 1013 82 10000 5.7 50 19:39 01.12.2019
3398 Rain 11 1013 87 8000 5.7 20 19:21 01.12.2019
3399 Rain 11 1013 87 8000 5.7 20 19:21 01.12.2019
3400 Rain 11 1013 87 10000 5.1 350 18:57 01.12.2019
3401 Rain 11 1013 87 10000 5.1 350 18:38 01.12.2019
3402 Rain 11 1013 76 10000 9.3 70 18:19 01.12.2019
3403 Rain 11 1012 76 10000 9.8 70 17:58 01.12.2019
3404 Rain 11 1012 76 10000 9.8 70 17:40 01.12.2019
3405 Rain 11 1012 82 10000 10.8 70 17:22 01.12.2019
3406 Rain 11 1013 87 7000 8.7 70 16:55 01.12.2019
3407 Rain 11 1013 87 7000 8.7 70 16:37 01.12.2019
3408 Rain 11 1013 93 7000 3.6 50 16:19 01.12.2019
3409 Rain 10 1014 93 3500 3.6 340 15:46 01.12.2019
3410 Rain 10 1014 93 3000 3.1 320 15:27 01.12.2019
3411 Rain 10 1014 93 3000 3.1 320 15:27 01.12.2019
3412 Rain 11 1014 93 3500 4.1 360 14:41 01.12.2019
3413 Rain 11 1014 93 3500 4.1 360 14:41 01.12.2019
3414 Rain 11 1014 93 3500 4.1 360 14:41 01.12.2019
3415 Rain 11 1014 93 3500 4.1 360 14:41 01.12.2019
3416 Rain 10 1014 93 7000 2.6 360 14:20 01.12.2019
3417 Rain 10 1015 93 4000 3.1 330 13:56 01.12.2019
3418 Rain 10 1015 93 4000 3.1 330 13:38 01.12.2019
3419 Rain 10 1015 93 6000 2.6 350 13:19 01.12.2019
3420 Rain 10 1015 93 6000 3.6 330 12:43 01.12.2019
3421 Rain 10 1016 93 3000 5.1 330 11:57 01.12.2019
3422 Rain 10 1016 93 3000 5.1 330 11:57 01.12.2019
3423 Rain 10 1016 93 3000 5.1 330 11:57 01.12.2019
3424 Rain 10 1016 93 3000 5.1 330 11:57 01.12.2019
3425 Rain 10 1016 93 3000 5.1 330 11:37 01.12.2019
3426 Rain 10 1015 93 4000 5.1 10 11:19 01.12.2019
3427 Rain 10 1016 93 7000 4.1 20 10:43 01.12.2019
3428 Rain 10 1016 87 6000 4.1 360 10:21 01.12.2019
3429 Rain 10 1017 93 6000 4.6 10 09:57 01.12.2019
3430 Rain 10 1017 93 6000 4.6 10 09:38 01.12.2019
3431 Rain 9 1016 93 4000 3.1 10 09:20 01.12.2019
3432 Rain 9 1016 93 4000 3.1 10 09:20 01.12.2019
3433 Rain 9 1016 93 6000 3.1 10 08:44 01.12.2019
3434 Rain 9 1016 93 6000 4.6 20 08:19 01.12.2019
3435 Rain 10 1016 87 7000 4.1 20 07:50 01.12.2019
3436 Rain 10 1017 81 7000 3.6 360 07:30 01.12.2019
3437 Rain 10 1017 76 8000 8.7 70 06:56 01.12.2019
3438 Rain 11 1017 67 10000 7.2 70 06:30 01.12.2019
3439 Rain 11 1017 71 10000 6.7 60 05:47 01.12.2019
3440 Rain 11 1017 66 10000 4.1 340 04:49 01.12.2019
3441 Rain 11 1018 66 10000 4.1 330 02:54 01.12.2019
3442 Rain 11 1018 66 10000 4.1 320 02:36 01.12.2019
3443 Rain 10 1018 66 10000 4.1 320 02:18 01.12.2019
3444 Rain 8 1019 66 10000 4.6 330 01:50 01.12.2019
3445 Clouds 7 1019 62 10000 4.1 330 01:19 01.12.2019
3446 Clouds 11 1019 62 10000 4.6 320 00:40 01.12.2019
3447 Clouds 11 1019 62 10000 5.1 320 00:22 01.12.2019
3448 Clouds 8 1019 62 10000 4.6 320 23:42 30.11.2019
3449 Clouds 11 1019 62 10000 4.6 330 23:23 30.11.2019
3450 Clouds 10 1019 62 10000 5.1 330 22:50 30.11.2019
3451 Clouds 10 1019 62 10000 5.1 330 22:30 30.11.2019
3452 Clouds 7 1019 62 10000 4.6 320 21:59 30.11.2019
3453 Clouds 7 1019 62 10000 4.6 320 21:41 30.11.2019
3454 Clouds 7 1019 62 10000 4.1 330 21:23 30.11.2019
3455 Clouds 7 1018 62 10000 4.1 330 20:55 30.11.2019
3456 Clouds 7 1018 62 10000 4.1 330 20:37 30.11.2019
3457 Clouds 11 1018 62 10000 4.1 320 20:19 30.11.2019
3458 Clouds 11 1018 62 10000 4.1 320 19:55 30.11.2019
3459 Clouds 11 1018 62 10000 4.1 320 19:37 30.11.2019
3460 Clouds 11 1018 62 10000 4.1 320 19:18 30.11.2019
3461 Clouds 11 1018 62 10000 4.1 320 19:18 30.11.2019
3462 Clouds 9 1018 62 10000 3.6 320 18:56 30.11.2019
3463 Clouds 9 1018 58 10000 3.6 320 18:37 30.11.2019
3464 Clouds 8 1018 58 10000 3.6 320 18:19 30.11.2019
3465 Clouds 9 1017 58 10000 3.1 320 17:57 30.11.2019
3466 Clouds 9 1017 58 10000 3.1 320 17:38 30.11.2019
3467 Clouds 12 1017 50 10000 3.1 320 17:19 30.11.2019
3468 Clouds 13 1017 50 10000 1.5 310 16:56 30.11.2019
3469 Clouds 14 1017 44 10000 1 150 16:37 30.11.2019
3470 Clouds 14 1017 44 10000 1 150 16:18 30.11.2019
3471 Clouds 15 1017 55 10000 1.5 130 15:42 30.11.2019
3472 Clouds 15 1017 55 10000 1.5 130 15:42 30.11.2019
3473 Clouds 15 1017 45 10000 1.5 180 15:19 30.11.2019
3474 Clouds 17 1017 39 10000 1 0 14:57 30.11.2019
3475 Clouds 17 1017 33 10000 2.1 310 14:38 30.11.2019
3476 Clouds 17 1017 33 10000 2.1 310 14:19 30.11.2019
3477 Clouds 17 1017 36 10000 2.6 320 13:57 30.11.2019
3478 Clouds 16 1017 36 10000 2.6 320 13:37 30.11.2019
3479 Clouds 16 1017 36 10000 2.6 320 13:37 30.11.2019
3480 Clouds 16 1017 36 10000 3.6 320 13:19 30.11.2019
3481 Clouds 16 1018 36 10000 3.6 320 12:46 30.11.2019
3482 Clouds 16 1018 36 10000 3.6 330 12:27 30.11.2019
3483 Clouds 15 1018 38 10000 5.1 330 11:55 30.11.2019
3484 Clouds 15 1018 38 10000 5.1 330 11:36 30.11.2019
3485 Clear 9 1018 48 10000 4.1 330 11:18 30.11.2019
3486 Clear 11 1018 48 10000 4.6 330 10:42 30.11.2019
3487 Clouds 10 1017 37 10000 4.1 340 10:21 30.11.2019
3488 Clouds 9 1017 48 10000 4.6 340 09:49 30.11.2019
3489 Clouds 8 1016 48 10000 5.1 340 09:29 30.11.2019
3490 Clouds 7 1017 48 10000 6.7 330 08:56 30.11.2019
3491 Clouds 7 1017 48 10000 6.7 330 08:56 30.11.2019
3492 Clouds 6 1017 48 10000 6.7 330 08:38 30.11.2019
3493 Clouds 6 1016 47 10000 4.6 340 08:18 30.11.2019
3494 Clear 5 1016 75 10000 1.5 10 07:42 30.11.2019
3495 Clouds 5 1016 47 10000 4.1 330 07:23 30.11.2019
3496 Clear 5 1015 43 10000 4.1 330 06:45 30.11.2019
3497 Clear 5 1015 47 10000 4.1 340 06:27 30.11.2019
3498 Clear 5 1015 48 10000 3.6 340 04:59 30.11.2019
3499 Clear 5 1014 48 10000 5.1 330 03:38 30.11.2019
3500 Clear 9 1014 49 10000 2.6 340 02:25 30.11.2019
3501 Clear 10 1014 57 10000 1.5 0 01:50 30.11.2019
3502 Clear 10 1014 46 10000 4.6 330 01:24 30.11.2019
3503 Clear 10 1014 46 10000 3.6 340 00:45 30.11.2019
3504 Clear 11 1013 46 10000 3.6 340 00:21 30.11.2019
3505 Clear 12 1013 50 10000 3.1 310 23:44 29.11.2019
3506 Clear 12 1013 58 10000 1 0 23:25 29.11.2019
3507 Clear 12 1013 58 10000 1 0 23:25 29.11.2019
3508 Clear 12 1013 58 10000 1 0 23:25 29.11.2019
3509 Clear 13 1012 41 10000 1.5 310 22:49 29.11.2019
3510 Clear 13 1012 59 10000 0.5 0 22:27 29.11.2019
3511 Clear 14 1012 41 10000 1 0 21:59 29.11.2019
3512 Clear 14 1012 41 10000 1 0 21:41 29.11.2019
3513 Clear 14 1012 41 10000 4.25 357 21:22 29.11.2019
3514 Clear 10 1012 36 10000 1 0 20:56 29.11.2019
3515 Clear 10 1012 36 10000 1 0 20:37 29.11.2019
3516 Clear 14 1011 38 10000 1.5 90 20:18 29.11.2019
3517 Clear 14 1011 38 10000 1 0 19:55 29.11.2019
3518 Clear 14 1011 36 10000 4.6 210 19:37 29.11.2019
3519 Clear 14 1011 38 10000 1 0 19:37 29.11.2019
3520 Clear 14 1011 36 10000 4.6 210 19:18 29.11.2019
3521 Clear 14 1011 36 10000 4.6 210 19:18 29.11.2019
3522 Clear 10 1010 29 10000 2.6 330 18:42 29.11.2019
3523 Clear 10 1010 38 10000 6.2 300 18:24 29.11.2019
3524 Clear 11 1010 27 10000 2.6 320 17:58 29.11.2019
3525 Clear 11 1010 27 10000 2.6 320 17:40 29.11.2019
3526 Clear 15 1010 39 10000 2.6 0 17:21 29.11.2019
3527 Clear 16 1009 31 10000 5.1 280 16:43 29.11.2019
3528 Clouds 17 1009 34 10000 5.7 260 16:21 29.11.2019
3529 Clouds 14 1009 28 10000 5.1 290 15:57 29.11.2019
3530 Clouds 13 1009 28 10000 5.1 290 15:39 29.11.2019
3531 Clear 14 1008 28 10000 7.7 290 15:21 29.11.2019
3532 Clear 14 1008 28 10000 7.7 290 15:21 29.11.2019
3533 Clouds 15 1008 32 10000 9.3 280 14:41 29.11.2019
3534 Clouds 18 1008 30 10000 6.7 270 14:22 29.11.2019
3535 Clouds 15 1008 48 10000 9.3 220 13:58 29.11.2019
3536 Clouds 14 1008 48 10000 9.3 220 13:38 29.11.2019
3537 Clouds 18 1008 52 10000 9.3 230 13:20 29.11.2019
3538 Clouds 17 1008 59 10000 9.8 230 12:44 29.11.2019
3539 Clouds 17 1009 59 10000 9.8 230 12:25 29.11.2019
3540 Clouds 17 1009 59 10000 10.3 230 11:59 29.11.2019
3541 Clouds 17 1009 59 10000 10.3 230 11:40 29.11.2019
3542 Clouds 11 1009 59 10000 9.3 220 11:19 29.11.2019
3543 Clouds 11 1009 62 10000 9.3 230 10:58 29.11.2019
3544 Clouds 11 1009 62 10000 9.3 230 10:39 29.11.2019
3545 Clouds 12 1009 62 10000 8.7 240 10:21 29.11.2019
3546 Clouds 14 1009 58 10000 6.7 250 09:59 29.11.2019
3547 Clouds 14 1009 58 10000 6.7 250 09:40 29.11.2019
3548 Clouds 10 1008 58 10000 6.2 230 09:22 29.11.2019
3549 Clouds 13 1008 54 10000 6.7 230 08:58 29.11.2019
3550 Clouds 13 1008 54 10000 6.7 230 08:38 29.11.2019
3551 Clouds 9 1008 66 10000 5.1 230 08:20 29.11.2019
3552 Clouds 9 1008 58 10000 4.6 200 07:42 29.11.2019
3553 Clouds 8 1008 62 10000 2.1 200 07:23 29.11.2019
3554 Clouds 7 1008 62 10000 3.6 330 06:58 29.11.2019
3555 Clouds 7 1008 62 10000 3.6 330 06:37 29.11.2019
3556 Clouds 8 1008 54 10000 3.1 320 05:47 29.11.2019
3557 Clouds 8 1008 58 10000 2.1 240 05:23 29.11.2019
3558 Clouds 9 1008 62 10000 2.6 330 03:58 29.11.2019
3559 Clouds 9 1008 66 10000 4.1 310 03:19 29.11.2019
3560 Clouds 9 1008 62 10000 5.1 320 02:28 29.11.2019
3561 Clouds 10 1008 62 10000 4.6 320 01:51 29.11.2019
3562 Clouds 9 1008 62 10000 3.1 310 01:25 29.11.2019
3563 Clouds 9 1008 58 10000 4.1 300 00:42 29.11.2019
3564 Clouds 9 1008 62 10000 3.1 300 00:20 29.11.2019
3565 Clouds 9 1008 58 10000 4.1 310 23:45 28.11.2019
3566 Clouds 9 1007 62 10000 2.6 310 23:22 28.11.2019
3567 Clouds 10 1008 58 10000 4.1 300 22:59 28.11.2019
3568 Clouds 10 1008 58 10000 4.1 300 22:38 28.11.2019
3569 Clouds 10 1008 58 10000 4.1 300 22:38 28.11.2019
3570 Clouds 10 1007 58 10000 5.1 280 22:20 28.11.2019
3571 Clouds 10 1007 62 10000 8.2 260 21:58 28.11.2019
3572 Clouds 10 1007 62 10000 8.2 260 21:40 28.11.2019
3573 Clouds 10 1007 62 10000 8.7 260 21:19 28.11.2019
3574 Clouds 10 1007 62 10000 9.8 260 20:56 28.11.2019
3575 Clouds 10 1007 62 10000 9.8 260 20:38 28.11.2019
3576 Clouds 13 1007 58 10000 10.8 240 20:18 28.11.2019
3577 Clouds 13 1007 62 10000 9.8 230 19:55 28.11.2019
3578 Clouds 13 1006 62 10000 7.2 260 19:36 28.11.2019
3579 Clouds 13 1006 62 10000 7.2 260 19:18 28.11.2019
3580 Clouds 10 1006 54 10000 9.8 270 18:55 28.11.2019
3581 Clouds 10 1006 54 10000 9.8 270 18:37 28.11.2019
3582 Clouds 10 1005 54 10000 8.7 260 18:18 28.11.2019
3583 Clouds 10 1005 58 10000 8.2 270 17:41 28.11.2019
3584 Clouds 14 1005 58 10000 8.2 260 17:23 28.11.2019
3585 Clear 15 1004 55 10000 7.2 260 16:58 28.11.2019
3586 Clear 15 1004 55 10000 7.2 260 16:38 28.11.2019
3587 Clear 15 1004 48 10000 7.2 260 16:19 28.11.2019
3588 Clouds 15 1004 51 10000 7.7 250 15:55 28.11.2019
3589 Clouds 16 1004 51 10000 7.7 250 15:37 28.11.2019
3590 Clouds 16 1004 51 10000 11.8 240 15:19 28.11.2019
3591 Clouds 13 1004 51 10000 10.3 250 14:42 28.11.2019
3592 Clouds 16 1004 48 10000 10.3 250 14:24 28.11.2019
3593 Clouds 16 1004 55 10000 10.8 240 13:59 28.11.2019
3594 Clouds 16 1004 55 10000 10.8 240 13:41 28.11.2019
3595 Clouds 16 1004 59 10000 10.3 240 13:22 28.11.2019
3596 Clouds 16 1004 55 10000 9.8 260 12:49 28.11.2019
3597 Clouds 16 1005 51 10000 9.3 250 12:30 28.11.2019
3598 Clouds 16 1005 51 10000 8.7 240 11:59 28.11.2019
3599 Clouds 16 1005 51 10000 8.7 240 11:59 28.11.2019
3600 Clouds 16 1005 51 10000 8.7 240 11:41 28.11.2019
3601 Clouds 16 1005 51 10000 8.7 240 11:41 28.11.2019
3602 Clear 16 1005 63 10000 6.2 220 11:21 28.11.2019
3603 Clear 15 1005 59 10000 4.6 230 10:59 28.11.2019
3604 Clear 15 1005 59 10000 4.6 230 10:40 28.11.2019
3605 Clear 15 1005 55 10000 6.2 220 10:20 28.11.2019
3606 Clear 13 1005 62 10000 7.2 240 09:42 28.11.2019
3607 Clear 13 1006 62 10000 5.1 250 09:23 28.11.2019
3608 Clear 13 1006 67 10000 7.7 250 08:59 28.11.2019
3609 Clear 13 1006 67 10000 7.7 250 08:40 28.11.2019
3610 Clouds 12 1005 62 10000 7.2 260 08:21 28.11.2019
3611 Clouds 12 1005 62 10000 5.7 270 07:43 28.11.2019
3612 Clouds 13 1005 67 10000 4.6 260 07:24 28.11.2019
3613 Clouds 13 1005 67 10000 6.7 250 06:57 28.11.2019
3614 Clouds 13 1005 67 10000 6.7 250 06:36 28.11.2019
3615 Clouds 13 1004 58 10000 5.7 250 05:53 28.11.2019
3616 Clouds 13 1004 62 10000 4.1 230 05:18 28.11.2019
3617 Clouds 13 1004 62 10000 4.1 230 05:18 28.11.2019
3618 Clouds 13 1004 62 10000 4.1 230 05:18 28.11.2019
3619 Clouds 12 1004 76 10000 5.1 310 02:51 28.11.2019
3620 Clouds 12 1004 76 10000 5.1 320 02:18 28.11.2019
3621 Clouds 12 1005 76 10000 3.1 310 00:52 28.11.2019
3622 Clouds 12 1004 76 10000 3.6 320 00:26 28.11.2019
3623 Clouds 12 1004 71 10000 1.5 320 23:59 27.11.2019
3624 Clouds 12 1004 71 10000 1.5 320 23:38 27.11.2019
3625 Clouds 12 1004 76 10000 2.6 340 23:19 27.11.2019
3626 Clouds 12 1004 71 10000 3.6 320 22:55 27.11.2019
3627 Clouds 13 1004 71 10000 3.6 320 22:36 27.11.2019
3628 Clouds 13 1004 66 10000 2.6 320 22:18 27.11.2019
3629 Clouds 10 1004 76 10000 4.6 320 21:55 27.11.2019
3630 Clouds 10 1004 76 10000 4.6 320 21:36 27.11.2019
3631 Clouds 10 1004 66 10000 3.6 300 21:18 27.11.2019
3632 Clouds 14 1004 62 10000 3.1 320 20:55 27.11.2019
3633 Clouds 13 1004 62 10000 3.1 320 20:36 27.11.2019
3634 Clouds 13 1003 58 10000 1 0 20:18 27.11.2019
3635 Clouds 14 1003 54 10000 3.1 310 19:54 27.11.2019
3636 Clouds 13 1003 54 10000 3.1 310 19:36 27.11.2019
3637 Clouds 13 1002 58 10000 6.2 310 19:18 27.11.2019
3638 Clouds 14 1002 58 10000 7.2 270 18:38 27.11.2019
3639 Clouds 13 1002 62 10000 4.1 240 18:20 27.11.2019
3640 Clouds 11 1001 55 10000 7.7 270 17:59 27.11.2019
3641 Clouds 15 1001 55 10000 7.7 270 17:41 27.11.2019
3642 Clear 15 1001 51 10000 6.7 280 17:23 27.11.2019
3643 Clear 15 1000 55 10000 5.7 260 16:58 27.11.2019
3644 Clear 16 1000 55 10000 5.7 260 16:40 27.11.2019
3645 Clear 16 1000 55 10000 5.7 260 16:40 27.11.2019
3646 Clear 16 1000 52 10000 1.5 300 16:21 27.11.2019
3647 Clear 16 1000 52 10000 1.5 300 16:21 27.11.2019
3648 Clear 14 999 48 10000 6.7 250 15:58 27.11.2019
3649 Clear 13 999 48 10000 6.7 250 15:40 27.11.2019
3650 Clear 13 1000 63 10000 8.7 220 15:21 27.11.2019
3651 Clouds 14 1000 63 10000 1 0 14:59 27.11.2019
3652 Clouds 13 1000 63 10000 1 0 14:41 27.11.2019
3653 Clouds 13 1000 63 10000 1 0 14:41 27.11.2019
3654 Clouds 14 1000 68 10000 1 0 14:23 27.11.2019
3655 Clouds 14 1000 68 10000 1.5 290 13:58 27.11.2019
3656 Clouds 14 1000 68 10000 1.5 290 13:40 27.11.2019
3657 Clouds 14 1000 72 10000 1 0 13:19 27.11.2019
3658 Clouds 16 1000 82 10000 1.5 0 12:59 27.11.2019
3659 Clouds 16 1000 82 10000 1.5 0 12:40 27.11.2019
3660 Clouds 16 1000 82 10000 1.5 0 12:40 27.11.2019
3661 Clouds 15 1001 72 10000 2.6 230 12:20 27.11.2019
3662 Clouds 15 1001 77 10000 4.1 330 11:54 27.11.2019
3663 Clouds 14 1001 87 10000 3.6 330 11:36 27.11.2019
3664 Clouds 14 1001 87 10000 3.6 330 11:18 27.11.2019
3665 Clouds 13 1001 93 10000 5.7 340 10:41 27.11.2019
3666 Rain 12 1001 93 1300 5.1 340 10:23 27.11.2019
3667 Rain 12 1001 93 3000 5.1 330 09:48 27.11.2019
3668 Rain 12 1003 100 6000 4.6 330 09:26 27.11.2019
3669 Rain 12 1004 93 10000 5.1 330 08:59 27.11.2019
3670 Rain 11 1004 93 10000 5.1 330 08:41 27.11.2019
3671 Rain 11 1004 93 6000 5.7 330 08:22 27.11.2019
3672 Rain 11 1004 93 6000 5.7 330 08:22 27.11.2019
3673 Rain 11 1004 93 4000 4.1 340 07:47 27.11.2019
3674 Rain 11 1005 93 10000 2.6 340 07:28 27.11.2019
3675 Rain 11 1005 93 10000 3.1 350 06:53 27.11.2019
3676 Rain 8 1005 93 10000 2.6 20 06:35 27.11.2019
3677 Rain 10 1006 87 9000 5.1 340 05:46 27.11.2019
3678 Clouds 11 1006 81 10000 5.1 330 05:20 27.11.2019
3679 Clouds 11 1006 81 10000 4.1 340 04:48 27.11.2019
3680 Clouds 11 1007 81 10000 4.6 330 04:29 27.11.2019
3681 Rain 11 1008 81 7000 3.1 330 03:40 27.11.2019
3682 Clouds 11 1008 76 10000 3.1 340 03:19 27.11.2019
3683 Clouds 11 1008 76 10000 3.1 340 02:21 27.11.2019
3684 Clouds 11 1009 76 10000 3.6 340 00:50 27.11.2019
3685 Clouds 11 1010 81 10000 4.6 330 00:30 27.11.2019
3686 Clouds 11 1010 81 10000 5.7 330 23:55 26.11.2019
3687 Clouds 11 1010 81 10000 5.7 330 23:37 26.11.2019
3688 Clouds 10 1010 87 10000 5.1 330 23:18 26.11.2019
3689 Clouds 10 1010 87 10000 3.6 330 22:39 26.11.2019
3690 Clouds 10 1010 81 10000 4.1 340 22:20 26.11.2019
3691 Clouds 10 1010 81 10000 3.6 330 21:59 26.11.2019
3692 Clouds 10 1010 81 10000 3.6 330 21:38 26.11.2019
3693 Clouds 11 1010 81 10000 4.1 320 21:20 26.11.2019
3694 Clouds 11 1010 87 10000 3.1 330 20:57 26.11.2019
3695 Clouds 11 1010 87 10000 3.1 330 20:37 26.11.2019
3696 Clouds 11 1010 87 10000 4.1 320 20:19 26.11.2019
3697 Clouds 11 1009 87 10000 3.6 320 19:55 26.11.2019
3698 Clouds 11 1009 87 10000 3.6 320 19:37 26.11.2019
3699 Clouds 11 1009 87 10000 3.1 320 19:19 26.11.2019
3700 Clouds 12 1009 82 10000 1 0 18:57 26.11.2019
3701 Clouds 12 1009 82 10000 1 0 18:39 26.11.2019
3702 Clouds 12 1009 76 10000 1.5 100 18:20 26.11.2019
3703 Clouds 13 1009 72 10000 1 0 17:58 26.11.2019
3704 Clouds 13 1009 72 10000 1 0 17:39 26.11.2019
3705 Clouds 13 1009 72 10000 3.37 274 17:21 26.11.2019
3706 Clouds 14 1008 72 10000 0.5 70 16:57 26.11.2019
3707 Clouds 14 1008 72 10000 0.5 70 16:37 26.11.2019
3708 Clouds 15 1008 67 10000 1 0 16:18 26.11.2019
3709 Clouds 15 1008 67 10000 1 60 15:58 26.11.2019
3710 Clouds 15 1008 67 10000 1 60 15:58 26.11.2019
3711 Clouds 15 1008 67 10000 1 60 15:37 26.11.2019
3712 Clouds 13 1008 67 10000 1.5 0 15:19 26.11.2019
3713 Clouds 13 1008 72 10000 2.6 260 14:47 26.11.2019
3714 Clouds 15 1008 72 10000 2.6 230 14:25 26.11.2019
3715 Clouds 15 1008 72 10000 2.6 230 14:25 26.11.2019
3716 Clouds 15 1008 67 10000 1.5 250 13:57 26.11.2019
3717 Clouds 15 1008 67 10000 1 0 13:38 26.11.2019
3718 Clouds 15 1008 67 10000 1 0 13:19 26.11.2019
3719 Clouds 15 1008 63 10000 1 0 12:38 26.11.2019
3720 Clouds 15 1008 63 10000 1 0 12:38 26.11.2019
3721 Clouds 14 1008 62 10000 2.1 320 12:20 26.11.2019
3722 Clouds 13 1008 67 10000 2.1 320 11:58 26.11.2019
3723 Clouds 13 1008 67 10000 2.1 320 11:39 26.11.2019
3724 Clouds 10 1009 62 10000 2.1 320 11:20 26.11.2019
3725 Clouds 10 1009 62 10000 3.6 330 10:58 26.11.2019
3726 Clouds 10 1009 62 10000 3.6 330 10:39 26.11.2019
3727 Clouds 12 1008 66 10000 3.6 330 10:20 26.11.2019
3728 Clouds 12 1008 66 10000 3.1 340 09:56 26.11.2019
3729 Clouds 11 1008 66 10000 3.1 340 09:37 26.11.2019
3730 Clouds 11 1008 71 10000 5.1 330 09:18 26.11.2019
3731 Clouds 10 1008 71 10000 4.6 330 08:43 26.11.2019
3732 Clouds 9 1008 71 10000 5.7 320 08:22 26.11.2019
3733 Clouds 10 1008 93 10000 1.5 0 07:44 26.11.2019
3734 Clouds 9 1008 71 10000 5.1 320 07:25 26.11.2019
3735 Clouds 9 1007 71 10000 4.6 330 06:55 26.11.2019
3736 Clouds 9 1007 71 10000 4.1 340 06:33 26.11.2019
3737 Clouds 7 1007 76 10000 3.6 350 05:52 26.11.2019
3738 Clouds 7 1007 76 10000 3.6 350 05:52 26.11.2019
3739 Clouds 10 1008 71 10000 6.2 330 03:59 26.11.2019
3740 Clouds 10 1008 71 10000 6.7 330 02:52 26.11.2019
3741 Clouds 10 1009 76 10000 6.7 320 01:33 26.11.2019
3742 Clouds 11 1009 76 10000 6.2 320 00:52 26.11.2019
3743 Clouds 11 1009 76 10000 5.7 330 00:29 26.11.2019
3744 Clouds 10 1009 76 10000 6.7 320 23:41 25.11.2019
3745 Clear 12 1009 76 10000 6.2 320 23:21 25.11.2019
3746 Clear 12 1009 76 10000 2.6 360 22:59 25.11.2019
3747 Clear 12 1009 76 10000 2.6 360 22:39 25.11.2019
3748 Clear 12 1009 76 10000 3.6 330 22:19 25.11.2019
3749 Clear 12 1009 76 10000 4.6 330 21:59 25.11.2019
3750 Clear 12 1009 76 10000 4.6 330 21:40 25.11.2019
3751 Clear 12 1009 76 10000 4.6 330 21:40 25.11.2019
3752 Clear 13 1009 71 10000 4.6 330 21:21 25.11.2019
3753 Clear 13 1009 71 10000 4.6 330 20:57 25.11.2019
3754 Clear 13 1009 71 10000 4.6 330 20:39 25.11.2019
3755 Clouds 13 1009 71 10000 4.6 330 20:20 25.11.2019
3756 Clouds 13 1008 76 10000 4.6 330 19:56 25.11.2019
3757 Clouds 13 1008 76 10000 4.6 330 19:38 25.11.2019
3758 Clouds 14 1008 71 10000 4.1 320 19:19 25.11.2019
3759 Clouds 14 1008 71 10000 4.1 320 18:57 25.11.2019
3760 Clouds 14 1008 71 10000 4.1 320 18:39 25.11.2019
3761 Clouds 15 1008 67 10000 4.6 330 18:21 25.11.2019
3762 Clouds 15 1008 67 10000 4.6 320 17:58 25.11.2019
3763 Clouds 15 1008 67 10000 4.6 320 17:58 25.11.2019
3764 Clouds 15 1008 67 10000 4.6 320 17:39 25.11.2019
3765 Clouds 15 1008 72 10000 4.6 320 17:20 25.11.2019
3766 Clouds 16 1008 67 10000 3.6 320 16:57 25.11.2019
3767 Clouds 16 1008 67 10000 3.6 320 16:39 25.11.2019
3768 Clouds 16 1007 63 10000 3.6 330 16:21 25.11.2019
3769 Clouds 17 1007 59 10000 2.6 330 15:55 25.11.2019
3770 Clouds 17 1007 59 10000 2.6 330 15:37 25.11.2019
3771 Clouds 17 1007 59 10000 3.1 330 15:18 25.11.2019
3772 Clouds 16 1007 63 10000 4.1 330 14:42 25.11.2019
3773 Clouds 16 1007 63 10000 5.1 320 14:23 25.11.2019
3774 Clouds 16 1007 63 10000 4.6 330 13:56 25.11.2019
3775 Clouds 15 1007 67 10000 5.1 330 13:37 25.11.2019
3776 Clouds 15 1007 67 10000 5.1 330 13:18 25.11.2019
3777 Clouds 15 1007 62 10000 6.2 320 12:57 25.11.2019
3778 Clouds 15 1007 62 10000 6.2 320 12:38 25.11.2019
3779 Clouds 15 1007 67 10000 5.1 320 12:19 25.11.2019
3780 Clouds 15 1007 67 10000 5.1 320 12:19 25.11.2019
3781 Clouds 15 1007 62 10000 5.1 330 11:40 25.11.2019
3782 Clouds 15 1007 62 10000 5.1 330 11:40 25.11.2019
3783 Clouds 14 1007 67 10000 5.1 330 11:21 25.11.2019
3784 Clouds 14 1007 67 10000 6.2 330 10:59 25.11.2019
3785 Clouds 14 1007 67 10000 6.2 330 10:41 25.11.2019
3786 Clouds 14 1007 67 10000 6.2 330 10:41 25.11.2019
3787 Clouds 13 1007 67 10000 6.7 330 10:19 25.11.2019
3788 Clouds 13 1006 67 10000 5.7 330 09:44 25.11.2019
3789 Clouds 13 1006 71 10000 6.2 320 09:26 25.11.2019
3790 Clouds 12 1006 71 10000 4.1 330 08:58 25.11.2019
3791 Clouds 12 1006 71 10000 4.1 330 08:38 25.11.2019
3792 Clouds 12 1006 71 10000 4.1 330 08:19 25.11.2019
3793 Clouds 11 1006 71 10000 3.6 330 07:40 25.11.2019
3794 Clouds 11 1006 76 10000 3.6 340 07:18 25.11.2019
3795 Clouds 11 1005 76 10000 3.1 340 06:39 25.11.2019
3796 Clouds 11 1005 76 10000 4.6 340 06:19 25.11.2019
3797 Clouds 11 1005 71 10000 6.2 330 05:33 25.11.2019
3798 Clouds 11 1005 71 10000 6.7 320 04:50 25.11.2019
3799 Clouds 11 1005 76 10000 4.1 350 02:48 25.11.2019
3800 Clouds 11 1005 81 10000 3.1 340 01:57 25.11.2019
3801 Clouds 11 1005 81 10000 3.1 340 01:38 25.11.2019
3802 Clouds 11 1005 81 10000 3.6 340 01:19 25.11.2019
3803 Clouds 11 1005 81 10000 3.6 340 00:21 25.11.2019
3804 Clouds 11 1005 81 10000 4.1 330 23:46 24.11.2019
3805 Clouds 11 1006 81 10000 3.6 330 23:21 24.11.2019
3806 Rain 11 1006 81 10000 3.6 340 22:59 24.11.2019
3807 Rain 11 1006 81 10000 3.6 340 22:40 24.11.2019
3808 Rain 11 1006 81 10000 5.7 330 22:21 24.11.2019
3809 Clouds 11 1006 81 10000 5.7 320 21:59 24.11.2019
3810 Clouds 11 1006 81 10000 5.7 320 21:41 24.11.2019
3811 Rain 12 1005 76 10000 4.6 330 21:21 24.11.2019
3812 Clouds 12 1005 76 10000 5.1 320 20:59 24.11.2019
3813 Clouds 12 1005 76 10000 5.1 320 20:39 24.11.2019
3814 Clouds 12 1005 76 10000 3.6 330 20:19 24.11.2019
3815 Clouds 12 1005 76 10000 4.1 330 19:57 24.11.2019
3816 Clouds 12 1005 76 10000 4.1 330 19:38 24.11.2019
3817 Clouds 12 1005 76 10000 2.6 310 19:20 24.11.2019
3818 Clouds 12 1005 76 10000 2.6 330 18:59 24.11.2019
3819 Clouds 12 1005 76 10000 2.6 330 18:38 24.11.2019
3820 Clouds 12 1004 76 10000 4.1 340 18:19 24.11.2019
3821 Clouds 12 1004 76 10000 3.1 340 17:57 24.11.2019
3822 Clouds 12 1004 76 10000 3.1 340 17:39 24.11.2019
3823 Clouds 13 1004 76 10000 3.6 330 17:20 24.11.2019
3824 Clouds 12 1004 82 10000 2.1 10 16:57 24.11.2019
3825 Clouds 13 1004 82 10000 2.1 10 16:39 24.11.2019
3826 Rain 13 1004 82 10000 5.1 20 16:20 24.11.2019
3827 Rain 12 1004 82 10000 5.1 20 15:45 24.11.2019
3828 Rain 12 1004 82 10000 5.1 20 15:27 24.11.2019
3829 Rain 12 1004 82 10000 5.7 20 14:59 24.11.2019
3830 Rain 12 1004 82 10000 5.7 20 14:39 24.11.2019
3831 Rain 12 1004 87 10000 5.1 20 14:19 24.11.2019
3832 Rain 11 1004 87 10000 3.6 350 13:56 24.11.2019
3833 Rain 11 1004 87 10000 4.1 350 13:37 24.11.2019
3834 Rain 11 1004 87 10000 4.1 350 13:19 24.11.2019
3835 Rain 11 1004 87 5000 2.6 40 12:55 24.11.2019
3836 Rain 11 1004 87 5000 2.6 40 12:37 24.11.2019
3837 Rain 11 1003 87 8000 3.6 20 12:18 24.11.2019
3838 Rain 11 1003 93 8000 3.1 330 11:38 24.11.2019
3839 Rain 11 1003 93 8000 3.1 330 11:19 24.11.2019
3840 Rain 11 1003 93 6000 2.1 330 10:55 24.11.2019
3841 Rain 10 1003 93 6000 2.1 330 10:37 24.11.2019
3842 Rain 10 1003 93 6000 1 0 10:19 24.11.2019
3843 Rain 10 1002 93 8000 2.1 290 09:38 24.11.2019
3844 Rain 10 1002 93 8000 3.1 30 09:20 24.11.2019
3845 Rain 10 1001 87 10000 3.6 30 08:57 24.11.2019
3846 Rain 10 1001 87 10000 3.6 30 08:38 24.11.2019
3847 Rain 10 1001 93 10000 2.6 10 08:19 24.11.2019
3848 Rain 9 1001 93 10000 4.1 20 07:47 24.11.2019
3849 Rain 9 1000 93 10000 3.1 360 07:21 24.11.2019
3850 Rain 10 1000 87 10000 5.7 20 06:51 24.11.2019
3851 Rain 10 999 87 10000 4.6 20 05:24 24.11.2019
3852 Rain 11 999 87 10000 3.1 20 04:40 24.11.2019
3853 Rain 11 999 87 10000 4.6 330 02:42 24.11.2019
3854 Rain 11 999 87 10000 3.1 330 01:56 24.11.2019
3855 Rain 12 999 87 10000 3.1 330 01:34 24.11.2019
3856 Rain 12 999 87 8000 4.6 140 00:53 24.11.2019
3857 Rain 12 999 87 6000 9.8 70 00:25 24.11.2019
3858 Clouds 12 999 87 10000 7.2 80 23:57 23.11.2019
3859 Clouds 12 999 87 10000 7.2 80 23:39 23.11.2019
3860 Rain 13 998 87 10000 6.7 80 23:20 23.11.2019
3861 Rain 12 998 93 10000 2.1 360 22:57 23.11.2019
3862 Rain 12 998 87 10000 4.6 360 22:37 23.11.2019
3863 Rain 12 998 87 10000 4.6 360 22:19 23.11.2019
3864 Rain 11 998 87 10000 5.7 10 21:55 23.11.2019
3865 Rain 11 998 87 10000 5.7 10 21:36 23.11.2019
3866 Rain 11 997 87 10000 5.7 10 21:18 23.11.2019
3867 Rain 12 997 87 10000 8.7 70 20:38 23.11.2019
3868 Rain 12 997 87 10000 8.7 70 20:20 23.11.2019
3869 Rain 12 997 87 4000 10.3 80 19:57 23.11.2019
3870 Rain 12 996 93 10000 2.6 0 19:38 23.11.2019
3871 Rain 12 996 87 3000 11.8 90 19:19 23.11.2019
3872 Rain 12 996 87 3000 11.8 90 19:19 23.11.2019
3873 Rain 12 996 87 3000 11.8 90 19:19 23.11.2019
3874 Rain 12 996 93 3000 11.8 90 18:57 23.11.2019
3875 Rain 12 996 93 3000 11.8 90 18:38 23.11.2019
3876 Rain 12 996 87 4000 12.9 100 18:19 23.11.2019
3877 Rain 12 996 87 4000 12.9 100 18:19 23.11.2019
3878 Rain 12 996 87 4000 12.3 90 17:43 23.11.2019
3879 Rain 13 995 93 2500 11.8 100 17:21 23.11.2019
3880 Rain 13 995 93 1800 11.8 80 16:57 23.11.2019
3881 Rain 13 995 93 1800 11.8 80 16:38 23.11.2019
3882 Rain 13 995 93 1800 11.8 80 16:38 23.11.2019
3883 Rain 13 995 93 3000 11.3 70 16:20 23.11.2019
3884 Rain 13 995 93 2000 13.4 80 15:58 23.11.2019
3885 Rain 13 995 93 2000 13.4 80 15:39 23.11.2019
3886 Rain 13 995 93 1300 11.3 80 15:19 23.11.2019
3887 Rain 13 995 93 2500 13.9 90 14:57 23.11.2019
3888 Rain 12 995 93 2500 13.9 90 14:39 23.11.2019
3889 Rain 13 996 87 2500 13.4 80 14:20 23.11.2019
3890 Rain 12 995 87 5000 13.4 70 13:54 23.11.2019
3891 Rain 12 996 87 4000 11.8 60 13:36 23.11.2019
3892 Rain 12 996 87 4000 11.8 60 13:18 23.11.2019
3893 Rain 12 997 87 2500 11.8 70 12:41 23.11.2019
3894 Rain 12 998 93 2000 9.8 80 12:22 23.11.2019
3895 Rain 12 998 93 4000 8.7 40 11:44 23.11.2019
3896 Rain 11 998 93 4000 11.8 50 11:22 23.11.2019
3897 Rain 12 999 87 2500 10.3 50 10:45 23.11.2019
3898 Rain 12 999 87 4000 8.7 60 10:22 23.11.2019
3899 Rain 12 999 93 3000 10.8 70 09:58 23.11.2019
3900 Rain 12 999 93 3000 10.8 70 09:39 23.11.2019
3901 Rain 12 1000 93 4000 11.8 70 09:18 23.11.2019
3902 Rain 12 1000 93 3300 11.3 100 08:41 23.11.2019
3903 Rain 12 1000 93 3000 10.3 100 08:18 23.11.2019
3904 Rain 12 1000 93 3700 9.3 110 07:41 23.11.2019
3905 Rain 13 1000 87 6000 12.3 70 06:52 23.11.2019
3906 Rain 13 1000 82 8000 12.3 70 06:26 23.11.2019
3907 Rain 13 1000 72 10000 11.3 80 05:57 23.11.2019
3908 Rain 13 1001 72 10000 9.8 80 05:31 23.11.2019
3909 Clouds 13 1001 72 10000 10.8 70 04:57 23.11.2019
3910 Clouds 13 1001 67 10000 10.8 80 04:32 23.11.2019
3911 Clouds 13 1002 72 10000 8.7 80 03:26 23.11.2019
3912 Clouds 13 1003 72 10000 9.8 70 02:38 23.11.2019
3913 Clouds 12 1003 77 10000 11.3 80 01:40 23.11.2019
3914 Clouds 12 1004 82 10000 11.8 60 00:48 23.11.2019
3915 Rain 11 1004 93 8000 9.8 60 00:20 23.11.2019
3916 Rain 11 1005 82 8000 10.3 70 23:56 22.11.2019
3917 Rain 11 1005 82 8000 10.3 70 23:37 22.11.2019
3918 Rain 11 1005 82 8000 10.3 70 23:37 22.11.2019
3919 Rain 11 1005 93 6000 11.3 70 23:18 22.11.2019
3920 Rain 11 1006 87 3700 10.8 70 22:55 22.11.2019
3921 Rain 11 1006 87 3700 10.8 70 22:37 22.11.2019
3922 Rain 11 1006 82 6000 11.3 70 22:18 22.11.2019
3923 Rain 11 1006 82 6000 11.3 70 22:18 22.11.2019
3924 Rain 11 1006 76 6000 10.3 70 21:41 22.11.2019
3925 Rain 11 1007 82 6000 10.3 60 21:21 22.11.2019
3926 Rain 11 1007 87 6000 8.2 60 20:56 22.11.2019
3927 Rain 11 1007 87 6000 8.2 60 20:38 22.11.2019
3928 Rain 11 1007 82 7000 10.8 70 20:20 22.11.2019
3929 Rain 11 1007 87 10000 9.3 50 19:40 22.11.2019
3930 Rain 11 1007 82 8000 9.3 70 19:21 22.11.2019
3931 Rain 12 1007 82 10000 10.8 70 18:59 22.11.2019
3932 Rain 12 1007 82 10000 10.8 70 18:38 22.11.2019
3933 Rain 12 1007 76 10000 10.8 70 18:20 22.11.2019
3934 Rain 12 1007 72 10000 9.8 70 17:43 22.11.2019
3935 Clouds 12 1007 72 10000 9.3 70 17:24 22.11.2019
3936 Clouds 12 1008 72 10000 9.3 70 16:58 22.11.2019
3937 Clouds 12 1008 72 10000 9.3 70 16:40 22.11.2019
3938 Clouds 12 1008 77 10000 9.8 80 16:21 22.11.2019
3939 Clouds 12 1008 72 10000 9.3 80 15:40 22.11.2019
3940 Clouds 12 1008 72 10000 9.3 80 15:22 22.11.2019
3941 Clouds 12 1008 82 10000 9.8 90 14:55 22.11.2019
3942 Clouds 12 1008 82 10000 9.8 90 14:37 22.11.2019
3943 Clouds 12 1008 72 10000 8.7 80 14:19 22.11.2019
3944 Clouds 12 1009 72 10000 8.2 70 13:39 22.11.2019
3945 Clouds 13 1009 72 10000 7.7 70 13:20 22.11.2019
3946 Clouds 13 1009 72 10000 7.7 70 13:20 22.11.2019
3947 Clouds 12 1010 76 10000 5.7 60 12:59 22.11.2019
3948 Clouds 12 1010 76 10000 5.7 60 12:40 22.11.2019
3949 Clouds 12 1010 76 10000 5.7 60 12:40 22.11.2019
3950 Clouds 12 1010 76 10000 5.7 60 12:40 22.11.2019
3951 Clouds 12 1010 76 10000 4.1 10 12:20 22.11.2019
3952 Clouds 11 1011 81 10000 3.6 340 11:58 22.11.2019
3953 Clouds 12 1011 81 10000 3.6 340 11:38 22.11.2019
3954 Clouds 11 1011 81 10000 3.6 350 11:19 22.11.2019
3955 Clouds 11 1011 81 10000 3.6 350 11:19 22.11.2019
3956 Clouds 11 1011 81 10000 3.6 350 11:19 22.11.2019
3957 Clouds 11 1011 81 10000 4.6 330 10:57 22.11.2019
3958 Clouds 10 1011 81 10000 4.6 330 10:39 22.11.2019
3959 Clouds 10 1011 81 10000 3.6 330 10:20 22.11.2019
3960 Clouds 10 1011 87 10000 4.6 330 09:55 22.11.2019
3961 Clouds 10 1011 87 10000 4.6 330 09:37 22.11.2019
3962 Clouds 10 1011 81 10000 4.6 330 09:18 22.11.2019
3963 Clouds 9 1010 81 10000 3.1 340 08:42 22.11.2019
3964 Clouds 9 1010 81 10000 3.1 340 08:22 22.11.2019
3965 Clouds 9 1010 81 10000 3.6 330 07:44 22.11.2019
3966 Clouds 9 1010 81 10000 3.1 330 07:22 22.11.2019
3967 Clouds 8 1010 81 10000 4.1 10 06:49 22.11.2019
3968 Clouds 8 1010 81 10000 5.7 20 06:29 22.11.2019
3969 Clouds 9 1010 81 10000 4.1 30 05:45 22.11.2019
3970 Clouds 9 1010 81 10000 4.6 20 04:19 22.11.2019
3971 Rain 9 1010 87 10000 5.1 30 02:52 22.11.2019
3972 Rain 9 1010 87 10000 5.1 30 02:29 22.11.2019
3973 Rain 9 1010 93 6000 4.6 360 01:45 22.11.2019
3974 Rain 9 1010 93 10000 3.1 360 01:19 22.11.2019
3975 Rain 9 1010 93 10000 2.6 340 00:50 22.11.2019
3976 Rain 9 1011 87 10000 4.6 20 00:23 22.11.2019
3977 Rain 9 1011 100 6000 4.1 10 23:46 21.11.2019
3978 Rain 9 1011 87 8000 4.1 350 23:28 21.11.2019
3979 Rain 10 1011 93 5000 4.1 330 22:59 21.11.2019
3980 Rain 10 1011 93 5000 4.1 330 22:39 21.11.2019
3981 Thunderstorm 10 1011 87 3000 2.6 0 22:21 21.11.2019
3982 Clouds 10 1010 87 10000 5.1 340 21:57 21.11.2019
3983 Clouds 10 1010 87 10000 5.1 340 21:37 21.11.2019
3984 Rain 10 1010 87 6000 4.6 330 21:19 21.11.2019
3985 Rain 10 1010 87 5000 4.1 360 20:58 21.11.2019
3986 Rain 10 1010 87 5000 4.1 360 20:38 21.11.2019
3987 Clouds 10 1010 87 10000 2.6 350 20:19 21.11.2019
3988 Rain 10 1010 87 10000 4.6 330 19:59 21.11.2019
3989 Rain 10 1010 87 10000 4.6 330 19:59 21.11.2019
3990 Rain 10 1010 87 10000 4.6 330 19:40 21.11.2019
3991 Rain 10 1010 93 10000 3.1 360 19:21 21.11.2019
3992 Clouds 10 1010 81 10000 3.6 20 18:57 21.11.2019
3993 Clouds 10 1010 81 10000 3.6 20 18:37 21.11.2019
3994 Clouds 10 1010 87 10000 3.6 20 18:19 21.11.2019
3995 Clouds 10 1010 87 10000 3.1 10 17:57 21.11.2019
3996 Clouds 10 1010 87 10000 3.1 10 17:38 21.11.2019
3997 Rain 11 1010 87 10000 3.6 40 17:19 21.11.2019
3998 Rain 11 1010 82 10000 4.6 70 16:41 21.11.2019
3999 Clouds 11 1010 76 10000 5.1 70 16:21 21.11.2019
4000 Clouds 11 1010 71 10000 5.7 70 15:57 21.11.2019
4001 Clouds 11 1010 71 10000 5.7 70 15:38 21.11.2019
4002 Clouds 11 1010 76 10000 2.6 360 15:19 21.11.2019
4003 Rain 11 1010 81 10000 2.6 320 14:56 21.11.2019
4004 Rain 12 1010 81 10000 2.6 320 14:36 21.11.2019
4005 Rain 12 1010 67 10000 3.1 10 14:18 21.11.2019
4006 Clouds 12 1010 67 10000 3.6 10 13:39 21.11.2019
4007 Clouds 13 1010 67 10000 4.1 360 13:20 21.11.2019
4008 Clouds 12 1010 67 10000 5.1 20 12:57 21.11.2019
4009 Clouds 12 1010 67 10000 5.1 20 12:38 21.11.2019
4010 Clouds 12 1011 76 10000 4.6 20 12:19 21.11.2019
4011 Clouds 12 1011 81 10000 4.1 340 11:41 21.11.2019
4012 Clouds 11 1012 81 10000 2.6 340 11:22 21.11.2019
4013 Clouds 11 1011 81 10000 3.6 330 10:59 21.11.2019
4014 Clouds 10 1011 81 10000 3.6 330 10:41 21.11.2019
4015 Clouds 10 1011 81 10000 4.6 320 10:22 21.11.2019
4016 Rain 10 1011 87 10000 3.1 350 09:57 21.11.2019
4017 Rain 9 1011 87 10000 3.1 350 09:38 21.11.2019
4018 Rain 9 1011 87 10000 3.1 330 09:19 21.11.2019
4019 Clouds 8 1011 87 10000 5.1 330 08:42 21.11.2019
4020 Rain 8 1011 87 10000 5.1 330 08:20 21.11.2019
4021 Rain 8 1011 87 10000 3.6 340 07:43 21.11.2019
4022 Clouds 8 1011 87 10000 3.6 340 07:18 21.11.2019
4023 Clouds 8 1011 87 10000 4.1 340 06:57 21.11.2019
4024 Clouds 8 1011 87 10000 4.6 340 06:34 21.11.2019
4025 Clouds 8 1011 87 10000 4.1 330 05:38 21.11.2019
4026 Clouds 8 1011 93 10000 3.6 330 03:34 21.11.2019
4027 Clouds 8 1011 100 10000 3.1 330 02:42 21.11.2019
4028 Clouds 8 1011 93 10000 3.1 330 02:23 21.11.2019
4029 Clouds 8 1012 93 10000 3.1 340 01:45 21.11.2019
4030 Clouds 8 1012 100 10000 3.1 320 01:19 21.11.2019
4031 Clouds 8 1012 93 10000 2.6 330 00:38 21.11.2019
4032 Clouds 8 1012 93 10000 2.1 330 00:18 21.11.2019
4033 Clouds 9 1012 93 10000 2.1 330 23:42 20.11.2019
4034 Clouds 9 1012 87 10000 1.5 350 23:21 20.11.2019
4035 Rain 9 1013 87 10000 8.15 229 22:58 20.11.2019
4036 Rain 9 1013 87 10000 8.15 229 22:38 20.11.2019
4037 Rain 9 1012 93 10000 1 350 22:19 20.11.2019
4038 Rain 9 1012 93 10000 1 350 22:19 20.11.2019
4039 Rain 10 1012 87 10000 2.1 240 21:58 20.11.2019
4040 Rain 10 1012 87 10000 2.1 240 21:39 20.11.2019
4041 Clouds 10 1012 93 10000 1 0 21:20 20.11.2019
4042 Clouds 10 1012 93 10000 1.5 0 20:57 20.11.2019
4043 Clouds 10 1012 93 10000 1.5 0 20:38 20.11.2019
4044 Clouds 10 1012 93 10000 1.5 330 20:20 20.11.2019
4045 Rain 10 1012 93 10000 1.5 290 19:56 20.11.2019
4046 Rain 10 1012 87 10000 1.5 270 19:37 20.11.2019
4047 Rain 10 1012 87 10000 1.5 270 19:18 20.11.2019
4048 Rain 10 1012 93 8000 3.1 240 18:58 20.11.2019
4049 Rain 11 1012 93 8000 3.1 240 18:39 20.11.2019
4050 Rain 11 1012 93 3500 9.4 217 18:20 20.11.2019
4051 Rain 11 1012 93 4500 2.1 290 17:56 20.11.2019
4052 Rain 11 1012 93 4500 2.1 290 17:38 20.11.2019
4053 Rain 11 1012 93 4500 2.1 320 17:20 20.11.2019
4054 Rain 11 1011 93 4500 1.5 280 16:55 20.11.2019
4055 Rain 11 1012 93 8000 1.5 320 16:36 20.11.2019
4056 Rain 11 1012 93 8000 1.5 320 16:18 20.11.2019
4057 Rain 11 1012 93 10000 1.5 280 15:41 20.11.2019
4058 Rain 11 1012 93 10000 1.5 280 15:41 20.11.2019
4059 Rain 12 1012 87 3000 1.5 320 15:22 20.11.2019
4060 Clouds 12 1012 87 10000 1.5 0 14:59 20.11.2019
4061 Clouds 12 1012 87 10000 1.5 0 14:40 20.11.2019
4062 Clouds 12 1012 76 10000 1 0 14:21 20.11.2019
4063 Clouds 13 1012 82 10000 3.6 140 13:58 20.11.2019
4064 Rain 13 1012 87 10000 1.5 230 13:39 20.11.2019
4065 Clouds 13 1012 62 10000 1 0 13:20 20.11.2019
4066 Clouds 13 1012 62 10000 1 0 12:55 20.11.2019
4067 Clouds 13 1012 62 10000 1 0 12:36 20.11.2019
4068 Clouds 13 1013 62 10000 3.1 330 12:18 20.11.2019
4069 Clouds 12 1013 62 10000 3.6 330 11:41 20.11.2019
4070 Clouds 13 1013 66 10000 3.1 340 11:22 20.11.2019
4071 Clouds 12 1013 66 10000 4.6 330 10:56 20.11.2019
4072 Clouds 12 1013 66 10000 5.1 330 10:37 20.11.2019
4073 Clouds 12 1013 66 10000 5.1 330 10:19 20.11.2019
4074 Clouds 11 1013 71 10000 5.7 330 09:43 20.11.2019
4075 Clouds 11 1013 71 10000 4.6 330 09:23 20.11.2019
4076 Clouds 10 1013 71 10000 5.7 320 08:59 20.11.2019
4077 Clouds 10 1013 71 10000 5.7 320 08:39 20.11.2019
4078 Clouds 10 1013 76 10000 5.1 320 08:21 20.11.2019
4079 Clouds 9 1013 76 10000 5.1 320 07:48 20.11.2019
4080 Clouds 9 1013 76 10000 5.1 330 07:28 20.11.2019
4081 Clouds 10 1013 76 10000 5.1 330 06:50 20.11.2019
4082 Clouds 10 1013 76 10000 5.1 330 06:22 20.11.2019
4083 Clouds 10 1013 71 10000 4.6 330 05:42 20.11.2019
4084 Clouds 9 1013 76 10000 4.1 330 03:45 20.11.2019
4085 Clouds 10 1013 76 10000 4.1 330 02:22 20.11.2019
4086 Rain 10 1013 76 10000 4.1 330 01:33 20.11.2019
4087 Clouds 10 1013 76 10000 5.1 330 00:42 20.11.2019
4088 Clouds 10 1013 76 10000 5.1 330 23:59 19.11.2019
4089 Clouds 10 1013 76 10000 5.1 330 23:36 19.11.2019
4090 Clouds 10 1013 76 10000 5.1 330 23:18 19.11.2019
4091 Clouds 9 1013 76 10000 4.6 320 22:42 19.11.2019
4092 Clouds 10 1013 76 10000 5.1 330 22:19 19.11.2019
4093 Clouds 10 1013 81 10000 3.6 330 21:58 19.11.2019
4094 Clouds 10 1013 81 10000 3.6 330 21:38 19.11.2019
4095 Clouds 10 1012 81 10000 4.1 340 21:20 19.11.2019
4096 Clouds 10 1012 87 10000 2.6 330 20:57 19.11.2019
4097 Clouds 11 1012 87 10000 2.6 330 20:39 19.11.2019
4098 Clouds 11 1012 87 10000 3.1 330 20:21 19.11.2019
4099 Clouds 11 1012 81 10000 2.6 330 19:59 19.11.2019
4100 Clouds 11 1012 81 10000 2.6 330 19:41 19.11.2019
4101 Clouds 11 1012 87 10000 5.1 320 19:20 19.11.2019
4102 Clouds 11 1012 82 10000 3.1 310 18:57 19.11.2019
4103 Clouds 10 1012 82 10000 3.1 310 18:38 19.11.2019
4104 Clouds 10 1012 82 10000 2.1 300 18:18 19.11.2019
4105 Clouds 11 1012 82 10000 3.1 270 17:56 19.11.2019
4106 Clouds 11 1012 82 10000 3.1 270 17:56 19.11.2019
4107 Rain 11 1011 82 10000 2.6 250 17:37 19.11.2019
4108 Rain 12 1011 82 10000 2.6 250 17:19 19.11.2019
4109 Rain 12 1011 82 10000 2.6 270 16:56 19.11.2019
4110 Rain 12 1011 82 10000 2.6 270 16:37 19.11.2019
4111 Rain 12 1011 82 10000 3.1 270 16:18 19.11.2019
4112 Clouds 12 1011 71 10000 4.1 230 15:44 19.11.2019
4113 Clouds 13 1010 62 10000 3.1 300 15:25 19.11.2019
4114 Clouds 12 1010 62 10000 3.1 290 14:57 19.11.2019
4115 Clouds 12 1010 62 10000 3.1 290 14:39 19.11.2019
4116 Clouds 12 1009 62 10000 1.5 270 14:20 19.11.2019
4117 Clouds 12 1009 62 10000 4.1 340 13:42 19.11.2019
4118 Clouds 13 1009 58 10000 4.1 310 13:20 19.11.2019
4119 Clouds 13 1009 62 10000 5.1 360 12:42 19.11.2019
4120 Clouds 12 1009 66 10000 4.6 360 12:23 19.11.2019
4121 Clouds 11 1009 66 10000 5.7 320 11:59 19.11.2019
4122 Clouds 12 1009 66 10000 5.7 320 11:39 19.11.2019
4123 Clouds 10 1009 71 10000 5.1 320 11:20 19.11.2019
4124 Clouds 10 1009 71 10000 5.7 330 10:58 19.11.2019
4125 Clouds 10 1009 71 10000 5.7 330 10:40 19.11.2019
4126 Clouds 10 1009 81 10000 5.7 330 10:20 19.11.2019
4127 Clouds 10 1009 81 10000 5.7 330 10:20 19.11.2019
4128 Rain 9 1009 81 10000 4.6 340 09:42 19.11.2019
4129 Rain 9 1009 71 10000 5.1 330 09:21 19.11.2019
4130 Rain 9 1008 81 10000 5.1 330 08:57 19.11.2019
4131 Rain 9 1008 81 10000 5.1 330 08:38 19.11.2019
4132 Rain 8 1008 81 10000 6.7 330 08:20 19.11.2019
4133 Rain 8 1008 76 10000 5.1 320 07:42 19.11.2019
4134 Rain 8 1007 81 10000 5.1 330 07:23 19.11.2019
4135 Rain 8 1007 81 10000 5.1 330 06:55 19.11.2019
4136 Rain 8 1007 81 10000 5.1 330 06:36 19.11.2019
4137 Rain 8 1006 71 10000 10.3 360 05:51 19.11.2019
4138 Rain 8 1007 87 10000 9.3 350 04:48 19.11.2019
4139 Rain 7 1007 76 10000 9.8 350 03:39 19.11.2019
4140 Rain 7 1008 76 10000 9.8 360 03:19 19.11.2019
4141 Rain 7 1008 76 10000 10.3 360 02:39 19.11.2019
4142 Rain 7 1008 76 10000 8.7 360 01:47 19.11.2019
4143 Rain 7 1009 76 10000 9.3 360 00:46 19.11.2019
4144 Rain 7 1009 76 10000 8.7 360 00:19 19.11.2019
4145 Rain 7 1009 76 10000 8.7 360 23:39 18.11.2019
4146 Rain 7 1009 76 10000 7.7 10 23:19 18.11.2019
4147 Rain 7 1009 76 10000 8.7 360 22:46 18.11.2019
4148 Rain 7 1009 81 8000 8.7 360 22:24 18.11.2019
4149 Rain 7 1009 81 8000 9.3 360 21:57 18.11.2019
4150 Rain 7 1009 81 8000 9.3 360 21:39 18.11.2019
4151 Rain 7 1009 81 8000 7.7 10 21:21 18.11.2019
4152 Rain 7 1010 81 8000 7.2 360 20:57 18.11.2019
4153 Rain 7 1010 81 8000 7.2 360 20:39 18.11.2019
4154 Rain 7 1010 76 10000 6.7 10 20:19 18.11.2019
4155 Rain 7 1010 81 10000 6.2 30 19:57 18.11.2019
4156 Rain 7 1010 81 10000 6.2 30 19:38 18.11.2019
4157 Rain 7 1010 70 10000 7.7 20 19:20 18.11.2019
4158 Rain 7 1010 70 10000 7.2 10 18:56 18.11.2019
4159 Rain 7 1010 70 10000 7.2 10 18:38 18.11.2019
4160 Rain 7 1010 75 10000 6.7 10 18:19 18.11.2019
4161 Rain 7 1010 70 10000 6.7 360 17:56 18.11.2019
4162 Rain 7 1011 76 10000 5.1 10 17:37 18.11.2019
4163 Rain 8 1011 76 10000 5.1 10 17:18 18.11.2019
4164 Rain 8 1011 70 10000 5.7 10 16:42 18.11.2019
4165 Rain 8 1011 66 10000 5.1 20 16:24 18.11.2019
4166 Rain 9 1010 66 10000 6.2 360 15:58 18.11.2019
4167 Rain 9 1010 66 10000 6.2 360 15:39 18.11.2019
4168 Rain 9 1010 66 10000 5.1 340 15:20 18.11.2019
4169 Rain 9 1010 70 10000 5.1 340 14:58 18.11.2019
4170 Rain 9 1010 70 10000 5.1 340 14:38 18.11.2019
4171 Rain 9 1010 66 10000 5.1 330 14:18 18.11.2019
4172 Rain 9 1011 65 10000 5.1 330 13:42 18.11.2019
4173 Clouds 9 1011 57 10000 5.1 330 13:24 18.11.2019
4174 Clouds 8 1010 57 10000 5.1 330 12:43 18.11.2019
4175 Clouds 8 1011 57 10000 5.7 330 12:20 18.11.2019
4176 Clouds 8 1011 57 10000 5.7 330 11:57 18.11.2019
4177 Clouds 8 1011 57 10000 5.7 330 11:38 18.11.2019
4178 Clouds 8 1011 61 10000 5.1 340 11:20 18.11.2019
4179 Clouds 8 1011 61 10000 4.6 340 10:44 18.11.2019
4180 Clouds 7 1011 65 10000 4.6 340 10:25 18.11.2019
4181 Clouds 7 1010 64 10000 5.1 330 09:58 18.11.2019
4182 Clouds 7 1010 64 10000 5.1 330 09:38 18.11.2019
4183 Clouds 6 1010 65 10000 4.6 340 09:20 18.11.2019
4184 Clouds 5 1010 64 10000 5.7 330 08:57 18.11.2019
4185 Clouds 5 1010 64 10000 5.7 330 08:39 18.11.2019
4186 Clouds 5 1010 57 10000 5.7 330 08:19 18.11.2019
4187 Clouds 4 1009 57 10000 6.7 330 07:45 18.11.2019
4188 Clouds 4 1009 57 10000 4.1 340 07:25 18.11.2019
4189 Clouds 4 1008 57 10000 3.1 350 06:49 18.11.2019
4190 Clouds 4 1008 57 10000 3.1 340 06:28 18.11.2019
4191 Clouds 4 1008 70 10000 5.7 330 05:44 18.11.2019
4192 Clouds 4 1008 70 10000 4.1 340 04:28 18.11.2019
4193 Clear 5 1007 75 10000 4.1 330 01:47 18.11.2019
4194 Clear 5 1007 70 10000 4.1 330 01:25 18.11.2019
4195 Clear 5 1006 75 10000 4.1 320 00:20 18.11.2019
4196 Clear 5 1006 75 10000 4.6 320 23:41 17.11.2019
4197 Clear 5 1006 75 10000 4.6 310 23:22 17.11.2019
4198 Clouds 5 1005 75 10000 2.6 330 22:57 17.11.2019
4199 Clouds 5 1005 75 10000 2.6 330 22:39 17.11.2019
4200 Clouds 5 1005 75 10000 4.6 310 22:21 17.11.2019
4201 Clear 5 1005 81 10000 2.6 310 21:57 17.11.2019
4202 Clear 6 1005 81 10000 2.6 310 21:39 17.11.2019
4203 Clear 6 1004 81 10000 2.1 330 21:18 17.11.2019
4204 Clear 6 1004 81 10000 3.1 340 20:55 17.11.2019
4205 Clear 6 1004 81 10000 3.6 340 20:37 17.11.2019
4206 Clear 6 1004 81 10000 3.6 340 20:18 17.11.2019
4207 Clear 6 1003 70 10000 1.5 0 19:55 17.11.2019
4208 Clear 7 1003 70 10000 2.6 230 19:37 17.11.2019
4209 Clear 7 1003 70 10000 2.6 230 19:37 17.11.2019
4210 Clear 7 1003 70 10000 2.6 230 19:19 17.11.2019
4211 Clear 7 1003 66 10000 4.1 230 18:54 17.11.2019
4212 Clear 8 1003 66 10000 4.1 230 18:36 17.11.2019
4213 Clouds 8 1003 61 10000 5.7 240 18:18 17.11.2019
4214 Clouds 10 1002 61 10000 5.7 260 17:57 17.11.2019
4215 Clouds 10 1002 61 10000 5.7 260 17:38 17.11.2019
4216 Clouds 9 1002 62 10000 6.7 230 17:19 17.11.2019
4217 Clouds 10 1002 54 10000 5.7 230 16:55 17.11.2019
4218 Clouds 10 1002 54 10000 5.7 230 16:37 17.11.2019
4219 Clouds 11 1001 50 10000 6.7 230 16:19 17.11.2019
4220 Clouds 12 1001 54 10000 5.7 230 15:41 17.11.2019
4221 Clouds 13 1001 54 10000 5.7 230 15:19 17.11.2019
4222 Clouds 13 1001 50 10000 5.1 220 14:58 17.11.2019
4223 Clouds 13 1001 50 10000 5.1 220 14:40 17.11.2019
4224 Clouds 13 1001 51 10000 3.6 230 14:21 17.11.2019
4225 Clouds 13 1001 54 10000 4.6 220 13:59 17.11.2019
4226 Clouds 12 1001 54 10000 4.6 220 13:40 17.11.2019
4227 Clouds 13 1001 47 10000 3.6 210 13:20 17.11.2019
4228 Clouds 12 1001 47 10000 2.6 230 12:55 17.11.2019
4229 Clouds 13 1001 43 10000 3.1 260 12:36 17.11.2019
4230 Clouds 13 1001 43 10000 3.1 260 12:18 17.11.2019
4231 Clouds 13 1001 43 10000 3.1 260 12:18 17.11.2019
4232 Clouds 13 1001 50 10000 4.1 240 11:54 17.11.2019
4233 Clouds 12 1001 50 10000 4.1 240 11:36 17.11.2019
4234 Clouds 11 1001 50 10000 3.6 270 11:18 17.11.2019
4235 Clouds 11 1001 46 10000 2.6 310 10:41 17.11.2019
4236 Clouds 10 1001 50 10000 4.6 300 10:22 17.11.2019
4237 Clouds 10 1001 53 10000 5.7 320 09:42 17.11.2019
4238 Clouds 9 1001 57 10000 5.7 330 09:24 17.11.2019
4239 Clouds 7 1001 61 10000 4.1 340 08:57 17.11.2019
4240 Clouds 7 1001 80 10000 0.5 0 08:37 17.11.2019
4241 Clouds 7 1001 80 10000 0.5 0 08:18 17.11.2019
4242 Clouds 6 1000 61 10000 4.1 340 07:42 17.11.2019
4243 Clouds 6 1001 61 10000 4.1 320 07:21 17.11.2019
4244 Clouds 6 1001 61 10000 5.1 330 06:54 17.11.2019
4245 Clouds 6 1001 61 10000 5.1 330 06:30 17.11.2019
4246 Clouds 6 1001 61 10000 5.1 330 06:30 17.11.2019
4247 Clouds 7 1001 57 10000 4.6 330 05:39 17.11.2019
4248 Clouds 8 1002 57 10000 5.7 320 04:20 17.11.2019
4249 Clouds 7 1003 61 10000 4.1 330 03:40 17.11.2019
4250 Clouds 8 1003 61 10000 2.1 300 03:22 17.11.2019
4251 Clouds 8 1004 61 10000 3.1 350 02:19 17.11.2019
4252 Clouds 8 1004 57 10000 4.1 340 01:22 17.11.2019
4253 Clouds 8 1005 57 10000 1 0 00:43 17.11.2019
4254 Clouds 8 1005 57 10000 6.7 320 00:21 17.11.2019
4255 Clouds 8 1006 61 10000 6.7 330 23:43 16.11.2019
4256 Clouds 8 1006 61 10000 5.1 350 23:19 16.11.2019
4257 Clouds 8 1007 66 10000 5.1 350 22:58 16.11.2019
4258 Clouds 8 1007 66 10000 5.1 350 22:40 16.11.2019
4259 Clouds 9 1007 66 10000 3.1 350 22:18 16.11.2019
4260 Clouds 8 1008 66 10000 3.6 340 21:41 16.11.2019
4261 Clouds 9 1008 66 10000 3.1 350 21:23 16.11.2019
4262 Clouds 9 1008 66 10000 4.6 340 20:58 16.11.2019
4263 Clouds 9 1008 66 10000 4.6 340 20:39 16.11.2019
4264 Clouds 10 1008 62 10000 4.6 330 20:20 16.11.2019
4265 Clouds 10 1008 66 10000 2.6 350 19:57 16.11.2019
4266 Clouds 10 1008 66 10000 2.6 350 19:38 16.11.2019
4267 Clouds 10 1008 76 10000 4.6 330 19:20 16.11.2019
4268 Clouds 10 1009 76 10000 4.6 330 18:45 16.11.2019
4269 Clouds 10 1009 71 10000 4.1 330 18:27 16.11.2019
4270 Clouds 10 1009 71 10000 4.6 330 17:56 16.11.2019
4271 Clouds 10 1009 71 10000 4.6 330 17:56 16.11.2019
4272 Clouds 10 1009 71 10000 4.6 330 17:37 16.11.2019
4273 Clouds 10 1009 66 10000 4.1 70 17:18 16.11.2019
4274 Clouds 11 1010 58 10000 5.1 80 16:47 16.11.2019
4275 Clouds 12 1010 54 10000 4.6 90 16:28 16.11.2019
4276 Clouds 12 1010 54 10000 3.1 80 15:58 16.11.2019
4277 Clouds 13 1010 54 10000 3.1 80 15:39 16.11.2019
4278 Clouds 13 1010 50 10000 3.1 70 15:20 16.11.2019
4279 Clouds 13 1010 50 10000 3.1 70 15:20 16.11.2019
4280 Clouds 13 1010 50 10000 3.1 70 15:20 16.11.2019
4281 Clouds 13 1010 54 10000 2.1 70 14:57 16.11.2019
4282 Clouds 13 1010 54 10000 2.1 70 14:38 16.11.2019
4283 Clouds 13 1010 54 10000 3.1 90 14:19 16.11.2019
4284 Clouds 13 1010 54 10000 2.1 100 13:54 16.11.2019
4285 Clouds 13 1010 54 10000 2.1 100 13:54 16.11.2019
4286 Clouds 13 1010 47 10000 1.5 0 13:36 16.11.2019
4287 Clouds 13 1010 47 10000 1.5 0 13:18 16.11.2019
4288 Clouds 13 1011 62 10000 2.36 349 12:42 16.11.2019
4289 Clouds 13 1011 62 10000 1.5 330 12:20 16.11.2019
4290 Clouds 13 1011 66 10000 3.1 320 11:55 16.11.2019
4291 Clouds 13 1011 66 10000 3.1 320 11:37 16.11.2019
4292 Clouds 11 1011 71 10000 4.1 330 11:18 16.11.2019
4293 Clouds 11 1011 71 10000 4.1 340 10:42 16.11.2019
4294 Clouds 10 1011 71 10000 3.1 340 10:24 16.11.2019
4295 Clouds 9 1011 76 10000 4.1 330 09:58 16.11.2019
4296 Clouds 9 1011 76 10000 4.1 330 09:40 16.11.2019
4297 Clouds 8 1010 75 10000 4.6 340 09:19 16.11.2019
4298 Clouds 7 1010 81 10000 5.1 340 08:41 16.11.2019
4299 Clouds 6 1010 87 10000 6.2 330 08:20 16.11.2019
4300 Clouds 6 1010 87 10000 6.2 330 08:20 16.11.2019
4301 Clouds 6 1009 87 10000 4.1 340 07:46 16.11.2019
4302 Clouds 5 1009 81 10000 6.2 330 07:22 16.11.2019
4303 Clouds 5 1009 81 10000 6.2 330 07:22 16.11.2019
4304 Clouds 6 1008 87 10000 6.2 330 06:59 16.11.2019
4305 Clouds 6 1008 87 10000 6.2 330 06:41 16.11.2019
4306 Clouds 6 1008 87 10000 6.2 330 06:20 16.11.2019
4307 Clouds 6 1007 87 10000 5.1 330 04:34 16.11.2019
4308 Clouds 6 1006 87 10000 5.7 330 03:26 16.11.2019
4309 Clouds 6 1006 87 10000 5.7 330 03:26 16.11.2019
4310 Clouds 6 1006 81 10000 5.1 340 02:36 16.11.2019
4311 Clouds 6 1006 81 10000 5.1 340 02:36 16.11.2019
4312 Clouds 6 1005 87 10000 5.1 340 01:38 16.11.2019
4313 Rain 7 1004 87 10000 4.1 350 00:51 16.11.2019
4314 Rain 7 1004 81 10000 3.1 350 00:30 16.11.2019
4315 Rain 7 1003 81 10000 6.7 10 23:58 15.11.2019
4316 Rain 7 1003 81 10000 6.7 10 23:38 15.11.2019
4317 Rain 6 1003 81 10000 5.7 10 23:20 15.11.2019
4318 Clouds 6 1003 87 10000 7.2 360 22:42 15.11.2019
4319 Rain 6 1003 87 10000 6.7 10 22:20 15.11.2019
4320 Rain 6 1004 87 4000 6.2 360 21:58 15.11.2019
4321 Rain 6 1004 87 4000 6.2 360 21:40 15.11.2019
4322 Rain 7 1003 81 10000 4.6 360 21:20 15.11.2019
4323 Rain 8 1002 81 10000 7.2 40 20:57 15.11.2019
4324 Rain 8 1002 81 10000 7.2 40 20:39 15.11.2019
4325 Thunderstorm 8 1002 81 10000 6.7 80 20:20 15.11.2019
4326 Rain 9 1002 81 6000 1.5 0 19:57 15.11.2019
4327 Rain 9 1002 81 6000 1.5 0 19:38 15.11.2019
4328 Clouds 9 1001 76 10000 4.1 330 19:20 15.11.2019
4329 Clouds 9 1001 76 10000 4.6 320 18:56 15.11.2019
4330 Clouds 10 1001 76 10000 4.6 320 18:38 15.11.2019
4331 Clouds 9 1001 76 10000 3.6 320 18:20 15.11.2019
4332 Clouds 9 1001 66 10000 2.6 0 17:42 15.11.2019
4333 Clouds 10 1001 66 10000 2.6 0 17:42 15.11.2019
4334 Clouds 9 1001 66 10000 2.1 30 17:24 15.11.2019
4335 Clouds 10 1000 66 10000 4.6 80 16:56 15.11.2019
4336 Clouds 10 1000 62 10000 3.6 80 16:37 15.11.2019
4337 Clouds 10 1000 62 10000 3.6 80 16:19 15.11.2019
4338 Clouds 11 1000 66 10000 3.6 90 15:38 15.11.2019
4339 Clouds 11 1000 66 10000 3.1 80 15:20 15.11.2019
4340 Clouds 11 1000 66 10000 2.1 0 14:57 15.11.2019
4341 Clouds 11 1000 66 10000 2.1 0 14:38 15.11.2019
4342 Clouds 11 1000 62 10000 3.6 330 14:19 15.11.2019
4343 Clouds 11 1000 62 10000 3.6 330 13:58 15.11.2019
4344 Clouds 11 1000 62 10000 3.6 330 13:39 15.11.2019
4345 Clouds 11 1000 66 10000 3.6 340 13:21 15.11.2019
4346 Clouds 10 1000 66 10000 3.6 320 12:58 15.11.2019
4347 Clouds 10 1000 66 10000 3.6 320 12:40 15.11.2019
4348 Clouds 10 1000 66 10000 4.6 340 12:20 15.11.2019
4349 Clouds 9 1001 71 10000 5.1 330 11:58 15.11.2019
4350 Clouds 9 1001 71 10000 5.1 330 11:38 15.11.2019
4351 Clouds 8 1001 76 10000 5.1 330 11:20 15.11.2019
4352 Clouds 8 1001 81 10000 4.1 340 10:56 15.11.2019
4353 Clouds 8 1001 81 10000 4.1 340 10:56 15.11.2019
4354 Clouds 8 1001 81 10000 4.1 340 10:38 15.11.2019
4355 Clouds 7 1001 81 10000 3.1 340 10:18 15.11.2019
4356 Clouds 6 1000 75 10000 4.6 330 09:41 15.11.2019
4357 Clouds 7 1000 81 10000 5.7 330 09:20 15.11.2019
4358 Clouds 5 1000 81 10000 3.1 330 08:44 15.11.2019
4359 Clouds 6 1000 87 10000 4.1 320 08:23 15.11.2019
4360 Clouds 6 1000 87 10000 4.1 320 07:49 15.11.2019
4361 Rain 6 1000 87 10000 3.1 330 07:29 15.11.2019
4362 Rain 6 999 87 10000 2.6 320 06:59 15.11.2019
4363 Rain 6 1000 81 10000 3.1 300 06:34 15.11.2019
4364 Rain 6 999 87 10000 3.6 320 05:50 15.11.2019
4365 Rain 7 999 87 10000 4.1 320 05:28 15.11.2019
4366 Rain 7 999 81 10000 3.1 310 04:42 15.11.2019
4367 Rain 8 998 87 10000 4.6 240 03:37 15.11.2019
4368 Rain 9 996 93 10000 2.6 310 02:27 15.11.2019
4369 Rain 6 995 93 8000 4.1 340 01:48 15.11.2019
4370 Rain 6 994 87 10000 3.6 350 01:24 15.11.2019
4371 Rain 6 994 87 10000 3.6 350 01:24 15.11.2019
4372 Rain 9 995 93 6000 6.2 20 00:37 15.11.2019
4373 Rain 9 996 93 5000 4.1 20 00:37 15.11.2019
4374 Thunderstorm 9 996 93 5000 5.7 10 23:59 14.11.2019
4375 Thunderstorm 9 996 93 5000 5.7 10 23:40 14.11.2019
4376 Rain 9 996 87 10000 8.7 40 23:21 14.11.2019
4377 Rain 9 996 81 10000 11.3 60 22:41 14.11.2019
4378 Rain 9 997 87 7000 10.8 60 22:22 14.11.2019
4379 Rain 10 997 87 5000 14.4 70 21:58 14.11.2019
4380 Rain 10 997 87 5000 14.4 70 21:40 14.11.2019
4381 Rain 9 997 93 4000 14.9 70 21:21 14.11.2019
4382 Rain 10 997 93 4000 15.9 70 20:55 14.11.2019
4383 Rain 10 997 93 4000 15.9 70 20:37 14.11.2019
4384 Rain 10 999 93 4000 9.8 50 20:18 14.11.2019
4385 Rain 10 1000 87 3000 9.3 70 19:54 14.11.2019
4386 Rain 10 999 87 3000 11.8 80 19:36 14.11.2019
4387 Rain 10 999 87 3000 11.8 80 19:18 14.11.2019
4388 Rain 10 999 87 3000 11.8 80 19:18 14.11.2019
4389 Rain 6 1000 82 3000 13.9 90 18:42 14.11.2019
4390 Rain 11 999 82 3000 11.8 90 18:22 14.11.2019
4391 Rain 12 999 76 5000 14.9 90 17:57 14.11.2019
4392 Rain 12 999 76 5000 14.9 90 17:38 14.11.2019
4393 Rain 11 999 67 7000 14.4 80 17:20 14.11.2019
4394 Rain 11 999 67 8000 13.4 90 16:58 14.11.2019
4395 Rain 11 999 67 8000 13.4 90 16:37 14.11.2019
4396 Rain 11 1000 67 10000 12.9 90 16:19 14.11.2019
4397 Clouds 12 1001 62 10000 12.9 80 15:58 14.11.2019
4398 Clouds 12 1001 62 10000 12.9 80 15:38 14.11.2019
4399 Clouds 12 1002 62 10000 12.3 90 15:20 14.11.2019
4400 Clouds 13 1002 62 10000 13.4 90 14:55 14.11.2019
4401 Clouds 13 1002 62 10000 13.4 90 14:55 14.11.2019
4402 Clouds 13 1002 62 10000 13.4 90 14:37 14.11.2019
4403 Clouds 12 1002 58 10000 12.3 90 14:18 14.11.2019
4404 Clouds 12 1003 67 10000 11.3 110 13:41 14.11.2019
4405 Clouds 12 1004 58 10000 8.2 120 13:22 14.11.2019
4406 Clouds 12 1004 62 10000 8.7 110 12:57 14.11.2019
4407 Clouds 12 1004 62 10000 8.7 110 12:38 14.11.2019
4408 Clouds 12 1004 62 10000 9.3 100 12:20 14.11.2019
4409 Clouds 12 1005 62 10000 8.7 90 11:55 14.11.2019
4410 Clouds 12 1005 62 10000 8.7 90 11:36 14.11.2019
4411 Clouds 11 1005 58 10000 9.3 100 11:18 14.11.2019
4412 Clouds 11 1005 67 10000 8.7 90 10:56 14.11.2019
4413 Clouds 11 1005 67 10000 8.7 90 10:56 14.11.2019
4414 Clouds 11 1005 71 10000 2.1 360 10:37 14.11.2019
4415 Clouds 10 1005 57 10000 5.1 320 10:19 14.11.2019
4416 Clouds 9 1005 53 10000 5.1 330 09:41 14.11.2019
4417 Clouds 8 1005 57 10000 5.1 330 09:23 14.11.2019
4418 Clouds 8 1006 57 10000 5.1 320 08:56 14.11.2019
4419 Clouds 8 1006 57 10000 5.1 320 08:38 14.11.2019
4420 Clouds 8 1006 57 10000 4.6 330 08:19 14.11.2019
4421 Clouds 7 1005 57 10000 5.1 330 07:40 14.11.2019
4422 Clouds 7 1005 61 10000 6.7 330 07:22 14.11.2019
4423 Clouds 7 1005 61 10000 7.2 330 06:46 14.11.2019
4424 Clouds 6 1005 61 10000 5.1 330 06:19 14.11.2019
4425 Clouds 6 1005 61 10000 5.1 330 06:19 14.11.2019
4426 Clouds 6 1005 61 10000 5.1 330 05:20 14.11.2019
4427 Clouds 6 1005 65 10000 5.7 330 04:35 14.11.2019
4428 Clouds 6 1005 65 10000 4.6 340 02:50 14.11.2019
4429 Clouds 7 1005 61 10000 4.6 340 02:29 14.11.2019
4430 Clouds 7 1005 61 10000 4.6 330 01:40 14.11.2019
4431 Clouds 7 1005 66 10000 4.6 330 00:56 14.11.2019
4432 Clouds 7 1005 66 10000 3.6 340 00:36 14.11.2019
4433 Clouds 7 1005 66 10000 3.6 340 00:18 14.11.2019
4434 Clouds 7 1005 66 10000 4.6 340 23:38 13.11.2019
4435 Clouds 7 1005 66 10000 4.6 340 23:38 13.11.2019
4436 Clouds 7 1005 66 10000 4.1 340 23:19 13.11.2019
4437 Clouds 7 1005 66 10000 4.1 330 22:55 13.11.2019
4438 Clouds 9 1005 70 10000 4.1 330 22:37 13.11.2019
4439 Clouds 9 1005 70 10000 4.1 330 22:37 13.11.2019
4440 Clouds 8 1005 70 10000 4.1 330 22:18 13.11.2019
4441 Clouds 8 1004 70 10000 5.1 330 21:54 13.11.2019
4442 Clouds 8 1004 70 10000 5.1 330 21:36 13.11.2019
4443 Clouds 8 1004 70 10000 4.6 330 21:18 13.11.2019
4444 Clouds 8 1004 66 10000 4.6 330 20:54 13.11.2019
4445 Clouds 8 1004 66 10000 4.6 330 20:36 13.11.2019
4446 Clouds 9 1004 66 10000 4.6 330 20:18 13.11.2019
4447 Clouds 9 1004 71 10000 3.6 330 19:41 13.11.2019
4448 Clouds 9 1003 71 10000 2.1 330 19:19 13.11.2019
4449 Clouds 10 1003 66 10000 3.1 320 18:56 13.11.2019
4450 Clouds 7 1003 66 10000 3.1 320 18:37 13.11.2019
4451 Clouds 11 1003 58 10000 1.5 330 18:19 13.11.2019
4452 Clouds 11 1002 58 10000 1.5 300 17:57 13.11.2019
4453 Clouds 11 1002 58 10000 1.5 300 17:38 13.11.2019
4454 Clouds 11 1002 66 10000 1 0 17:19 13.11.2019
4455 Clouds 12 1002 51 10000 1.5 190 16:57 13.11.2019
4456 Clouds 12 1002 51 10000 1.5 190 16:39 13.11.2019
4457 Clouds 12 1001 47 10000 1.5 220 16:21 13.11.2019
4458 Clouds 13 1001 47 10000 2.1 240 15:57 13.11.2019
4459 Clouds 14 1001 47 10000 2.1 240 15:38 13.11.2019
4460 Clouds 14 1001 41 10000 3.1 230 15:19 13.11.2019
4461 Clouds 15 1001 41 10000 2.6 240 14:42 13.11.2019
4462 Clouds 14 1000 44 10000 2.1 220 14:21 13.11.2019
4463 Clouds 14 1000 44 10000 4.1 220 13:57 13.11.2019
4464 Clouds 14 1000 44 10000 4.1 220 13:36 13.11.2019
4465 Clouds 14 1000 41 10000 4.1 250 13:18 13.11.2019
4466 Clouds 15 1000 44 10000 3.6 190 12:43 13.11.2019
4467 Clouds 15 999 31 10000 3.6 310 12:25 13.11.2019
4468 Clouds 15 999 31 10000 3.6 310 12:25 13.11.2019
4469 Clouds 15 999 30 10000 5.1 320 11:59 13.11.2019
4470 Clouds 14 999 30 10000 5.1 320 11:39 13.11.2019
4471 Clouds 10 999 32 10000 4.1 330 11:19 13.11.2019
4472 Clouds 12 999 34 10000 4.6 330 10:57 13.11.2019
4473 Clouds 12 999 34 10000 4.6 330 10:39 13.11.2019
4474 Clouds 8 998 34 10000 5.7 340 10:19 13.11.2019
4475 Clouds 8 998 34 10000 5.7 340 10:19 13.11.2019
4476 Clouds 11 998 37 10000 5.1 330 09:45 13.11.2019
4477 Clouds 10 997 39 10000 5.1 340 09:22 13.11.2019
4478 Clouds 9 997 42 10000 6.7 330 08:57 13.11.2019
4479 Clouds 8 997 42 10000 6.2 330 08:36 13.11.2019
4480 Clouds 5 997 42 10000 6.2 330 08:18 13.11.2019
4481 Clouds 7 996 39 10000 6.7 330 07:42 13.11.2019
4482 Clouds 7 996 39 10000 6.7 330 07:42 13.11.2019
4483 Clouds 7 995 31 10000 6.2 330 07:20 13.11.2019
4484 Clouds 7 995 36 10000 4.1 330 06:44 13.11.2019
4485 Clear 6 995 42 10000 5.1 340 06:19 13.11.2019
4486 Clear 6 995 42 10000 5.1 340 06:19 13.11.2019
4487 Clear 3 995 42 10000 4.1 340 05:53 13.11.2019
4488 Clear 3 994 45 10000 4.6 330 05:31 13.11.2019
4489 Clear 5 995 45 10000 4.6 330 04:27 13.11.2019
4490 Clear 8 995 45 10000 6.7 330 02:19 13.11.2019
4491 Clear 8 995 49 10000 6.2 330 01:41 13.11.2019
4492 Clear 7 995 49 10000 6.2 330 00:44 13.11.2019
4493 Clear 7 995 54 10000 6.2 330 00:21 13.11.2019
4494 Clear 5 995 54 10000 6.7 330 23:42 12.11.2019
4495 Clear 5 995 54 10000 6.7 330 23:42 12.11.2019
4496 Clear 9 995 53 10000 4.6 330 23:21 12.11.2019
4497 Clear 9 995 53 10000 5.7 340 22:55 12.11.2019
4498 Clear 9 995 53 10000 5.7 340 22:37 12.11.2019
4499 Clear 9 995 53 10000 4.6 330 22:18 12.11.2019
4500 Clear 10 995 53 10000 3.6 330 21:43 12.11.2019
4501 Clear 10 995 53 10000 4.1 330 21:24 12.11.2019
4502 Clear 11 995 57 10000 4.6 340 20:57 12.11.2019
4503 Clear 11 995 57 10000 4.6 340 20:37 12.11.2019
4504 Clouds 12 995 62 10000 4.6 330 20:19 12.11.2019
4505 Clouds 11 995 66 10000 3.6 330 19:57 12.11.2019
4506 Clouds 11 995 66 10000 3.6 330 19:39 12.11.2019
4507 Clouds 11 995 66 10000 3.6 330 19:39 12.11.2019
4508 Clouds 12 995 66 10000 4.6 330 19:19 12.11.2019
4509 Clouds 12 996 66 10000 4.6 320 18:59 12.11.2019
4510 Clouds 12 996 66 10000 4.6 320 18:40 12.11.2019
4511 Clouds 12 995 66 10000 4.1 320 18:22 12.11.2019
4512 Clouds 13 996 62 10000 0.5 320 17:57 12.11.2019
4513 Clouds 13 996 62 10000 0.5 320 17:39 12.11.2019
4514 Clear 13 995 62 10000 1.5 0 17:21 12.11.2019
4515 Clear 13 995 62 10000 1.5 0 17:21 12.11.2019
4516 Clear 15 996 52 10000 0.5 0 16:57 12.11.2019
4517 Clear 15 996 52 10000 0.5 0 16:39 12.11.2019
4518 Clear 16 996 52 10000 1 0 16:20 12.11.2019
4519 Clear 17 996 48 10000 1 0 15:41 12.11.2019
4520 Clear 17 996 55 10000 1 0 15:21 12.11.2019
4521 Clear 17 996 55 10000 1 100 14:56 12.11.2019
4522 Clear 17 996 55 10000 1 100 14:56 12.11.2019
4523 Clear 17 996 55 10000 1 100 14:37 12.11.2019
4524 Clouds 17 997 63 10000 1.5 150 14:18 12.11.2019
4525 Clouds 16 997 63 10000 2.1 150 13:56 12.11.2019
4526 Clouds 16 997 59 10000 1.5 250 13:37 12.11.2019
4527 Clouds 16 997 59 10000 1.5 250 13:18 12.11.2019
4528 Clouds 16 998 59 10000 2.1 300 12:42 12.11.2019
4529 Clouds 16 999 58 10000 2.6 320 12:19 12.11.2019
4530 Clouds 15 1000 54 10000 3.6 320 11:58 12.11.2019
4531 Clouds 15 1000 54 10000 3.6 320 11:40 12.11.2019
4532 Clouds 13 1001 58 10000 4.6 320 11:21 12.11.2019
4533 Clouds 13 1001 58 10000 4.6 320 11:21 12.11.2019
4534 Clouds 13 1001 62 10000 4.6 330 10:56 12.11.2019
4535 Clouds 12 1001 62 10000 4.6 330 10:37 12.11.2019
4536 Clouds 12 1001 66 10000 5.1 330 10:19 12.11.2019
4537 Clouds 11 1001 71 10000 4.6 330 09:42 12.11.2019
4538 Clouds 9 1002 76 10000 6.2 330 09:21 12.11.2019
4539 Clouds 8 1002 76 10000 5.1 330 08:54 12.11.2019
4540 Clouds 8 1002 76 10000 5.1 330 08:36 12.11.2019
4541 Clouds 8 1001 81 10000 6.2 330 08:18 12.11.2019
4542 Clouds 7 1001 81 10000 6.2 330 07:40 12.11.2019
4543 Clouds 7 1001 81 10000 6.2 330 07:40 12.11.2019
4544 Clouds 7 1001 76 10000 5.1 330 07:20 12.11.2019
4545 Clouds 7 1002 76 10000 5.1 330 06:42 12.11.2019
4546 Clouds 7 1002 81 10000 3.6 340 06:22 12.11.2019
4547 Clouds 7 1002 100 10000 2.6 360 05:46 12.11.2019
4548 Clouds 7 1002 81 10000 4.1 340 04:44 12.11.2019
4549 Clouds 8 1003 81 10000 4.1 340 03:40 12.11.2019
4550 Clouds 9 1005 87 10000 3.6 330 01:47 12.11.2019
4551 Clouds 9 1006 87 10000 3.6 330 01:22 12.11.2019
4552 Clouds 9 1006 87 10000 4.1 330 00:47 12.11.2019
4553 Clouds 9 1006 87 10000 4.1 330 00:24 12.11.2019
4554 Clouds 10 1006 87 10000 3.1 320 23:44 11.11.2019
4555 Clouds 10 1006 87 10000 4.1 320 23:23 11.11.2019
4556 Clouds 10 1007 87 10000 3.6 320 22:57 11.11.2019
4557 Clouds 10 1007 87 10000 3.6 320 22:36 11.11.2019
4558 Clouds 10 1006 87 10000 3.1 340 22:36 11.11.2019
4559 Clouds 10 1006 87 10000 3.1 340 22:18 11.11.2019
4560 Clouds 10 1006 87 10000 3.1 340 22:18 11.11.2019
4561 Clouds 10 1007 81 10000 2.1 350 21:56 11.11.2019
4562 Clouds 11 1007 81 10000 2.1 330 21:38 11.11.2019
4563 Clouds 11 1007 81 10000 2.1 330 21:19 11.11.2019
4564 Clouds 11 1007 81 10000 3.1 320 20:42 11.11.2019
4565 Clouds 11 1007 87 10000 3.1 310 20:20 11.11.2019
4566 Clouds 11 1007 81 10000 2.1 330 19:58 11.11.2019
4567 Clouds 11 1007 81 10000 2.1 330 19:40 11.11.2019
4568 Clouds 11 1007 81 10000 2.6 320 19:18 11.11.2019
4569 Clouds 11 1007 76 10000 2.1 280 18:56 11.11.2019
4570 Clouds 11 1007 76 10000 2.1 280 18:37 11.11.2019
4571 Clouds 11 1007 76 10000 2.6 290 18:19 11.11.2019
4572 Clouds 12 1007 81 10000 1.5 310 17:42 11.11.2019
4573 Clouds 11 1007 81 10000 1.5 0 17:24 11.11.2019
4574 Clouds 12 1007 81 10000 4.1 10 16:43 11.11.2019
4575 Rain 11 1007 87 10000 1 0 16:24 11.11.2019
4576 Rain 11 1007 87 10000 1.5 360 15:59 11.11.2019
4577 Rain 11 1007 87 10000 1.5 360 15:40 11.11.2019
4578 Rain 11 1007 87 10000 2.6 320 15:20 11.11.2019
4579 Rain 11 1007 87 10000 2.6 320 15:19 11.11.2019
4580 Rain 11 1007 87 10000 2.1 340 14:44 11.11.2019
4581 Rain 12 1007 82 10000 3.1 340 14:25 11.11.2019
4582 Rain 12 1007 71 10000 3.6 360 13:58 11.11.2019
4583 Rain 12 1007 71 10000 3.6 360 13:38 11.11.2019
4584 Rain 13 1007 62 10000 6.7 30 13:20 11.11.2019
4585 Rain 14 1007 51 10000 5.1 30 12:58 11.11.2019
4586 Rain 14 1007 51 10000 5.1 30 12:39 11.11.2019
4587 Rain 14 1008 55 10000 4.6 20 12:21 11.11.2019
4588 Rain 14 1008 54 10000 4.6 30 11:43 11.11.2019
4589 Clouds 13 1008 66 10000 2.6 330 11:22 11.11.2019
4590 Clouds 12 1009 71 10000 4.6 330 10:59 11.11.2019
4591 Clouds 12 1009 71 10000 4.6 330 10:41 11.11.2019
4592 Rain 12 1009 66 10000 4.6 330 10:18 11.11.2019
4593 Rain 12 1009 66 10000 4.6 320 09:56 11.11.2019
4594 Rain 12 1009 66 10000 4.6 320 09:37 11.11.2019
4595 Rain 11 1009 62 10000 3.1 350 09:18 11.11.2019
4596 Rain 12 1009 62 10000 6.2 10 08:40 11.11.2019
4597 Clouds 12 1009 58 10000 4.6 10 08:21 11.11.2019
4598 Clouds 11 1009 66 10000 4.6 320 07:56 11.11.2019
4599 Clouds 11 1008 66 10000 5.1 330 07:37 11.11.2019
4600 Clouds 10 1008 66 10000 5.1 330 07:18 11.11.2019
4601 Clouds 11 1008 66 10000 3.6 330 06:46 11.11.2019
4602 Clouds 11 1009 66 10000 3.6 320 06:22 11.11.2019
4603 Clouds 10 1009 66 10000 4.6 330 05:51 11.11.2019
4604 Clouds 11 1009 71 10000 4.6 330 04:29 11.11.2019
4605 Clouds 11 1009 54 10000 7.7 50 03:23 11.11.2019
4606 Clouds 11 1010 66 10000 4.6 30 02:24 11.11.2019
4607 Rain 11 1010 58 10000 7.7 60 01:55 11.11.2019
4608 Rain 11 1010 58 10000 8.2 60 01:34 11.11.2019
4609 Rain 11 1010 67 10000 8.7 60 00:48 11.11.2019
4610 Rain 11 1010 71 10000 13.4 90 00:20 11.11.2019
4611 Rain 10 1010 67 10000 13.4 90 23:39 10.11.2019
4612 Rain 10 1010 67 10000 13.4 90 23:39 10.11.2019
4613 Rain 11 1010 58 10000 7.7 40 23:20 10.11.2019
4614 Rain 11 1010 58 10000 6.7 40 22:58 10.11.2019
4615 Rain 11 1010 58 10000 6.7 40 22:38 10.11.2019
4616 Rain 11 1009 54 10000 9.3 60 22:20 10.11.2019
4617 Rain 11 1009 51 10000 6.2 60 21:58 10.11.2019
4618 Rain 11 1009 51 10000 6.2 60 21:58 10.11.2019
4619 Rain 11 1009 51 10000 6.2 60 21:58 10.11.2019
4620 Rain 11 1009 51 10000 6.2 60 21:40 10.11.2019
4621 Rain 11 1009 58 10000 6.7 60 21:21 10.11.2019
4622 Rain 11 1009 66 10000 8.2 50 20:58 10.11.2019
4623 Rain 12 1008 54 10000 8.7 40 20:38 10.11.2019
4624 Rain 12 1008 54 10000 8.7 40 20:20 10.11.2019
4625 Rain 12 1008 54 10000 11.3 70 19:55 10.11.2019
4626 Rain 12 1008 54 10000 11.3 70 19:37 10.11.2019
4627 Rain 12 1008 51 10000 8.7 50 19:18 10.11.2019
4628 Clouds 12 1007 54 10000 13.4 80 18:55 10.11.2019
4629 Clouds 12 1007 54 10000 13.4 80 18:37 10.11.2019
4630 Clouds 12 1007 55 10000 12.3 70 18:19 10.11.2019
4631 Clouds 12 1007 55 10000 12.3 70 18:19 10.11.2019
4632 Clouds 12 1006 62 10000 15.4 80 17:55 10.11.2019
4633 Clouds 12 1006 62 10000 15.4 80 17:37 10.11.2019
4634 Clouds 12 1007 66 10000 3.1 330 17:19 10.11.2019
4635 -273 0 0 0 0 0 17:19 10.11.2019
4636 Clouds 12 1006 62 10000 4.1 330 16:44 10.11.2019
4637 Clouds 12 1006 51 10000 5.1 50 16:25 10.11.2019
4638 Clouds 13 1006 54 10000 9.8 80 15:57 10.11.2019
4639 Clouds 13 1006 54 10000 9.8 80 15:38 10.11.2019
4640 Clouds 13 1006 55 10000 10.8 80 15:19 10.11.2019
4641 Clouds 13 1006 55 10000 10.8 80 15:19 10.11.2019
4642 Clouds 13 1006 58 10000 10.8 90 14:59 10.11.2019
4643 Clouds 13 1006 58 10000 10.8 90 14:39 10.11.2019
4644 Clouds 13 1006 58 10000 9.8 80 14:21 10.11.2019
4645 Clouds 13 1006 58 10000 10.3 80 13:56 10.11.2019
4646 Clouds 13 1006 58 10000 10.3 80 13:38 10.11.2019
4647 Clouds 13 1007 58 10000 10.3 80 13:19 10.11.2019
4648 Clouds 13 1007 58 10000 9.8 80 12:41 10.11.2019
4649 Clouds 13 1007 62 10000 10.3 80 12:20 10.11.2019
4650 Clouds 12 1008 62 10000 3.1 0 11:57 10.11.2019
4651 Clouds 11 1008 62 10000 4.6 330 11:38 10.11.2019
4652 Clouds 11 1008 62 10000 4.6 330 11:20 10.11.2019
4653 Clouds 11 1007 62 10000 4.1 330 10:55 10.11.2019
4654 Clouds 11 1007 62 10000 4.1 330 10:37 10.11.2019
4655 Clouds 10 1007 66 10000 4.1 320 10:18 10.11.2019
4656 Clouds 10 1007 66 10000 4.6 330 09:41 10.11.2019
4657 Clouds 9 1007 66 10000 3.1 320 09:22 10.11.2019
4658 Clouds 8 1007 71 10000 4.6 340 08:40 10.11.2019
4659 Clouds 8 1007 76 10000 3.6 340 08:21 10.11.2019
4660 Clouds 8 1007 76 10000 4.1 340 07:56 10.11.2019
4661 Clouds 7 1007 76 10000 4.1 340 07:37 10.11.2019
4662 Clouds 7 1006 76 10000 4.6 330 07:18 10.11.2019
4663 Clouds 7 1007 76 10000 3.6 330 06:22 10.11.2019
4664 Rain 7 1007 76 10000 3.1 350 04:45 10.11.2019
4665 Clouds 7 1008 81 10000 3.6 330 02:59 10.11.2019
4666 Thunderstorm 8 1008 87 10000 3.1 330 01:43 10.11.2019
4667 Rain 8 1008 87 10000 3.1 350 01:19 10.11.2019
4668 Rain 8 1008 81 10000 4.1 350 00:37 10.11.2019
4669 Clouds 8 1008 87 10000 4.6 320 23:43 09.11.2019
4670 Rain 9 1009 81 10000 3.1 340 23:20 09.11.2019
4671 Rain 9 1008 87 10000 3.6 330 22:55 09.11.2019
4672 Rain 9 1008 87 10000 3.6 330 22:37 09.11.2019
4673 Clouds 9 1008 81 10000 4.1 330 22:18 09.11.2019
4674 Clouds 9 1009 76 10000 3.1 330 21:55 09.11.2019
4675 Clouds 9 1009 76 10000 3.6 330 21:37 09.11.2019
4676 Clouds 9 1009 76 10000 3.6 330 21:19 09.11.2019
4677 Clouds 10 1009 81 10000 3.6 330 20:41 09.11.2019
4678 Clouds 10 1009 81 10000 3.6 330 20:22 09.11.2019
4679 Clouds 10 1009 81 10000 3.6 320 19:57 09.11.2019
4680 Clouds 10 1009 81 10000 3.6 320 19:36 09.11.2019
4681 Clouds 10 1009 76 10000 2.1 350 19:18 09.11.2019
4682 Clouds 8 1009 71 10000 1 0 18:40 09.11.2019
4683 Clouds 7 1008 67 10000 0.58 267 18:19 09.11.2019
4684 Clouds 8 1008 67 10000 0.58 267 18:19 09.11.2019
4685 Clouds 8 1008 62 10000 0.5 0 17:58 09.11.2019
4686 Clouds 8 1008 62 10000 0.5 0 17:40 09.11.2019
4687 Clouds 12 1008 62 10000 1.5 0 17:21 09.11.2019
4688 Clouds 14 1008 58 10000 1 0 16:42 09.11.2019
4689 Clouds 14 1008 55 10000 2.1 160 16:21 09.11.2019
4690 Clouds 14 1008 55 10000 2.1 150 15:57 09.11.2019
4691 Clouds 14 1008 55 10000 2.1 150 15:39 09.11.2019
4692 Clouds 14 1008 55 10000 2.1 160 15:20 09.11.2019
4693 Clouds 15 1008 55 10000 2.6 160 14:42 09.11.2019
4694 Clouds 12 1008 55 10000 2.6 160 14:42 09.11.2019
4695 Clouds 15 1008 55 10000 2.6 130 14:22 09.11.2019
4696 Clouds 15 1008 63 10000 2.1 120 13:57 09.11.2019
4697 Clouds 15 1008 63 10000 2.1 120 13:38 09.11.2019
4698 Clouds 15 1008 63 10000 3.6 120 13:19 09.11.2019
4699 Clouds 15 1008 59 10000 4.1 100 12:55 09.11.2019
4700 Clouds 15 1008 48 10000 2.1 90 12:37 09.11.2019
4701 Clouds 15 1008 48 10000 2.1 90 12:18 09.11.2019
4702 Clouds 14 1009 51 10000 2.1 320 11:44 09.11.2019
4703 Clouds 10 1009 54 10000 4.6 330 11:20 09.11.2019
4704 Clouds 12 1009 58 10000 5.7 330 10:42 09.11.2019
4705 Clouds 11 1008 57 10000 4.1 320 10:20 09.11.2019
4706 Clouds 10 1008 61 10000 5.1 330 10:00 09.11.2019
4707 Clouds 10 1008 61 10000 5.1 330 09:41 09.11.2019
4708 Clouds 9 1008 61 10000 5.1 330 09:20 09.11.2019
4709 Clouds 8 1007 66 10000 5.1 350 08:43 09.11.2019
4710 Clouds 8 1007 66 10000 4.1 340 08:25 09.11.2019
4711 Clouds 7 1007 66 10000 4.6 340 07:55 09.11.2019
4712 Clouds 7 1007 66 10000 4.6 340 07:37 09.11.2019
4713 Clouds 7 1006 66 10000 3.6 330 07:19 09.11.2019
4714 Rain 7 1006 66 10000 4.6 350 06:43 09.11.2019
4715 Rain 7 1006 61 10000 4.6 340 06:25 09.11.2019
4716 Clouds 7 1006 66 10000 5.1 330 05:40 09.11.2019
4717 Clouds 7 1005 66 10000 5.7 330 04:29 09.11.2019
4718 Clouds 8 1005 66 10000 6.2 330 02:52 09.11.2019
4719 Clouds 8 1005 66 10000 6.2 330 02:34 09.11.2019
4720 Clouds 7 1004 66 10000 2.6 340 01:18 09.11.2019
4721 Clouds 8 1004 66 10000 5.1 330 00:41 09.11.2019
4722 Clouds 7 1004 66 10000 5.1 330 00:22 09.11.2019
4723 Clouds 8 1004 66 10000 5.1 310 23:41 08.11.2019
4724 Clouds 8 1004 62 10000 5.7 320 23:22 08.11.2019
4725 Clouds 9 1004 66 10000 3.1 330 22:59 08.11.2019
4726 Clouds 9 1004 66 10000 3.1 330 22:40 08.11.2019
4727 Clouds 9 1004 71 10000 2.6 350 22:21 08.11.2019
4728 Clouds 9 1003 71 10000 3.1 340 21:42 08.11.2019
4729 Clouds 9 1003 76 10000 3.6 340 21:24 08.11.2019
4730 Clouds 9 1003 76 10000 3.6 340 20:58 08.11.2019
4731 Clouds 10 1002 76 10000 2.6 320 20:40 08.11.2019
4732 Clouds 10 1002 76 10000 2.6 320 20:20 08.11.2019
4733 Clouds 10 1002 71 10000 1.5 270 19:55 08.11.2019
4734 Clouds 10 1002 71 10000 1.5 270 19:37 08.11.2019
4735 Clouds 10 1002 71 10000 1.5 270 19:37 08.11.2019
4736 Clouds 10 1002 66 10000 5.1 260 19:18 08.11.2019
4737 Clouds 10 1002 66 10000 5.1 260 19:18 08.11.2019
4738 Clouds 8 1002 62 10000 5.7 240 18:55 08.11.2019
4739 Clouds 7 1002 62 10000 4.6 240 18:36 08.11.2019
4740 Clouds 7 1002 62 10000 4.6 240 18:18 08.11.2019
4741 Clouds 8 1001 58 10000 4.1 250 17:55 08.11.2019
4742 Clouds 8 1001 54 10000 4.1 230 17:36 08.11.2019
4743 Clouds 12 1001 54 10000 4.1 230 17:18 08.11.2019
4744 Clouds 13 1001 54 10000 6.2 230 16:57 08.11.2019
4745 Clouds 14 1001 54 10000 6.2 230 16:38 08.11.2019
4746 Clouds 14 1000 51 10000 3.1 220 16:18 08.11.2019
4747 Clouds 14 1000 54 10000 2.6 210 15:54 08.11.2019
4748 Clouds 15 1000 55 10000 3.1 240 15:36 08.11.2019
4749 Clouds 14 1000 55 10000 3.1 240 15:18 08.11.2019
4750 Clouds 15 1000 55 10000 3.6 250 14:54 08.11.2019
4751 Clouds 15 1000 55 10000 3.6 250 14:36 08.11.2019
4752 Clouds 15 1000 62 10000 5.1 240 14:18 08.11.2019
4753 Clouds 14 1000 58 10000 5.1 230 13:42 08.11.2019
4754 Clouds 14 1000 62 10000 3.6 240 13:22 08.11.2019
4755 Clouds 14 1001 62 10000 2.1 250 12:49 08.11.2019
4756 Clouds 14 1001 62 10000 2.1 250 12:49 08.11.2019
4757 Clouds 14 1001 67 10000 2.1 230 12:29 08.11.2019
4758 Clouds 14 1001 62 10000 1.5 220 11:59 08.11.2019
4759 Clouds 14 1001 62 10000 1.5 220 11:41 08.11.2019
4760 Clouds 14 1001 58 10000 6.35 249 11:22 08.11.2019
4761 Clouds 14 1001 67 10000 0.5 0 10:59 08.11.2019
4762 Clouds 14 1001 67 10000 0.5 0 10:41 08.11.2019
4763 Clouds 13 1001 67 10000 2.1 310 10:22 08.11.2019
4764 Clouds 13 1001 67 10000 2.1 350 09:58 08.11.2019
4765 Clouds 13 1001 67 10000 2.1 350 09:38 08.11.2019
4766 Clouds 11 1001 76 10000 2.1 340 09:19 08.11.2019
4767 Clouds 10 1001 81 10000 2.6 310 08:46 08.11.2019
4768 Clouds 9 1001 81 10000 4.1 330 08:23 08.11.2019
4769 Clouds 9 1000 81 10000 3.1 320 07:56 08.11.2019
4770 Clouds 9 1000 81 10000 2.6 300 07:38 08.11.2019
4771 Clouds 9 1000 81 10000 2.6 300 07:19 08.11.2019
4772 Clouds 10 1000 81 10000 4.1 330 06:38 08.11.2019
4773 Clouds 10 1000 81 10000 4.1 330 06:20 08.11.2019
4774 Clouds 10 1000 81 10000 3.6 320 05:38 08.11.2019
4775 Rain 10 1001 100 10000 1 0 04:43 08.11.2019
4776 Rain 10 1001 81 10000 3.1 320 03:43 08.11.2019
4777 Rain 10 1001 81 10000 4.1 330 03:19 08.11.2019
4778 Rain 10 1001 81 10000 2.6 340 02:26 08.11.2019
4779 Rain 10 1002 81 10000 4.6 320 01:46 08.11.2019
4780 Clouds 11 1002 76 10000 4.6 320 00:59 08.11.2019
4781 Clouds 7 1002 81 10000 4.6 320 00:24 08.11.2019
4782 Clouds 11 1002 81 10000 4.6 330 23:57 07.11.2019
4783 Clouds 11 1002 81 10000 4.6 330 23:39 07.11.2019
4784 Clouds 11 1003 81 10000 4.6 330 23:20 07.11.2019
4785 Clouds 11 1003 81 10000 4.1 330 22:42 07.11.2019
4786 Clouds 12 1004 76 10000 4.1 330 22:21 07.11.2019
4787 Clouds 12 1004 76 10000 3.6 330 21:56 07.11.2019
4788 Clouds 12 1004 76 10000 3.6 340 21:37 07.11.2019
4789 Clouds 12 1004 76 10000 3.6 340 21:19 07.11.2019
4790 Clouds 12 1004 76 10000 2.6 340 20:56 07.11.2019
4791 Clouds 12 1004 76 10000 2.6 340 20:38 07.11.2019
4792 Clouds 12 1004 76 10000 2.6 10 20:20 07.11.2019
4793 Clouds 12 1004 76 10000 3.6 10 19:54 07.11.2019
4794 Clouds 12 1004 76 10000 3.6 10 19:36 07.11.2019
4795 Rain 12 1004 76 10000 3.6 30 19:18 07.11.2019
4796 Clouds 12 1004 76 10000 2.6 350 18:55 07.11.2019
4797 Clouds 12 1004 76 10000 2.6 350 18:36 07.11.2019
4798 Thunderstorm 12 1004 76 10000 3.6 330 18:18 07.11.2019
4799 Thunderstorm 9 1004 82 10000 3.1 350 17:40 07.11.2019
4800 Thunderstorm 9 1004 82 10000 3.1 350 17:40 07.11.2019
4801 Rain 12 1005 76 10000 3.6 340 17:21 07.11.2019
4802 Rain 13 1005 71 10000 3.6 320 16:58 07.11.2019
4803 Rain 13 1005 71 10000 3.6 320 16:40 07.11.2019
4804 Rain 14 1005 58 10000 2.6 330 16:20 07.11.2019
4805 Rain 14 1005 55 10000 2.1 330 15:57 07.11.2019
4806 Rain 14 1005 55 10000 2.1 330 15:57 07.11.2019
4807 Rain 14 1005 55 10000 2.1 330 15:38 07.11.2019
4808 Rain 14 1005 67 10000 2.1 210 15:19 07.11.2019
4809 Rain 14 1005 67 10000 2.1 210 15:19 07.11.2019
4810 Clouds 15 1006 63 10000 3.1 210 14:45 07.11.2019
4811 Clouds 15 1006 59 10000 1 0 14:27 07.11.2019
4812 Clouds 15 1006 59 10000 2.1 280 13:57 07.11.2019
4813 Clouds 15 1006 59 10000 2.1 280 13:39 07.11.2019
4814 Clouds 15 1006 59 10000 2.6 290 13:20 07.11.2019
4815 Clouds 15 1006 54 10000 2.6 320 12:58 07.11.2019
4816 Clouds 15 1006 54 10000 2.6 320 12:40 07.11.2019
4817 Clouds 15 1007 51 10000 2.6 320 12:21 07.11.2019
4818 Clouds 15 1007 51 10000 3.1 310 11:59 07.11.2019
4819 Clouds 15 1007 51 10000 3.1 310 11:40 07.11.2019
4820 Clouds 15 1007 47 10000 2.1 300 11:21 07.11.2019
4821 Clouds 14 1007 54 10000 3.6 330 10:41 07.11.2019
4822 Clouds 13 1007 54 10000 3.1 300 10:19 07.11.2019
4823 Clouds 12 1007 62 10000 5.7 330 09:44 07.11.2019
4824 Clouds 11 1007 62 10000 5.1 320 09:23 07.11.2019
4825 Clouds 10 1007 66 10000 5.1 330 08:57 07.11.2019
4826 Clouds 10 1007 66 10000 5.1 330 08:57 07.11.2019
4827 Clouds 10 1007 66 10000 5.1 330 08:38 07.11.2019
4828 Clouds 9 1007 66 10000 6.7 320 08:19 07.11.2019
4829 Clouds 9 1007 66 10000 6.7 320 08:19 07.11.2019
4830 Clouds 9 1007 66 10000 6.7 320 08:19 07.11.2019
4831 Clouds 8 1006 66 10000 6.2 320 07:42 07.11.2019
4832 Clouds 8 1006 66 10000 5.1 330 07:22 07.11.2019
4833 Clouds 8 1006 66 10000 4.6 330 07:00 07.11.2019
4834 -273 0 0 0 0 0 06:41 07.11.2019
4835 -273 0 0 0 0 0 06:41 07.11.2019
4836 Clouds 8 1006 66 10000 4.6 330 06:41 07.11.2019
4837 Clouds 8 1006 66 10000 4.6 330 06:22 07.11.2019
4838 Clouds 8 1006 81 10000 1.5 0 05:47 07.11.2019
4839 Clear 8 1006 81 10000 1.5 0 05:29 07.11.2019
4840 Clouds 8 1006 71 10000 4.6 330 04:49 07.11.2019
4841 Clouds 9 1006 66 10000 4.1 330 04:27 07.11.2019
4842 Clear 10 1006 71 10000 3.6 340 01:18 07.11.2019
4843 Clear 10 1006 66 10000 4.1 330 00:26 07.11.2019
4844 Clouds 10 1006 71 10000 3.1 340 23:49 06.11.2019
4845 Clouds 10 1006 71 10000 5.1 330 23:23 06.11.2019
4846 Clouds 10 1006 71 10000 5.7 320 22:59 06.11.2019
4847 Clouds 11 1006 71 10000 5.7 320 22:39 06.11.2019
4848 Clear 11 1006 71 10000 3.1 340 22:20 06.11.2019
4849 Clouds 11 1006 66 10000 5.1 330 21:57 06.11.2019
4850 Clouds 11 1006 66 10000 5.1 330 21:38 06.11.2019
4851 Clouds 11 1005 66 10000 5.1 320 21:19 06.11.2019
4852 Clouds 6 1005 71 10000 3.6 320 20:56 06.11.2019
4853 Clouds 7 1005 76 10000 4.6 320 20:38 06.11.2019
4854 Clouds 11 1005 76 10000 4.6 320 20:19 06.11.2019
4855 Clouds 12 1005 67 10000 3.6 30 19:55 06.11.2019
4856 Clouds 12 1005 67 10000 4.1 90 19:36 06.11.2019
4857 Clouds 12 1005 67 10000 4.1 90 19:18 06.11.2019
4858 Clouds 7 1004 67 10000 4.6 90 18:54 06.11.2019
4859 Clouds 7 1004 63 10000 6.2 90 18:36 06.11.2019
4860 Clouds 7 1004 63 10000 6.2 90 18:18 06.11.2019
4861 Clouds 8 1004 59 10000 5.1 90 17:41 06.11.2019
4862 Clouds 14 1003 55 10000 4.1 90 17:23 06.11.2019
4863 Clouds 15 1003 51 10000 2.6 90 16:57 06.11.2019
4864 Clouds 15 1003 51 10000 2.6 90 16:39 06.11.2019
4865 Clouds 16 1003 51 10000 2.1 100 16:20 06.11.2019
4866 Clouds 16 1002 51 10000 1 0 15:57 06.11.2019
4867 Clouds 16 1002 51 10000 1 0 15:37 06.11.2019
4868 Clouds 17 1002 52 10000 1 0 15:19 06.11.2019
4869 Clouds 17 1002 52 10000 1 0 14:57 06.11.2019
4870 Clouds 17 1002 52 10000 1 0 14:39 06.11.2019
4871 Clouds 17 1002 52 10000 1 0 14:20 06.11.2019
4872 Clouds 17 1002 48 10000 1.5 0 13:58 06.11.2019
4873 Clouds 17 1002 48 10000 1.5 0 13:37 06.11.2019
4874 Clouds 17 1002 48 10000 0.5 0 13:18 06.11.2019
4875 Clouds 17 1002 48 10000 0.5 0 13:18 06.11.2019
4876 Clouds 17 1002 48 10000 2.1 240 12:55 06.11.2019
4877 Clouds 17 1002 48 10000 2.1 240 12:37 06.11.2019
4878 Clouds 16 1002 55 10000 1.5 0 12:18 06.11.2019
4879 Clouds 15 1002 58 10000 3.1 260 11:55 06.11.2019
4880 Clouds 15 1002 62 10000 4.1 240 11:36 06.11.2019
4881 Clouds 15 1002 62 10000 4.1 240 11:18 06.11.2019
4882 Clouds 14 1002 66 10000 3.6 240 10:42 06.11.2019
4883 Clouds 13 1001 62 10000 2.6 250 10:24 06.11.2019
4884 Clouds 13 1001 62 10000 2.6 250 10:24 06.11.2019
4885 Clouds 12 1001 71 10000 2.1 260 09:58 06.11.2019
4886 Clouds 12 1001 71 10000 2.1 260 09:40 06.11.2019
4887 Clouds 11 1001 71 10000 2.6 270 09:20 06.11.2019
4888 Clouds 11 1001 71 10000 3.6 290 08:56 06.11.2019
4889 Clouds 11 1001 71 10000 3.6 290 08:37 06.11.2019
4890 Clouds 11 1001 71 10000 3.1 280 08:18 06.11.2019
4891 Clouds 11 1001 71 10000 3.1 280 08:18 06.11.2019
4892 Clouds 10 1000 76 10000 3.1 290 07:45 06.11.2019
4893 Clouds 10 1000 71 10000 1.5 280 07:27 06.11.2019
4894 Clouds 9 1000 76 10000 2.6 300 06:52 06.11.2019
4895 Clouds 9 1000 66 10000 4.6 260 06:34 06.11.2019
4896 Clouds 9 1000 66 10000 1.5 300 05:51 06.11.2019
4897 Clear 10 1001 71 10000 3.6 280 03:38 06.11.2019
4898 Clear 10 1001 66 10000 4.6 300 01:42 06.11.2019
4899 Clear 10 1001 66 10000 7.7 250 00:48 06.11.2019
4900 Clear 11 1001 66 10000 6.2 250 00:25 06.11.2019
4901 Clear 11 1001 66 10000 6.2 270 23:41 05.11.2019
4902 Clear 11 1001 66 10000 10.8 250 23:22 05.11.2019
4903 Clear 11 1001 67 10000 11.3 250 22:59 05.11.2019
4904 Clear 11 1001 67 10000 11.3 250 22:41 05.11.2019
4905 Clear 12 1001 62 10000 9.8 250 22:19 05.11.2019
4906 Clear 11 1001 66 10000 8.7 270 21:55 05.11.2019
4907 Clear 11 1001 66 10000 8.7 270 21:37 05.11.2019
4908 Clear 12 1000 62 10000 8.2 270 21:19 05.11.2019
4909 Clear 12 1000 62 10000 11.8 250 20:56 05.11.2019
4910 Clear 12 999 62 10000 11.3 260 20:37 05.11.2019
4911 Clear 12 999 62 10000 11.3 260 20:19 05.11.2019
4912 Clear 13 999 58 10000 12.3 250 19:42 05.11.2019
4913 Clear 13 999 62 10000 12.3 250 19:23 05.11.2019
4914 Clear 13 998 58 10000 12.3 250 18:58 05.11.2019
4915 Clear 9 998 58 10000 12.3 250 18:40 05.11.2019
4916 Clear 10 998 59 10000 13.9 250 18:21 05.11.2019
4917 Clouds 10 997 59 10000 13.9 250 17:59 05.11.2019
4918 Clouds 12 997 59 10000 13.9 250 17:39 05.11.2019
4919 Clouds 15 997 55 10000 11.8 240 17:21 05.11.2019
4920 Clouds 16 997 55 10000 11.3 240 16:58 05.11.2019
4921 Clouds 16 997 55 10000 11.3 240 16:40 05.11.2019
4922 Clouds 16 997 55 10000 9.8 230 16:20 05.11.2019
4923 Clouds 16 997 55 10000 9.8 230 15:41 05.11.2019
4924 Clouds 14 997 52 10000 9.3 220 15:20 05.11.2019
4925 Clouds 18 996 45 10000 9.3 250 14:59 05.11.2019
4926 Clouds 18 996 45 10000 9.3 250 14:41 05.11.2019
4927 Clouds 18 996 52 10000 9.3 250 14:22 05.11.2019
4928 Clouds 17 996 52 10000 9.8 240 13:58 05.11.2019
4929 Clouds 17 996 52 10000 9.8 240 13:40 05.11.2019
4930 Clouds 18 997 59 10000 8.7 240 13:22 05.11.2019
4931 Clouds 17 997 63 10000 6.7 230 12:41 05.11.2019
4932 Clouds 17 998 59 10000 3.1 230 12:22 05.11.2019
4933 Clouds 17 998 63 10000 4.1 230 11:58 05.11.2019
4934 Clouds 17 998 63 10000 3.6 230 11:39 05.11.2019
4935 Clouds 16 998 63 10000 3.6 230 11:20 05.11.2019
4936 Clouds 15 998 67 10000 3.1 240 10:56 05.11.2019
4937 Clouds 16 998 67 10000 3.1 240 10:56 05.11.2019
4938 Clouds 15 998 67 10000 3.1 240 10:38 05.11.2019
4939 Clouds 15 998 72 10000 3.6 260 10:19 05.11.2019
4940 Clouds 14 999 72 10000 3.1 260 09:55 05.11.2019
4941 Clouds 14 999 72 10000 3.1 260 09:36 05.11.2019
4942 Clouds 14 999 76 10000 1.5 260 09:18 05.11.2019
4943 Clouds 13 999 87 10000 2.6 280 08:38 05.11.2019
4944 Clouds 13 998 93 10000 2.6 290 08:19 05.11.2019
4945 Clouds 13 998 87 10000 1.5 330 07:57 05.11.2019
4946 Rain 12 998 82 10000 2.6 280 07:38 05.11.2019
4947 Rain 13 998 82 10000 2.6 280 07:19 05.11.2019
4948 Rain 13 999 82 10000 2.1 280 06:46 05.11.2019
4949 Clouds 13 998 82 10000 3.1 260 05:51 05.11.2019
4950 Clouds 14 998 82 10000 1 0 05:22 05.11.2019
4951 Clouds 14 998 82 10000 2.1 320 04:25 05.11.2019
4952 Clouds 13 998 82 10000 2.6 300 03:49 05.11.2019
4953 Clouds 13 998 76 10000 4.1 320 02:44 05.11.2019
4954 Clouds 13 999 82 10000 3.1 290 01:59 05.11.2019
4955 Clouds 13 999 76 10000 4.1 310 00:52 05.11.2019
4956 Clouds 11 999 82 10000 3.6 330 00:30 05.11.2019
4957 Clouds 11 999 82 10000 3.1 300 23:56 04.11.2019
4958 Clouds 14 999 82 10000 3.1 300 23:37 04.11.2019
4959 Clouds 14 1000 77 10000 3.6 320 23:18 04.11.2019
4960 Clouds 14 1000 77 10000 4.1 320 22:41 04.11.2019
4961 Clouds 15 1000 77 10000 3.6 320 22:23 04.11.2019
4962 Clouds 15 1000 82 10000 4.1 320 21:56 04.11.2019
4963 Clouds 13 1000 82 10000 4.1 320 21:56 04.11.2019
4964 Clouds 12 1000 82 10000 4.1 320 21:38 04.11.2019
4965 Clouds 13 1000 77 10000 3.6 260 21:19 04.11.2019
4966 Clouds 13 1000 77 10000 3.6 260 20:59 04.11.2019
4967 Clouds 15 1000 77 10000 3.6 260 20:39 04.11.2019
4968 Clouds 15 1001 77 10000 2.6 270 20:21 04.11.2019
4969 Clouds 16 1000 77 10000 4.1 260 19:59 04.11.2019
4970 Clouds 16 1000 77 10000 4.1 260 19:41 04.11.2019
4971 Clouds 16 1000 82 10000 4.6 270 19:21 04.11.2019
4972 Clouds 14 1000 77 10000 4.6 270 18:57 04.11.2019
4973 Clouds 13 1000 77 10000 4.6 270 18:39 04.11.2019
4974 Clouds 14 1000 72 10000 5.7 230 18:19 04.11.2019
4975 Clouds 15 1000 72 10000 7.2 250 17:41 04.11.2019
4976 Clouds 18 1000 64 10000 6.7 240 17:22 04.11.2019
4977 Clouds 19 1000 64 10000 7.7 240 16:59 04.11.2019
4978 Clouds 18 1000 64 10000 7.7 240 16:41 04.11.2019
4979 Clouds 19 1000 60 10000 8.2 230 16:23 04.11.2019
4980 Clouds 19 1000 60 10000 9.8 230 15:57 04.11.2019
4981 Clouds 19 1000 60 10000 9.8 230 15:39 04.11.2019
4982 Clouds 19 999 60 10000 9.3 230 15:19 04.11.2019
4983 Clouds 19 999 68 10000 11.3 230 14:57 04.11.2019
4984 Clouds 19 999 68 10000 11.3 230 14:39 04.11.2019
4985 Clouds 19 999 68 10000 10.3 230 14:19 04.11.2019
4986 Clouds 20 999 60 10000 9.8 240 13:56 04.11.2019
4987 Clouds 19 999 64 10000 10.8 250 13:38 04.11.2019
4988 Clouds 19 999 64 10000 10.8 250 13:19 04.11.2019
4989 Clouds 19 1000 63 10000 12.3 240 12:44 04.11.2019
4990 Clouds 19 1000 63 10000 10.8 240 12:25 04.11.2019
4991 Clouds 18 1001 68 10000 7.7 220 11:58 04.11.2019
4992 Clouds 18 1001 68 10000 7.7 220 11:40 04.11.2019
4993 Clouds 15 1001 68 10000 10.8 240 11:21 04.11.2019
4994 Clouds 15 1001 59 10000 9.8 240 10:47 04.11.2019
4995 Clouds 15 1001 59 10000 11.8 240 10:26 04.11.2019
4996 Clouds 16 1001 63 10000 11.3 230 09:56 04.11.2019
4997 Clouds 16 1001 63 10000 11.3 230 09:38 04.11.2019
4998 Clouds 16 1000 59 10000 11.8 230 09:19 04.11.2019
4999 Clouds 15 1000 63 10000 9.3 230 08:42 04.11.2019
5000 Clouds 14 1000 67 10000 2.6 300 08:23 04.11.2019
5001 Clouds 14 1000 67 10000 2.6 300 08:23 04.11.2019
5002 Clouds 13 999 71 10000 5.1 310 07:59 04.11.2019
5003 Clouds 13 999 71 10000 5.1 310 07:41 04.11.2019
5004 Clouds 13 999 66 10000 4.6 310 07:19 04.11.2019
5005 Clear 13 998 62 10000 5.1 270 06:47 04.11.2019
5006 Clear 14 998 62 10000 5.1 270 06:18 04.11.2019
5007 Clear 13 997 62 10000 4.1 290 05:32 04.11.2019
5008 Clear 13 997 62 10000 2.1 340 04:34 04.11.2019
5009 Clear 13 996 54 10000 2.1 20 03:42 04.11.2019
5010 Clear 14 996 62 10000 4.1 280 01:38 04.11.2019
5011 Clear 14 996 59 10000 4.6 260 01:18 04.11.2019
5012 Clear 11 995 59 10000 6.7 250 00:39 04.11.2019
5013 Clear 11 995 59 10000 8.2 240 00:19 04.11.2019
5014 Clear 11 995 59 10000 9.8 250 23:40 03.11.2019
5015 Clear 11 995 59 10000 8.2 250 23:20 03.11.2019
5016 Clear 14 995 59 10000 10.3 250 22:57 03.11.2019
5017 Clear 14 995 59 10000 10.3 250 22:39 03.11.2019
5018 Clear 14 994 59 10000 10.8 250 22:19 03.11.2019
5019 Clear 11 994 59 10000 10.8 250 21:44 03.11.2019
5020 Clear 12 993 45 10000 8.7 280 21:22 03.11.2019
5021 Clear 12 992 48 10000 7.2 270 20:59 03.11.2019
5022 Clear 15 992 48 10000 7.2 270 20:38 03.11.2019
5023 Clouds 15 992 48 10000 4.6 270 20:20 03.11.2019
5024 Clouds 15 992 55 10000 6.2 260 19:58 03.11.2019
5025 Clouds 15 992 55 10000 6.2 260 19:39 03.11.2019
5026 Clouds 15 991 51 10000 5.7 280 19:21 03.11.2019
5027 Clouds 15 990 52 10000 5.1 280 18:59 03.11.2019
5028 Clouds 15 990 52 10000 5.1 280 18:38 03.11.2019
5029 Clouds 15 990 48 10000 8.7 270 18:18 03.11.2019
5030 Clouds 15 989 59 10000 6.7 270 17:56 03.11.2019
5031 Clouds 15 989 59 10000 6.7 270 17:37 03.11.2019
5032 Clouds 16 989 59 10000 10.3 250 17:18 03.11.2019
5033 Clouds 16 989 63 10000 11.3 260 16:54 03.11.2019
5034 Clouds 18 988 55 10000 10.8 250 16:36 03.11.2019
5035 Clouds 17 988 55 10000 10.8 250 16:18 03.11.2019
5036 Clouds 17 988 68 10000 9.8 230 15:45 03.11.2019
5037 Clouds 17 988 68 10000 8.7 210 15:25 03.11.2019
5038 Clouds 18 987 68 10000 6.7 210 14:57 03.11.2019
5039 Clouds 18 987 68 10000 6.7 210 14:38 03.11.2019
5040 Clouds 19 987 43 10000 5.1 290 14:18 03.11.2019
5041 Clouds 19 988 49 10000 6.2 310 13:44 03.11.2019
5042 Clouds 18 988 72 10000 5.1 270 13:21 03.11.2019
5043 Clouds 18 989 77 10000 4.1 240 12:59 03.11.2019
5044 Clouds 17 989 77 10000 4.1 240 12:37 03.11.2019
5045 Clouds 17 989 88 10000 1.5 310 12:19 03.11.2019
5046 Clouds 16 990 93 10000 1.5 10 11:54 03.11.2019
5047 Clouds 16 990 93 10000 1.5 10 11:36 03.11.2019
5048 Rain 16 990 93 10000 1 0 11:18 03.11.2019
5049 Clouds 16 991 93 10000 1.5 330 10:40 03.11.2019
5050 Clouds 16 991 93 10000 1.5 330 10:22 03.11.2019
5051 Clouds 16 991 93 10000 1.5 330 10:22 03.11.2019
5052 Clouds 16 991 93 10000 1.5 330 10:22 03.11.2019
5053 Clouds 15 991 93 10000 2.6 340 09:57 03.11.2019
5054 Clouds 15 991 93 10000 2.6 340 09:39 03.11.2019
5055 Clouds 15 991 93 10000 2.6 340 09:39 03.11.2019
5056 Thunderstorm 15 992 87 10000 3.6 280 09:21 03.11.2019
5057 Thunderstorm 15 992 87 8000 3.1 350 08:42 03.11.2019
5058 Clouds 15 992 87 10000 3.6 340 08:24 03.11.2019
5059 Rain 15 993 93 10000 4.1 310 07:46 03.11.2019
5060 Thunderstorm 15 993 93 5000 2.6 340 07:28 03.11.2019
5061 Thunderstorm 15 994 87 6000 2.6 330 06:52 03.11.2019
5062 Thunderstorm 15 994 87 10000 2.6 350 06:33 03.11.2019
5063 Thunderstorm 15 995 93 10000 0.5 0 05:40 03.11.2019
5064 Thunderstorm 15 995 93 10000 4.6 330 04:58 03.11.2019
5065 Thunderstorm 15 995 93 10000 4.6 330 04:37 03.11.2019
5066 Thunderstorm 15 996 93 2000 5.7 330 03:38 03.11.2019
5067 Thunderstorm 16 996 93 8000 8.7 130 02:45 03.11.2019
5068 Rain 15 998 93 9000 8.2 110 02:20 03.11.2019
5069 Rain 15 999 88 9000 8.2 100 01:42 03.11.2019
5070 Rain 15 999 88 9000 8.2 100 01:20 03.11.2019
5071 Rain 15 1000 88 10000 8.7 100 00:45 03.11.2019
5072 Clouds 15 1001 82 10000 7.7 100 00:27 03.11.2019
5073 Clouds 15 1001 82 10000 7.2 100 23:58 02.11.2019
5074 Clouds 15 1001 82 10000 7.2 100 23:38 02.11.2019
5075 Clouds 15 1002 82 10000 5.1 100 23:19 02.11.2019
5076 Clouds 15 1002 82 10000 5.1 100 23:19 02.11.2019
5077 Clouds 15 1002 88 10000 5.7 100 22:56 02.11.2019
5078 Clouds 15 1003 88 10000 5.1 100 22:37 02.11.2019
5079 Clouds 15 1003 88 10000 5.1 100 22:19 02.11.2019
5080 Clouds 15 1003 88 10000 5.1 100 22:19 02.11.2019
5081 Clouds 15 1003 82 10000 4.1 80 21:56 02.11.2019
5082 Clouds 15 1003 82 10000 4.1 80 21:38 02.11.2019
5083 Clouds 15 1003 82 10000 4.1 80 21:18 02.11.2019
5084 Clouds 15 1003 82 10000 4.1 80 21:18 02.11.2019
5085 Clouds 15 1003 82 10000 4.1 70 20:59 02.11.2019
5086 Clouds 15 1003 82 10000 4.1 70 20:39 02.11.2019
5087 Clouds 15 1003 82 10000 5.1 70 20:20 02.11.2019
5088 Clouds 15 1004 82 10000 6.2 80 19:55 02.11.2019
5089 Clouds 15 1004 82 10000 6.2 90 19:36 02.11.2019
5090 Clouds 15 1004 82 10000 6.2 90 19:18 02.11.2019
5091 Clouds 15 1004 82 10000 6.2 90 19:18 02.11.2019
5092 Clouds 15 1004 82 10000 6.2 90 18:42 02.11.2019
5093 Clouds 15 1004 82 10000 5.1 100 18:24 02.11.2019
5094 Clouds 15 1004 82 10000 6.2 100 17:59 02.11.2019
5095 Clouds 15 1004 82 10000 6.2 100 17:40 02.11.2019
5096 Clouds 15 1004 82 10000 5.7 100 17:22 02.11.2019
5097 Clouds 16 1004 82 10000 5.1 100 16:58 02.11.2019
5098 Clouds 16 1004 88 10000 5.1 100 16:38 02.11.2019
5099 Clouds 16 1004 88 10000 5.1 100 16:20 02.11.2019
5100 Rain 16 1004 88 10000 5.1 100 15:42 02.11.2019
5101 Clouds 16 1004 82 10000 4.6 100 15:20 02.11.2019
5102 Clouds 17 1005 82 10000 4.1 100 14:56 02.11.2019
5103 Clouds 16 1005 82 10000 4.1 100 14:38 02.11.2019
5104 Clouds 16 1005 82 10000 4.1 110 14:20 02.11.2019
5105 Clouds 16 1005 82 10000 5.1 110 13:40 02.11.2019
5106 Clouds 17 1005 82 10000 4.1 110 13:20 02.11.2019
5107 Clouds 17 1006 82 10000 3.1 90 12:57 02.11.2019
5108 Clouds 17 1006 82 10000 2.1 80 12:38 02.11.2019
5109 Clouds 17 1006 82 10000 2.1 80 12:19 02.11.2019
5110 Clouds 17 1006 82 10000 2.1 80 11:42 02.11.2019
5111 Clouds 16 1007 82 10000 2.1 100 11:24 02.11.2019
5112 Clouds 16 1007 82 10000 2.1 110 10:57 02.11.2019
5113 Clouds 16 1007 82 10000 2.1 110 10:39 02.11.2019
5114 Clouds 16 1007 87 10000 2.1 40 10:20 02.11.2019
5115 Clouds 15 1007 93 10000 2.1 10 09:43 02.11.2019
5116 Clouds 14 1008 93 10000 1 20 09:22 02.11.2019
5117 Rain 14 1008 93 9000 2.1 310 08:55 02.11.2019
5118 Rain 14 1008 93 9000 1 0 08:37 02.11.2019
5119 Rain 14 1008 93 9000 1 0 08:18 02.11.2019
5120 Clouds 13 1007 93 10000 1.5 350 07:44 02.11.2019
5121 Rain 13 1008 93 10000 2.6 290 07:25 02.11.2019
5122 Rain 13 1008 93 10000 1 310 06:52 02.11.2019
5123 Rain 13 1008 93 10000 1.5 300 06:24 02.11.2019
5124 Clouds 13 1008 100 8000 4.7 225 05:44 02.11.2019
5125 Clouds 13 1009 87 10000 3.1 320 04:26 02.11.2019
5126 Clouds 14 1010 93 10000 2.1 330 03:59 02.11.2019
5127 Clouds 14 1010 93 10000 2.6 330 03:31 02.11.2019
5128 Rain 14 1011 87 10000 2.1 330 02:31 02.11.2019
5129 Clouds 14 1011 82 10000 1 330 01:36 02.11.2019
5130 Clouds 14 1011 82 10000 1 330 01:18 02.11.2019
5131 Clouds 14 1012 82 10000 1 320 00:42 02.11.2019
5132 Clouds 14 1012 82 10000 1 350 00:22 02.11.2019
5133 Clouds 15 1012 77 10000 1.5 0 23:42 01.11.2019
5134 Clouds 15 1012 77 10000 1 0 23:20 01.11.2019
5135 Clouds 15 1013 77 10000 1.5 100 22:43 01.11.2019
5136 Clouds 15 1013 77 10000 6.14 214 22:21 01.11.2019
5137 Clouds 15 1013 77 10000 1.5 0 21:56 01.11.2019
5138 Clouds 15 1013 77 10000 2.6 290 21:38 01.11.2019
5139 Clouds 15 1013 77 10000 2.6 290 21:19 01.11.2019
5140 Clouds 15 1013 77 10000 2.6 280 20:42 01.11.2019
5141 Clouds 15 1013 77 10000 3.1 270 20:24 01.11.2019
5142 Clouds 15 1013 77 10000 3.1 290 19:59 01.11.2019
5143 Clouds 15 1013 77 10000 3.1 290 19:41 01.11.2019
5144 Clouds 16 1013 72 10000 5.7 230 19:22 01.11.2019
5145 Clouds 16 1014 72 10000 6.2 220 18:57 01.11.2019
5146 Clouds 16 1014 72 10000 6.2 220 18:38 01.11.2019
5147 Clouds 16 1013 77 10000 6.2 210 18:18 01.11.2019
5148 Clouds 16 1013 77 10000 7.2 210 17:41 01.11.2019
5149 Clouds 16 1014 82 10000 7.2 200 17:23 01.11.2019
5150 Clouds 16 1014 77 10000 6.7 200 16:58 01.11.2019
5151 Clouds 16 1014 77 10000 6.7 200 16:36 01.11.2019
5152 Clouds 16 1014 77 10000 6.7 200 16:36 01.11.2019
5153 Clouds 17 1014 77 10000 6.7 200 16:18 01.11.2019
5154 Clouds 17 1014 77 10000 6.7 200 16:18 01.11.2019
5155 Clouds 17 1014 77 10000 7.7 200 15:40 01.11.2019
5156 Clouds 17 1014 77 10000 6.7 200 15:22 01.11.2019
5157 Clouds 18 1014 77 10000 7.2 200 14:56 01.11.2019
5158 Clouds 18 1014 77 10000 7.2 200 14:56 01.11.2019
5159 Clouds 17 1014 77 10000 7.2 200 14:38 01.11.2019
5160 Clouds 18 1014 77 10000 7.2 200 14:19 01.11.2019
5161 Clouds 17 1015 72 10000 6.7 200 13:55 01.11.2019
5162 Clouds 18 1015 72 10000 5.1 190 13:36 01.11.2019
5163 Clouds 18 1015 72 10000 5.1 190 13:18 01.11.2019
5164 Clouds 18 1015 72 10000 5.1 190 13:18 01.11.2019
5165 Clouds 18 1016 72 10000 4.1 190 12:43 01.11.2019
5166 Clouds 18 1016 68 10000 2.6 190 12:24 01.11.2019
5167 Clouds 18 1016 64 10000 1.5 160 11:43 01.11.2019
5168 Clouds 19 1016 60 10000 1 0 11:25 01.11.2019
5169 Clouds 15 1016 72 10000 1.5 0 10:58 01.11.2019
5170 Clouds 17 1016 72 10000 1.5 0 10:39 01.11.2019
5171 Clouds 15 1016 77 10000 2.6 320 10:20 01.11.2019
5172 Clouds 16 1017 82 10000 3.1 330 09:45 01.11.2019
5173 Clouds 16 1016 82 10000 3.6 340 09:26 01.11.2019
5174 Clouds 15 1016 82 10000 3.1 340 08:58 01.11.2019
5175 Clouds 14 1016 82 10000 3.1 340 08:40 01.11.2019
5176 Clouds 14 1016 87 10000 3.1 330 08:21 01.11.2019
5177 Clouds 13 1016 87 10000 3.6 330 07:52 01.11.2019
5178 Clouds 13 1016 87 10000 4.1 340 07:25 01.11.2019
5179 Clouds 12 1016 87 10000 4.6 320 06:56 01.11.2019
5180 Clouds 13 1016 87 10000 4.6 320 06:37 01.11.2019
5181 Clear 13 1016 87 10000 3.6 320 06:18 01.11.2019
5182 Clear 13 1016 87 10000 4.6 320 05:43 01.11.2019
5183 Clear 13 1016 93 10000 4.6 320 03:33 01.11.2019
5184 Clouds 14 1016 87 10000 4.1 320 01:52 01.11.2019
5185 Clouds 14 1016 93 10000 4.1 330 01:28 01.11.2019
5186 Clouds 14 1016 93 10000 2.1 330 00:21 01.11.2019
5187 Clouds 14 1016 93 10000 4.1 320 23:56 31.10.2019
5188 Clouds 14 1016 93 10000 4.1 320 23:38 31.10.2019
5189 Clouds 14 1016 93 10000 3.1 320 23:19 31.10.2019
5190 Clouds 14 1016 100 8000 1 0 22:42 31.10.2019
5191 Rain 14 1016 93 10000 3.6 320 22:24 31.10.2019
5192 Rain 14 1017 93 7000 3.1 320 21:58 31.10.2019
5193 Rain 14 1017 93 7000 3.1 320 21:40 31.10.2019
5194 Rain 14 1017 93 3000 2.6 320 21:19 31.10.2019
5195 Rain 14 1016 93 10000 3.6 310 20:55 31.10.2019
5196 Rain 15 1016 93 10000 3.6 310 20:37 31.10.2019
5197 Rain 15 1016 88 10000 1 0 20:19 31.10.2019
5198 Rain 15 1016 82 10000 4.1 90 19:40 31.10.2019
5199 Rain 15 1016 88 8000 3.6 90 19:21 31.10.2019
5200 Rain 15 1016 88 8000 3.6 90 19:21 31.10.2019
5201 Rain 16 1016 88 7000 4.6 80 18:56 31.10.2019
5202 Rain 16 1016 93 6000 6.2 80 18:36 31.10.2019
5203 Rain 16 1016 93 6000 6.2 80 18:18 31.10.2019
5204 Thunderstorm 16 1015 93 3000 4.6 100 17:41 31.10.2019
5205 Thunderstorm 16 1015 93 3000 4.6 100 17:22 31.10.2019
5206 Clouds 16 1015 88 1500 8.7 90 16:58 31.10.2019
5207 Clouds 17 1015 88 1500 8.7 90 16:40 31.10.2019
5208 Rain 17 1015 82 10000 6.7 130 16:20 31.10.2019
5209 Clouds 17 1015 88 10000 5.7 130 15:54 31.10.2019
5210 Rain 17 1015 88 10000 4.1 110 15:36 31.10.2019
5211 Rain 17 1015 88 10000 4.1 110 15:18 31.10.2019
5212 Rain 17 1016 82 7000 3.6 140 14:41 31.10.2019
5213 Rain 17 1016 82 10000 3.1 120 14:23 31.10.2019
5214 Clouds 18 1016 82 10000 3.1 120 13:59 31.10.2019
5215 Clouds 18 1016 82 10000 3.1 120 13:40 31.10.2019
5216 Clouds 18 1016 82 10000 3.6 120 13:20 31.10.2019
5217 Clouds 18 1016 82 10000 4.1 120 12:59 31.10.2019
5218 Clouds 18 1016 82 10000 4.1 120 12:41 31.10.2019
5219 Clouds 18 1017 82 10000 4.1 100 12:22 31.10.2019
5220 Rain 15 1017 82 10000 4.1 60 11:55 31.10.2019
5221 Rain 17 1017 82 10000 4.1 60 11:36 31.10.2019
5222 Clouds 17 1017 82 10000 2.6 60 11:18 31.10.2019
5223 Clouds 17 1017 77 10000 1.5 360 10:40 31.10.2019
5224 Clouds 17 1017 82 10000 1.5 340 10:22 31.10.2019
5225 Clouds 16 1017 77 10000 1.5 330 09:59 31.10.2019
5226 Clouds 16 1017 77 10000 1.5 330 09:59 31.10.2019
5227 Clouds 16 1017 77 10000 1.5 330 09:39 31.10.2019
5228 Clouds 15 1017 82 10000 2.1 340 09:18 31.10.2019
5229 Clouds 15 1017 82 10000 2.6 340 08:48 31.10.2019
5230 Clouds 15 1017 82 10000 3.1 330 08:29 31.10.2019
5231 Clouds 15 1017 87 10000 3.1 330 07:54 31.10.2019
5232 Clouds 15 1016 87 10000 2.6 330 07:36 31.10.2019
5233 Clouds 15 1016 87 10000 2.6 330 07:18 31.10.2019
5234 Clouds 15 1017 87 10000 2.6 330 06:38 31.10.2019
5235 Clouds 15 1017 87 10000 2.6 330 06:18 31.10.2019
5236 Clouds 15 1017 87 10000 2.6 330 06:18 31.10.2019
5237 Clouds 15 1017 88 10000 2.6 320 03:43 31.10.2019
5238 Clouds 16 1018 88 10000 2.1 320 02:41 31.10.2019
5239 Clouds 16 1018 88 10000 2.6 320 01:53 31.10.2019
5240 Clouds 16 1018 88 10000 2.6 320 01:53 31.10.2019
5241 Clouds 16 1018 88 10000 2.6 320 00:37 31.10.2019
5242 Clouds 16 1019 82 10000 1.5 330 00:18 31.10.2019
5243 Clouds 16 1018 88 10000 1 0 23:30 30.10.2019
5244 Clouds 17 1019 88 10000 1 310 22:44 30.10.2019
5245 Clouds 17 1019 88 10000 1 0 22:23 30.10.2019
5246 Clouds 17 1019 82 10000 1.5 0 21:56 30.10.2019
5247 Clouds 17 1019 82 10000 1.5 0 21:38 30.10.2019
5248 Clouds 17 1019 82 10000 1.5 290 21:19 30.10.2019
5249 Clouds 17 1019 82 10000 1.5 280 20:59 30.10.2019
5250 Clouds 17 1019 82 10000 1.5 280 20:59 30.10.2019
5251 Clouds 17 1019 82 10000 1.5 280 20:41 30.10.2019
5252 Clouds 17 1018 82 10000 1 0 20:22 30.10.2019
5253 Clouds 17 1018 82 10000 2.74 79 19:58 30.10.2019
5254 Clouds 17 1018 82 10000 1 110 19:39 30.10.2019
5255 Clouds 17 1018 82 10000 1 110 19:39 30.10.2019
5256 Clouds 17 1018 82 10000 1 110 19:20 30.10.2019
5257 Clouds 18 1018 77 10000 0.5 110 18:58 30.10.2019
5258 Clouds 15 1018 77 10000 0.5 200 18:37 30.10.2019
5259 Clouds 15 1018 77 10000 0.5 200 18:18 30.10.2019
5260 Clouds 15 1018 77 10000 1 180 17:41 30.10.2019
5261 Clouds 18 1018 77 10000 1 150 17:20 30.10.2019
5262 Clouds 18 1018 77 10000 1.5 160 16:59 30.10.2019
5263 Clouds 19 1018 77 10000 1.5 160 16:41 30.10.2019
5264 Clouds 19 1018 77 10000 2.1 160 16:22 30.10.2019
5265 Clouds 20 1018 77 10000 1.5 160 15:57 30.10.2019
5266 Clouds 20 1018 77 10000 1.5 160 15:38 30.10.2019
5267 Clouds 20 1018 73 10000 1.5 0 15:19 30.10.2019
5268 Clouds 20 1017 73 10000 2.1 160 14:57 30.10.2019
5269 Clouds 20 1017 73 10000 2.1 160 14:39 30.10.2019
5270 Clouds 20 1018 73 10000 1.5 170 14:21 30.10.2019
5271 Clouds 20 1018 73 10000 1.5 160 13:54 30.10.2019
5272 Clouds 20 1018 68 10000 1.5 160 13:36 30.10.2019
5273 Clouds 20 1018 68 10000 1.5 160 13:18 30.10.2019
5274 Clouds 20 1018 68 10000 2.1 180 12:43 30.10.2019
5275 Clouds 20 1018 68 10000 2.1 180 12:43 30.10.2019
5276 Clouds 20 1018 68 10000 1.5 190 12:25 30.10.2019
5277 Clouds 20 1019 68 10000 1.5 0 11:58 30.10.2019
5278 Clouds 20 1019 68 10000 1.5 0 11:40 30.10.2019
5279 Clouds 20 1019 64 10000 1.5 0 11:19 30.10.2019
5280 Clouds 19 1019 64 10000 3.1 320 10:43 30.10.2019
5281 Clouds 19 1019 68 10000 3.1 330 10:23 30.10.2019
5282 Clouds 18 1018 72 10000 3.6 330 09:42 30.10.2019
5283 Clouds 18 1018 72 10000 3.6 330 09:42 30.10.2019
5284 Clouds 17 1018 72 10000 3.6 340 09:23 30.10.2019
5285 Clouds 16 1018 77 10000 4.1 330 08:57 30.10.2019
5286 Clouds 15 1018 77 10000 4.1 330 08:39 30.10.2019
5287 Clouds 15 1018 77 10000 4.6 330 08:20 30.10.2019
5288 Clouds 15 1018 77 10000 3.6 340 07:45 30.10.2019
5289 Clouds 14 1017 77 10000 5.1 330 07:20 30.10.2019
5290 Clouds 14 1017 82 10000 5.1 330 06:42 30.10.2019
5291 Clouds 14 1017 82 10000 4.6 330 06:20 30.10.2019
5292 Clouds 14 1017 77 10000 4.6 330 05:41 30.10.2019
5293 Clouds 14 1017 77 10000 5.1 320 04:42 30.10.2019
5294 Clouds 14 1017 82 10000 4.6 330 03:43 30.10.2019
5295 Clouds 14 1017 87 10000 4.6 330 02:52 30.10.2019
5296 Clouds 15 1017 82 10000 4.6 330 01:58 30.10.2019
5297 Clouds 15 1017 82 10000 4.1 320 00:57 30.10.2019
5298 Clouds 15 1017 82 10000 3.6 320 00:28 30.10.2019
5299 Clouds 15 1017 82 10000 3.6 320 23:43 29.10.2019
5300 Clouds 15 1017 82 10000 4.1 330 23:23 29.10.2019
5301 Clouds 15 1017 87 10000 3.6 330 22:48 29.10.2019
5302 Clouds 15 1017 82 10000 3.6 320 22:20 29.10.2019
5303 Clouds 15 1016 82 10000 3.1 320 21:59 29.10.2019
5304 Clouds 15 1016 82 10000 3.1 320 21:41 29.10.2019
5305 Clouds 16 1016 82 10000 2.6 330 21:20 29.10.2019
5306 Clouds 16 1016 82 10000 2.1 340 20:58 29.10.2019
5307 Clouds 16 1016 82 10000 2.1 340 20:40 29.10.2019
5308 Clouds 16 1016 82 10000 2.1 340 20:21 29.10.2019
5309 Clouds 16 1016 82 10000 2.1 30 19:56 29.10.2019
5310 Clouds 16 1016 82 10000 2.1 30 19:38 29.10.2019
5311 Clouds 17 1015 77 10000 2.6 40 19:19 29.10.2019
5312 Clouds 17 1015 82 10000 3.1 60 18:55 29.10.2019
5313 Clouds 17 1015 82 10000 3.1 70 18:37 29.10.2019
5314 Clouds 17 1015 82 10000 3.1 70 18:19 29.10.2019
5315 Clouds 15 1015 77 10000 3.6 80 17:54 29.10.2019
5316 Clouds 16 1015 77 10000 3.6 80 17:36 29.10.2019
5317 Clouds 18 1014 77 10000 3.1 80 17:18 29.10.2019
5318 Clouds 19 1014 77 10000 3.6 80 16:39 29.10.2019
5319 Clouds 19 1014 77 10000 3.6 90 16:21 29.10.2019
5320 Clouds 19 1014 72 10000 3.1 80 15:56 29.10.2019
5321 Clouds 19 1014 72 10000 2.6 80 15:38 29.10.2019
5322 Clouds 19 1014 72 10000 2.6 80 15:20 29.10.2019
5323 Clouds 20 1014 72 10000 2.1 70 14:55 29.10.2019
5324 Clouds 20 1014 72 10000 2.1 70 14:37 29.10.2019
5325 Clouds 20 1014 72 10000 1.5 90 14:19 29.10.2019
5326 Clouds 20 1014 72 10000 1.5 90 14:18 29.10.2019
5327 Clouds 20 1014 72 10000 1.5 0 13:40 29.10.2019
5328 Clouds 19 1014 72 10000 1.5 150 13:22 29.10.2019
5329 Clouds 19 1014 68 10000 1 160 12:55 29.10.2019
5330 Clouds 19 1015 68 10000 1.5 0 12:36 29.10.2019
5331 Clouds 19 1015 68 10000 1.5 0 12:18 29.10.2019
5332 Clouds 19 1015 72 10000 1.5 180 11:42 29.10.2019
5333 Clouds 18 1015 72 10000 2.1 160 11:22 29.10.2019
5334 Clouds 18 1015 72 10000 1.5 90 10:58 29.10.2019
5335 Clouds 18 1015 72 10000 1.5 90 10:39 29.10.2019
5336 Clouds 18 1015 77 10000 1 0 10:20 29.10.2019
5337 Clouds 17 1015 77 10000 1.5 0 09:58 29.10.2019
5338 Clouds 17 1015 77 10000 1.5 0 09:40 29.10.2019
5339 Clouds 16 1015 82 10000 2.1 330 09:21 29.10.2019
5340 Clouds 15 1015 87 10000 2.1 330 08:45 29.10.2019
5341 Clouds 15 1014 82 10000 3.1 320 08:26 29.10.2019
5342 Clouds 14 1014 87 10000 1.5 300 07:55 29.10.2019
5343 Clouds 14 1014 87 10000 1.5 300 07:37 29.10.2019
5344 Clouds 14 1014 87 10000 2.1 260 07:18 29.10.2019
5345 Clouds 14 1014 93 10000 3.6 340 06:45 29.10.2019
5346 Clouds 14 1014 93 10000 2.6 250 06:26 29.10.2019
5347 Clouds 14 1014 93 10000 2.6 270 05:51 29.10.2019
5348 Clouds 14 1014 93 10000 2.6 260 05:30 29.10.2019
5349 Clouds 14 1014 93 10000 2.1 300 04:32 29.10.2019
5350 Clouds 15 1015 82 10000 2.6 330 02:34 29.10.2019
5351 Clouds 15 1015 87 10000 3.1 320 01:49 29.10.2019
5352 Clouds 15 1015 82 10000 3.1 320 01:23 29.10.2019
5353 Clouds 15 1015 87 10000 3.6 320 00:48 29.10.2019
5354 Clouds 15 1015 93 10000 2.6 320 23:58 28.10.2019
5355 Clouds 15 1015 93 10000 2.6 320 23:36 28.10.2019
5356 Clouds 16 1015 88 10000 2.1 330 23:18 28.10.2019
5357 Clouds 16 1015 88 10000 2.6 330 22:39 28.10.2019
5358 Clouds 16 1015 88 10000 3.1 320 22:19 28.10.2019
5359 Clouds 16 1015 88 10000 3.1 320 21:56 28.10.2019
5360 Clouds 16 1015 88 10000 3.1 320 21:56 28.10.2019
5361 Clouds 16 1015 88 10000 3.1 320 21:38 28.10.2019
5362 Clouds 16 1015 88 10000 2.6 320 21:20 28.10.2019
5363 Clouds 16 1015 88 10000 2.1 320 20:57 28.10.2019
5364 Clouds 16 1015 82 10000 2.1 320 20:38 28.10.2019
5365 Clouds 16 1015 82 10000 2.1 320 20:20 28.10.2019
5366 Clouds 16 1015 88 10000 1.22 76 19:54 28.10.2019
5367 Clouds 16 1015 88 10000 1.22 76 19:54 28.10.2019
5368 Clouds 16 1015 88 10000 1.22 76 19:36 28.10.2019
5369 Clouds 16 1015 82 10000 1.22 76 19:18 28.10.2019
5370 Clouds 16 1015 82 10000 1.22 76 19:18 28.10.2019
5371 Clouds 17 1014 88 10000 1.22 76 18:54 28.10.2019
5372 Clouds 17 1014 88 10000 1.22 76 18:36 28.10.2019
5373 Clouds 18 1014 82 10000 1.22 76 18:18 28.10.2019
5374 Clouds 18 1014 82 10000 1 90 17:54 28.10.2019
5375 Clouds 16 1014 82 10000 1 90 17:36 28.10.2019
5376 Clouds 18 1014 82 10000 1 90 17:18 28.10.2019
5377 Clouds 18 1014 82 10000 1.5 100 16:43 28.10.2019
5378 Clouds 19 1015 82 10000 1 100 16:24 28.10.2019
5379 Clouds 19 1015 77 10000 1 120 15:59 28.10.2019
5380 Clouds 19 1015 77 10000 1 120 15:40 28.10.2019
5381 Clouds 19 1015 77 10000 1 150 15:22 28.10.2019
5382 Clouds 19 1015 77 10000 1.5 130 14:58 28.10.2019
5383 Clouds 19 1015 77 10000 1.5 130 14:40 28.10.2019
5384 Clouds 19 1015 77 10000 1.5 140 14:19 28.10.2019
5385 Clouds 19 1015 77 10000 1.5 130 13:58 28.10.2019
5386 Clouds 19 1015 77 10000 1.5 130 13:40 28.10.2019
5387 Clouds 19 1016 77 10000 1.5 110 13:18 28.10.2019
5388 Clouds 18 1016 77 10000 1.5 0 12:43 28.10.2019
5389 Clouds 19 1016 77 10000 1 0 12:22 28.10.2019
5390 Clouds 19 1017 72 10000 1.5 0 11:59 28.10.2019
5391 Clouds 19 1017 72 10000 1.5 0 11:37 28.10.2019
5392 Clouds 18 1017 68 10000 2.6 330 11:19 28.10.2019
5393 Clouds 17 1017 63 10000 3.6 330 10:41 28.10.2019
5394 Clouds 17 1017 67 10000 3.1 330 10:22 28.10.2019
5395 Clouds 16 1016 67 10000 3.1 340 09:58 28.10.2019
5396 Clouds 16 1016 67 10000 3.1 340 09:39 28.10.2019
5397 Clouds 15 1016 67 10000 3.6 330 09:20 28.10.2019
5398 Clouds 14 1016 67 10000 3.1 340 08:57 28.10.2019
5399 Clouds 14 1016 67 10000 3.1 340 08:39 28.10.2019
5400 Clouds 14 1016 72 10000 4.6 330 08:19 28.10.2019
5401 Clouds 13 1016 72 10000 5.1 330 07:57 28.10.2019
5402 Clouds 13 1016 72 10000 5.1 330 07:38 28.10.2019
5403 Clouds 13 1016 72 10000 4.1 320 07:19 28.10.2019
5404 Clouds 13 1016 72 10000 3.6 320 06:40 28.10.2019
5405 Clouds 13 1016 72 10000 4.1 320 05:53 28.10.2019
5406 Clouds 13 1016 67 10000 3.6 330 04:25 28.10.2019
5407 Clouds 14 1016 77 10000 3.6 340 03:40 28.10.2019
5408 Clouds 14 1017 72 10000 3.6 330 02:45 28.10.2019
5409 Clouds 15 1018 77 10000 3.1 340 01:19 28.10.2019
5410 Clouds 15 1018 72 10000 4.6 330 00:42 28.10.2019
5411 Clouds 15 1018 72 10000 2.1 350 00:20 28.10.2019
5412 Clouds 16 1018 77 10000 2.6 340 23:43 27.10.2019
5413 Clouds 16 1018 77 10000 2.1 340 23:20 27.10.2019
5414 Clouds 16 1018 82 10000 2.1 330 22:44 27.10.2019
5415 Clouds 16 1018 82 10000 2.6 330 22:23 27.10.2019
5416 Clouds 16 1019 82 10000 3.1 330 21:59 27.10.2019
5417 Clouds 16 1019 82 10000 3.1 330 21:40 27.10.2019
5418 Clouds 17 1019 82 10000 3.6 330 21:21 27.10.2019
5419 Clouds 17 1019 82 10000 3.6 330 20:59 27.10.2019
5420 Clouds 17 1019 82 10000 3.6 330 20:40 27.10.2019
5421 Clouds 17 1019 82 10000 2.6 320 20:22 27.10.2019
5422 Clouds 17 1019 82 10000 2.6 320 19:57 27.10.2019
5423 Clouds 17 1019 82 10000 2.6 320 19:37 27.10.2019
5424 Clouds 17 1019 88 10000 2.45 196 19:19 27.10.2019
5425 Clouds 18 1019 82 10000 2.45 196 18:56 27.10.2019
5426 Clouds 18 1019 82 10000 2.45 196 18:38 27.10.2019
5427 Clouds 18 1019 82 10000 1 190 18:19 27.10.2019
5428 Clouds 18 1019 82 10000 1 190 18:19 27.10.2019
5429 Clouds 19 1019 82 10000 2.1 190 17:54 27.10.2019
5430 Clouds 19 1019 82 10000 2.1 190 17:36 27.10.2019
5431 Clear 19 1019 82 10000 2.1 190 17:18 27.10.2019
5432 Clear 21 1019 73 10000 2.1 190 16:55 27.10.2019
5433 Clear 21 1019 73 10000 2.1 190 16:37 27.10.2019
5434 Clear 21 1019 73 10000 2.1 190 16:18 27.10.2019
5435 Clear 22 1019 68 10000 1.5 170 15:54 27.10.2019
5436 Clear 22 1019 64 10000 1.5 160 15:36 27.10.2019
5437 Clear 22 1019 64 10000 1.5 160 15:18 27.10.2019
5438 Clear 22 1019 64 10000 2.1 140 14:41 27.10.2019
5439 Clear 22 1019 64 10000 2.6 130 14:19 27.10.2019
5440 Clear 22 1020 73 10000 3.1 120 13:55 27.10.2019
5441 Clear 22 1020 77 10000 3.6 120 13:36 27.10.2019
5442 Clear 22 1020 77 10000 3.6 120 13:18 27.10.2019
5443 Clear 22 1020 83 10000 4.1 110 12:42 27.10.2019
5444 Clear 22 1021 83 10000 4.6 100 12:23 27.10.2019
5445 Clear 22 1021 77 10000 3.1 90 11:55 27.10.2019
5446 Clear 22 1021 77 10000 3.1 90 11:37 27.10.2019
5447 Clear 22 1021 49 10000 2.6 10 11:18 27.10.2019
5448 Clear 21 1021 52 10000 4.6 330 10:41 27.10.2019
5449 Clear 21 1021 56 10000 6.2 320 10:22 27.10.2019
5450 Clear 20 1021 59 10000 6.2 320 09:44 27.10.2019
5451 Clear 20 1021 59 10000 6.7 320 09:19 27.10.2019
5452 Clear 20 1021 59 10000 6.7 320 09:19 27.10.2019
5453 Clear 19 1021 59 10000 6.7 330 08:59 27.10.2019
5454 Clear 18 1021 59 10000 6.7 330 08:39 27.10.2019
5455 Clear 16 1021 63 10000 7.2 320 08:19 27.10.2019
5456 Clear 13 1021 67 10000 6.7 330 07:48 27.10.2019
5457 Clear 15 1020 67 10000 5.1 330 07:29 27.10.2019
5458 Clear 15 1020 67 10000 6.2 330 06:56 27.10.2019
5459 Clear 16 1020 67 10000 6.2 330 06:37 27.10.2019
5460 Clear 15 1020 67 10000 4.1 350 06:18 27.10.2019
5461 Clear 16 1021 63 10000 3.6 350 05:37 27.10.2019
5462 Clear 16 1021 67 10000 4.6 340 04:35 27.10.2019
5463 Clear 16 1022 67 10000 4.1 340 02:42 27.10.2019
5464 Clear 16 1022 72 10000 3.1 330 01:36 27.10.2019
5465 Clear 16 1022 72 10000 3.1 330 01:18 27.10.2019
5466 Clear 16 1022 72 10000 4.1 330 00:42 27.10.2019
5467 Clear 16 1022 72 10000 4.1 330 23:59 26.10.2019
5468 Clear 16 1022 72 10000 4.1 330 23:40 26.10.2019
5469 Clear 16 1023 77 10000 4.1 320 23:22 26.10.2019
5470 Clear 16 1022 77 10000 3.1 330 22:59 26.10.2019
5471 Clear 16 1022 77 10000 3.1 330 22:40 26.10.2019
5472 Clear 16 1022 77 10000 4.6 330 22:20 26.10.2019
5473 Clear 16 1022 72 10000 4.1 330 21:59 26.10.2019
5474 Clear 16 1022 72 10000 4.1 330 21:41 26.10.2019
5475 Clear 17 1022 77 10000 3.6 330 21:20 26.10.2019
5476 Clear 17 1022 77 10000 3.1 330 20:45 26.10.2019
5477 Clear 17 1022 77 10000 2.1 340 20:20 26.10.2019
5478 Clear 17 1022 77 10000 2.1 340 20:20 26.10.2019
5479 Clear 16 1022 77 10000 3.6 320 19:58 26.10.2019
5480 Clear 16 1021 72 10000 2.1 320 19:38 26.10.2019
5481 Clear 16 1021 72 10000 2.1 320 19:20 26.10.2019
5482 Clear 16 1021 68 10000 2.1 330 18:56 26.10.2019
5483 Clear 17 1021 68 10000 1 0 18:37 26.10.2019
5484 Clear 20 1021 68 10000 1 0 18:18 26.10.2019
5485 Clear 21 1021 64 10000 1 0 17:56 26.10.2019
5486 Clear 21 1021 64 10000 1 0 17:36 26.10.2019
5487 Clear 21 1021 68 10000 3.44 69 17:18 26.10.2019
5488 Clear 22 1022 64 10000 1 0 16:43 26.10.2019
5489 Clear 22 1022 68 10000 1.5 200 16:24 26.10.2019
5490 Clear 22 1022 68 10000 1.5 200 16:24 26.10.2019
5491 Clear 22 1022 64 10000 1.5 0 15:43 26.10.2019
5492 Clear 23 1022 60 10000 1 0 15:21 26.10.2019
5493 Clear 22 1022 64 10000 1.5 160 14:56 26.10.2019
5494 Clear 22 1022 64 10000 1.5 160 14:37 26.10.2019
5495 Clear 22 1022 60 10000 2.1 150 14:18 26.10.2019
5496 Clear 23 1022 60 10000 2.1 160 13:42 26.10.2019
5497 Clear 22 1022 56 10000 3.6 150 13:22 26.10.2019
5498 Clear 17 1023 61 0 0.89 94 12:49 26.10.2019
5499 Clouds 20 1022 56 10000 4.6 340 12:26 26.10.2019
5500 Clouds 20 1022 56 10000 4.6 340 11:56 26.10.2019
5501 Clouds 20 1022 56 10000 4.6 340 11:37 26.10.2019
5502 Clouds 20 1022 56 10000 4.6 340 11:18 26.10.2019
5503 Clouds 18 1022 59 10000 5.1 330 10:44 26.10.2019
5504 Clouds 17 1022 63 10000 5.7 330 10:24 26.10.2019
5505 Clouds 16 1022 63 10000 4.6 340 09:48 26.10.2019
5506 Clear 14 1022 67 10000 4.1 330 09:28 26.10.2019
5507 Clear 14 1022 72 10000 4.1 330 08:47 26.10.2019
5508 Clear 13 1021 77 10000 6.7 330 08:26 26.10.2019
5509 Clear 14 1021 72 10000 5.1 340 07:57 26.10.2019
5510 Clear 14 1021 72 10000 5.1 330 07:33 26.10.2019
5511 Clear 14 1021 72 10000 5.1 320 06:56 26.10.2019
5512 Clear 14 1021 72 10000 5.1 320 06:38 26.10.2019
5513 Clear 14 1021 72 10000 5.1 340 05:24 26.10.2019
5514 Clear 14 1021 77 10000 5.1 330 04:59 26.10.2019
5515 Clouds 15 1021 77 10000 5.7 340 03:25 26.10.2019
5516 Clear 15 1021 77 10000 6.7 330 02:28 26.10.2019
5517 Clear 15 1021 77 10000 4.6 330 01:45 26.10.2019
5518 Clear 15 1021 77 10000 4.1 340 00:50 26.10.2019
5519 Clouds 16 1021 77 10000 3.6 330 23:48 25.10.2019
5520 Clouds 16 1021 77 10000 4.1 330 23:22 25.10.2019
5521 Clouds 16 1021 77 10000 4.1 330 22:58 25.10.2019
5522 Clouds 16 1021 77 10000 4.1 330 22:39 25.10.2019
5523 Clouds 16 1020 77 10000 4.6 330 22:21 25.10.2019
5524 Clouds 16 1020 72 10000 3.6 340 21:55 25.10.2019
5525 Clear 16 1020 72 10000 3.6 330 21:37 25.10.2019
5526 Clouds 17 1020 72 10000 3.6 330 21:18 25.10.2019
5527 Clouds 17 1019 77 10000 4.1 330 20:42 25.10.2019
5528 Clouds 17 1019 82 10000 4.1 330 20:19 25.10.2019
5529 Clouds 17 1019 82 10000 4.1 330 20:19 25.10.2019
5530 Clouds 18 1019 77 10000 1 340 19:47 25.10.2019
5531 Clouds 18 1019 72 10000 2.32 10 19:27 25.10.2019
5532 Clouds 19 1018 68 10000 1.5 270 18:55 25.10.2019
5533 Clouds 20 1018 68 10000 1 210 18:37 25.10.2019
5534 Clouds 19 1018 68 10000 1 210 18:18 25.10.2019
5535 Clouds 20 1018 64 10000 1 240 17:39 25.10.2019
5536 Clouds 21 1018 73 10000 1.5 0 17:18 25.10.2019
5537 Clouds 21 1018 68 10000 2.1 190 16:46 25.10.2019
5538 Clouds 21 1018 68 10000 1.5 170 16:22 25.10.2019
5539 Clouds 21 1018 73 10000 2.6 140 15:56 25.10.2019
5540 Clouds 21 1018 73 10000 2.6 140 15:38 25.10.2019
5541 Clouds 21 1018 73 10000 1.5 110 15:19 25.10.2019
5542 Clouds 21 1018 73 10000 1.5 90 14:42 25.10.2019
5543 Clouds 21 1018 73 10000 2.1 80 14:23 25.10.2019
5544 Clouds 21 1018 68 10000 3.1 90 13:59 25.10.2019
5545 Clouds 20 1018 68 10000 3.1 90 13:38 25.10.2019
5546 Clouds 20 1018 60 10000 3.1 340 13:20 25.10.2019
5547 Clouds 19 1018 60 10000 3.1 330 12:43 25.10.2019
5548 Clouds 18 1018 63 10000 4.1 330 12:22 25.10.2019
5549 Clouds 17 1018 68 10000 4.6 330 11:58 25.10.2019
5550 Clouds 17 1018 68 10000 4.6 330 11:38 25.10.2019
5551 Clouds 17 1018 72 10000 5.1 320 11:19 25.10.2019
5552 Clouds 16 1018 72 10000 6.7 320 10:41 25.10.2019
5553 Clouds 16 1017 72 10000 6.2 320 10:23 25.10.2019
5554 Clouds 15 1017 77 10000 3.6 330 09:58 25.10.2019
5555 Clouds 15 1017 77 10000 3.6 330 09:39 25.10.2019
5556 Clouds 15 1017 77 10000 3.1 350 09:20 25.10.2019
5557 Clouds 14 1017 77 10000 2.6 350 08:51 25.10.2019
5558 Clouds 14 1017 82 10000 4.6 340 08:33 25.10.2019
5559 Clouds 14 1016 77 10000 3.6 340 07:57 25.10.2019
5560 Clouds 14 1016 82 10000 2.6 360 07:35 25.10.2019
5561 Clouds 14 1016 82 10000 2.6 360 06:53 25.10.2019
5562 Clouds 14 1016 82 10000 3.1 340 06:31 25.10.2019
5563 Clouds 14 1016 87 10000 4.1 330 05:40 25.10.2019
5564 Clouds 14 1016 87 10000 4.1 330 05:21 25.10.2019
5565 Clouds 14 1016 82 10000 5.1 330 03:59 25.10.2019
5566 Clouds 15 1015 87 10000 3.1 340 02:22 25.10.2019
5567 Clouds 15 1016 87 10000 3.6 330 01:51 25.10.2019
5568 Clouds 15 1016 87 10000 2.6 330 00:30 25.10.2019
5569 Clouds 15 1015 93 10000 2.6 340 23:42 24.10.2019
5570 Clouds 15 1015 93 10000 3.6 330 23:24 24.10.2019
5571 Clouds 15 1015 93 10000 3.6 330 22:57 24.10.2019
5572 Clouds 15 1015 93 10000 3.6 330 22:38 24.10.2019
5573 Rain 15 1015 93 10000 3.6 320 22:19 24.10.2019
5574 Rain 15 1015 93 10000 3.1 330 21:57 24.10.2019
5575 Rain 15 1015 93 10000 3.1 330 21:57 24.10.2019
5576 Rain 15 1015 93 10000 3.1 330 21:38 24.10.2019
5577 Rain 16 1015 88 10000 1.5 0 21:20 24.10.2019
5578 Clouds 16 1015 88 10000 3.1 70 20:58 24.10.2019
5579 Clouds 16 1015 88 10000 3.1 70 20:39 24.10.2019
5580 Clouds 16 1015 88 10000 4.1 70 20:21 24.10.2019
5581 Clouds 16 1014 88 10000 4.6 70 19:56 24.10.2019
5582 Clouds 16 1014 88 10000 4.6 70 19:37 24.10.2019
5583 Rain 16 1014 88 10000 3.1 70 19:19 24.10.2019
5584 Rain 16 1013 82 10000 3.6 50 18:55 24.10.2019
5585 Rain 16 1013 82 10000 3.6 50 18:37 24.10.2019
5586 Rain 16 1013 82 10000 2.1 330 18:18 24.10.2019
5587 Rain 16 1013 88 10000 1.5 320 17:42 24.10.2019
5588 Clouds 16 1012 88 10000 1.5 320 17:20 24.10.2019
5589 Clouds 16 1012 88 10000 2.1 340 16:58 24.10.2019
5590 Clouds 16 1012 88 10000 2.1 340 16:39 24.10.2019
5591 Rain 17 1012 88 10000 2.6 360 16:21 24.10.2019
5592 Rain 16 1013 93 6000 2.1 310 15:58 24.10.2019
5593 Rain 16 1013 93 6000 2.1 310 15:40 24.10.2019
5594 Rain 16 1013 100 6000 3.1 300 15:21 24.10.2019
5595 Rain 16 1013 93 8000 4.1 320 14:58 24.10.2019
5596 Rain 16 1013 93 8000 4.1 320 14:40 24.10.2019
5597 Rain 16 1013 88 4000 4.1 320 14:20 24.10.2019
5598 Rain 16 1013 88 9000 2.6 310 13:42 24.10.2019
5599 Rain 16 1014 88 2500 3.1 320 13:20 24.10.2019
5600 Rain 17 1014 82 5000 9.3 90 12:58 24.10.2019
5601 Rain 17 1014 82 5000 9.3 90 12:40 24.10.2019
5602 Rain 17 1014 77 8000 9.8 80 12:20 24.10.2019
5603 Rain 17 1014 82 5000 2.6 330 11:57 24.10.2019
5604 Clouds 17 1014 88 7000 5.1 190 11:38 24.10.2019
5605 Clouds 17 1014 88 7000 5.1 190 11:20 24.10.2019
5606 Clouds 17 1014 88 10000 4.6 160 10:59 24.10.2019
5607 Clouds 17 1014 88 10000 4.6 160 10:39 24.10.2019
5608 Rain 17 1014 93 10000 2.1 0 10:21 24.10.2019
5609 Clouds 17 1013 88 10000 3.1 320 09:39 24.10.2019
5610 Clouds 17 1013 88 10000 3.1 320 09:39 24.10.2019
5611 Rain 17 1013 88 10000 1 0 09:19 24.10.2019
5612 Rain 17 1013 88 10000 1.5 360 08:55 24.10.2019
5613 Clouds 17 1012 88 10000 1.5 280 08:37 24.10.2019
5614 Clouds 17 1012 88 10000 1.5 280 08:18 24.10.2019
5615 Clouds 17 1013 88 10000 2.1 170 07:45 24.10.2019
5616 Clouds 17 1013 88 10000 3.6 170 07:22 24.10.2019
5617 Clouds 17 1012 88 10000 5.1 160 06:47 24.10.2019
5618 Clouds 17 1012 88 10000 7.2 150 06:24 24.10.2019
5619 Clouds 18 1012 82 10000 8.2 100 05:50 24.10.2019
5620 Clouds 17 1012 82 10000 3.1 20 05:29 24.10.2019
5621 Clouds 17 1012 88 10000 4.1 10 03:38 24.10.2019
5622 Rain 17 1012 88 8000 8.7 50 03:18 24.10.2019
5623 Rain 16 1013 88 3000 2.6 360 02:26 24.10.2019
5624 Rain 17 1012 82 6000 3.6 310 01:52 24.10.2019
5625 Rain 17 1012 88 4500 2.1 50 01:28 24.10.2019
5626 Rain 18 1011 68 10000 14.4 70 00:44 24.10.2019
5627 Rain 18 1012 73 8000 14.4 80 00:23 24.10.2019
5628 Thunderstorm 19 1011 68 8000 14.9 70 23:44 23.10.2019
5629 Thunderstorm 19 1010 64 10000 14.9 80 23:24 23.10.2019
5630 Thunderstorm 19 1010 56 10000 16.5 70 22:57 23.10.2019
5631 Thunderstorm 19 1010 56 10000 16.5 70 22:38 23.10.2019
5632 Clouds 20 1010 56 10000 15.4 70 22:19 23.10.2019
5633 Clouds 20 1010 56 10000 13.9 70 21:58 23.10.2019
5634 Clouds 20 1010 56 10000 13.9 70 21:39 23.10.2019
5635 Clouds 19 1010 56 10000 14.9 70 21:20 23.10.2019
5636 Clouds 20 1011 60 10000 15.9 70 20:58 23.10.2019
5637 Clouds 19 1011 60 10000 15.9 70 20:39 23.10.2019
5638 Clouds 19 1011 60 10000 15.9 70 20:39 23.10.2019
5639 Clouds 19 1011 64 10000 15.9 80 20:21 23.10.2019
5640 Rain 18 1011 60 10000 5.7 70 19:58 23.10.2019
5641 Rain 18 1011 60 10000 5.7 70 19:40 23.10.2019
5642 Thunderstorm 19 1011 68 4000 15.4 80 19:19 23.10.2019
5643 Clouds 20 1010 56 10000 17.5 80 18:56 23.10.2019
5644 Clouds 20 1010 56 10000 17.5 80 18:38 23.10.2019
5645 Clouds 20 1010 56 10000 15.4 80 18:18 23.10.2019
5646 Clouds 20 1010 56 10000 15.4 80 18:18 23.10.2019
5647 Clouds 20 1010 49 10000 6.7 80 17:45 23.10.2019
5648 Clouds 20 1011 60 10000 12.3 90 17:20 23.10.2019
5649 Clouds 20 1011 60 10000 12.3 90 17:20 23.10.2019
5650 Clouds 21 1011 50 10000 11.3 70 16:58 23.10.2019
5651 Clouds 21 1011 50 10000 11.3 70 16:40 23.10.2019
5652 Clouds 20 1012 60 10000 13.9 80 16:20 23.10.2019
5653 Clouds 20 1012 60 10000 13.9 80 16:20 23.10.2019
5654 Rain 20 1012 64 10000 15.4 80 15:54 23.10.2019
5655 Rain 20 1012 64 10000 15.4 80 15:36 23.10.2019
5656 Rain 20 1013 60 10000 12.9 90 15:18 23.10.2019
5657 Clouds 20 1013 60 10000 13.9 80 14:54 23.10.2019
5658 Rain 20 1012 60 10000 14.4 80 14:36 23.10.2019
5659 Rain 21 1012 60 10000 14.4 80 14:18 23.10.2019
5660 Thunderstorm 22 1012 50 10000 13.9 80 13:42 23.10.2019
5661 Clouds 23 1013 44 10000 11.3 60 13:24 23.10.2019
5662 Clouds 22 1013 47 10000 6.7 40 12:57 23.10.2019
5663 Clouds 22 1013 47 10000 6.7 40 12:38 23.10.2019
5664 Clouds 22 1014 49 10000 6.2 20 12:19 23.10.2019
5665 Clouds 21 1014 56 10000 6.7 20 11:57 23.10.2019
5666 Clouds 20 1015 60 10000 6.2 40 11:39 23.10.2019
5667 Rain 20 1015 60 10000 6.2 40 11:20 23.10.2019
5668 Rain 20 1015 60 8000 10.8 70 10:46 23.10.2019
5669 Thunderstorm 20 1015 60 10000 12.3 80 10:26 23.10.2019
5670 Thunderstorm 21 1014 60 10000 12.3 80 09:58 23.10.2019
5671 Thunderstorm 21 1014 60 10000 12.3 80 09:39 23.10.2019
5672 Clouds 21 1013 56 10000 12.3 80 09:21 23.10.2019
5673 Clouds 22 1013 53 10000 12.3 80 08:43 23.10.2019
5674 Clouds 22 1013 53 10000 12.3 80 08:43 23.10.2019
5675 Clouds 22 1013 60 10000 11.3 80 08:25 23.10.2019
5676 Clouds 21 1013 60 10000 12.3 80 07:47 23.10.2019
5677 Clouds 21 1014 60 10000 10.3 80 07:27 23.10.2019
5678 Clouds 21 1014 64 10000 9.8 80 06:48 23.10.2019
5679 Clouds 22 1014 60 10000 10.3 70 06:23 23.10.2019
5680 Clouds 21 1014 60 10000 9.8 80 05:59 23.10.2019
5681 Clouds 21 1015 64 10000 9.3 80 05:18 23.10.2019
5682 Clouds 22 1015 57 10000 9.3 80 03:46 23.10.2019
5683 Clouds 19 1015 47 10000 10.3 70 02:42 23.10.2019
5684 Clouds 22 1015 53 10000 9.3 80 01:40 23.10.2019
5685 Clouds 22 1015 60 10000 8.7 70 00:59 23.10.2019
5686 Clouds 22 1016 57 10000 6.7 70 00:33 23.10.2019
5687 Clouds 22 1016 57 10000 7.2 70 23:55 22.10.2019
5688 Clouds 22 1016 57 10000 7.2 70 23:37 22.10.2019
5689 Clouds 22 1016 57 10000 7.2 70 23:37 22.10.2019
5690 Clouds 22 1017 64 10000 7.2 70 23:18 22.10.2019
5691 Clouds 22 1017 64 10000 8.2 70 22:40 22.10.2019
5692 Rain 22 1016 64 10000 9.3 80 22:22 22.10.2019
5693 Rain 22 1017 64 10000 6.2 90 21:57 22.10.2019
5694 Rain 21 1017 64 10000 6.2 90 21:38 22.10.2019
5695 Clouds 22 1016 53 10000 7.7 70 21:19 22.10.2019
5696 Clouds 22 1016 57 10000 9.8 70 20:58 22.10.2019
5697 Clouds 22 1016 57 10000 9.8 70 20:40 22.10.2019
5698 Clouds 22 1016 57 10000 9.8 70 20:40 22.10.2019
5699 Clouds 22 1017 69 10000 6.7 90 20:22 22.10.2019
5700 Clouds 23 1017 69 10000 6.7 90 19:59 22.10.2019
5701 Clouds 24 1017 69 10000 6.7 90 19:41 22.10.2019
5702 Clouds 24 1017 69 10000 6.2 80 19:22 22.10.2019
5703 Clouds 24 1016 69 10000 6.7 80 18:56 22.10.2019
5704 Clouds 23 1016 69 10000 6.7 70 18:38 22.10.2019
5705 Clouds 23 1016 69 10000 6.7 70 18:20 22.10.2019
5706 Clouds 22 1016 73 10000 9.3 80 17:55 22.10.2019
5707 Clouds 22 1016 73 10000 9.3 80 17:36 22.10.2019
5708 Clouds 23 1017 73 10000 9.3 80 17:18 22.10.2019
5709 Clouds 23 1017 64 10000 7.2 80 16:55 22.10.2019
5710 Clouds 23 1017 64 10000 7.2 80 16:36 22.10.2019
5711 Clouds 23 1017 69 10000 8.7 80 16:18 22.10.2019
5712 Clouds 23 1017 73 10000 9.3 80 15:42 22.10.2019
5713 Clouds 23 1017 73 10000 9.3 80 15:20 22.10.2019
5714 Clouds 23 1017 73 10000 10.3 80 14:47 22.10.2019
5715 Clouds 22 1018 64 10000 4.1 70 14:22 22.10.2019
5716 Clouds 23 1018 73 10000 10.8 70 13:59 22.10.2019
5717 Clouds 22 1018 73 10000 10.8 70 13:41 22.10.2019
5718 Clouds 22 1019 73 10000 10.3 70 13:18 22.10.2019
5719 Clouds 22 1019 73 10000 10.3 70 12:55 22.10.2019
5720 Clouds 22 1019 73 10000 10.3 70 12:37 22.10.2019
5721 Clouds 21 1019 73 10000 4.1 70 12:19 22.10.2019
5722 Clouds 21 1020 78 10000 9.3 60 11:40 22.10.2019
5723 Clouds 21 1020 78 10000 8.2 70 11:22 22.10.2019
5724 Clouds 21 1019 78 10000 7.2 60 10:59 22.10.2019
5725 Clouds 20 1019 78 10000 7.2 60 10:38 22.10.2019
5726 Clouds 20 1020 73 10000 5.1 50 10:19 22.10.2019
5727 Clouds 20 1020 73 10000 5.1 50 10:19 22.10.2019
5728 Clouds 19 1020 77 10000 4.1 330 09:58 22.10.2019
5729 Clouds 19 1020 77 10000 4.1 330 09:40 22.10.2019
5730 Clouds 19 1020 77 10000 3.1 340 09:21 22.10.2019
5731 Clouds 18 1019 82 10000 3.6 330 08:55 22.10.2019
5732 Clouds 18 1019 82 10000 3.6 330 08:36 22.10.2019
5733 Clouds 18 1019 82 10000 2.6 350 08:18 22.10.2019
5734 Clouds 18 1019 82 10000 2.6 350 07:41 22.10.2019
5735 Clouds 18 1019 77 10000 2.6 350 07:22 22.10.2019
5736 Clouds 18 1019 77 10000 3.6 40 06:40 22.10.2019
5737 Clouds 18 1019 77 10000 2.6 30 06:20 22.10.2019
5738 Clouds 18 1019 77 10000 3.1 10 05:27 22.10.2019
5739 Rain 18 1019 77 10000 3.6 350 04:22 22.10.2019
5740 Clouds 18 1020 77 10000 2.6 340 02:30 22.10.2019
5741 Clouds 17 1020 77 10000 2.6 340 01:38 22.10.2019
5742 Clouds 17 1020 77 10000 2.6 330 01:18 22.10.2019
5743 Clouds 17 1020 77 10000 3.1 330 00:42 22.10.2019
5744 Clouds 18 1020 77 10000 3.6 340 00:24 22.10.2019
5745 Clouds 17 1020 77 10000 2.6 360 23:59 21.10.2019
5746 Clouds 17 1020 77 10000 2.6 360 23:38 21.10.2019
5747 Clouds 18 1020 72 10000 3.1 360 23:19 21.10.2019
5748 Clouds 17 1019 77 10000 3.6 360 22:58 21.10.2019
5749 Clouds 17 1019 77 10000 3.6 360 22:39 21.10.2019
5750 Clouds 17 1019 77 10000 3.6 360 22:39 21.10.2019
5751 Clouds 17 1019 77 10000 2.6 350 22:20 21.10.2019
5752 Clouds 17 1019 77 10000 2.6 350 22:20 21.10.2019
5753 Clouds 17 1020 82 10000 2.6 340 21:56 21.10.2019
5754 Clouds 17 1020 82 10000 2.6 340 21:38 21.10.2019
5755 Rain 18 1020 82 10000 2.6 330 21:19 21.10.2019
5756 Clouds 17 1020 82 10000 3.1 330 20:57 21.10.2019
5757 Clouds 18 1020 82 10000 3.1 330 20:38 21.10.2019
5758 Clouds 18 1020 82 10000 2.1 310 20:20 21.10.2019
5759 Clouds 18 1019 77 10000 3.1 360 19:55 21.10.2019
5760 Clouds 18 1019 77 10000 3.1 360 19:37 21.10.2019
5761 Clouds 18 1020 88 10000 2.6 310 19:18 21.10.2019
5762 Clouds 19 1019 88 10000 3.1 260 18:55 21.10.2019
5763 Clouds 18 1019 82 10000 1.5 220 18:36 21.10.2019
5764 Clouds 18 1019 82 10000 1.5 220 18:36 21.10.2019
5765 Clouds 19 1019 82 10000 1.5 220 18:18 21.10.2019
5766 Clouds 19 1019 82 10000 1.5 220 18:18 21.10.2019
5767 Clouds 19 1019 82 10000 1.5 220 18:18 21.10.2019
5768 Clouds 19 1019 82 10000 2.39 305 17:39 21.10.2019
5769 Clouds 19 1019 82 10000 2.1 260 17:20 21.10.2019
5770 Clouds 18 1019 82 10000 1.5 230 16:58 21.10.2019
5771 Clouds 18 1019 82 10000 1.5 230 16:40 21.10.2019
5772 Clouds 19 1020 82 10000 1.5 240 16:22 21.10.2019
5773 Clouds 19 1020 88 10000 2.1 310 15:58 21.10.2019
5774 Clouds 19 1020 88 10000 2.1 310 15:39 21.10.2019
5775 Clouds 18 1020 88 10000 2.6 270 15:19 21.10.2019
5776 Clouds 18 1020 88 10000 2.1 310 14:55 21.10.2019
5777 Clouds 18 1020 88 10000 2.1 310 14:36 21.10.2019
5778 Rain 18 1020 93 10000 2.6 280 14:18 21.10.2019
5779 Rain 18 1020 88 10000 2.6 290 13:42 21.10.2019
5780 Clouds 18 1020 82 10000 1.5 0 13:20 21.10.2019
5781 Clouds 18 1020 82 10000 2.6 40 12:59 21.10.2019
5782 Clouds 18 1020 82 10000 2.6 40 12:40 21.10.2019
5783 Clouds 17 1020 88 10000 2.6 20 12:21 21.10.2019
5784 Clouds 17 1020 93 10000 2.6 40 11:55 21.10.2019
5785 Rain 17 1020 93 10000 2.6 40 11:37 21.10.2019
5786 Rain 17 1020 93 10000 2.6 20 11:18 21.10.2019
5787 Rain 17 1020 88 10000 3.1 320 10:55 21.10.2019
5788 Rain 17 1020 88 10000 4.1 330 10:36 21.10.2019
5789 Rain 17 1020 88 10000 4.1 330 10:18 21.10.2019
5790 Rain 17 1019 88 10000 4.1 330 09:42 21.10.2019
5791 Rain 17 1018 88 10000 3.6 320 09:22 21.10.2019
5792 Rain 17 1017 82 10000 5.7 320 08:43 21.10.2019
5793 Clouds 17 1017 82 10000 3.6 330 08:23 21.10.2019
5794 Rain 17 1016 82 10000 4.6 320 07:59 21.10.2019
5795 Rain 17 1016 82 10000 4.6 320 07:37 21.10.2019
5796 Clouds 17 1016 88 10000 2.6 330 07:19 21.10.2019
5797 Rain 17 1016 100 10000 0.5 0 06:51 21.10.2019
5798 Clouds 17 1016 88 10000 4.6 350 06:32 21.10.2019
5799 Rain 16 1016 88 10000 4.1 330 05:46 21.10.2019
5800 Rain 16 1017 88 10000 1 0 04:43 21.10.2019
5801 Rain 17 1015 93 7000 7.7 320 02:42 21.10.2019
5802 Rain 17 1016 88 10000 3.6 300 02:22 21.10.2019
5803 Rain 17 1016 88 10000 3.6 300 02:22 21.10.2019
5804 Rain 18 1016 88 10000 2.6 350 01:52 21.10.2019
5805 Rain 17 1015 93 10000 3.6 340 01:23 21.10.2019
5806 Clouds 18 1015 93 10000 3.6 340 00:42 21.10.2019
5807 Clouds 18 1015 93 10000 4.1 330 00:24 21.10.2019
5808 Rain 18 1016 88 10000 2.6 340 23:41 20.10.2019
5809 Rain 18 1016 88 10000 4.6 30 23:22 20.10.2019
5810 Rain 18 1016 93 10000 5.1 20 22:56 20.10.2019
5811 Rain 18 1016 93 10000 5.1 20 22:37 20.10.2019
5812 Rain 18 1017 93 10000 3.6 20 22:18 20.10.2019
5813 Rain 18 1016 93 7000 2.6 360 21:57 20.10.2019
5814 Rain 18 1016 93 7000 2.6 360 21:38 20.10.2019
5815 Rain 18 1016 88 9000 2.1 320 21:20 20.10.2019
5816 Rain 18 1015 88 10000 2.1 350 20:41 20.10.2019
5817 Rain 18 1015 82 10000 3.1 360 20:19 20.10.2019
5818 Rain 18 1015 88 10000 2.6 310 19:56 20.10.2019
5819 Rain 18 1015 88 10000 2.6 310 19:38 20.10.2019
5820 Rain 19 1014 88 10000 3.6 30 19:20 20.10.2019
5821 Rain 19 1014 88 10000 5.1 20 18:55 20.10.2019
5822 Rain 19 1014 88 10000 5.1 20 18:55 20.10.2019
5823 Rain 19 1014 88 10000 5.1 20 18:36 20.10.2019
5824 Rain 19 1015 77 1600 5.1 0 18:18 20.10.2019
5825 Rain 20 1014 88 10000 6.2 70 17:42 20.10.2019
5826 Thunderstorm 20 1014 83 10000 5.1 60 17:23 20.10.2019
5827 Clouds 20 1014 83 10000 6.2 60 16:59 20.10.2019
5828 Clouds 21 1014 83 10000 6.2 60 16:41 20.10.2019
5829 Clouds 21 1014 88 10000 8.2 70 16:22 20.10.2019
5830 Clouds 21 1014 88 10000 7.2 60 15:57 20.10.2019
5831 Clouds 20 1013 78 10000 4.1 70 15:38 20.10.2019
5832 Clouds 20 1013 78 10000 4.1 70 15:19 20.10.2019
5833 Clouds 20 1013 78 10000 3.6 60 14:57 20.10.2019
5834 Clouds 20 1013 78 10000 3.6 60 14:37 20.10.2019
5835 Clouds 20 1014 88 10000 10.3 70 14:19 20.10.2019
5836 Clouds 20 1014 88 10000 9.3 80 13:55 20.10.2019
5837 Clouds 20 1014 88 10000 9.3 80 13:36 20.10.2019
5838 Clouds 20 1014 88 10000 10.3 70 13:18 20.10.2019
5839 Clouds 20 1014 83 10000 9.3 60 12:55 20.10.2019
5840 Clouds 20 1014 83 10000 9.3 60 12:37 20.10.2019
5841 Clouds 20 1014 83 10000 9.3 60 12:37 20.10.2019
5842 Clouds 19 1014 83 10000 8.7 70 12:19 20.10.2019
5843 Clouds 19 1014 83 10000 10.3 70 11:41 20.10.2019
5844 Clouds 19 1014 83 10000 12.3 80 11:23 20.10.2019
5845 Clouds 19 1014 88 10000 11.8 80 10:59 20.10.2019
5846 Clouds 19 1014 88 10000 11.8 80 10:40 20.10.2019
5847 Clouds 19 1014 83 10000 9.3 70 10:21 20.10.2019
5848 Clouds 19 1014 77 10000 3.6 40 09:57 20.10.2019
5849 Clouds 18 1014 77 10000 3.6 40 09:38 20.10.2019
5850 Clouds 18 1014 77 10000 3.1 30 09:20 20.10.2019
5851 Clouds 18 1014 82 10000 2.6 340 08:45 20.10.2019
5852 Clouds 17 1013 82 10000 3.6 340 08:22 20.10.2019
5853 Clouds 18 1014 82 10000 3.6 330 07:50 20.10.2019
5854 Clouds 17 1014 82 10000 4.1 330 07:30 20.10.2019
5855 Clouds 17 1014 82 10000 2.1 330 06:32 20.10.2019
5856 Clouds 17 1013 82 10000 2.1 330 05:58 20.10.2019
5857 Clouds 17 1013 88 10000 3.6 340 04:25 20.10.2019
5858 Clouds 17 1014 93 10000 3.6 20 03:41 20.10.2019
5859 Clouds 17 1014 93 10000 2.1 10 03:20 20.10.2019
5860 Clouds 18 1014 88 10000 3.1 50 02:38 20.10.2019
5861 Clouds 18 1014 88 10000 3.6 120 01:58 20.10.2019
5862 Clouds 18 1014 88 10000 3.1 100 01:23 20.10.2019
5863 Clouds 18 1014 88 10000 2.6 80 00:55 20.10.2019
5864 Clouds 18 1014 88 10000 3.6 130 00:22 20.10.2019
5865 Clouds 18 1014 94 10000 4.1 140 23:59 19.10.2019
5866 Clouds 18 1014 94 10000 4.1 140 23:41 19.10.2019
5867 Clouds 18 1014 94 10000 3.6 160 23:22 19.10.2019
5868 Clouds 18 1014 94 10000 4.6 170 22:56 19.10.2019
5869 Clouds 19 1014 94 10000 4.6 170 22:37 19.10.2019
5870 Clouds 19 1014 94 10000 5.7 170 22:19 19.10.2019
5871 Clouds 19 1014 94 10000 6.2 170 21:45 19.10.2019
5872 Clouds 19 1014 94 10000 6.2 170 21:45 19.10.2019
5873 Clouds 19 1014 94 10000 5.7 160 21:22 19.10.2019
5874 Clouds 19 1014 94 10000 5.7 170 20:45 19.10.2019
5875 Clouds 19 1014 94 10000 5.1 180 20:23 19.10.2019
5876 Clouds 19 1014 88 10000 6.2 180 19:59 19.10.2019
5877 Clouds 19 1014 88 10000 6.2 180 19:40 19.10.2019
5878 Clouds 20 1013 88 10000 6.2 180 19:22 19.10.2019
5879 Clouds 20 1013 88 10000 6.2 180 18:42 19.10.2019
5880 Clouds 19 1013 88 10000 6.2 180 18:24 19.10.2019
5881 Clouds 19 1013 88 10000 6.2 180 18:24 19.10.2019
5882 Clouds 19 1013 88 10000 7.2 180 17:57 19.10.2019
5883 Clouds 19 1013 88 10000 7.2 180 17:37 19.10.2019
5884 Clouds 19 1013 88 10000 7.2 190 17:19 19.10.2019
5885 Clouds 19 1013 88 10000 7.2 190 16:39 19.10.2019
5886 Clouds 19 1013 88 10000 7.2 190 16:20 19.10.2019
5887 Clouds 19 1013 88 10000 7.7 190 15:56 19.10.2019
5888 Clouds 19 1013 88 10000 7.7 190 15:38 19.10.2019
5889 Clouds 19 1013 88 10000 7.2 200 15:19 19.10.2019
5890 Clouds 19 1013 88 10000 6.2 200 14:38 19.10.2019
5891 Clouds 18 1013 82 10000 1.5 330 14:20 19.10.2019
5892 Clouds 18 1013 88 10000 3.1 0 13:56 19.10.2019
5893 Rain 18 1013 88 10000 3.1 0 13:37 19.10.2019
5894 Rain 18 1013 88 10000 3.1 0 13:37 19.10.2019
5895 Rain 18 1014 88 10000 3.1 290 13:18 19.10.2019
5896 Rain 17 1014 93 10000 5.1 330 12:40 19.10.2019
5897 Rain 17 1014 88 10000 4.1 340 12:22 19.10.2019
5898 Rain 17 1014 94 10000 8.7 150 11:59 19.10.2019
5899 Rain 17 1014 94 10000 8.7 150 11:40 19.10.2019
5900 Rain 17 1014 88 8000 2.6 330 11:22 19.10.2019
5901 Rain 17 1014 88 10000 3.1 340 10:42 19.10.2019
5902 Rain 17 1014 88 10000 3.6 340 10:23 19.10.2019
5903 Clouds 17 1014 88 10000 3.1 330 09:59 19.10.2019
5904 Clouds 17 1014 88 10000 3.1 330 09:41 19.10.2019
5905 Clouds 17 1014 88 10000 3.1 330 09:41 19.10.2019
5906 Clouds 16 1014 88 10000 3.1 330 09:22 19.10.2019
5907 Clouds 16 1014 88 10000 3.1 330 09:22 19.10.2019
5908 Clouds 16 1014 88 10000 3.6 330 08:57 19.10.2019
5909 Rain 16 1014 88 10000 3.6 330 08:39 19.10.2019
5910 Rain 16 1014 88 10000 3.6 330 08:39 19.10.2019
5911 Rain 16 1014 88 10000 3.1 350 08:19 19.10.2019
5912 Rain 16 1014 88 10000 3.1 330 07:41 19.10.2019
5913 Clouds 16 1014 88 10000 3.1 340 07:23 19.10.2019
5914 Rain 16 1014 88 10000 3.1 340 06:39 19.10.2019
5915 Rain 16 1014 88 10000 3.6 330 05:54 19.10.2019
5916 Rain 16 1014 88 10000 4.1 340 05:26 19.10.2019
5917 Clouds 16 1015 88 10000 2.1 330 03:22 19.10.2019
5918 Clouds 16 1015 88 10000 2.1 330 03:22 19.10.2019
5919 Clouds 16 1015 88 10000 2.6 340 02:35 19.10.2019
5920 Clouds 16 1015 88 10000 2.6 330 01:50 19.10.2019
5921 Clouds 16 1016 88 10000 1.5 340 00:59 19.10.2019
5922 Clouds 16 1016 88 10000 1.5 340 00:41 19.10.2019
5923 Rain 16 1016 88 10000 2.1 330 00:21 19.10.2019
5924 Clouds 16 1016 88 10000 2.1 330 23:40 18.10.2019
5925 Clouds 16 1016 93 10000 1.5 330 23:21 18.10.2019
5926 Clouds 16 1016 93 10000 2.6 340 22:55 18.10.2019
5927 Clouds 16 1016 93 10000 2.6 340 22:37 18.10.2019
5928 Clouds 16 1016 93 10000 2.1 320 22:19 18.10.2019
5929 Clouds 16 1016 88 10000 1 0 21:56 18.10.2019
5930 Clouds 16 1016 88 10000 1 0 21:56 18.10.2019
5931 Clouds 16 1016 88 10000 1 0 21:37 18.10.2019
5932 Clouds 16 1016 88 10000 1 0 21:37 18.10.2019
5933 Rain 16 1016 88 10000 3.1 340 21:18 18.10.2019
5934 Clouds 16 1016 88 10000 3.1 30 20:43 18.10.2019
5935 Rain 16 1016 82 10000 3.1 30 20:24 18.10.2019
5936 Rain 16 1016 88 10000 4.1 10 19:59 18.10.2019
5937 Rain 16 1016 88 10000 4.1 10 19:41 18.10.2019
5938 Rain 16 1016 88 10000 5.1 10 19:22 18.10.2019
5939 Rain 16 1016 88 3300 3.6 60 18:59 18.10.2019
5940 Rain 17 1016 88 3300 3.6 60 18:41 18.10.2019
5941 Rain 16 1016 88 8000 2.6 10 18:23 18.10.2019
5942 Rain 17 1016 88 8000 1.5 0 17:57 18.10.2019
5943 Rain 17 1016 88 8000 1.5 0 17:37 18.10.2019
5944 Rain 17 1016 82 8000 1.97 140.76 17:19 18.10.2019
5945 Rain 18 1016 82 10000 1.5 170 16:44 18.10.2019
5946 Rain 18 1016 82 10000 1.5 170 16:44 18.10.2019
5947 Rain 18 1016 77 10000 2.1 180 16:22 18.10.2019
5948 Rain 18 1016 77 10000 2.1 170 15:58 18.10.2019
5949 Rain 18 1016 77 10000 2.1 170 15:39 18.10.2019
5950 Rain 19 1016 73 10000 1.5 160 15:20 18.10.2019
5951 Clouds 19 1017 68 10000 1.5 0 14:57 18.10.2019
5952 Clouds 19 1017 68 10000 1.5 0 14:38 18.10.2019
5953 Clouds 19 1017 68 10000 1 0 14:20 18.10.2019
5954 Clouds 19 1018 68 10000 1.5 0 13:58 18.10.2019
5955 Clouds 19 1018 68 10000 1.5 0 13:39 18.10.2019
5956 Clouds 19 1018 68 10000 1 0 13:21 18.10.2019
5957 Clouds 19 1018 64 10000 0.5 0 12:56 18.10.2019
5958 Clouds 19 1018 64 10000 0.5 0 12:56 18.10.2019
5959 Clouds 19 1018 64 10000 0.5 0 12:37 18.10.2019
5960 Clouds 19 1018 60 10000 2.1 330 12:19 18.10.2019
5961 Clouds 19 1018 60 10000 2.6 330 11:54 18.10.2019
5962 Clouds 19 1018 60 10000 2.6 330 11:36 18.10.2019
5963 Clouds 18 1018 63 10000 2.6 330 11:18 18.10.2019
5964 Clouds 18 1018 63 10000 2.6 330 11:18 18.10.2019
5965 Clouds 18 1018 68 10000 3.1 330 10:41 18.10.2019
5966 Clouds 17 1018 68 10000 3.6 330 10:22 18.10.2019
5967 Clouds 17 1018 68 10000 3.6 330 10:22 18.10.2019
5968 Clouds 17 1018 72 10000 4.1 330 09:58 18.10.2019
5969 Clouds 16 1018 72 10000 4.6 330 09:40 18.10.2019
5970 Clouds 14 1018 72 10000 4.6 330 09:20 18.10.2019
5971 Clouds 13 1017 72 10000 4.6 330 08:57 18.10.2019
5972 Clouds 15 1017 72 10000 4.6 330 08:39 18.10.2019
5973 Clouds 14 1017 77 10000 4.1 330 08:20 18.10.2019
5974 Clouds 14 1017 77 10000 4.1 330 07:42 18.10.2019
5975 Clouds 14 1017 82 10000 4.1 330 07:20 18.10.2019
5976 Clouds 14 1017 82 10000 4.6 330 06:39 18.10.2019
5977 Clouds 14 1017 82 10000 4.1 330 06:20 18.10.2019
5978 Clouds 14 1017 82 10000 4.1 330 05:55 18.10.2019
5979 Clouds 14 1017 77 10000 5.1 320 05:22 18.10.2019
5980 Clouds 15 1018 77 10000 2.6 340 03:56 18.10.2019
5981 Clouds 15 1018 77 10000 4.1 330 03:24 18.10.2019
5982 Clouds 15 1019 82 10000 4.6 330 02:33 18.10.2019
5983 Clouds 15 1019 82 10000 3.6 330 01:44 18.10.2019
5984 Clouds 15 1018 82 10000 4.6 330 01:26 18.10.2019
5985 Clouds 15 1019 82 10000 3.6 330 00:44 18.10.2019
5986 Clouds 15 1019 82 10000 3.6 330 00:20 18.10.2019
5987 Clouds 15 1019 87 10000 4.6 330 23:54 17.10.2019
5988 Clouds 15 1019 87 10000 4.6 330 23:36 17.10.2019
5989 Clouds 15 1019 82 10000 4.1 330 23:18 17.10.2019
5990 Clouds 15 1019 82 10000 3.1 320 22:54 17.10.2019
5991 Clouds 15 1019 82 10000 3.1 320 22:36 17.10.2019
5992 Clouds 15 1019 82 10000 3.6 330 22:18 17.10.2019
5993 Clouds 16 1018 77 10000 2.1 320 21:55 17.10.2019
5994 Clouds 16 1018 77 10000 2.1 320 21:55 17.10.2019
5995 Clouds 16 1018 77 10000 2.1 320 21:37 17.10.2019
5996 Clouds 16 1019 87 10000 1 0 21:19 17.10.2019
5997 Clouds 16 1018 77 10000 1.5 260 20:56 17.10.2019
5998 Clouds 16 1018 77 10000 1.5 260 20:37 17.10.2019
5999 Clouds 16 1018 72 10000 1.5 220 20:18 17.10.2019
6000 Clouds 14 1018 72 10000 1 250 19:42 17.10.2019
6001 Clouds 13 1018 72 10000 2.6 280 19:20 17.10.2019
6002 Clouds 13 1018 72 10000 2.6 280 19:20 17.10.2019
6003 Clouds 14 1018 77 10000 3.6 260 18:59 17.10.2019
6004 Clouds 13 1018 77 10000 3.6 260 18:38 17.10.2019
6005 Clouds 18 1018 77 10000 3.6 240 18:20 17.10.2019
6006 Clouds 18 1018 77 10000 3.1 230 17:43 17.10.2019
6007 Clouds 18 1018 77 10000 3.1 220 17:25 17.10.2019
6008 Clouds 18 1018 72 10000 3.6 230 16:59 17.10.2019
6009 Clouds 18 1018 72 10000 3.6 230 16:41 17.10.2019
6010 Clouds 18 1018 72 10000 3.1 220 16:19 17.10.2019
6011 -273 0 0 0 0 0 15:57 17.10.2019
6012 Clouds 18 1019 77 10000 3.1 210 15:57 17.10.2019
6013 Clouds 18 1019 77 10000 3.1 210 15:38 17.10.2019
6014 Clouds 18 1019 77 10000 3.1 210 15:38 17.10.2019
6015 Clouds 18 1019 77 10000 3.6 200 15:20 17.10.2019
6016 Clouds 19 1019 77 10000 3.6 180 14:56 17.10.2019
6017 Clouds 18 1019 77 10000 3.6 180 14:38 17.10.2019
6018 Clouds 19 1019 77 10000 4.1 180 14:20 17.10.2019
6019 Clouds 19 1019 72 10000 1.5 160 13:40 17.10.2019
6020 Clouds 20 1019 68 10000 3.6 170 13:20 17.10.2019
6021 Clouds 20 1020 64 10000 2.6 180 12:58 17.10.2019
6022 Clouds 19 1020 64 10000 2.6 180 12:38 17.10.2019
6023 Clouds 19 1020 60 10000 2.1 200 12:19 17.10.2019
6024 Clouds 19 1020 60 10000 1 0 11:56 17.10.2019
6025 Clouds 19 1020 60 10000 1 0 11:37 17.10.2019
6026 Clouds 19 1020 63 10000 3.1 320 11:18 17.10.2019
6027 Clouds 18 1020 68 10000 3.1 330 10:42 17.10.2019
6028 Clouds 17 1020 72 10000 3.6 340 10:20 17.10.2019
6029 Clouds 16 1020 72 10000 3.1 330 09:57 17.10.2019
6030 Clouds 16 1020 72 10000 3.1 330 09:38 17.10.2019
6031 Clouds 15 1019 72 10000 3.1 330 09:20 17.10.2019
6032 Clouds 15 1019 77 10000 3.1 330 08:56 17.10.2019
6033 Clouds 14 1019 77 10000 3.1 330 08:37 17.10.2019
6034 Clouds 14 1019 77 10000 2.6 330 08:18 17.10.2019
6035 Clouds 14 1019 77 10000 2.6 330 08:18 17.10.2019
6036 Rain 14 1019 82 10000 3.1 340 07:43 17.10.2019
6037 Rain 14 1019 87 10000 3.1 340 07:21 17.10.2019
6038 Rain 14 1019 87 10000 4.6 330 06:56 17.10.2019
6039 Rain 14 1019 87 10000 4.6 330 06:38 17.10.2019
6040 Rain 14 1019 82 10000 4.1 330 06:19 17.10.2019
6041 Clouds 14 1019 77 10000 4.6 320 05:41 17.10.2019
6042 Clouds 15 1019 67 10000 4.1 300 05:20 17.10.2019
6043 Clouds 14 1019 67 10000 4.6 320 04:50 17.10.2019
6044 Clouds 15 1019 67 10000 4.6 330 03:50 17.10.2019
6045 Clouds 15 1019 72 10000 4.6 320 02:35 17.10.2019
6046 Clouds 14 1019 77 10000 3.6 310 00:44 17.10.2019
6047 Clouds 14 1019 82 10000 4.1 320 00:22 17.10.2019
6048 Clouds 14 1018 72 10000 3.1 320 23:59 16.10.2019
6049 -273 0 0 0 0 0 23:41 16.10.2019
6050 Clouds 15 1018 72 10000 3.6 330 23:20 16.10.2019
6051 Clouds 15 1018 72 10000 3.6 320 22:55 16.10.2019
6052 Clouds 15 1018 72 10000 3.6 320 22:55 16.10.2019
6053 Clouds 15 1018 72 10000 3.6 320 22:36 16.10.2019
6054 Clouds 15 1018 77 10000 4.1 320 22:18 16.10.2019
6055 Clouds 15 1018 77 10000 2.6 310 21:55 16.10.2019
6056 Clouds 15 1018 77 10000 2.6 310 21:37 16.10.2019
6057 Clouds 15 1017 67 10000 3.1 320 21:18 16.10.2019
6058 Clouds 15 1017 67 10000 3.1 320 21:18 16.10.2019
6059 Clouds 16 1017 72 10000 1.5 330 20:56 16.10.2019
6060 Clouds 16 1017 72 10000 1.5 330 20:38 16.10.2019
6061 Clouds 16 1017 63 10000 2.1 300 20:20 16.10.2019
6062 Clouds 16 1017 63 10000 2.1 300 20:20 16.10.2019
6063 Clouds 17 1016 60 10000 4.1 30 19:56 16.10.2019
6064 Clouds 15 1016 60 10000 4.1 30 19:38 16.10.2019
6065 Clouds 15 1016 64 10000 4.6 60 19:19 16.10.2019
6066 Clouds 15 1016 60 10000 3.6 60 18:39 16.10.2019
6067 Clear 19 1016 60 10000 3.1 70 18:19 16.10.2019
6068 Clear 20 1016 49 10000 2.1 90 17:56 16.10.2019
6069 Clear 20 1016 49 10000 2.1 90 17:38 16.10.2019
6070 Clear 20 1016 49 10000 2.1 90 17:38 16.10.2019
6071 Clouds 20 1016 56 10000 3.1 150 17:19 16.10.2019
6072 Clouds 20 1016 56 10000 3.1 150 17:19 16.10.2019
6073 -273 0 0 0 0 0 16:58 16.10.2019
6074 Clouds 21 1016 56 10000 2.6 100 16:39 16.10.2019
6075 Clouds 21 1016 56 10000 1.5 90 16:20 16.10.2019
6076 Clouds 21 1017 52 10000 1.5 130 15:55 16.10.2019
6077 Clouds 21 1017 52 10000 1.5 130 15:36 16.10.2019
6078 Clouds 21 1017 56 10000 3.1 150 15:18 16.10.2019
6079 Clouds 21 1017 56 10000 4.1 170 14:56 16.10.2019
6080 Clouds 21 1017 56 10000 4.1 170 14:38 16.10.2019
6081 Clouds 20 1017 60 10000 4.1 180 14:18 16.10.2019
6082 Clouds 20 1017 64 10000 4.6 180 13:56 16.10.2019
6083 Clouds 20 1017 64 10000 4.6 180 13:37 16.10.2019
6084 Clouds 20 1017 60 10000 3.1 190 13:18 16.10.2019
6085 Clouds 20 1017 56 10000 2.6 190 12:41 16.10.2019
6086 Clouds 19 1017 55 10000 1.5 260 12:18 16.10.2019
6087 Clouds 19 1017 45 10000 3.1 330 11:43 16.10.2019
6088 Clouds 18 1017 52 10000 4.1 320 11:18 16.10.2019
6089 Clouds 17 1017 55 10000 4.6 330 10:40 16.10.2019
6090 Clouds 16 1016 58 10000 4.6 330 10:22 16.10.2019
6091 Clouds 15 1016 58 10000 4.1 340 09:58 16.10.2019
6092 Clouds 15 1016 58 10000 4.1 340 09:38 16.10.2019
6093 Clouds 12 1016 58 10000 4.6 340 09:20 16.10.2019
6094 Clouds 11 1015 62 10000 3.6 340 08:43 16.10.2019
6095 Clouds 12 1015 62 10000 2.6 350 08:25 16.10.2019
6096 Clouds 11 1015 62 10000 3.6 350 07:56 16.10.2019
6097 Clouds 11 1015 62 10000 3.6 350 07:38 16.10.2019
6098 Clouds 11 1014 62 10000 5.1 340 07:20 16.10.2019
6099 Clouds 11 1014 62 10000 6.7 320 06:40 16.10.2019
6100 Clouds 11 1014 58 10000 5.7 330 06:19 16.10.2019
6101 Clouds 12 1012 67 10000 4.1 260 03:46 16.10.2019
6102 Clouds 12 1012 55 10000 1.5 0 02:50 16.10.2019
6103 Clouds 12 1011 51 10000 2.6 320 01:20 16.10.2019
6104 Clouds 12 1010 51 10000 7.7 270 00:57 16.10.2019
6105 Clouds 12 1010 51 10000 7.7 270 00:37 16.10.2019
6106 Clear 13 1010 51 10000 3.6 330 23:42 15.10.2019
6107 Clear 16 1010 52 10000 7.2 280 23:22 15.10.2019
6108 Clear 17 1010 59 10000 6.2 320 22:58 15.10.2019
6109 Clear 17 1010 59 10000 6.2 320 22:40 15.10.2019
6110 Clear 17 1010 48 10000 4.6 290 22:21 15.10.2019
6111 Clear 17 1010 59 10000 3.1 300 21:57 15.10.2019
6112 Clear 17 1010 59 10000 3.1 300 21:38 15.10.2019
6113 Clear 17 1010 55 10000 7.2 250 21:20 15.10.2019
6114 Clear 17 1010 55 10000 7.2 250 21:20 15.10.2019
6115 Clear 17 1010 59 10000 8.7 240 20:58 15.10.2019
6116 Clear 17 1010 59 10000 8.7 240 20:40 15.10.2019
6117 Clear 17 1010 59 10000 8.2 230 20:22 15.10.2019
6118 Clouds 17 1010 59 10000 9.3 240 19:59 15.10.2019
6119 Clouds 15 1010 59 10000 9.3 240 19:41 15.10.2019
6120 Clouds 15 1009 59 10000 8.7 240 19:20 15.10.2019
6121 Clouds 15 1008 60 10000 11.3 240 18:57 15.10.2019
6122 Clouds 15 1008 60 10000 11.3 240 18:39 15.10.2019
6123 Clouds 19 1008 56 10000 11.3 240 18:20 15.10.2019
6124 Rain 19 1009 52 10000 5.7 260 17:42 15.10.2019
6125 Rain 19 1009 52 10000 5.7 260 17:42 15.10.2019
6126 Clouds 20 1008 64 10000 8.2 230 17:21 15.10.2019
6127 Clouds 20 1008 68 10000 7.2 220 16:59 15.10.2019
6128 Clouds 20 1008 68 10000 7.2 220 16:41 15.10.2019
6129 Clouds 20 1008 83 10000 5.1 200 16:21 15.10.2019
6130 Clouds 20 1009 77 10000 3.6 200 15:55 15.10.2019
6131 Clouds 20 1009 77 10000 3.6 200 15:37 15.10.2019
6132 Clouds 19 1009 77 10000 3.6 240 15:19 15.10.2019
6133 Clouds 19 1009 77 10000 1 0 14:55 15.10.2019
6134 Clouds 19 1009 77 10000 1 0 14:36 15.10.2019
6135 Clouds 18 1010 77 10000 1 0 14:18 15.10.2019
6136 Rain 18 1009 88 10000 1.5 0 13:43 15.10.2019
6137 Rain 17 1010 93 10000 2.6 330 13:20 15.10.2019
6138 Rain 17 1011 93 10000 2.6 330 12:46 15.10.2019
6139 Thunderstorm 17 1010 93 10000 1 0 12:23 15.10.2019
6140 Thunderstorm 17 1011 88 1300 8.7 250 11:59 15.10.2019
6141 Thunderstorm 17 1011 88 1300 8.7 250 11:41 15.10.2019
6142 Thunderstorm 18 1010 88 10000 8.2 160 11:20 15.10.2019
6143 Thunderstorm 18 1010 88 10000 8.2 160 11:20 15.10.2019
6144 Clouds 19 1010 88 10000 8.2 150 10:55 15.10.2019
6145 Thunderstorm 19 1010 88 10000 8.2 150 10:37 15.10.2019
6146 Clouds 19 1010 88 10000 8.2 130 10:18 15.10.2019
6147 Thunderstorm 20 1010 88 10000 8.2 120 09:40 15.10.2019
6148 -273 0 0 0 0 0 09:40 15.10.2019
6149 Clouds 20 1010 88 10000 6.7 100 09:21 15.10.2019
6150 Clouds 20 1010 88 10000 7.7 130 08:58 15.10.2019
6151 Clouds 20 1010 88 10000 7.7 130 08:58 15.10.2019
6152 Clouds 21 1010 88 10000 7.7 130 08:40 15.10.2019
6153 Thunderstorm 20 1011 94 4000 7.7 120 08:20 15.10.2019
6154 Clouds 19 1010 88 10000 9.8 110 07:44 15.10.2019
6155 Rain 19 1011 83 10000 9.8 110 07:23 15.10.2019
6156 Rain 18 1011 78 10000 10.8 110 06:58 15.10.2019
6157 Rain 18 1011 78 10000 10.8 110 06:39 15.10.2019
6158 Rain 18 1012 82 3000 5.7 70 05:56 15.10.2019
6159 Rain 18 1012 82 3000 5.7 70 05:37 15.10.2019
6160 Thunderstorm 18 1012 77 10000 2.6 330 04:53 15.10.2019
6161 Rain 19 1013 72 10000 2.6 340 04:19 15.10.2019
6162 Clouds 19 1014 72 10000 3.1 360 03:35 15.10.2019
6163 Clouds 19 1014 72 10000 3.6 330 03:35 15.10.2019
6164 Clear 18 1015 77 10000 1.5 0 01:59 15.10.2019
6165 Clear 18 1015 77 10000 1.5 0 01:40 15.10.2019
6166 Clouds 19 1016 77 10000 1 0 00:59 15.10.2019
6167 Clouds 19 1016 77 10000 2.1 330 00:26 15.10.2019
6168 Clear 19 1016 77 10000 1.5 360 23:59 14.10.2019
6169 Clear 19 1017 77 10000 2.1 350 23:38 14.10.2019
6170 Clear 19 1017 77 10000 2.1 350 23:19 14.10.2019
6171 Clear 19 1017 77 10000 2.1 350 23:19 14.10.2019
6172 Clear 18 1017 73 10000 3.1 30 22:40 14.10.2019
6173 Clear 18 1017 73 10000 3.1 30 22:40 14.10.2019
6174 Clear 18 1017 68 10000 3.1 40 22:21 14.10.2019
6175 Clouds 18 1017 73 10000 6.2 60 21:59 14.10.2019
6176 Clouds 18 1017 73 10000 6.2 60 21:40 14.10.2019
6177 Clouds 18 1017 73 10000 6.2 60 21:40 14.10.2019
6178 Clouds 19 1017 78 10000 5.7 70 21:21 14.10.2019
6179 Clouds 19 1017 78 10000 5.7 70 21:21 14.10.2019
6180 Clouds 20 1017 78 10000 6.7 70 20:58 14.10.2019
6181 Clouds 20 1017 78 10000 6.7 70 20:38 14.10.2019
6182 -273 0 0 0 0 0 20:20 14.10.2019
6183 Clouds 20 1017 78 10000 6.7 70 19:58 14.10.2019
6184 Clouds 17 1017 78 10000 6.7 70 19:39 14.10.2019
6185 Clouds 17 1017 78 10000 6.7 70 19:39 14.10.2019
6186 Clouds 17 1017 78 10000 5.1 70 19:21 14.10.2019
6187 Clouds 17 1017 78 10000 5.1 80 18:57 14.10.2019
6188 Clouds 20 1017 78 10000 5.1 80 18:38 14.10.2019
6189 Clouds 21 1017 78 10000 6.2 80 18:18 14.10.2019
6190 Clouds 21 1017 78 10000 7.2 80 17:44 14.10.2019
6191 Clouds 22 1017 73 10000 8.2 80 17:25 14.10.2019
6192 Clouds 21 1017 73 10000 8.2 80 16:56 14.10.2019
6193 Clouds 21 1017 73 10000 8.2 80 16:38 14.10.2019
6194 Clouds 21 1017 73 10000 8.2 80 16:19 14.10.2019
6195 Clouds 22 1018 73 10000 8.7 90 15:41 14.10.2019
6196 Clouds 22 1018 69 10000 8.2 90 15:22 14.10.2019
6197 Clouds 22 1018 73 10000 7.2 80 14:44 14.10.2019
6198 Clouds 22 1019 73 10000 7.2 90 14:26 14.10.2019
6199 Clouds 22 1019 69 10000 7.2 80 13:59 14.10.2019
6200 Clouds 22 1019 69 10000 7.2 80 13:40 14.10.2019
6201 Clouds 23 1019 73 10000 7.7 90 13:21 14.10.2019
6202 Clouds 23 1020 73 10000 6.7 80 12:42 14.10.2019
6203 Clouds 21 1020 73 10000 4.1 80 12:21 14.10.2019
6204 Clouds 21 1020 73 10000 4.1 80 12:21 14.10.2019
6205 Clouds 20 1020 69 10000 5.1 80 11:59 14.10.2019
6206 Clouds 20 1020 69 10000 5.1 80 11:41 14.10.2019
6207 Clouds 20 1020 64 10000 4.1 70 11:22 14.10.2019
6208 Clouds 22 1020 60 10000 2.6 40 10:44 14.10.2019
6209 Clouds 21 1020 64 10000 3.6 330 10:23 14.10.2019
6210 Clouds 20 1020 64 10000 3.6 340 10:00 14.10.2019
6211 Clouds 19 1020 64 10000 3.6 340 09:41 14.10.2019
6212 Clouds 18 1020 68 10000 4.1 330 09:20 14.10.2019
6213 Clouds 18 1020 68 10000 3.6 340 08:49 14.10.2019
6214 Clouds 17 1020 72 10000 3.6 330 08:23 14.10.2019
6215 Clouds 17 1020 72 10000 3.1 340 07:47 14.10.2019
6216 Clouds 17 1020 72 10000 4.6 330 07:24 14.10.2019
6217 Clouds 17 1020 72 10000 3.6 330 06:57 14.10.2019
6218 Clouds 17 1020 72 10000 3.6 330 06:28 14.10.2019
6219 Clouds 18 1020 72 10000 2.6 340 05:55 14.10.2019
6220 Clouds 17 1020 82 10000 2.6 330 05:25 14.10.2019
6221 Clouds 17 1020 77 10000 3.1 340 03:50 14.10.2019
6222 Clouds 18 1021 77 10000 3.1 320 03:23 14.10.2019
6223 Clouds 18 1021 82 10000 3.1 330 02:25 14.10.2019
6224 Clouds 18 1021 77 10000 2.6 20 01:19 14.10.2019
6225 Clouds 19 1021 72 10000 1.5 40 00:42 14.10.2019
6226 Clouds 19 1022 73 10000 3.6 40 00:18 14.10.2019
6227 Clouds 16 1022 73 10000 5.7 80 23:41 13.10.2019
6228 Clouds 16 1021 73 10000 6.2 70 23:19 13.10.2019
6229 Clouds 15 1021 73 10000 5.1 70 22:57 13.10.2019
6230 Clouds 15 1021 73 10000 5.1 70 22:39 13.10.2019
6231 Clouds 15 1021 73 10000 5.7 70 22:20 13.10.2019
6232 Clouds 15 1021 73 10000 5.7 70 22:20 13.10.2019
6233 Clouds 15 1021 77 10000 7.7 80 21:57 13.10.2019
6234 Clouds 15 1021 77 10000 7.7 80 21:36 13.10.2019
6235 Clouds 16 1021 77 10000 7.7 80 21:18 13.10.2019
6236 Clouds 16 1021 77 10000 9.3 80 20:56 13.10.2019
6237 Clouds 17 1021 77 10000 8.7 80 20:37 13.10.2019
6238 Clouds 17 1021 77 10000 8.7 80 20:19 13.10.2019
6239 Clouds 17 1021 83 10000 8.7 80 19:55 13.10.2019
6240 Clouds 17 1021 83 10000 8.7 80 19:36 13.10.2019
6241 Clouds 17 1021 83 10000 8.7 80 19:18 13.10.2019
6242 Clouds 18 1021 83 10000 8.7 80 18:54 13.10.2019
6243 Clouds 18 1021 83 10000 8.2 80 18:36 13.10.2019
6244 Clouds 19 1021 83 10000 8.2 80 18:18 13.10.2019
6245 Clouds 19 1021 78 10000 8.2 80 17:42 13.10.2019
6246 Clouds 19 1021 78 10000 8.2 80 17:42 13.10.2019
6247 Clouds 19 1021 78 10000 8.2 80 17:42 13.10.2019
6248 Clouds 20 1021 78 10000 8.7 80 17:24 13.10.2019
6249 Clouds 20 1021 78 10000 8.2 80 16:45 13.10.2019
6250 Clouds 20 1021 73 10000 8.2 90 16:20 13.10.2019
6251 Clouds 21 1021 73 10000 8.2 90 15:59 13.10.2019
6252 Clouds 21 1021 73 10000 8.2 90 15:59 13.10.2019
6253 Clouds 21 1021 73 10000 8.2 90 15:39 13.10.2019
6254 Clouds 21 1021 73 10000 8.2 90 15:21 13.10.2019
6255 Clouds 21 1022 69 10000 7.2 90 14:59 13.10.2019
6256 Clouds 21 1022 69 10000 7.2 90 14:40 13.10.2019
6257 Clouds 21 1022 69 10000 7.2 90 14:22 13.10.2019
6258 Clouds 21 1022 73 10000 6.7 90 13:59 13.10.2019
6259 Clouds 22 1022 73 10000 6.7 90 13:38 13.10.2019
6260 Clouds 22 1022 73 10000 6.7 90 13:38 13.10.2019
6261 Clouds 22 1022 68 10000 5.7 90 13:38 13.10.2019
6262 Clouds 22 1022 68 10000 5.7 90 13:20 13.10.2019
6263 Clouds 22 1022 68 10000 5.1 90 12:56 13.10.2019
6264 Clouds 22 1022 68 10000 5.1 90 12:38 13.10.2019
6265 Clouds 20 1023 64 10000 3.6 90 12:19 13.10.2019
6266 Clear 21 1022 60 10000 1.5 0 11:58 13.10.2019
6267 Clear 19 1022 60 10000 1.5 0 11:38 13.10.2019
6268 Clear 19 1022 60 10000 1.5 0 11:38 13.10.2019
6269 Clear 18 1022 56 10000 2.6 330 11:19 13.10.2019
6270 Clear 18 1023 60 10000 3.6 330 10:42 13.10.2019
6271 Clouds 19 1022 63 10000 3.6 330 10:23 13.10.2019
6272 Clear 18 1022 68 10000 3.6 340 09:58 13.10.2019
6273 Clear 18 1022 68 10000 3.6 340 09:38 13.10.2019
6274 Clear 16 1022 72 10000 5.1 330 09:19 13.10.2019
6275 Clear 16 1022 72 10000 4.6 330 08:43 13.10.2019
6276 Clear 14 1022 72 10000 3.6 340 08:23 13.10.2019
6277 Clear 14 1022 72 10000 4.1 340 07:50 13.10.2019
6278 Clear 14 1022 72 10000 5.1 330 07:30 13.10.2019
6279 Clear 14 1022 72 10000 5.1 340 06:49 13.10.2019
6280 Clear 15 1022 72 10000 3.6 330 05:59 13.10.2019
6281 Clear 15 1022 77 10000 4.1 330 04:59 13.10.2019
6282 Clear 15 1022 77 10000 5.1 330 04:33 13.10.2019
6283 Clear 15 1023 77 10000 4.6 330 02:50 13.10.2019
6284 Clear 15 1023 77 10000 3.6 340 02:25 13.10.2019
6285 Clear 15 1023 77 10000 4.1 330 01:34 13.10.2019
6286 Clear 15 1023 77 10000 4.6 330 00:53 13.10.2019
6287 Clear 15 1023 77 10000 4.1 330 00:23 13.10.2019
6288 Clear 15 1023 77 10000 3.1 330 23:59 12.10.2019
6289 Clear 15 1023 77 10000 3.1 330 23:41 12.10.2019
6290 Clear 14 1023 77 10000 3.1 330 23:22 12.10.2019
6291 Clear 14 1023 77 10000 3.1 330 22:58 12.10.2019
6292 Clear 14 1023 77 10000 3.1 330 22:58 12.10.2019
6293 Clear 14 1023 77 10000 3.1 330 22:40 12.10.2019
6294 Clear 14 1023 77 10000 2.1 330 22:22 12.10.2019
6295 Clear 14 1023 72 10000 2.6 320 21:57 12.10.2019
6296 Clear 14 1023 72 10000 2.6 320 21:39 12.10.2019
6297 Clear 15 1023 68 10000 2.1 20 21:20 12.10.2019
6298 Clear 16 1023 72 10000 2.6 80 20:46 12.10.2019
6299 Clear 16 1023 72 10000 2.6 80 20:46 12.10.2019
6300 Clear 16 1023 72 10000 1.5 80 20:28 12.10.2019
6301 Clouds 16 1022 72 10000 2.1 90 19:57 12.10.2019
6302 Clear 17 1022 82 10000 1.01 47.255 19:36 12.10.2019
6303 Clouds 17 1022 68 10000 1.5 90 19:18 12.10.2019
6304 Clouds 17 1022 68 10000 1 110 18:42 12.10.2019
6305 Clouds 17 1022 68 10000 1 120 18:24 12.10.2019
6306 Clouds 18 1022 68 10000 2.1 130 17:46 12.10.2019
6307 Clouds 19 1022 68 10000 2.1 120 17:21 12.10.2019
6308 Clouds 18 1022 64 10000 2.1 150 16:58 12.10.2019
6309 Clouds 19 1022 64 10000 2.1 150 16:40 12.10.2019
6310 Clouds 18 1022 64 10000 2.1 140 16:20 12.10.2019
6311 Clouds 20 1022 60 10000 2.1 140 15:56 12.10.2019
6312 Clouds 20 1022 64 10000 2.6 130 15:37 12.10.2019
6313 Clouds 20 1022 64 10000 2.6 130 15:18 12.10.2019
6314 Clouds 19 1023 60 10000 1.5 130 14:39 12.10.2019
6315 Clouds 19 1023 64 10000 2.1 120 14:20 12.10.2019
6316 Clouds 19 1023 64 10000 2.1 120 13:50 12.10.2019
6317 Clouds 19 1024 64 10000 2.1 140 13:32 12.10.2019
6318 Clouds 20 1024 64 10000 2.1 140 12:55 12.10.2019
6319 Clouds 20 1024 64 10000 1.5 140 12:37 12.10.2019
6320 Clouds 17 1024 64 10000 1.5 140 12:19 12.10.2019
6321 Clouds 18 1024 64 10000 1.5 0 11:43 12.10.2019
6322 Clouds 18 1024 64 10000 1.5 0 11:43 12.10.2019
6323 Clouds 17 1023 55 10000 3.6 320 11:22 12.10.2019
6324 Clouds 18 1023 59 10000 4.6 330 10:58 12.10.2019
6325 Clouds 18 1023 59 10000 4.6 330 10:39 12.10.2019
6326 Clouds 17 1023 63 10000 4.6 330 10:20 12.10.2019
6327 Clouds 17 1023 63 10000 4.6 330 10:20 12.10.2019
6328 Clouds 16 1023 63 10000 5.7 330 09:57 12.10.2019
6329 Clouds 16 1023 63 10000 5.7 330 09:57 12.10.2019
6330 Clear 15 1023 67 10000 4.6 330 09:37 12.10.2019
6331 Clear 14 1023 67 10000 4.6 330 09:19 12.10.2019
6332 Clear 14 1023 67 10000 4.6 330 09:19 12.10.2019
6333 Clear 14 1022 67 10000 5.1 330 08:44 12.10.2019
6334 Clear 13 1022 71 10000 4.6 330 08:24 12.10.2019
6335 Clear 12 1022 71 10000 4.6 330 07:50 12.10.2019
6336 Clear 12 1022 67 10000 4.6 330 07:30 12.10.2019
6337 Clear 13 1022 72 10000 4.6 330 06:27 12.10.2019
6338 Clear 13 1022 72 10000 4.6 330 05:42 12.10.2019
6339 Clear 13 1022 72 10000 3.6 340 04:34 12.10.2019
6340 Clear 13 1023 72 10000 5.1 320 03:53 12.10.2019
6341 Clear 13 1023 77 10000 3.6 330 02:50 12.10.2019
6342 Clear 13 1023 77 10000 4.1 330 01:33 12.10.2019
6343 Clear 14 1023 77 10000 3.6 330 00:56 12.10.2019
6344 Clear 13 1023 77 10000 3.6 330 00:37 12.10.2019
6345 Clear 13 1023 77 10000 3.1 330 23:55 11.10.2019
6346 Clear 14 1023 77 10000 3.1 330 23:36 11.10.2019
6347 Clear 14 1023 77 10000 2.1 340 23:18 11.10.2019
6348 Clouds 13 1023 77 10000 3.6 320 22:38 11.10.2019
6349 Clouds 13 1023 77 10000 3.6 320 22:19 11.10.2019
6350 Clouds 15 1022 77 10000 2.6 310 21:44 11.10.2019
6351 Clear 14 1022 72 10000 0.5 120 21:22 11.10.2019
6352 Clear 14 1022 72 10000 1 0 20:59 11.10.2019
6353 Clear 14 1022 72 10000 1 0 20:41 11.10.2019
6354 Clear 15 1022 72 10000 1 130 20:23 11.10.2019
6355 Clear 16 1022 72 10000 1.5 100 19:56 11.10.2019
6356 Clouds 16 1022 64 10000 2.6 120 19:37 11.10.2019
6357 Clouds 16 1022 64 10000 2.6 120 19:18 11.10.2019
6358 Clouds 16 1022 64 10000 2.6 120 19:18 11.10.2019
6359 Clouds 16 1022 64 10000 2.6 120 19:18 11.10.2019
6360 Clouds 17 1022 64 10000 2.6 120 18:56 11.10.2019
6361 Clouds 17 1022 60 10000 2.6 120 18:37 11.10.2019
6362 Clouds 18 1022 60 10000 2.6 120 18:18 11.10.2019
6363 Clouds 18 1022 60 10000 2.6 120 17:57 11.10.2019
6364 Clouds 19 1022 60 10000 2.6 120 17:37 11.10.2019
6365 Clouds 20 1022 56 10000 3.1 100 17:18 11.10.2019
6366 Clouds 20 1022 56 10000 3.6 100 16:42 11.10.2019
6367 Clouds 20 1022 56 10000 2.6 100 16:21 11.10.2019
6368 Clear 21 1022 64 10000 3.1 170 15:59 11.10.2019
6369 Clouds 21 1023 64 10000 3.1 110 15:39 11.10.2019
6370 Clouds 20 1023 64 10000 3.1 110 15:19 11.10.2019
6371 Clouds 20 1023 60 10000 2.6 120 14:49 11.10.2019
6372 Clouds 21 1023 56 10000 3.1 110 14:30 11.10.2019
6373 Clouds 20 1023 64 10000 3.1 110 13:58 11.10.2019
6374 Clouds 21 1023 64 10000 3.1 110 13:40 11.10.2019
6375 Clouds 21 1023 64 10000 3.6 120 13:21 11.10.2019
6376 Clouds 21 1023 68 10000 3.1 120 12:56 11.10.2019
6377 Clouds 21 1023 68 10000 3.1 120 12:38 11.10.2019
6378 Clouds 19 1024 68 10000 2.1 100 12:19 11.10.2019
6379 Clouds 20 1023 64 10000 1 0 11:41 11.10.2019
6380 Clouds 20 1023 64 10000 1 0 11:41 11.10.2019
6381 Clouds 17 1023 60 10000 0.5 0 11:22 11.10.2019
6382 Clouds 20 1023 52 10000 3.1 330 10:59 11.10.2019
6383 Clouds 20 1023 52 10000 3.1 330 10:59 11.10.2019
6384 Clouds 19 1023 52 10000 3.1 330 10:41 11.10.2019
6385 Clouds 19 1023 59 10000 3.6 330 10:23 11.10.2019
6386 Clouds 18 1022 63 10000 3.6 330 09:57 11.10.2019
6387 Clouds 17 1022 63 10000 3.6 330 09:38 11.10.2019
6388 Clouds 16 1022 67 10000 4.6 340 09:20 11.10.2019
6389 Clouds 15 1022 72 10000 6.2 330 08:55 11.10.2019
6390 Clouds 14 1022 72 10000 6.2 330 08:37 11.10.2019
6391 Clouds 14 1021 72 10000 4.6 330 08:19 11.10.2019
6392 Clouds 13 1021 72 10000 3.6 340 07:44 11.10.2019
6393 Clouds 13 1021 72 10000 3.6 340 07:44 11.10.2019
6394 Clear 13 1021 72 10000 3.6 330 07:25 11.10.2019
6395 Clear 13 1021 72 10000 4.6 330 06:49 11.10.2019
6396 Clear 14 1021 72 10000 4.6 330 06:24 11.10.2019
6397 Clear 14 1021 77 10000 4.6 330 05:41 11.10.2019
6398 Clear 14 1021 72 10000 4.6 330 05:20 11.10.2019
6399 Clear 14 1021 72 10000 3.1 330 04:28 11.10.2019
6400 Clear 14 1020 77 10000 3.1 330 02:41 11.10.2019
6401 Clear 15 1020 82 10000 4.1 330 00:52 11.10.2019
6402 Clear 15 1019 82 10000 3.6 340 00:29 11.10.2019
6403 Clear 15 1019 77 10000 3.1 340 23:48 10.10.2019
6404 Clear 15 1019 82 10000 2.6 340 23:23 10.10.2019
6405 Clear 14 1019 82 10000 4.1 320 22:59 10.10.2019
6406 Clear 14 1019 82 10000 4.1 320 22:40 10.10.2019
6407 Clear 13 1018 77 10000 3.1 320 22:21 10.10.2019
6408 Clear 13 1018 77 10000 3.1 320 22:21 10.10.2019
6409 Clear 13 1018 77 10000 3.1 320 22:21 10.10.2019
6410 Clear 13 1018 77 10000 3.1 320 22:21 10.10.2019
6411 Clear 14 1018 77 10000 2.6 320 21:59 10.10.2019
6412 Clear 14 1018 77 10000 2.6 320 21:40 10.10.2019
6413 Clear 14 1018 77 10000 2.6 320 21:40 10.10.2019
6414 Clear 15 1018 77 10000 1.5 0 21:22 10.10.2019
6415 Clear 14 1017 77 10000 0.9 58.405 20:57 10.10.2019
6416 Clear 16 1017 77 10000 0.9 58.405 20:39 10.10.2019
6417 Clear 16 1017 72 10000 0.9 58.405 20:19 10.10.2019
6418 Clear 16 1017 72 10000 0.9 58.405 20:19 10.10.2019
6419 Clouds 16 1017 72 10000 1 0 19:55 10.10.2019
6420 Clouds 16 1016 72 10000 1 110 19:37 10.10.2019
6421 Clouds 16 1016 72 10000 1 110 19:19 10.10.2019
6422 Clouds 19 1016 72 10000 1 120 18:42 10.10.2019
6423 Clouds 18 1016 68 10000 1.5 0 18:20 10.10.2019
6424 Clouds 18 1016 68 10000 2.6 140 17:57 10.10.2019
6425 Clouds 20 1016 68 10000 2.6 140 17:37 10.10.2019
6426 Clouds 21 1015 68 10000 2.1 120 17:18 10.10.2019
6427 Clouds 21 1015 68 10000 2.1 120 17:18 10.10.2019
6428 Clouds 20 1015 64 10000 1.5 150 16:55 10.10.2019
6429 Clouds 20 1015 64 10000 1.5 150 16:37 10.10.2019
6430 Clouds 20 1015 64 10000 2.1 160 16:18 10.10.2019
6431 Clouds 21 1015 64 10000 2.6 170 15:39 10.10.2019
6432 Clouds 21 1015 64 10000 3.1 180 15:21 10.10.2019
6433 Clouds 21 1015 64 10000 3.1 180 14:56 10.10.2019
6434 Clouds 21 1015 64 10000 2.6 190 14:37 10.10.2019
6435 Clouds 21 1015 64 10000 2.6 190 14:19 10.10.2019
6436 Clouds 21 1015 68 10000 2.6 190 13:55 10.10.2019
6437 Clouds 21 1015 68 10000 2.6 190 13:37 10.10.2019
6438 Clouds 21 1015 68 10000 2.6 190 13:18 10.10.2019
6439 Clouds 21 1015 68 10000 2.1 240 12:42 10.10.2019
6440 Clouds 18 1016 60 10000 2.1 260 12:21 10.10.2019
6441 Clouds 19 1015 52 10000 2.1 310 11:58 10.10.2019
6442 Clouds 18 1015 52 10000 2.1 310 11:40 10.10.2019
6443 Clouds 17 1015 42 10000 4.1 320 11:19 10.10.2019
6444 Clouds 19 1015 45 10000 5.1 320 10:47 10.10.2019
6445 Clouds 18 1015 45 10000 5.1 320 10:28 10.10.2019
6446 Clouds 16 1014 48 10000 5.1 330 09:59 10.10.2019
6447 Clouds 16 1014 48 10000 5.1 330 09:41 10.10.2019
6448 Clouds 15 1014 51 10000 5.7 330 09:23 10.10.2019
6449 Clouds 13 1014 51 10000 5.1 330 08:59 10.10.2019
6450 Clouds 13 1014 51 10000 5.1 330 08:59 10.10.2019
6451 Clouds 13 1014 51 10000 5.1 330 08:39 10.10.2019
6452 Clouds 13 1013 54 10000 5.7 330 08:20 10.10.2019
6453 Clouds 12 1013 54 10000 4.6 330 07:47 10.10.2019
6454 Clouds 12 1013 51 10000 4.6 330 07:26 10.10.2019
6455 Clouds 12 1013 51 10000 4.6 330 06:55 10.10.2019
6456 Clouds 12 1013 54 10000 3.6 340 06:36 10.10.2019
6457 Clouds 14 1013 54 10000 4.1 330 05:50 10.10.2019
6458 Clouds 13 1013 55 10000 3.6 340 05:19 10.10.2019
6459 Clouds 14 1013 59 10000 5.7 320 04:35 10.10.2019
6460 Clouds 15 1014 72 10000 3.6 320 02:42 10.10.2019
6461 Clear 14 1013 77 10000 1 0 01:38 10.10.2019
6462 Clear 14 1013 77 10000 1 0 01:18 10.10.2019
6463 Clear 14 1013 82 10000 2.6 320 00:39 10.10.2019
6464 Clear 17 1012 77 10000 3.1 320 23:57 09.10.2019
6465 Clear 17 1012 77 10000 3.1 320 23:36 09.10.2019
6466 Clear 17 1012 77 10000 2.6 310 23:18 09.10.2019
6467 Clear 15 1012 77 10000 2.1 340 22:41 09.10.2019
6468 Clear 15 1012 68 10000 2.6 350 22:22 09.10.2019
6469 Clear 16 1012 60 10000 2.6 270 21:58 09.10.2019
6470 Clear 15 1012 60 10000 2.6 270 21:39 09.10.2019
6471 Clear 18 1012 60 10000 6.7 260 21:19 09.10.2019
6472 Clear 18 1012 64 10000 8.2 240 20:55 09.10.2019
6473 Clear 18 1012 64 10000 8.2 240 20:37 09.10.2019
6474 Clear 18 1012 64 10000 9.3 240 20:18 09.10.2019
6475 Clear 18 1012 64 10000 9.3 240 20:18 09.10.2019
6476 Clouds 17 1012 64 10000 9.8 230 19:45 09.10.2019
6477 Clouds 17 1012 64 10000 8.2 240 19:23 09.10.2019
6478 Clouds 17 1012 64 10000 6.7 240 18:58 09.10.2019
6479 Clouds 17 1012 64 10000 6.7 240 18:37 09.10.2019
6480 Clouds 19 1012 78 10000 7.2 210 18:18 09.10.2019
6481 Clouds 19 1013 73 10000 7.7 220 17:55 09.10.2019
6482 Clouds 20 1013 77 10000 7.2 210 17:36 09.10.2019
6483 Clouds 20 1013 77 10000 7.2 210 17:18 09.10.2019
6484 Clouds 20 1014 77 10000 5.1 220 16:40 09.10.2019
6485 Clouds 20 1014 77 10000 5.7 220 16:22 09.10.2019
6486 Clouds 20 1015 77 10000 5.7 200 15:58 09.10.2019
6487 Clouds 20 1015 77 10000 5.7 200 15:39 09.10.2019
6488 Clouds 20 1015 77 10000 4.1 210 15:20 09.10.2019
6489 Clouds 20 1015 73 10000 5.1 200 14:58 09.10.2019
6490 Clouds 20 1015 73 10000 5.1 200 14:40 09.10.2019
6491 Clouds 21 1015 73 10000 4.6 210 14:18 09.10.2019
6492 Clouds 21 1016 68 10000 4.1 200 13:40 09.10.2019
6493 Clouds 21 1016 68 10000 2.6 200 13:21 09.10.2019
6494 Clouds 20 1017 68 10000 2.1 180 12:59 09.10.2019
6495 Clouds 20 1017 68 10000 2.1 180 12:41 09.10.2019
6496 Clouds 20 1017 64 10000 1 0 12:21 09.10.2019
6497 Clouds 20 1017 64 10000 2.1 320 11:55 09.10.2019
6498 Clouds 20 1017 64 10000 2.1 320 11:37 09.10.2019
6499 Clouds 19 1018 60 10000 2.1 310 11:19 09.10.2019
6500 Clouds 19 1017 60 10000 4.1 330 10:44 09.10.2019
6501 Clouds 18 1017 63 10000 4.6 330 10:22 09.10.2019
6502 Clouds 17 1017 67 10000 3.6 330 09:59 09.10.2019
6503 Clouds 17 1017 67 10000 3.6 330 09:41 09.10.2019
6504 Clouds 17 1017 67 10000 3.6 330 09:41 09.10.2019
6505 Clouds 15 1017 67 10000 4.1 330 09:19 09.10.2019
6506 Clouds 15 1017 72 10000 3.6 330 08:55 09.10.2019
6507 Clouds 15 1017 72 10000 3.6 330 08:37 09.10.2019
6508 Clouds 14 1017 72 10000 4.6 330 08:18 09.10.2019
6509 Clouds 14 1017 72 10000 4.6 330 07:40 09.10.2019
6510 Clouds 13 1017 77 10000 4.1 330 07:22 09.10.2019
6511 Clouds 13 1017 77 10000 4.1 330 06:52 09.10.2019
6512 Clouds 13 1017 77 10000 4.1 330 06:52 09.10.2019
6513 Clouds 14 1017 77 10000 3.6 330 06:20 09.10.2019
6514 Clouds 14 1017 77 10000 4.1 330 05:46 09.10.2019
6515 Clouds 13 1017 72 10000 4.1 330 04:27 09.10.2019
6516 Clouds 14 1017 72 10000 4.1 330 02:54 09.10.2019
6517 Clouds 14 1017 77 10000 3.1 330 01:44 09.10.2019
6518 Clouds 14 1018 72 10000 3.6 330 01:21 09.10.2019
6519 Clouds 14 1018 72 10000 3.6 330 01:21 09.10.2019
6520 Clear 14 1018 72 10000 3.1 330 00:57 09.10.2019
6521 Clear 15 1018 72 10000 3.1 330 00:39 09.10.2019
6522 Clear 14 1018 72 10000 3.1 330 00:20 09.10.2019
6523 Clear 15 1018 72 10000 2.6 330 23:57 08.10.2019
6524 Clear 15 1018 72 10000 2.6 330 23:36 08.10.2019
6525 Clear 15 1018 72 10000 2.6 330 23:18 08.10.2019
6526 Clouds 14 1018 68 10000 2.6 330 22:39 08.10.2019
6527 Clouds 14 1018 68 10000 2.6 320 22:20 08.10.2019
6528 Clouds 14 1018 72 10000 2.1 320 21:57 08.10.2019
6529 Clouds 14 1018 72 10000 2.1 320 21:39 08.10.2019
6530 Clouds 16 1018 68 10000 2.1 300 21:19 08.10.2019
6531 Clear 16 1018 72 10000 4.1 220 20:57 08.10.2019
6532 Clear 16 1017 64 10000 3.6 210 20:39 08.10.2019
6533 Clear 16 1017 64 10000 3.6 210 20:21 08.10.2019
6534 Clear 17 1017 60 10000 3.6 210 19:58 08.10.2019
6535 Clear 18 1017 60 10000 3.6 210 19:40 08.10.2019
6536 Clear 17 1017 64 10000 4.1 210 19:21 08.10.2019
6537 Clear 19 1017 60 10000 4.1 210 18:55 08.10.2019
6538 Clear 19 1017 60 10000 4.1 210 18:55 08.10.2019
6539 Clear 18 1017 60 10000 4.1 210 18:36 08.10.2019
6540 Clear 18 1017 60 10000 4.6 210 18:18 08.10.2019
6541 Clear 19 1017 60 10000 4.1 200 17:55 08.10.2019
6542 Clear 19 1017 60 10000 4.1 200 17:36 08.10.2019
6543 Clear 20 1017 60 10000 4.6 190 17:18 08.10.2019
6544 Clear 21 1017 60 10000 4.6 190 16:40 08.10.2019
6545 Clear 21 1017 56 10000 4.6 190 16:22 08.10.2019
6546 Clear 21 1017 60 10000 4.6 190 15:56 08.10.2019
6547 Clear 20 1017 64 10000 4.1 180 15:37 08.10.2019
6548 Clear 20 1017 64 10000 4.1 180 15:19 08.10.2019
6549 Clear 20 1018 64 10000 4.1 190 14:42 08.10.2019
6550 Clear 20 1018 60 10000 3.6 170 14:21 08.10.2019
6551 Clear 21 1018 56 10000 3.1 160 13:57 08.10.2019
6552 Clear 20 1018 56 10000 3.1 160 13:39 08.10.2019
6553 Clear 20 1019 56 10000 3.1 170 13:20 08.10.2019
6554 Clear 20 1019 56 10000 2.6 150 12:59 08.10.2019
6555 Clear 20 1019 56 10000 2.6 150 12:38 08.10.2019
6556 Clear 19 1019 60 10000 2.1 150 12:19 08.10.2019
6557 Clear 20 1019 49 10000 1 0 11:43 08.10.2019
6558 Clear 20 1019 43 10000 2.6 330 11:24 08.10.2019
6559 Clear 19 1019 45 10000 3.6 330 10:59 08.10.2019
6560 Clear 19 1019 45 10000 3.6 330 10:40 08.10.2019
6561 Clear 19 1018 48 10000 4.6 330 10:21 08.10.2019
6562 Clear 18 1018 51 10000 5.1 330 09:58 08.10.2019
6563 Clear 16 1018 51 10000 5.1 330 09:39 08.10.2019
6564 Clear 15 1018 55 10000 5.1 330 09:20 08.10.2019
6565 Clear 13 1018 58 10000 5.1 330 08:44 08.10.2019
6566 Clear 12 1017 58 10000 5.1 330 08:25 08.10.2019
6567 Clear 11 1017 54 10000 5.7 330 07:47 08.10.2019
6568 Clear 11 1017 54 10000 6.2 330 07:23 08.10.2019
6569 Clear 11 1017 58 10000 4.6 340 06:57 08.10.2019
6570 Clear 11 1017 58 10000 4.6 340 06:36 08.10.2019
6571 Clear 13 1017 58 10000 4.6 340 05:59 08.10.2019
6572 Clear 13 1017 58 10000 4.6 340 05:40 08.10.2019
6573 Clear 14 1017 58 10000 4.6 340 05:40 08.10.2019
6574 Clear 14 1017 58 10000 4.6 330 04:56 08.10.2019
6575 Clear 14 1017 55 10000 4.6 330 03:31 08.10.2019
6576 Clear 15 1017 59 10000 4.1 330 02:41 08.10.2019
6577 Clear 15 1016 55 10000 4.1 340 01:58 08.10.2019
6578 Clear 15 1016 55 10000 4.1 340 01:40 08.10.2019
6579 Clear 13 1016 55 10000 4.6 320 00:55 08.10.2019
6580 Clear 16 1016 55 10000 5.1 330 00:23 08.10.2019
6581 Clear 16 1016 55 10000 5.1 320 23:56 07.10.2019
6582 Clear 16 1016 55 10000 5.1 320 23:37 07.10.2019
6583 Clear 16 1016 52 10000 5.1 320 23:19 07.10.2019
6584 Clear 14 1015 52 10000 4.6 320 22:54 07.10.2019
6585 Clear 14 1015 52 10000 4.1 320 22:36 07.10.2019
6586 Clear 14 1015 52 10000 4.1 320 22:18 07.10.2019
6587 Clear 15 1015 52 10000 3.6 280 21:54 07.10.2019
6588 Clear 17 1015 49 10000 3.6 290 21:36 07.10.2019
6589 Clear 17 1015 49 10000 3.6 290 21:18 07.10.2019
6590 Clear 17 1014 52 10000 4.1 290 20:54 07.10.2019
6591 Clear 18 1014 52 10000 3.6 290 20:36 07.10.2019
6592 Clear 18 1014 52 10000 3.6 290 20:18 07.10.2019
6593 Clear 14 1013 49 10000 4.1 260 19:41 07.10.2019
6594 Clear 20 1013 43 10000 4.6 240 19:20 07.10.2019
6595 Clear 15 1013 49 10000 3.6 230 18:59 07.10.2019
6596 Clear 15 1013 49 10000 3.6 230 18:59 07.10.2019
6597 Clear 15 1013 49 10000 3.6 230 18:40 07.10.2019
6598 Clear 21 1012 43 10000 4.6 230 18:19 07.10.2019
6599 Clear 21 1012 43 10000 4.6 230 18:19 07.10.2019
6600 Clear 22 1012 40 10000 4.1 220 17:56 07.10.2019
6601 Clear 22 1012 40 10000 4.1 220 17:38 07.10.2019
6602 Clear 22 1012 46 10000 3.6 220 17:18 07.10.2019
6603 Clouds 22 1011 46 10000 3.1 200 16:44 07.10.2019
6604 Clouds 22 1011 43 10000 3.1 180 16:25 07.10.2019
6605 Clouds 23 1011 49 10000 3.6 180 15:57 07.10.2019
6606 Clouds 23 1011 53 10000 5.7 180 15:38 07.10.2019
6607 Clouds 23 1011 53 10000 5.7 180 15:20 07.10.2019
6608 Clear 23 1010 38 10000 4.1 160 14:41 07.10.2019
6609 Clear 23 1010 53 10000 6.7 180 14:23 07.10.2019
6610 Clear 23 1010 56 10000 6.2 200 13:45 07.10.2019
6611 Clear 23 1010 44 10000 2.1 210 13:21 07.10.2019
6612 Clouds 22 1010 46 10000 4.1 240 12:58 07.10.2019
6613 Clouds 22 1010 46 10000 4.1 240 12:58 07.10.2019
6614 Clouds 22 1010 46 10000 4.1 240 12:40 07.10.2019
6615 Clouds 21 1010 49 10000 4.1 260 12:21 07.10.2019
6616 Clouds 21 1010 53 10000 4.6 250 11:59 07.10.2019
6617 Clouds 19 1010 53 10000 4.6 250 11:40 07.10.2019
6618 Clouds 20 1009 56 10000 5.1 250 11:21 07.10.2019
6619 Clouds 20 1009 64 10000 2.6 260 10:57 07.10.2019
6620 Clouds 19 1009 64 10000 2.6 260 10:39 07.10.2019
6621 Clouds 19 1008 68 10000 2.1 300 10:20 07.10.2019
6622 Clouds 18 1008 68 10000 3.6 320 09:39 07.10.2019
6623 Clouds 18 1008 68 10000 3.6 320 09:39 07.10.2019
6624 Clouds 16 1007 68 10000 1 300 09:21 07.10.2019
6625 Clouds 15 1006 72 10000 2.1 300 08:44 07.10.2019
6626 Clouds 15 1005 67 10000 1 0 08:21 07.10.2019
6627 Rain 14 1005 87 10000 1 0 07:56 07.10.2019
6628 Rain 14 1005 87 10000 1 0 07:38 07.10.2019
6629 Clouds 15 1004 77 10000 2.6 330 07:19 07.10.2019
6630 Clouds 15 1003 77 10000 4.6 320 06:43 07.10.2019
6631 Clouds 15 1003 77 10000 5.1 330 06:22 07.10.2019
6632 Clouds 15 1003 77 10000 4.6 330 05:27 07.10.2019
6633 Clouds 15 1003 77 10000 4.6 320 04:56 07.10.2019
6634 Clouds 15 1004 77 10000 3.6 330 04:19 07.10.2019
6635 Clouds 15 1004 82 10000 2.6 330 03:39 07.10.2019
6636 Clouds 15 1005 82 10000 3.6 330 03:39 07.10.2019
6637 Clouds 15 1006 77 10000 3.1 330 02:55 07.10.2019
6638 Clouds 16 1007 77 10000 3.6 330 02:20 07.10.2019
6639 Clouds 16 1007 77 10000 3.6 320 01:42 07.10.2019
6640 Clouds 16 1007 77 10000 2.6 330 01:18 07.10.2019
6641 Clouds 16 1009 77 10000 2.6 330 00:38 07.10.2019
6642 Clouds 16 1009 77 10000 2.6 330 00:19 07.10.2019
6643 Clouds 16 1009 77 10000 2.1 350 23:42 06.10.2019
6644 Clouds 17 1009 72 10000 2.6 10 23:21 06.10.2019
6645 Clouds 13 1010 72 10000 1.5 330 22:58 06.10.2019
6646 Clouds 15 1010 72 10000 1.5 330 22:40 06.10.2019
6647 Clouds 13 1010 77 10000 1 0 22:21 06.10.2019
6648 Clouds 13 1010 77 10000 1.49 347.555 21:57 06.10.2019
6649 Clouds 14 1010 77 10000 1.49 347.555 21:37 06.10.2019
6650 Clouds 16 1011 72 10000 0.7 44.136 21:19 06.10.2019
6651 Clear 16 1011 72 10000 0.5 0 20:57 06.10.2019
6652 Clear 18 1011 72 10000 0.5 0 20:39 06.10.2019
6653 Clear 18 1011 72 10000 0.5 200 20:20 06.10.2019
6654 Clouds 15 1011 68 10000 1 0 19:57 06.10.2019
6655 Clouds 15 1011 68 10000 1 0 19:57 06.10.2019
6656 Clouds 15 1011 72 10000 1.5 0 19:37 06.10.2019
6657 Clouds 15 1011 72 10000 1.5 0 19:19 06.10.2019
6658 Clouds 15 1011 72 10000 2.1 150 18:56 06.10.2019
6659 Clouds 15 1011 72 10000 2.1 150 18:38 06.10.2019
6660 Clouds 15 1011 72 10000 2.1 150 18:38 06.10.2019
6661 Clouds 19 1012 68 10000 2.6 170 18:19 06.10.2019
6662 Clouds 20 1012 64 10000 2.6 170 17:57 06.10.2019
6663 Clouds 20 1012 64 10000 2.6 170 17:38 06.10.2019
6664 Clouds 20 1012 64 10000 2.6 180 17:18 06.10.2019
6665 Clouds 20 1012 68 10000 2.6 170 16:42 06.10.2019
6666 Clouds 20 1012 68 10000 2.6 160 16:23 06.10.2019
6667 Clouds 20 1012 73 10000 3.1 160 15:45 06.10.2019
6668 Clouds 21 1012 73 10000 3.6 160 15:23 06.10.2019
6669 Clouds 20 1012 68 10000 3.6 150 14:59 06.10.2019
6670 Clouds 21 1012 68 10000 3.6 150 14:41 06.10.2019
6671 Clouds 21 1013 68 10000 3.6 150 14:23 06.10.2019
6672 Clouds 22 1013 64 10000 3.1 160 13:56 06.10.2019
6673 Clouds 22 1013 60 10000 2.6 160 13:37 06.10.2019
6674 Clouds 21 1013 60 10000 2.6 160 13:19 06.10.2019
6675 Clouds 22 1013 60 10000 2.1 170 12:56 06.10.2019
6676 Clouds 22 1013 60 10000 2.1 170 12:37 06.10.2019
6677 Clouds 21 1013 56 10000 2.6 180 12:19 06.10.2019
6678 Clouds 21 1014 49 10000 1.5 0 11:55 06.10.2019
6679 Clouds 21 1013 52 10000 1.5 0 11:36 06.10.2019
6680 Clouds 21 1013 52<